﻿<?xml version="1.0" encoding="utf-8"?><gpx creator="Garmin Desktop App" version="1.1" xsi:schemaLocation="http://www.topografix.com/GPX/1/1 http://www.topografix.com/GPX/1/1/gpx.xsd http://www.garmin.com/xmlschemas/WaypointExtension/v1 http://www8.garmin.com/xmlschemas/WaypointExtensionv1.xsd http://www.garmin.com/xmlschemas/TrackPointExtension/v1 http://www.garmin.com/xmlschemas/TrackPointExtensionv1.xsd http://www.garmin.com/xmlschemas/GpxExtensions/v3 http://www8.garmin.com/xmlschemas/GpxExtensionsv3.xsd http://www.garmin.com/xmlschemas/ActivityExtension/v1 http://www8.garmin.com/xmlschemas/ActivityExtensionv1.xsd http://www.garmin.com/xmlschemas/AdventuresExtensions/v1 http://www8.garmin.com/xmlschemas/AdventuresExtensionv1.xsd http://www.garmin.com/xmlschemas/PressureExtension/v1 http://www.garmin.com/xmlschemas/PressureExtensionv1.xsd http://www.garmin.com/xmlschemas/TripExtensions/v1 http://www.garmin.com/xmlschemas/TripExtensionsv1.xsd http://www.garmin.com/xmlschemas/TripMetaDataExtensions/v1 http://www.garmin.com/xmlschemas/TripMetaDataExtensionsv1.xsd http://www.garmin.com/xmlschemas/ViaPointTransportationModeExtensions/v1 http://www.garmin.com/xmlschemas/ViaPointTransportationModeExtensionsv1.xsd http://www.garmin.com/xmlschemas/CreationTimeExtension/v1 http://www.garmin.com/xmlschemas/CreationTimeExtensionsv1.xsd http://www.garmin.com/xmlschemas/AccelerationExtension/v1 http://www.garmin.com/xmlschemas/AccelerationExtensionv1.xsd http://www.garmin.com/xmlschemas/PowerExtension/v1 http://www.garmin.com/xmlschemas/PowerExtensionv1.xsd http://www.garmin.com/xmlschemas/VideoExtension/v1 http://www.garmin.com/xmlschemas/VideoExtensionv1.xsd" xmlns="http://www.topografix.com/GPX/1/1" xmlns:xsi="http://www.w3.org/2001/XMLSchema-instance" xmlns:wptx1="http://www.garmin.com/xmlschemas/WaypointExtension/v1" xmlns:gpxtrx="http://www.garmin.com/xmlschemas/GpxExtensions/v3" xmlns:gpxtpx="http://www.garmin.com/xmlschemas/TrackPointExtension/v1" xmlns:gpxx="http://www.garmin.com/xmlschemas/GpxExtensions/v3" xmlns:trp="http://www.garmin.com/xmlschemas/TripExtensions/v1" xmlns:adv="http://www.garmin.com/xmlschemas/AdventuresExtensions/v1" xmlns:prs="http://www.garmin.com/xmlschemas/PressureExtension/v1" xmlns:tmd="http://www.garmin.com/xmlschemas/TripMetaDataExtensions/v1" xmlns:vptm="http://www.garmin.com/xmlschemas/ViaPointTransportationModeExtensions/v1" xmlns:ctx="http://www.garmin.com/xmlschemas/CreationTimeExtension/v1" xmlns:gpxacc="http://www.garmin.com/xmlschemas/AccelerationExtension/v1" xmlns:gpxpx="http://www.garmin.com/xmlschemas/PowerExtension/v1" xmlns:vidx1="http://www.garmin.com/xmlschemas/VideoExtension/v1">

  <metadata>
    <link href="http://www.garmin.com">
      <text>Garmin International</text>
    </link>
    <time>2017-06-30T14:59:07Z</time>
    <bounds maxlat="63.437892012298107" maxlon="10.487544033676386" minlat="61.103365011513233" minlon="9.52961303293705" />
  </metadata>

  <trk>
    <name>Track vom: 30 JUN 2017 07:24</name>
    <extensions>
      <gpxx:TrackExtension>
        <gpxx:DisplayColor>DarkGray</gpxx:DisplayColor>
      </gpxx:TrackExtension>
    </extensions>
    <trkseg>
      <trkpt lat="63.432810986414552" lon="10.437901960685849">
        <ele>86.180000000000007</ele>
        <time>2017-06-30T05:24:38Z</time>
      </trkpt>
      <trkpt lat="63.432833030819893" lon="10.43790296651423">
        <ele>87.620000000000005</ele>
        <time>2017-06-30T05:25:46Z</time>
      </trkpt>
      <trkpt lat="63.432692969217896" lon="10.43809600174427">
        <ele>88.579999999999998</ele>
        <time>2017-06-30T05:25:53Z</time>
      </trkpt>
      <trkpt lat="63.432311005890369" lon="10.438214018940926">
        <ele>89.060000000000002</ele>
        <time>2017-06-30T05:26:00Z</time>
      </trkpt>
      <trkpt lat="63.432133980095387" lon="10.438198009505868">
        <ele>90.019999999999996</ele>
        <time>2017-06-30T05:26:03Z</time>
      </trkpt>
      <trkpt lat="63.431365024298429" lon="10.437655029818416">
        <ele>96.75</ele>
        <time>2017-06-30T05:26:16Z</time>
      </trkpt>
      <trkpt lat="63.430458018556237" lon="10.437600966542959">
        <ele>95.790000000000006</ele>
        <time>2017-06-30T05:26:29Z</time>
      </trkpt>
      <trkpt lat="63.430144032463431" lon="10.437813028693199">
        <ele>90.5</ele>
        <time>2017-06-30T05:26:39Z</time>
      </trkpt>
      <trkpt lat="63.430148977786303" lon="10.437878994271159">
        <ele>91.459999999999994</ele>
        <time>2017-06-30T05:26:41Z</time>
      </trkpt>
      <trkpt lat="63.430157024413347" lon="10.437925010919571">
        <ele>91.459999999999994</ele>
        <time>2017-06-30T05:26:42Z</time>
      </trkpt>
      <trkpt lat="63.430177979171276" lon="10.438001034781337">
        <ele>90.980000000000004</ele>
        <time>2017-06-30T05:26:43Z</time>
      </trkpt>
      <trkpt lat="63.430215027183294" lon="10.438084015622735">
        <ele>90.5</ele>
        <time>2017-06-30T05:26:44Z</time>
      </trkpt>
      <trkpt lat="63.430268000811338" lon="10.438164984807372">
        <ele>90.019999999999996</ele>
        <time>2017-06-30T05:26:45Z</time>
      </trkpt>
      <trkpt lat="63.430332038551569" lon="10.438237991183996">
        <ele>89.540000000000006</ele>
        <time>2017-06-30T05:26:46Z</time>
      </trkpt>
      <trkpt lat="63.43091499991715" lon="10.439335014671087">
        <ele>84.25</ele>
        <time>2017-06-30T05:26:56Z</time>
      </trkpt>
      <trkpt lat="63.431513970717788" lon="10.441808011382818">
        <ele>75.120000000000005</ele>
        <time>2017-06-30T05:27:11Z</time>
      </trkpt>
      <trkpt lat="63.432231964543462" lon="10.443863002583385">
        <ele>69.349999999999994</ele>
        <time>2017-06-30T05:27:25Z</time>
      </trkpt>
      <trkpt lat="63.432277981191874" lon="10.444021001458168">
        <ele>68.870000000000005</ele>
        <time>2017-06-30T05:27:26Z</time>
      </trkpt>
      <trkpt lat="63.432520972564816" lon="10.444697001948953">
        <ele>67.909999999999997</ele>
        <time>2017-06-30T05:27:31Z</time>
      </trkpt>
      <trkpt lat="63.433448011055589" lon="10.44722598977387">
        <ele>63.579999999999998</ele>
        <time>2017-06-30T05:27:49Z</time>
      </trkpt>
      <trkpt lat="63.433508025482297" lon="10.447345012798905">
        <ele>63.579999999999998</ele>
        <time>2017-06-30T05:27:50Z</time>
      </trkpt>
      <trkpt lat="63.433573991060257" lon="10.447452971711755">
        <ele>63.100000000000001</ele>
        <time>2017-06-30T05:27:51Z</time>
      </trkpt>
      <trkpt lat="63.433641968294978" lon="10.447554979473352">
        <ele>63.100000000000001</ele>
        <time>2017-06-30T05:27:52Z</time>
      </trkpt>
      <trkpt lat="63.433717992156744" lon="10.447639971971512">
        <ele>62.619999999999997</ele>
        <time>2017-06-30T05:27:53Z</time>
      </trkpt>
      <trkpt lat="63.433798039332032" lon="10.447717001661658">
        <ele>62.140000000000001</ele>
        <time>2017-06-30T05:27:54Z</time>
      </trkpt>
      <trkpt lat="63.433882026001811" lon="10.447770981118083">
        <ele>62.140000000000001</ele>
        <time>2017-06-30T05:27:55Z</time>
      </trkpt>
      <trkpt lat="63.433968024328351" lon="10.447820015251637">
        <ele>61.659999999999997</ele>
        <time>2017-06-30T05:27:56Z</time>
      </trkpt>
      <trkpt lat="63.434048993512988" lon="10.447869971394539">
        <ele>61.659999999999997</ele>
        <time>2017-06-30T05:27:57Z</time>
      </trkpt>
      <trkpt lat="63.435826962813735" lon="10.448613027110696">
        <ele>56.369999999999997</ele>
        <time>2017-06-30T05:28:18Z</time>
      </trkpt>
      <trkpt lat="63.436959022656083" lon="10.449061039835215">
        <ele>48.68</ele>
        <time>2017-06-30T05:28:32Z</time>
      </trkpt>
      <trkpt lat="63.437191033735871" lon="10.449157012626529">
        <ele>46.280000000000001</ele>
        <time>2017-06-30T05:28:39Z</time>
      </trkpt>
      <trkpt lat="63.437302010133862" lon="10.449128011241555">
        <ele>49.649999999999999</ele>
        <time>2017-06-30T05:29:25Z</time>
      </trkpt>
      <trkpt lat="63.437351966276765" lon="10.449067996814847">
        <ele>49.649999999999999</ele>
        <time>2017-06-30T05:29:26Z</time>
      </trkpt>
      <trkpt lat="63.437401000410318" lon="10.448964983224869">
        <ele>49.649999999999999</ele>
        <time>2017-06-30T05:29:27Z</time>
      </trkpt>
      <trkpt lat="63.437439976260066" lon="10.448821987956762">
        <ele>49.159999999999997</ele>
        <time>2017-06-30T05:29:28Z</time>
      </trkpt>
      <trkpt lat="63.437465960159898" lon="10.448656026273966">
        <ele>49.159999999999997</ele>
        <time>2017-06-30T05:29:29Z</time>
      </trkpt>
      <trkpt lat="63.437482975423336" lon="10.44847397133708">
        <ele>49.159999999999997</ele>
        <time>2017-06-30T05:29:30Z</time>
      </trkpt>
      <trkpt lat="63.437497979030013" lon="10.448270039632916">
        <ele>49.159999999999997</ele>
        <time>2017-06-30T05:29:31Z</time>
      </trkpt>
      <trkpt lat="63.437681961804628" lon="10.445396974682808">
        <ele>48.200000000000003</ele>
        <time>2017-06-30T05:29:44Z</time>
      </trkpt>
      <trkpt lat="63.437892012298107" lon="10.44185696169734">
        <ele>37.630000000000003</ele>
        <time>2017-06-30T05:29:59Z</time>
      </trkpt>
      <trkpt lat="63.437879020348191" lon="10.441625034436584">
        <ele>36.670000000000002</ele>
        <time>2017-06-30T05:30:00Z</time>
      </trkpt>
      <trkpt lat="63.437858987599611" lon="10.441393023356795">
        <ele>34.259999999999998</ele>
        <time>2017-06-30T05:30:01Z</time>
      </trkpt>
      <trkpt lat="63.437385996803641" lon="10.438493974506855">
        <ele>27.050000000000001</ele>
        <time>2017-06-30T05:30:14Z</time>
      </trkpt>
      <trkpt lat="63.437031023204327" lon="10.436292970553041">
        <ele>25.129999999999999</ele>
        <time>2017-06-30T05:30:26Z</time>
      </trkpt>
      <trkpt lat="63.437022976577282" lon="10.436003040522337">
        <ele>25.129999999999999</ele>
        <time>2017-06-30T05:30:31Z</time>
      </trkpt>
      <trkpt lat="63.436944019049406" lon="10.434576021507382">
        <ele>24.170000000000002</ele>
        <time>2017-06-30T05:30:39Z</time>
      </trkpt>
      <trkpt lat="63.436808986589313" lon="10.432028006762266">
        <ele>25.609999999999999</ele>
        <time>2017-06-30T05:30:53Z</time>
      </trkpt>
      <trkpt lat="63.436746038496494" lon="10.431203981861472">
        <ele>22.25</ele>
        <time>2017-06-30T05:30:59Z</time>
      </trkpt>
      <trkpt lat="63.43671896494925" lon="10.431076996028423">
        <ele>22.25</ele>
        <time>2017-06-30T05:31:00Z</time>
      </trkpt>
      <trkpt lat="63.436679989099503" lon="10.430969037115574">
        <ele>21.77</ele>
        <time>2017-06-30T05:31:01Z</time>
      </trkpt>
      <trkpt lat="63.436623997986317" lon="10.430893013253808">
        <ele>22.25</ele>
        <time>2017-06-30T05:31:02Z</time>
      </trkpt>
      <trkpt lat="63.436554009094834" lon="10.430864011868834">
        <ele>21.77</ele>
        <time>2017-06-30T05:31:03Z</time>
      </trkpt>
      <trkpt lat="63.436473039910197" lon="10.430851019918919">
        <ele>21.77</ele>
        <time>2017-06-30T05:31:04Z</time>
      </trkpt>
      <trkpt lat="63.436388969421387" lon="10.430836016312242">
        <ele>21.77</ele>
        <time>2017-06-30T05:31:05Z</time>
      </trkpt>
      <trkpt lat="63.436299031600356" lon="10.430805003270507">
        <ele>21.77</ele>
        <time>2017-06-30T05:31:06Z</time>
      </trkpt>
      <trkpt lat="63.436206998303533" lon="10.430751023814082">
        <ele>21.77</ele>
        <time>2017-06-30T05:31:07Z</time>
      </trkpt>
      <trkpt lat="63.436119994148612" lon="10.430673994123936">
        <ele>22.25</ele>
        <time>2017-06-30T05:31:08Z</time>
      </trkpt>
      <trkpt lat="63.436037013307214" lon="10.430569974705577">
        <ele>22.25</ele>
        <time>2017-06-30T05:31:09Z</time>
      </trkpt>
      <trkpt lat="63.435961995273829" lon="10.430460004135966">
        <ele>22.73</ele>
        <time>2017-06-30T05:31:10Z</time>
      </trkpt>
      <trkpt lat="63.435893012210727" lon="10.430337963625789">
        <ele>23.210000000000001</ele>
        <time>2017-06-30T05:31:11Z</time>
      </trkpt>
      <trkpt lat="63.435829980298877" lon="10.430207038298249">
        <ele>23.210000000000001</ele>
        <time>2017-06-30T05:31:12Z</time>
      </trkpt>
      <trkpt lat="63.435251964256167" lon="10.429240018129349">
        <ele>26.09</ele>
        <time>2017-06-30T05:31:20Z</time>
      </trkpt>
      <trkpt lat="63.43516998924315" lon="10.429170029237866">
        <ele>26.57</ele>
        <time>2017-06-30T05:31:21Z</time>
      </trkpt>
      <trkpt lat="63.43508399091661" lon="10.429122000932693">
        <ele>27.050000000000001</ele>
        <time>2017-06-30T05:31:22Z</time>
      </trkpt>
      <trkpt lat="63.434995980933309" lon="10.429095011204481">
        <ele>28.02</ele>
        <time>2017-06-30T05:31:23Z</time>
      </trkpt>
      <trkpt lat="63.434904031455517" lon="10.429074978455901">
        <ele>28.98</ele>
        <time>2017-06-30T05:31:24Z</time>
      </trkpt>
      <trkpt lat="63.434813003987074" lon="10.429083025082946">
        <ele>29.460000000000001</ele>
        <time>2017-06-30T05:31:25Z</time>
      </trkpt>
      <trkpt lat="63.43472097069025" lon="10.429090987890959">
        <ele>29.460000000000001</ele>
        <time>2017-06-30T05:31:26Z</time>
      </trkpt>
      <trkpt lat="63.433999959379435" lon="10.429145973175764">
        <ele>36.189999999999998</ele>
        <time>2017-06-30T05:31:34Z</time>
      </trkpt>
      <trkpt lat="63.433916978538036" lon="10.42907003313303">
        <ele>37.630000000000003</ele>
        <time>2017-06-30T05:31:35Z</time>
      </trkpt>
      <trkpt lat="63.433842966333032" lon="10.428932989016175">
        <ele>38.590000000000003</ele>
        <time>2017-06-30T05:31:36Z</time>
      </trkpt>
      <trkpt lat="63.433790998533368" lon="10.428767027333379">
        <ele>39.549999999999997</ele>
        <time>2017-06-30T05:31:37Z</time>
      </trkpt>
      <trkpt lat="63.433740958571434" lon="10.428583966568112">
        <ele>40.030000000000001</ele>
        <time>2017-06-30T05:31:38Z</time>
      </trkpt>
      <trkpt lat="63.432984994724393" lon="10.4261289909482">
        <ele>47.240000000000002</ele>
        <time>2017-06-30T05:31:52Z</time>
      </trkpt>
      <trkpt lat="63.432802017778158" lon="10.425620963796973">
        <ele>47.240000000000002</ele>
        <time>2017-06-30T05:31:55Z</time>
      </trkpt>
      <trkpt lat="63.43183902092278" lon="10.42305601760745">
        <ele>51.57</ele>
        <time>2017-06-30T05:32:11Z</time>
      </trkpt>
      <trkpt lat="63.430860014632344" lon="10.420501967892051">
        <ele>53.490000000000002</ele>
        <time>2017-06-30T05:32:26Z</time>
      </trkpt>
      <trkpt lat="63.429814958944917" lon="10.417739041149616">
        <ele>51.090000000000003</ele>
        <time>2017-06-30T05:32:42Z</time>
      </trkpt>
      <trkpt lat="63.429259993135929" lon="10.416212026029825">
        <ele>53.009999999999998</ele>
        <time>2017-06-30T05:32:51Z</time>
      </trkpt>
      <trkpt lat="63.42917600646615" lon="10.416079005226493">
        <ele>53.009999999999998</ele>
        <time>2017-06-30T05:32:52Z</time>
      </trkpt>
      <trkpt lat="63.429094031453133" lon="10.415995018556714">
        <ele>52.530000000000001</ele>
        <time>2017-06-30T05:32:53Z</time>
      </trkpt>
      <trkpt lat="63.428997974842787" lon="10.415964005514979">
        <ele>52.049999999999997</ele>
        <time>2017-06-30T05:32:54Z</time>
      </trkpt>
      <trkpt lat="63.428900996223092" lon="10.415966017171741">
        <ele>51.57</ele>
        <time>2017-06-30T05:32:55Z</time>
      </trkpt>
      <trkpt lat="63.428802005946636" lon="10.415984038263559">
        <ele>52.530000000000001</ele>
        <time>2017-06-30T05:32:56Z</time>
      </trkpt>
      <trkpt lat="63.428707960993052" lon="10.416022008284926">
        <ele>53.490000000000002</ele>
        <time>2017-06-30T05:32:57Z</time>
      </trkpt>
      <trkpt lat="63.427050020545721" lon="10.416513020172715">
        <ele>59.259999999999998</ele>
        <time>2017-06-30T05:33:14Z</time>
      </trkpt>
      <trkpt lat="63.426143014803529" lon="10.416744025424123">
        <ele>63.100000000000001</ele>
        <time>2017-06-30T05:33:26Z</time>
      </trkpt>
      <trkpt lat="63.425188986584544" lon="10.416964972391725">
        <ele>65.989999999999995</ele>
        <time>2017-06-30T05:33:39Z</time>
      </trkpt>
      <trkpt lat="63.425104999914765" lon="10.416938988491893">
        <ele>66.469999999999999</ele>
        <time>2017-06-30T05:33:40Z</time>
      </trkpt>
      <trkpt lat="63.425025036558509" lon="10.416901018470526">
        <ele>66.469999999999999</ele>
        <time>2017-06-30T05:33:41Z</time>
      </trkpt>
      <trkpt lat="63.424952030181885" lon="10.416842009872198">
        <ele>66.469999999999999</ele>
        <time>2017-06-30T05:33:42Z</time>
      </trkpt>
      <trkpt lat="63.424883969128132" lon="10.41678300127387">
        <ele>66.469999999999999</ele>
        <time>2017-06-30T05:33:43Z</time>
      </trkpt>
      <trkpt lat="63.424825966358185" lon="10.416726004332304">
        <ele>66.469999999999999</ele>
        <time>2017-06-30T05:33:44Z</time>
      </trkpt>
      <trkpt lat="63.424623040482402" lon="10.416477983817458">
        <ele>66.469999999999999</ele>
        <time>2017-06-30T05:33:52Z</time>
      </trkpt>
      <trkpt lat="63.424201011657715" lon="10.416016979143023">
        <ele>65.510000000000005</ele>
        <time>2017-06-30T05:34:01Z</time>
      </trkpt>
      <trkpt lat="63.423443958163261" lon="10.415092036128044">
        <ele>63.100000000000001</ele>
        <time>2017-06-30T05:34:11Z</time>
      </trkpt>
      <trkpt lat="63.423145981505513" lon="10.414602030068636">
        <ele>60.700000000000003</ele>
        <time>2017-06-30T05:34:16Z</time>
      </trkpt>
      <trkpt lat="63.42294598929584" lon="10.414152005687356">
        <ele>58.780000000000001</ele>
        <time>2017-06-30T05:34:20Z</time>
      </trkpt>
      <trkpt lat="63.422468975186348" lon="10.412787012755871">
        <ele>54.93</ele>
        <time>2017-06-30T05:34:32Z</time>
      </trkpt>
      <trkpt lat="63.422427987679839" lon="10.412687016651034">
        <ele>54.450000000000003</ele>
        <time>2017-06-30T05:34:33Z</time>
      </trkpt>
      <trkpt lat="63.422379037365317" lon="10.412604035809636">
        <ele>53.969999999999999</ele>
        <time>2017-06-30T05:34:34Z</time>
      </trkpt>
      <trkpt lat="63.422316005453467" lon="10.412551984190941">
        <ele>53.969999999999999</ele>
        <time>2017-06-30T05:34:35Z</time>
      </trkpt>
      <trkpt lat="63.422254985198379" lon="10.412522982805967">
        <ele>53.969999999999999</ele>
        <time>2017-06-30T05:34:36Z</time>
      </trkpt>
      <trkpt lat="63.42219396494329" lon="10.412510996684432">
        <ele>54.450000000000003</ele>
        <time>2017-06-30T05:34:37Z</time>
      </trkpt>
      <trkpt lat="63.422132022678852" lon="10.412501022219658">
        <ele>54.450000000000003</ele>
        <time>2017-06-30T05:34:38Z</time>
      </trkpt>
      <trkpt lat="63.42139801941812" lon="10.412177983671427">
        <ele>61.18</ele>
        <time>2017-06-30T05:34:52Z</time>
      </trkpt>
      <trkpt lat="63.420352963730693" lon="10.411654030904174">
        <ele>67.430000000000007</ele>
        <time>2017-06-30T05:35:11Z</time>
      </trkpt>
      <trkpt lat="63.419995978474617" lon="10.411583036184311">
        <ele>71.269999999999996</ele>
        <time>2017-06-30T05:35:17Z</time>
      </trkpt>
      <trkpt lat="63.419879972934723" lon="10.41162796318531">
        <ele>73.200000000000003</ele>
        <time>2017-06-30T05:35:19Z</time>
      </trkpt>
      <trkpt lat="63.41982901096344" lon="10.411673979833722">
        <ele>74.640000000000001</ele>
        <time>2017-06-30T05:35:20Z</time>
      </trkpt>
      <trkpt lat="63.419095007702708" lon="10.412537986412644">
        <ele>75.599999999999994</ele>
        <time>2017-06-30T05:35:35Z</time>
      </trkpt>
      <trkpt lat="63.418798036873341" lon="10.412927996367216">
        <ele>77.040000000000006</ele>
        <time>2017-06-30T05:35:46Z</time>
      </trkpt>
      <trkpt lat="63.418659986928105" lon="10.413094041869044">
        <ele>78</ele>
        <time>2017-06-30T05:35:53Z</time>
      </trkpt>
      <trkpt lat="63.418600978329778" lon="10.41312899440527">
        <ele>78</ele>
        <time>2017-06-30T05:35:54Z</time>
      </trkpt>
      <trkpt lat="63.418536018580198" lon="10.413132011890411">
        <ele>78</ele>
        <time>2017-06-30T05:35:55Z</time>
      </trkpt>
      <trkpt lat="63.418468963354826" lon="10.413099993020296">
        <ele>77.519999999999996</ele>
        <time>2017-06-30T05:35:56Z</time>
      </trkpt>
      <trkpt lat="63.418409032747149" lon="10.413054982200265">
        <ele>77.040000000000006</ele>
        <time>2017-06-30T05:35:57Z</time>
      </trkpt>
      <trkpt lat="63.418349018320441" lon="10.412993961945176">
        <ele>76.560000000000002</ele>
        <time>2017-06-30T05:35:58Z</time>
      </trkpt>
      <trkpt lat="63.417389038950205" lon="10.412176977843046">
        <ele>68.390000000000001</ele>
        <time>2017-06-30T05:36:10Z</time>
      </trkpt>
      <trkpt lat="63.415909968316555" lon="10.411380026489496">
        <ele>56.369999999999997</ele>
        <time>2017-06-30T05:36:27Z</time>
      </trkpt>
      <trkpt lat="63.414848987013102" lon="10.411393018439412">
        <ele>50.609999999999999</ele>
        <time>2017-06-30T05:36:37Z</time>
      </trkpt>
      <trkpt lat="63.413995038717985" lon="10.411741035059094">
        <ele>47.719999999999999</ele>
        <time>2017-06-30T05:36:46Z</time>
      </trkpt>
      <trkpt lat="63.413654984906316" lon="10.411790991201997">
        <ele>47.240000000000002</ele>
        <time>2017-06-30T05:36:54Z</time>
      </trkpt>
      <trkpt lat="63.413433032110333" lon="10.411554034799337">
        <ele>46.759999999999998</ele>
        <time>2017-06-30T05:37:03Z</time>
      </trkpt>
      <trkpt lat="63.413235973566771" lon="10.41100200265646">
        <ele>45.32</ele>
        <time>2017-06-30T05:37:10Z</time>
      </trkpt>
      <trkpt lat="63.412903966382146" lon="10.409367028623819">
        <ele>42.439999999999998</ele>
        <time>2017-06-30T05:37:19Z</time>
      </trkpt>
      <trkpt lat="63.412836994975805" lon="10.408780965954065">
        <ele>41.469999999999999</ele>
        <time>2017-06-30T05:37:23Z</time>
      </trkpt>
      <trkpt lat="63.412800030782819" lon="10.408683987334371">
        <ele>41.469999999999999</ele>
        <time>2017-06-30T05:37:24Z</time>
      </trkpt>
      <trkpt lat="63.412749990820885" lon="10.408615004271269">
        <ele>41.469999999999999</ele>
        <time>2017-06-30T05:37:25Z</time>
      </trkpt>
      <trkpt lat="63.412690982222557" lon="10.408586002886295">
        <ele>41.469999999999999</ele>
        <time>2017-06-30T05:37:26Z</time>
      </trkpt>
      <trkpt lat="63.412623004987836" lon="10.408589020371437">
        <ele>41.469999999999999</ele>
        <time>2017-06-30T05:37:27Z</time>
      </trkpt>
      <trkpt lat="63.412549998611212" lon="10.408600000664592">
        <ele>40.990000000000002</ele>
        <time>2017-06-30T05:37:28Z</time>
      </trkpt>
      <trkpt lat="63.412407003343105" lon="10.408610980957747">
        <ele>40.030000000000001</ele>
        <time>2017-06-30T05:37:30Z</time>
      </trkpt>
      <trkpt lat="63.412340031936765" lon="10.408569993451238">
        <ele>39.549999999999997</ele>
        <time>2017-06-30T05:37:31Z</time>
      </trkpt>
      <trkpt lat="63.412281023338437" lon="10.408492041751742">
        <ele>39.07</ele>
        <time>2017-06-30T05:37:32Z</time>
      </trkpt>
      <trkpt lat="63.412228971719742" lon="10.408386010676622">
        <ele>39.07</ele>
        <time>2017-06-30T05:37:33Z</time>
      </trkpt>
      <trkpt lat="63.412181027233601" lon="10.408256007358432">
        <ele>38.590000000000003</ele>
        <time>2017-06-30T05:37:34Z</time>
      </trkpt>
      <trkpt lat="63.411994026973844" lon="10.407859962433577">
        <ele>36.189999999999998</ele>
        <time>2017-06-30T05:37:37Z</time>
      </trkpt>
      <trkpt lat="63.411915991455317" lon="10.407748986035585">
        <ele>35.710000000000001</ele>
        <time>2017-06-30T05:37:38Z</time>
      </trkpt>
      <trkpt lat="63.411676017567515" lon="10.407486967742443">
        <ele>33.780000000000001</ele>
        <time>2017-06-30T05:37:41Z</time>
      </trkpt>
      <trkpt lat="63.410513028502464" lon="10.406996039673686">
        <ele>33.780000000000001</ele>
        <time>2017-06-30T05:37:53Z</time>
      </trkpt>
      <trkpt lat="63.409845996648073" lon="10.406589014455676">
        <ele>31.859999999999999</ele>
        <time>2017-06-30T05:38:00Z</time>
      </trkpt>
      <trkpt lat="63.409758992493153" lon="10.406475020572543">
        <ele>31.379999999999999</ele>
        <time>2017-06-30T05:38:01Z</time>
      </trkpt>
      <trkpt lat="63.409680034965277" lon="10.406337976455688">
        <ele>30.899999999999999</ele>
        <time>2017-06-30T05:38:02Z</time>
      </trkpt>
      <trkpt lat="63.409609040245414" lon="10.406176038086414">
        <ele>30.420000000000002</ele>
        <time>2017-06-30T05:38:03Z</time>
      </trkpt>
      <trkpt lat="63.40953997336328" lon="10.406008986756206">
        <ele>29.940000000000001</ele>
        <time>2017-06-30T05:38:04Z</time>
      </trkpt>
      <trkpt lat="63.409476019442081" lon="10.405832966789603">
        <ele>29.460000000000001</ele>
        <time>2017-06-30T05:38:05Z</time>
      </trkpt>
      <trkpt lat="63.408847963437438" lon="10.403788033872843">
        <ele>27.530000000000001</ele>
        <time>2017-06-30T05:38:17Z</time>
      </trkpt>
      <trkpt lat="63.408779986202717" lon="10.403529033064842">
        <ele>28.02</ele>
        <time>2017-06-30T05:38:19Z</time>
      </trkpt>
      <trkpt lat="63.408760037273169" lon="10.403404980897903">
        <ele>28.5</ele>
        <time>2017-06-30T05:38:20Z</time>
      </trkpt>
      <trkpt lat="63.408676972612739" lon="10.403022011741996">
        <ele>28.98</ele>
        <time>2017-06-30T05:38:23Z</time>
      </trkpt>
      <trkpt lat="63.408429035916924" lon="10.402078963816166">
        <ele>25.609999999999999</ele>
        <time>2017-06-30T05:38:30Z</time>
      </trkpt>
      <trkpt lat="63.408406991511583" lon="10.401922976598144">
        <ele>25.129999999999999</ele>
        <time>2017-06-30T05:38:31Z</time>
      </trkpt>
      <trkpt lat="63.408351000398397" lon="10.401485022157431">
        <ele>24.170000000000002</ele>
        <time>2017-06-30T05:38:34Z</time>
      </trkpt>
      <trkpt lat="63.40831596404314" lon="10.401374967768788">
        <ele>24.649999999999999</ele>
        <time>2017-06-30T05:38:35Z</time>
      </trkpt>
      <trkpt lat="63.408261984586716" lon="10.401288969442248">
        <ele>24.649999999999999</ele>
        <time>2017-06-30T05:38:36Z</time>
      </trkpt>
      <trkpt lat="63.408199036493897" lon="10.401229038834572">
        <ele>25.129999999999999</ele>
        <time>2017-06-30T05:38:37Z</time>
      </trkpt>
      <trkpt lat="63.408131981268525" lon="10.401185033842921">
        <ele>25.609999999999999</ele>
        <time>2017-06-30T05:38:38Z</time>
      </trkpt>
      <trkpt lat="63.408060986548662" lon="10.401146980002522">
        <ele>25.609999999999999</ele>
        <time>2017-06-30T05:38:39Z</time>
      </trkpt>
      <trkpt lat="63.406805964186788" lon="10.400569969788194">
        <ele>32.82</ele>
        <time>2017-06-30T05:38:53Z</time>
      </trkpt>
      <trkpt lat="63.405513977631927" lon="10.399992959573865">
        <ele>38.109999999999999</ele>
        <time>2017-06-30T05:39:08Z</time>
      </trkpt>
      <trkpt lat="63.405085997655988" lon="10.399715015664697">
        <ele>38.590000000000003</ele>
        <time>2017-06-30T05:39:13Z</time>
      </trkpt>
      <trkpt lat="63.405009973794222" lon="10.399632034823298">
        <ele>39.549999999999997</ele>
        <time>2017-06-30T05:39:14Z</time>
      </trkpt>
      <trkpt lat="63.404932022094727" lon="10.399537989869714">
        <ele>40.030000000000001</ele>
        <time>2017-06-30T05:39:15Z</time>
      </trkpt>
      <trkpt lat="63.404512004926801" lon="10.398769034072757">
        <ele>43.399999999999999</ele>
        <time>2017-06-30T05:39:22Z</time>
      </trkpt>
      <trkpt lat="63.404446039348841" lon="10.398698961362243">
        <ele>43.880000000000003</ele>
        <time>2017-06-30T05:39:23Z</time>
      </trkpt>
      <trkpt lat="63.404376972466707" lon="10.398684041574597">
        <ele>43.399999999999999</ele>
        <time>2017-06-30T05:39:24Z</time>
      </trkpt>
      <trkpt lat="63.404299020767212" lon="10.39871203713119">
        <ele>43.399999999999999</ele>
        <time>2017-06-30T05:39:25Z</time>
      </trkpt>
      <trkpt lat="63.404221991077065" lon="10.398758975788951">
        <ele>43.880000000000003</ele>
        <time>2017-06-30T05:39:26Z</time>
      </trkpt>
      <trkpt lat="63.403218006715178" lon="10.399214029312134">
        <ele>47.719999999999999</ele>
        <time>2017-06-30T05:39:37Z</time>
      </trkpt>
      <trkpt lat="63.402463970705867" lon="10.400354973971844">
        <ele>50.130000000000003</ele>
        <time>2017-06-30T05:39:46Z</time>
      </trkpt>
      <trkpt lat="63.4012689627707" lon="10.402069995179772">
        <ele>43.880000000000003</ele>
        <time>2017-06-30T05:40:00Z</time>
      </trkpt>
      <trkpt lat="63.400215022265911" lon="10.403302973136306">
        <ele>46.759999999999998</ele>
        <time>2017-06-30T05:40:14Z</time>
      </trkpt>
      <trkpt lat="63.399680005386472" lon="10.403936980292201">
        <ele>47.240000000000002</ele>
        <time>2017-06-30T05:40:22Z</time>
      </trkpt>
      <trkpt lat="63.399622002616525" lon="10.403950978070498">
        <ele>47.240000000000002</ele>
        <time>2017-06-30T05:40:23Z</time>
      </trkpt>
      <trkpt lat="63.399561988189816" lon="10.40393496863544">
        <ele>47.240000000000002</ele>
        <time>2017-06-30T05:40:24Z</time>
      </trkpt>
      <trkpt lat="63.39950499124825" lon="10.403887024149299">
        <ele>47.719999999999999</ele>
        <time>2017-06-30T05:40:25Z</time>
      </trkpt>
      <trkpt lat="63.399451011791825" lon="10.403798008337617">
        <ele>47.719999999999999</ele>
        <time>2017-06-30T05:40:26Z</time>
      </trkpt>
      <trkpt lat="63.399402983486652" lon="10.403691977262497">
        <ele>48.200000000000003</ele>
        <time>2017-06-30T05:40:27Z</time>
      </trkpt>
      <trkpt lat="63.399361995980144" lon="10.403550993651152">
        <ele>48.200000000000003</ele>
        <time>2017-06-30T05:40:28Z</time>
      </trkpt>
      <trkpt lat="63.399321008473635" lon="10.40339701808989">
        <ele>48.68</ele>
        <time>2017-06-30T05:40:29Z</time>
      </trkpt>
      <trkpt lat="63.399281026795506" lon="10.40322502143681">
        <ele>48.200000000000003</ele>
        <time>2017-06-30T05:40:30Z</time>
      </trkpt>
      <trkpt lat="63.398799989372492" lon="10.401130970567465">
        <ele>47.719999999999999</ele>
        <time>2017-06-30T05:40:42Z</time>
      </trkpt>
      <trkpt lat="63.398333033546805" lon="10.399288963526487">
        <ele>48.68</ele>
        <time>2017-06-30T05:40:54Z</time>
      </trkpt>
      <trkpt lat="63.398211998865008" lon="10.398957962170243">
        <ele>48.200000000000003</ele>
        <time>2017-06-30T05:40:56Z</time>
      </trkpt>
      <trkpt lat="63.398141004145145" lon="10.398804992437363">
        <ele>48.200000000000003</ele>
        <time>2017-06-30T05:40:57Z</time>
      </trkpt>
      <trkpt lat="63.398063974454999" lon="10.398655040189624">
        <ele>48.200000000000003</ele>
        <time>2017-06-30T05:40:58Z</time>
      </trkpt>
      <trkpt lat="63.397980993613601" lon="10.398512966930866">
        <ele>48.200000000000003</ele>
        <time>2017-06-30T05:40:59Z</time>
      </trkpt>
      <trkpt lat="63.39789398945868" lon="10.398376006633043">
        <ele>47.719999999999999</ele>
        <time>2017-06-30T05:41:00Z</time>
      </trkpt>
      <trkpt lat="63.396939961239696" lon="10.396741032600403">
        <ele>41.950000000000003</ele>
        <time>2017-06-30T05:41:11Z</time>
      </trkpt>
      <trkpt lat="63.396885981783271" lon="10.396547997370362">
        <ele>41.469999999999999</ele>
        <time>2017-06-30T05:41:12Z</time>
      </trkpt>
      <trkpt lat="63.39683803729713" lon="10.396352028474212">
        <ele>40.990000000000002</ele>
        <time>2017-06-30T05:41:13Z</time>
      </trkpt>
      <trkpt lat="63.396795960143209" lon="10.396147007122636">
        <ele>40.509999999999998</ele>
        <time>2017-06-30T05:41:14Z</time>
      </trkpt>
      <trkpt lat="63.396761007606983" lon="10.395929999649525">
        <ele>40.030000000000001</ele>
        <time>2017-06-30T05:41:15Z</time>
      </trkpt>
      <trkpt lat="63.396738041192293" lon="10.395711986348033">
        <ele>39.549999999999997</ele>
        <time>2017-06-30T05:41:16Z</time>
      </trkpt>
      <trkpt lat="63.396719014272094" lon="10.395483998581767">
        <ele>39.07</ele>
        <time>2017-06-30T05:41:17Z</time>
      </trkpt>
      <trkpt lat="63.396715996786952" lon="10.395232038572431">
        <ele>38.109999999999999</ele>
        <time>2017-06-30T05:41:18Z</time>
      </trkpt>
      <trkpt lat="63.396714990958571" lon="10.394985023885965">
        <ele>37.630000000000003</ele>
        <time>2017-06-30T05:41:19Z</time>
      </trkpt>
      <trkpt lat="63.396731000393629" lon="10.394721999764442">
        <ele>37.630000000000003</ele>
        <time>2017-06-30T05:41:20Z</time>
      </trkpt>
      <trkpt lat="63.396752960979939" lon="10.394468028098345">
        <ele>37.630000000000003</ele>
        <time>2017-06-30T05:41:21Z</time>
      </trkpt>
      <trkpt lat="63.396780034527183" lon="10.394210033118725">
        <ele>36.670000000000002</ele>
        <time>2017-06-30T05:41:22Z</time>
      </trkpt>
      <trkpt lat="63.396816998720169" lon="10.393960000947118">
        <ele>36.189999999999998</ele>
        <time>2017-06-30T05:41:23Z</time>
      </trkpt>
      <trkpt lat="63.396866032853723" lon="10.393710974603891">
        <ele>35.229999999999997</ele>
        <time>2017-06-30T05:41:24Z</time>
      </trkpt>
      <trkpt lat="63.39692403562367" lon="10.393466977402568">
        <ele>34.740000000000002</ele>
        <time>2017-06-30T05:41:25Z</time>
      </trkpt>
      <trkpt lat="63.396981032565236" lon="10.393236977979541">
        <ele>34.259999999999998</ele>
        <time>2017-06-30T05:41:26Z</time>
      </trkpt>
      <trkpt lat="63.397040963172913" lon="10.393018964678049">
        <ele>33.780000000000001</ele>
        <time>2017-06-30T05:41:27Z</time>
      </trkpt>
      <trkpt lat="63.397541027516127" lon="10.391419027000666">
        <ele>30.899999999999999</ele>
        <time>2017-06-30T05:41:35Z</time>
      </trkpt>
      <trkpt lat="63.397610010579228" lon="10.391277959570289">
        <ele>30.899999999999999</ele>
        <time>2017-06-30T05:41:36Z</time>
      </trkpt>
      <trkpt lat="63.397667007520795" lon="10.391180980950594">
        <ele>30.899999999999999</ele>
        <time>2017-06-30T05:41:37Z</time>
      </trkpt>
      <trkpt lat="63.397716963663697" lon="10.391123984009027">
        <ele>30.899999999999999</ele>
        <time>2017-06-30T05:41:38Z</time>
      </trkpt>
      <trkpt lat="63.397757029160857" lon="10.391093976795673">
        <ele>31.379999999999999</ele>
        <time>2017-06-30T05:41:39Z</time>
      </trkpt>
      <trkpt lat="63.397808996960521" lon="10.391063969582319">
        <ele>31.859999999999999</ele>
        <time>2017-06-30T05:41:40Z</time>
      </trkpt>
      <trkpt lat="63.397859036922455" lon="10.391002027317882">
        <ele>31.859999999999999</ele>
        <time>2017-06-30T05:41:41Z</time>
      </trkpt>
      <trkpt lat="63.397894995287061" lon="10.390903959050775">
        <ele>31.859999999999999</ele>
        <time>2017-06-30T05:41:42Z</time>
      </trkpt>
      <trkpt lat="63.397912010550499" lon="10.390783008188009">
        <ele>31.379999999999999</ele>
        <time>2017-06-30T05:41:43Z</time>
      </trkpt>
      <trkpt lat="63.397905975580215" lon="10.390644958242774">
        <ele>31.859999999999999</ele>
        <time>2017-06-30T05:41:44Z</time>
      </trkpt>
      <trkpt lat="63.397879991680384" lon="10.390510009601712">
        <ele>31.859999999999999</ele>
        <time>2017-06-30T05:41:45Z</time>
      </trkpt>
      <trkpt lat="63.397836992517114" lon="10.390358967706561">
        <ele>31.379999999999999</ele>
        <time>2017-06-30T05:41:46Z</time>
      </trkpt>
      <trkpt lat="63.397782007232308" lon="10.3902049921453">
        <ele>30.420000000000002</ele>
        <time>2017-06-30T05:41:47Z</time>
      </trkpt>
      <trkpt lat="63.397719981148839" lon="10.390051016584039">
        <ele>30.420000000000002</ele>
        <time>2017-06-30T05:41:48Z</time>
      </trkpt>
      <trkpt lat="63.397644963115454" lon="10.389906009659171">
        <ele>29.940000000000001</ele>
        <time>2017-06-30T05:41:49Z</time>
      </trkpt>
      <trkpt lat="63.397563993930817" lon="10.389771983027458">
        <ele>29.940000000000001</ele>
        <time>2017-06-30T05:41:50Z</time>
      </trkpt>
      <trkpt lat="63.397475983947515" lon="10.389636028558016">
        <ele>29.940000000000001</ele>
        <time>2017-06-30T05:41:51Z</time>
      </trkpt>
      <trkpt lat="63.396375020965934" lon="10.388082023710012">
        <ele>21.77</ele>
        <time>2017-06-30T05:42:01Z</time>
      </trkpt>
      <trkpt lat="63.395869005471468" lon="10.387535020709038">
        <ele>17.920000000000002</ele>
        <time>2017-06-30T05:42:06Z</time>
      </trkpt>
      <trkpt lat="63.395811002701521" lon="10.387446004897356">
        <ele>17.920000000000002</ele>
        <time>2017-06-30T05:42:07Z</time>
      </trkpt>
      <trkpt lat="63.39576599188149" lon="10.387351959943771">
        <ele>17.440000000000001</ele>
        <time>2017-06-30T05:42:08Z</time>
      </trkpt>
      <trkpt lat="63.395732967182994" lon="10.387262022122741">
        <ele>16.960000000000001</ele>
        <time>2017-06-30T05:42:09Z</time>
      </trkpt>
      <trkpt lat="63.395708994939923" lon="10.38717501796782">
        <ele>16.960000000000001</ele>
        <time>2017-06-30T05:42:10Z</time>
      </trkpt>
      <trkpt lat="63.395692985504866" lon="10.387103017419577">
        <ele>16.960000000000001</ele>
        <time>2017-06-30T05:42:11Z</time>
      </trkpt>
      <trkpt lat="63.395673036575317" lon="10.386997992172837">
        <ele>15.52</ele>
        <time>2017-06-30T05:42:21Z</time>
      </trkpt>
      <trkpt lat="63.395583014935255" lon="10.386507986113429">
        <ele>15.039999999999999</ele>
        <time>2017-06-30T05:42:34Z</time>
      </trkpt>
      <trkpt lat="63.395347986370325" lon="10.385358994826674">
        <ele>14.56</ele>
        <time>2017-06-30T05:42:42Z</time>
      </trkpt>
      <trkpt lat="63.395300963893533" lon="10.385246006771922">
        <ele>14.56</ele>
        <time>2017-06-30T05:42:43Z</time>
      </trkpt>
      <trkpt lat="63.395242039114237" lon="10.385165037587285">
        <ele>15.039999999999999</ele>
        <time>2017-06-30T05:42:44Z</time>
      </trkpt>
      <trkpt lat="63.395167021080852" lon="10.385104017332196">
        <ele>15.52</ele>
        <time>2017-06-30T05:42:45Z</time>
      </trkpt>
      <trkpt lat="63.395082028582692" lon="10.385065963491797">
        <ele>15.52</ele>
        <time>2017-06-30T05:42:46Z</time>
      </trkpt>
      <trkpt lat="63.3944340236485" lon="10.384715013206005">
        <ele>14.08</ele>
        <time>2017-06-30T05:42:52Z</time>
      </trkpt>
      <trkpt lat="63.394318018108606" lon="10.384584004059434">
        <ele>13.6</ele>
        <time>2017-06-30T05:42:53Z</time>
      </trkpt>
      <trkpt lat="63.394205030053854" lon="10.38442600518465">
        <ele>13.119999999999999</ele>
        <time>2017-06-30T05:42:54Z</time>
      </trkpt>
      <trkpt lat="63.393177995458245" lon="10.383236026391387">
        <ele>16.48</ele>
        <time>2017-06-30T05:43:02Z</time>
      </trkpt>
      <trkpt lat="63.391174972057343" lon="10.38182501681149">
        <ele>18.879999999999999</ele>
        <time>2017-06-30T05:43:14Z</time>
      </trkpt>
      <trkpt lat="63.389849960803986" lon="10.380164980888367">
        <ele>21.289999999999999</ele>
        <time>2017-06-30T05:43:22Z</time>
      </trkpt>
      <trkpt lat="63.387784995138645" lon="10.377037022262812">
        <ele>27.530000000000001</ele>
        <time>2017-06-30T05:43:36Z</time>
      </trkpt>
      <trkpt lat="63.386387983337045" lon="10.374988988041878">
        <ele>28.02</ele>
        <time>2017-06-30T05:43:47Z</time>
      </trkpt>
      <trkpt lat="63.385549038648605" lon="10.373562974855304">
        <ele>29.460000000000001</ele>
        <time>2017-06-30T05:43:54Z</time>
      </trkpt>
      <trkpt lat="63.385419035330415" lon="10.37342400290072">
        <ele>29.460000000000001</ele>
        <time>2017-06-30T05:43:55Z</time>
      </trkpt>
      <trkpt lat="63.385279979556799" lon="10.373334987089038">
        <ele>29.940000000000001</ele>
        <time>2017-06-30T05:43:56Z</time>
      </trkpt>
      <trkpt lat="63.385141007602215" lon="10.373298022896051">
        <ele>29.940000000000001</ele>
        <time>2017-06-30T05:43:57Z</time>
      </trkpt>
      <trkpt lat="63.384988959878683" lon="10.37331503815949">
        <ele>30.420000000000002</ele>
        <time>2017-06-30T05:43:58Z</time>
      </trkpt>
      <trkpt lat="63.384836995974183" lon="10.373370023444295">
        <ele>30.420000000000002</ele>
        <time>2017-06-30T05:43:59Z</time>
      </trkpt>
      <trkpt lat="63.384687965735793" lon="10.373433977365494">
        <ele>30.899999999999999</ele>
        <time>2017-06-30T05:44:00Z</time>
      </trkpt>
      <trkpt lat="63.38439904153347" lon="10.373479994013906">
        <ele>30.899999999999999</ele>
        <time>2017-06-30T05:44:02Z</time>
      </trkpt>
      <trkpt lat="63.384261997416615" lon="10.373435989022255">
        <ele>31.379999999999999</ele>
        <time>2017-06-30T05:44:03Z</time>
      </trkpt>
      <trkpt lat="63.384141968563199" lon="10.373336998745799">
        <ele>32.340000000000003</ele>
        <time>2017-06-30T05:44:04Z</time>
      </trkpt>
      <trkpt lat="63.384043984115124" lon="10.373183023184538">
        <ele>32.82</ele>
        <time>2017-06-30T05:44:05Z</time>
      </trkpt>
      <trkpt lat="63.383959997445345" lon="10.372972972691059">
        <ele>33.780000000000001</ele>
        <time>2017-06-30T05:44:06Z</time>
      </trkpt>
      <trkpt lat="63.383882967755198" lon="10.372724030166864">
        <ele>34.740000000000002</ele>
        <time>2017-06-30T05:44:07Z</time>
      </trkpt>
      <trkpt lat="63.383809961378574" lon="10.372453965246677">
        <ele>35.229999999999997</ele>
        <time>2017-06-30T05:44:08Z</time>
      </trkpt>
      <trkpt lat="63.383560013025999" lon="10.371606973931193">
        <ele>35.229999999999997</ele>
        <time>2017-06-30T05:44:11Z</time>
      </trkpt>
      <trkpt lat="63.383456999436021" lon="10.371373035013676">
        <ele>35.229999999999997</ele>
        <time>2017-06-30T05:44:12Z</time>
      </trkpt>
      <trkpt lat="63.383341999724507" lon="10.371176982298493">
        <ele>34.740000000000002</ele>
        <time>2017-06-30T05:44:13Z</time>
      </trkpt>
      <trkpt lat="63.383215013891459" lon="10.371016971766949">
        <ele>34.740000000000002</ele>
        <time>2017-06-30T05:44:14Z</time>
      </trkpt>
      <trkpt lat="63.383082998916507" lon="10.3708899859339">
        <ele>35.229999999999997</ele>
        <time>2017-06-30T05:44:15Z</time>
      </trkpt>
      <trkpt lat="63.382946038618684" lon="10.370779009535909">
        <ele>35.710000000000001</ele>
        <time>2017-06-30T05:44:16Z</time>
      </trkpt>
      <trkpt lat="63.382500037550926" lon="10.37056602537632">
        <ele>37.149999999999999</ele>
        <time>2017-06-30T05:44:19Z</time>
      </trkpt>
      <trkpt lat="63.382342960685492" lon="10.370564013719559">
        <ele>37.630000000000003</ele>
        <time>2017-06-30T05:44:20Z</time>
      </trkpt>
      <trkpt lat="63.380600027740002" lon="10.370277017354965">
        <ele>41.469999999999999</ele>
        <time>2017-06-30T05:44:31Z</time>
      </trkpt>
      <trkpt lat="63.380452003329992" lon="10.370117006823421">
        <ele>41.950000000000003</ele>
        <time>2017-06-30T05:44:32Z</time>
      </trkpt>
      <trkpt lat="63.380309008061886" lon="10.369924977421761">
        <ele>42.439999999999998</ele>
        <time>2017-06-30T05:44:33Z</time>
      </trkpt>
      <trkpt lat="63.380175987258554" lon="10.369711993262172">
        <ele>43.399999999999999</ele>
        <time>2017-06-30T05:44:34Z</time>
      </trkpt>
      <trkpt lat="63.380046989768744" lon="10.369482999667525">
        <ele>43.880000000000003</ele>
        <time>2017-06-30T05:44:35Z</time>
      </trkpt>
      <trkpt lat="63.379440978169441" lon="10.368379019200802">
        <ele>45.799999999999997</ele>
        <time>2017-06-30T05:44:40Z</time>
      </trkpt>
      <trkpt lat="63.379318015649915" lon="10.368239963427186">
        <ele>46.759999999999998</ele>
        <time>2017-06-30T05:44:41Z</time>
      </trkpt>
      <trkpt lat="63.379184994846582" lon="10.368155976757407">
        <ele>46.759999999999998</ele>
        <time>2017-06-30T05:44:42Z</time>
      </trkpt>
      <trkpt lat="63.37905197404325" lon="10.368135021999478">
        <ele>47.240000000000002</ele>
        <time>2017-06-30T05:44:43Z</time>
      </trkpt>
      <trkpt lat="63.378915013745427" lon="10.368170980364084">
        <ele>47.719999999999999</ele>
        <time>2017-06-30T05:44:44Z</time>
      </trkpt>
      <trkpt lat="63.378769000992179" lon="10.368249015882611">
        <ele>47.719999999999999</ele>
        <time>2017-06-30T05:44:45Z</time>
      </trkpt>
      <trkpt lat="63.378502037376165" lon="10.368343982845545">
        <ele>48.68</ele>
        <time>2017-06-30T05:44:47Z</time>
      </trkpt>
      <trkpt lat="63.378381002694368" lon="10.368323028087616">
        <ele>49.159999999999997</ele>
        <time>2017-06-30T05:44:48Z</time>
      </trkpt>
      <trkpt lat="63.378268014639616" lon="10.36824599839747">
        <ele>49.649999999999999</ele>
        <time>2017-06-30T05:44:49Z</time>
      </trkpt>
      <trkpt lat="63.378163995221257" lon="10.368109038099647">
        <ele>50.130000000000003</ele>
        <time>2017-06-30T05:44:50Z</time>
      </trkpt>
      <trkpt lat="63.378069028258324" lon="10.367932012304664">
        <ele>50.609999999999999</ele>
        <time>2017-06-30T05:44:51Z</time>
      </trkpt>
      <trkpt lat="63.377969032153487" lon="10.367750963196158">
        <ele>51.090000000000003</ele>
        <time>2017-06-30T05:44:52Z</time>
      </trkpt>
      <trkpt lat="63.377866018563509" lon="10.367574021220207">
        <ele>51.090000000000003</ele>
        <time>2017-06-30T05:44:53Z</time>
      </trkpt>
      <trkpt lat="63.377745989710093" lon="10.367450974881649">
        <ele>51.57</ele>
        <time>2017-06-30T05:44:54Z</time>
      </trkpt>
      <trkpt lat="63.377619003877044" lon="10.367381991818547">
        <ele>52.049999999999997</ele>
        <time>2017-06-30T05:44:55Z</time>
      </trkpt>
      <trkpt lat="63.377478020265698" lon="10.367373023182154">
        <ele>52.530000000000001</ele>
        <time>2017-06-30T05:44:56Z</time>
      </trkpt>
      <trkpt lat="63.377334019169211" lon="10.367419039830565">
        <ele>53.009999999999998</ele>
        <time>2017-06-30T05:44:57Z</time>
      </trkpt>
      <trkpt lat="63.377190018072724" lon="10.367491040378809">
        <ele>53.009999999999998</ele>
        <time>2017-06-30T05:44:58Z</time>
      </trkpt>
      <trkpt lat="63.376900004222989" lon="10.367562035098672">
        <ele>53.969999999999999</ele>
        <time>2017-06-30T05:45:00Z</time>
      </trkpt>
      <trkpt lat="63.37675197981298" lon="10.36753797903657">
        <ele>54.450000000000003</ele>
        <time>2017-06-30T05:45:01Z</time>
      </trkpt>
      <trkpt lat="63.376612002030015" lon="10.367446029558778">
        <ele>54.93</ele>
        <time>2017-06-30T05:45:02Z</time>
      </trkpt>
      <trkpt lat="63.37647202424705" lon="10.367329018190503">
        <ele>54.93</ele>
        <time>2017-06-30T05:45:03Z</time>
      </trkpt>
      <trkpt lat="63.376334980130196" lon="10.367202032357454">
        <ele>55.409999999999997</ele>
        <time>2017-06-30T05:45:04Z</time>
      </trkpt>
      <trkpt lat="63.375947987660766" lon="10.366727029904723">
        <ele>56.859999999999999</ele>
        <time>2017-06-30T05:45:07Z</time>
      </trkpt>
      <trkpt lat="63.375830976292491" lon="10.366516979411244">
        <ele>56.859999999999999</ele>
        <time>2017-06-30T05:45:08Z</time>
      </trkpt>
      <trkpt lat="63.375372989103198" lon="10.365569991990924">
        <ele>58.780000000000001</ele>
        <time>2017-06-30T05:45:12Z</time>
      </trkpt>
      <trkpt lat="63.375246003270149" lon="10.365376034751534">
        <ele>59.259999999999998</ele>
        <time>2017-06-30T05:45:13Z</time>
      </trkpt>
      <trkpt lat="63.375107031315565" lon="10.365221975371242">
        <ele>57.340000000000003</ele>
        <time>2017-06-30T05:45:14Z</time>
      </trkpt>
      <trkpt lat="63.374960012733936" lon="10.36513396538794">
        <ele>57.82</ele>
        <time>2017-06-30T05:45:15Z</time>
      </trkpt>
      <trkpt lat="63.374813999980688" lon="10.365103958174586">
        <ele>58.299999999999997</ele>
        <time>2017-06-30T05:45:16Z</time>
      </trkpt>
      <trkpt lat="63.374672010540962" lon="10.36513002589345">
        <ele>59.259999999999998</ele>
        <time>2017-06-30T05:45:17Z</time>
      </trkpt>
      <trkpt lat="63.374541001394391" lon="10.36521703004837">
        <ele>59.259999999999998</ele>
        <time>2017-06-30T05:45:18Z</time>
      </trkpt>
      <trkpt lat="63.37443103082478" lon="10.365386009216309">
        <ele>59.740000000000002</ele>
        <time>2017-06-30T05:45:19Z</time>
      </trkpt>
      <trkpt lat="63.374340003356338" lon="10.3656040225178">
        <ele>60.219999999999999</ele>
        <time>2017-06-30T05:45:20Z</time>
      </trkpt>
      <trkpt lat="63.374266996979713" lon="10.365860005840659">
        <ele>60.219999999999999</ele>
        <time>2017-06-30T05:45:21Z</time>
      </trkpt>
      <trkpt lat="63.374197008088231" lon="10.366133004426956">
        <ele>60.700000000000003</ele>
        <time>2017-06-30T05:45:22Z</time>
      </trkpt>
      <trkpt lat="63.374118972569704" lon="10.36639804020524">
        <ele>61.659999999999997</ele>
        <time>2017-06-30T05:45:23Z</time>
      </trkpt>
      <trkpt lat="63.374030040577054" lon="10.366643965244293">
        <ele>61.659999999999997</ele>
        <time>2017-06-30T05:45:24Z</time>
      </trkpt>
      <trkpt lat="63.373929038643837" lon="10.366862984374166">
        <ele>62.140000000000001</ele>
        <time>2017-06-30T05:45:25Z</time>
      </trkpt>
      <trkpt lat="63.373820995911956" lon="10.367062976583838">
        <ele>63.100000000000001</ele>
        <time>2017-06-30T05:45:26Z</time>
      </trkpt>
      <trkpt lat="63.373705996200442" lon="10.367256011813879">
        <ele>63.579999999999998</ele>
        <time>2017-06-30T05:45:27Z</time>
      </trkpt>
      <trkpt lat="63.372562034055591" lon="10.368755031377077">
        <ele>68.870000000000005</ele>
        <time>2017-06-30T05:45:36Z</time>
      </trkpt>
      <trkpt lat="63.372416021302342" lon="10.368845975026488">
        <ele>69.829999999999998</ele>
        <time>2017-06-30T05:45:37Z</time>
      </trkpt>
      <trkpt lat="63.37226196192205" lon="10.368900960311294">
        <ele>70.310000000000002</ele>
        <time>2017-06-30T05:45:38Z</time>
      </trkpt>
      <trkpt lat="63.372108992189169" lon="10.368935996666551">
        <ele>70.790000000000006</ele>
        <time>2017-06-30T05:45:39Z</time>
      </trkpt>
      <trkpt lat="63.371948981657624" lon="10.368954017758369">
        <ele>71.269999999999996</ele>
        <time>2017-06-30T05:45:40Z</time>
      </trkpt>
      <trkpt lat="63.371791988611221" lon="10.368933985009789">
        <ele>71.760000000000005</ele>
        <time>2017-06-30T05:45:41Z</time>
      </trkpt>
      <trkpt lat="63.371639018878341" lon="10.368868019431829">
        <ele>72.239999999999995</ele>
        <time>2017-06-30T05:45:42Z</time>
      </trkpt>
      <trkpt lat="63.371489988639951" lon="10.368771040812135">
        <ele>73.200000000000003</ele>
        <time>2017-06-30T05:45:43Z</time>
      </trkpt>
      <trkpt lat="63.371339030563831" lon="10.368666015565395">
        <ele>73.680000000000007</ele>
        <time>2017-06-30T05:45:44Z</time>
      </trkpt>
      <trkpt lat="63.369931038469076" lon="10.367957996204495">
        <ele>78.969999999999999</ele>
        <time>2017-06-30T05:45:53Z</time>
      </trkpt>
      <trkpt lat="63.369783014059067" lon="10.367806032299995">
        <ele>79.450000000000003</ele>
        <time>2017-06-30T05:45:54Z</time>
      </trkpt>
      <trkpt lat="63.369638007134199" lon="10.36762498319149">
        <ele>80.409999999999997</ele>
        <time>2017-06-30T05:45:55Z</time>
      </trkpt>
      <trkpt lat="63.369353022426367" lon="10.367263974621892">
        <ele>81.370000000000005</ele>
        <time>2017-06-30T05:45:57Z</time>
      </trkpt>
      <trkpt lat="63.369203992187977" lon="10.367149980738759">
        <ele>82.329999999999998</ele>
        <time>2017-06-30T05:45:58Z</time>
      </trkpt>
      <trkpt lat="63.369044987484813" lon="10.367082003504038">
        <ele>82.329999999999998</ele>
        <time>2017-06-30T05:45:59Z</time>
      </trkpt>
      <trkpt lat="63.36888799443841" lon="10.367047972977161">
        <ele>82.810000000000002</ele>
        <time>2017-06-30T05:46:00Z</time>
      </trkpt>
      <trkpt lat="63.368732007220387" lon="10.367037998512387">
        <ele>83.290000000000006</ele>
        <time>2017-06-30T05:46:01Z</time>
      </trkpt>
      <trkpt lat="63.368574008345604" lon="10.367046967148781">
        <ele>84.25</ele>
        <time>2017-06-30T05:46:02Z</time>
      </trkpt>
      <trkpt lat="63.36714799515903" lon="10.366709008812904">
        <ele>90.5</ele>
        <time>2017-06-30T05:46:11Z</time>
      </trkpt>
      <trkpt lat="63.36699603125453" lon="10.366574982181191">
        <ele>90.5</ele>
        <time>2017-06-30T05:46:12Z</time>
      </trkpt>
      <trkpt lat="63.366855969652534" lon="10.366411032155156">
        <ele>90.980000000000004</ele>
        <time>2017-06-30T05:46:13Z</time>
      </trkpt>
      <trkpt lat="63.366443999111652" lon="10.365859000012279">
        <ele>91.939999999999998</ele>
        <time>2017-06-30T05:46:16Z</time>
      </trkpt>
      <trkpt lat="63.366292035207152" lon="10.365750035271049">
        <ele>92.420000000000002</ele>
        <time>2017-06-30T05:46:17Z</time>
      </trkpt>
      <trkpt lat="63.364759990945458" lon="10.364791983738542">
        <ele>100.11</ele>
        <time>2017-06-30T05:46:27Z</time>
      </trkpt>
      <trkpt lat="63.363196011632681" lon="10.364097040146589">
        <ele>107.31999999999999</ele>
        <time>2017-06-30T05:46:37Z</time>
      </trkpt>
      <trkpt lat="63.362930975854397" lon="10.363889001309872">
        <ele>109.73</ele>
        <time>2017-06-30T05:46:39Z</time>
      </trkpt>
      <trkpt lat="63.362590000033379" lon="10.363625977188349">
        <ele>111.17</ele>
        <time>2017-06-30T05:46:43Z</time>
      </trkpt>
      <trkpt lat="63.362480029463768" lon="10.363617008551955">
        <ele>112.61</ele>
        <time>2017-06-30T05:46:50Z</time>
      </trkpt>
      <trkpt lat="63.362425966188312" lon="10.363513994961977">
        <ele>112.61</ele>
        <time>2017-06-30T05:46:52Z</time>
      </trkpt>
      <trkpt lat="63.362392019480467" lon="10.363380974158645">
        <ele>112.13</ele>
        <time>2017-06-30T05:46:53Z</time>
      </trkpt>
      <trkpt lat="63.362240977585316" lon="10.362836988642812">
        <ele>111.65000000000001</ele>
        <time>2017-06-30T05:46:56Z</time>
      </trkpt>
      <trkpt lat="63.362166965380311" lon="10.362641019746661">
        <ele>112.13</ele>
        <time>2017-06-30T05:46:57Z</time>
      </trkpt>
      <trkpt lat="63.36207702755928" lon="10.362455025315285">
        <ele>112.13</ele>
        <time>2017-06-30T05:46:58Z</time>
      </trkpt>
      <trkpt lat="63.361973008140922" lon="10.362288979813457">
        <ele>112.61</ele>
        <time>2017-06-30T05:46:59Z</time>
      </trkpt>
      <trkpt lat="63.361852979287505" lon="10.362139027565718">
        <ele>113.09</ele>
        <time>2017-06-30T05:47:00Z</time>
      </trkpt>
      <trkpt lat="63.361724987626076" lon="10.362011035904288">
        <ele>114.05</ele>
        <time>2017-06-30T05:47:01Z</time>
      </trkpt>
      <trkpt lat="63.361589033156633" lon="10.361892012879252">
        <ele>115.5</ele>
        <time>2017-06-30T05:47:02Z</time>
      </trkpt>
      <trkpt lat="63.360079033300281" lon="10.361017026007175">
        <ele>120.78</ele>
        <time>2017-06-30T05:47:12Z</time>
      </trkpt>
      <trkpt lat="63.358371974900365" lon="10.360377989709377">
        <ele>127.51000000000001</ele>
        <time>2017-06-30T05:47:24Z</time>
      </trkpt>
      <trkpt lat="63.356456961482763" lon="10.359145011752844">
        <ele>130.40000000000001</ele>
        <time>2017-06-30T05:47:39Z</time>
      </trkpt>
      <trkpt lat="63.355404026806355" lon="10.358640002086759">
        <ele>132.80000000000001</ele>
        <time>2017-06-30T05:47:50Z</time>
      </trkpt>
      <trkpt lat="63.355120969936252" lon="10.358546040952206">
        <ele>132.31999999999999</ele>
        <time>2017-06-30T05:47:59Z</time>
      </trkpt>
      <trkpt lat="63.354842020198703" lon="10.358488038182259">
        <ele>134.24000000000001</ele>
        <time>2017-06-30T05:48:12Z</time>
      </trkpt>
      <trkpt lat="63.354170965030789" lon="10.358330039307475">
        <ele>133.75999999999999</ele>
        <time>2017-06-30T05:48:19Z</time>
      </trkpt>
      <trkpt lat="63.353971978649497" lon="10.35812702961266">
        <ele>134.24000000000001</ele>
        <time>2017-06-30T05:48:21Z</time>
      </trkpt>
      <trkpt lat="63.353879023343325" lon="10.35799995996058">
        <ele>134.72</ele>
        <time>2017-06-30T05:48:22Z</time>
      </trkpt>
      <trkpt lat="63.353706020861864" lon="10.357754034921527">
        <ele>135.19999999999999</ele>
        <time>2017-06-30T05:48:24Z</time>
      </trkpt>
      <trkpt lat="63.35361298173666" lon="10.357681028544903">
        <ele>135.68000000000001</ele>
        <time>2017-06-30T05:48:25Z</time>
      </trkpt>
      <trkpt lat="63.35352698341012" lon="10.357624031603336">
        <ele>136.16</ele>
        <time>2017-06-30T05:48:26Z</time>
      </trkpt>
      <trkpt lat="63.353433022275567" lon="10.357597963884473">
        <ele>136.63999999999999</ele>
        <time>2017-06-30T05:48:27Z</time>
      </trkpt>
      <trkpt lat="63.353331014513969" lon="10.357600981369615">
        <ele>136.63999999999999</ele>
        <time>2017-06-30T05:48:28Z</time>
      </trkpt>
      <trkpt lat="63.353230012580752" lon="10.357608022168279">
        <ele>137.13</ele>
        <time>2017-06-30T05:48:29Z</time>
      </trkpt>
      <trkpt lat="63.352164002135396" lon="10.357292024418712">
        <ele>140.49000000000001</ele>
        <time>2017-06-30T05:48:39Z</time>
      </trkpt>
      <trkpt lat="63.350566998124123" lon="10.35604496486485">
        <ele>142.88999999999999</ele>
        <time>2017-06-30T05:48:55Z</time>
      </trkpt>
      <trkpt lat="63.348896987736225" lon="10.35451702773571">
        <ele>139.05000000000001</ele>
        <time>2017-06-30T05:49:12Z</time>
      </trkpt>
      <trkpt lat="63.347958968952298" lon="10.353854019194841">
        <ele>135.19999999999999</ele>
        <time>2017-06-30T05:49:22Z</time>
      </trkpt>
      <trkpt lat="63.347893003374338" lon="10.353763997554779">
        <ele>134.72</ele>
        <time>2017-06-30T05:49:23Z</time>
      </trkpt>
      <trkpt lat="63.347833994776011" lon="10.353661989793181">
        <ele>134.72</ele>
        <time>2017-06-30T05:49:24Z</time>
      </trkpt>
      <trkpt lat="63.347712038084865" lon="10.353525029495358">
        <ele>134.72</ele>
        <time>2017-06-30T05:49:26Z</time>
      </trkpt>
      <trkpt lat="63.347636014223099" lon="10.353521006181836">
        <ele>134.72</ele>
        <time>2017-06-30T05:49:27Z</time>
      </trkpt>
      <trkpt lat="63.347358992323279" lon="10.353498039767146">
        <ele>133.75999999999999</ele>
        <time>2017-06-30T05:49:30Z</time>
      </trkpt>
      <trkpt lat="63.34725396707654" lon="10.353440959006548">
        <ele>133.28</ele>
        <time>2017-06-30T05:49:31Z</time>
      </trkpt>
      <trkpt lat="63.346381997689605" lon="10.352395987138152">
        <ele>129.91999999999999</ele>
        <time>2017-06-30T05:49:39Z</time>
      </trkpt>
      <trkpt lat="63.345124963670969" lon="10.350325992330909">
        <ele>123.67</ele>
        <time>2017-06-30T05:49:51Z</time>
      </trkpt>
      <trkpt lat="63.345050029456615" lon="10.350143015384674">
        <ele>122.70999999999999</ele>
        <time>2017-06-30T05:49:52Z</time>
      </trkpt>
      <trkpt lat="63.344985991716385" lon="10.349932964891195">
        <ele>122.22</ele>
        <time>2017-06-30T05:49:53Z</time>
      </trkpt>
      <trkpt lat="63.344928994774818" lon="10.34970598295331">
        <ele>122.22</ele>
        <time>2017-06-30T05:49:54Z</time>
      </trkpt>
      <trkpt lat="63.344875015318394" lon="10.349454022943974">
        <ele>121.26000000000001</ele>
        <time>2017-06-30T05:49:55Z</time>
      </trkpt>
      <trkpt lat="63.34482598118484" lon="10.349188987165689">
        <ele>120.78</ele>
        <time>2017-06-30T05:49:56Z</time>
      </trkpt>
      <trkpt lat="63.344069011509418" lon="10.346521027386189">
        <ele>118.86</ele>
        <time>2017-06-30T05:50:06Z</time>
      </trkpt>
      <trkpt lat="63.343488983809948" lon="10.345211019739509">
        <ele>116.45999999999999</ele>
        <time>2017-06-30T05:50:12Z</time>
      </trkpt>
      <trkpt lat="63.343414971604943" lon="10.344952018931508">
        <ele>115.98</ele>
        <time>2017-06-30T05:50:13Z</time>
      </trkpt>
      <trkpt lat="63.343188995495439" lon="10.344187002629042">
        <ele>114.05</ele>
        <time>2017-06-30T05:50:16Z</time>
      </trkpt>
      <trkpt lat="63.343087993562222" lon="10.343984998762608">
        <ele>113.56999999999999</ele>
        <time>2017-06-30T05:50:17Z</time>
      </trkpt>
      <trkpt lat="63.342973999679089" lon="10.343805961310863">
        <ele>113.09</ele>
        <time>2017-06-30T05:50:18Z</time>
      </trkpt>
      <trkpt lat="63.341828025877476" lon="10.341902012005448">
        <ele>110.20999999999999</ele>
        <time>2017-06-30T05:50:28Z</time>
      </trkpt>
      <trkpt lat="63.341738004237413" lon="10.34164602868259">
        <ele>109.73</ele>
        <time>2017-06-30T05:50:29Z</time>
      </trkpt>
      <trkpt lat="63.341658040881157" lon="10.341365989297628">
        <ele>109.73</ele>
        <time>2017-06-30T05:50:30Z</time>
      </trkpt>
      <trkpt lat="63.34095798432827" lon="10.338711021468043">
        <ele>105.88</ele>
        <time>2017-06-30T05:50:39Z</time>
      </trkpt>
      <trkpt lat="63.340853964909911" lon="10.338474987074733">
        <ele>105.40000000000001</ele>
        <time>2017-06-30T05:50:40Z</time>
      </trkpt>
      <trkpt lat="63.340740976855159" lon="10.338285975158215">
        <ele>105.40000000000001</ele>
        <time>2017-06-30T05:50:41Z</time>
      </trkpt>
      <trkpt lat="63.340618014335632" lon="10.338164018467069">
        <ele>105.40000000000001</ele>
        <time>2017-06-30T05:50:42Z</time>
      </trkpt>
      <trkpt lat="63.340479964390397" lon="10.338106015697122">
        <ele>104.92</ele>
        <time>2017-06-30T05:50:43Z</time>
      </trkpt>
      <trkpt lat="63.340343004092574" lon="10.338112972676754">
        <ele>104.92</ele>
        <time>2017-06-30T05:50:44Z</time>
      </trkpt>
      <trkpt lat="63.340213000774384" lon="10.3381900023669">
        <ele>104.92</ele>
        <time>2017-06-30T05:50:45Z</time>
      </trkpt>
      <trkpt lat="63.340092971920967" lon="10.338330985978246">
        <ele>104.44</ele>
        <time>2017-06-30T05:50:46Z</time>
      </trkpt>
      <trkpt lat="63.339980989694595" lon="10.338527960702777">
        <ele>103.95999999999999</ele>
        <time>2017-06-30T05:50:47Z</time>
      </trkpt>
      <trkpt lat="63.339872024953365" lon="10.338749997317791">
        <ele>103</ele>
        <time>2017-06-30T05:50:48Z</time>
      </trkpt>
      <trkpt lat="63.339391993358731" lon="10.339641999453306">
        <ele>100.59999999999999</ele>
        <time>2017-06-30T05:50:52Z</time>
      </trkpt>
      <trkpt lat="63.339261990040541" lon="10.339793041348457">
        <ele>100.59999999999999</ele>
        <time>2017-06-30T05:50:53Z</time>
      </trkpt>
      <trkpt lat="63.339125029742718" lon="10.339881973341107">
        <ele>101.08</ele>
        <time>2017-06-30T05:50:54Z</time>
      </trkpt>
      <trkpt lat="63.338983962312341" lon="10.339903011918068">
        <ele>101.08</ele>
        <time>2017-06-30T05:50:55Z</time>
      </trkpt>
      <trkpt lat="63.338840967044234" lon="10.339850038290024">
        <ele>100.59999999999999</ele>
        <time>2017-06-30T05:50:56Z</time>
      </trkpt>
      <trkpt lat="63.338703000918031" lon="10.339729003608227">
        <ele>100.11</ele>
        <time>2017-06-30T05:50:57Z</time>
      </trkpt>
      <trkpt lat="63.33857199177146" lon="10.339552983641624">
        <ele>99.629999999999995</ele>
        <time>2017-06-30T05:50:58Z</time>
      </trkpt>
      <trkpt lat="63.338454980403185" lon="10.339330025017262">
        <ele>98.670000000000002</ele>
        <time>2017-06-30T05:50:59Z</time>
      </trkpt>
      <trkpt lat="63.3383350353688" lon="10.339084016159177">
        <ele>97.709999999999994</ele>
        <time>2017-06-30T05:51:00Z</time>
      </trkpt>
      <trkpt lat="63.338206959888339" lon="10.338857034221292">
        <ele>97.230000000000004</ele>
        <time>2017-06-30T05:51:01Z</time>
      </trkpt>
      <trkpt lat="63.338068993762136" lon="10.338653018698096">
        <ele>96.269999999999996</ele>
        <time>2017-06-30T05:51:02Z</time>
      </trkpt>
      <trkpt lat="63.337793983519077" lon="10.33827499486506">
        <ele>94.829999999999998</ele>
        <time>2017-06-30T05:51:04Z</time>
      </trkpt>
      <trkpt lat="63.337674038484693" lon="10.338056981563568">
        <ele>93.870000000000005</ele>
        <time>2017-06-30T05:51:05Z</time>
      </trkpt>
      <trkpt lat="63.337574964389205" lon="10.337804015725851">
        <ele>92.900000000000006</ele>
        <time>2017-06-30T05:51:06Z</time>
      </trkpt>
      <trkpt lat="63.337518973276019" lon="10.337506961077452">
        <ele>91.939999999999998</ele>
        <time>2017-06-30T05:51:07Z</time>
      </trkpt>
      <trkpt lat="63.337484020739794" lon="10.337208984419703">
        <ele>90.5</ele>
        <time>2017-06-30T05:51:08Z</time>
      </trkpt>
      <trkpt lat="63.337453007698059" lon="10.336916958913207">
        <ele>90.5</ele>
        <time>2017-06-30T05:51:09Z</time>
      </trkpt>
      <trkpt lat="63.337419982999563" lon="10.336637003347278">
        <ele>90.019999999999996</ele>
        <time>2017-06-30T05:51:10Z</time>
      </trkpt>
      <trkpt lat="63.337350999936461" lon="10.336375990882516">
        <ele>89.540000000000006</ele>
        <time>2017-06-30T05:51:11Z</time>
      </trkpt>
      <trkpt lat="63.337260978296399" lon="10.336131993681192">
        <ele>89.540000000000006</ele>
        <time>2017-06-30T05:51:12Z</time>
      </trkpt>
      <trkpt lat="63.337159976363182" lon="10.335891013965011">
        <ele>88.579999999999998</ele>
        <time>2017-06-30T05:51:13Z</time>
      </trkpt>
      <trkpt lat="63.337050005793571" lon="10.335667971521616">
        <ele>88.099999999999994</ele>
        <time>2017-06-30T05:51:14Z</time>
      </trkpt>
      <trkpt lat="63.336814977228642" lon="10.335269998759031">
        <ele>87.140000000000001</ele>
        <time>2017-06-30T05:51:16Z</time>
      </trkpt>
      <trkpt lat="63.33668396808207" lon="10.335142007097602">
        <ele>87.140000000000001</ele>
        <time>2017-06-30T05:51:17Z</time>
      </trkpt>
      <trkpt lat="63.336546001955867" lon="10.335071012377739">
        <ele>86.659999999999997</ele>
        <time>2017-06-30T05:51:18Z</time>
      </trkpt>
      <trkpt lat="63.336404012516141" lon="10.335044022649527">
        <ele>88.099999999999994</ele>
        <time>2017-06-30T05:51:19Z</time>
      </trkpt>
      <trkpt lat="63.336262023076415" lon="10.33503295853734">
        <ele>88.099999999999994</ele>
        <time>2017-06-30T05:51:20Z</time>
      </trkpt>
      <trkpt lat="63.336117016151547" lon="10.335038993507624">
        <ele>87.620000000000005</ele>
        <time>2017-06-30T05:51:21Z</time>
      </trkpt>
      <trkpt lat="63.335558027029037" lon="10.335056008771062">
        <ele>84.730000000000004</ele>
        <time>2017-06-30T05:51:25Z</time>
      </trkpt>
      <trkpt lat="63.335434980690479" lon="10.334995994344354">
        <ele>84.25</ele>
        <time>2017-06-30T05:51:26Z</time>
      </trkpt>
      <trkpt lat="63.335322998464108" lon="10.334888035431504">
        <ele>83.290000000000006</ele>
        <time>2017-06-30T05:51:27Z</time>
      </trkpt>
      <trkpt lat="63.335231970995665" lon="10.334727019071579">
        <ele>82.810000000000002</ele>
        <time>2017-06-30T05:51:28Z</time>
      </trkpt>
      <trkpt lat="63.335164999589324" lon="10.334502970799804">
        <ele>81.849999999999994</ele>
        <time>2017-06-30T05:51:29Z</time>
      </trkpt>
      <trkpt lat="63.335104985162616" lon="10.334246987476945">
        <ele>81.370000000000005</ele>
        <time>2017-06-30T05:51:30Z</time>
      </trkpt>
      <trkpt lat="63.335052011534572" lon="10.333976000547409">
        <ele>80.409999999999997</ele>
        <time>2017-06-30T05:51:31Z</time>
      </trkpt>
      <trkpt lat="63.334757974371314" lon="10.332524003461003">
        <ele>76.560000000000002</ele>
        <time>2017-06-30T05:51:36Z</time>
      </trkpt>
      <trkpt lat="63.334666024893522" lon="10.332283023744822">
        <ele>75.599999999999994</ele>
        <time>2017-06-30T05:51:37Z</time>
      </trkpt>
      <trkpt lat="63.334557982161641" lon="10.332084037363529">
        <ele>75.599999999999994</ele>
        <time>2017-06-30T05:51:38Z</time>
      </trkpt>
      <trkpt lat="63.334435019642115" lon="10.331931989639997">
        <ele>75.120000000000005</ele>
        <time>2017-06-30T05:51:39Z</time>
      </trkpt>
      <trkpt lat="63.334299987182021" lon="10.331838028505445">
        <ele>74.159999999999997</ele>
        <time>2017-06-30T05:51:40Z</time>
      </trkpt>
      <trkpt lat="63.334161015227437" lon="10.331806009635329">
        <ele>73.680000000000007</ele>
        <time>2017-06-30T05:51:41Z</time>
      </trkpt>
      <trkpt lat="63.334019025787711" lon="10.33183098770678">
        <ele>73.200000000000003</ele>
        <time>2017-06-30T05:51:42Z</time>
      </trkpt>
      <trkpt lat="63.333869995549321" lon="10.331902988255024">
        <ele>72.719999999999999</ele>
        <time>2017-06-30T05:51:43Z</time>
      </trkpt>
      <trkpt lat="63.333721971139312" lon="10.332007007673383">
        <ele>72.239999999999995</ele>
        <time>2017-06-30T05:51:44Z</time>
      </trkpt>
      <trkpt lat="63.333574030548334" lon="10.332119995728135">
        <ele>71.760000000000005</ele>
        <time>2017-06-30T05:51:45Z</time>
      </trkpt>
      <trkpt lat="63.333419971168041" lon="10.33221697434783">
        <ele>70.310000000000002</ele>
        <time>2017-06-30T05:51:46Z</time>
      </trkpt>
      <trkpt lat="63.333260966464877" lon="10.332275982946157">
        <ele>69.349999999999994</ele>
        <time>2017-06-30T05:51:47Z</time>
      </trkpt>
      <trkpt lat="63.33249100483954" lon="10.332314958795905">
        <ele>65.510000000000005</ele>
        <time>2017-06-30T05:51:52Z</time>
      </trkpt>
      <trkpt lat="63.332352032884955" lon="10.332253016531467">
        <ele>65.030000000000001</ele>
        <time>2017-06-30T05:51:53Z</time>
      </trkpt>
      <trkpt lat="63.332225969061255" lon="10.332141034305096">
        <ele>64.069999999999993</ele>
        <time>2017-06-30T05:51:54Z</time>
      </trkpt>
      <trkpt lat="63.332112981006503" lon="10.331987980753183">
        <ele>63.579999999999998</ele>
        <time>2017-06-30T05:51:55Z</time>
      </trkpt>
      <trkpt lat="63.332013990730047" lon="10.331788994371891">
        <ele>63.100000000000001</ele>
        <time>2017-06-30T05:51:56Z</time>
      </trkpt>
      <trkpt lat="63.331931009888649" lon="10.331546002998948">
        <ele>62.619999999999997</ele>
        <time>2017-06-30T05:51:57Z</time>
      </trkpt>
      <trkpt lat="63.331863032653928" lon="10.331267975270748">
        <ele>61.659999999999997</ele>
        <time>2017-06-30T05:51:58Z</time>
      </trkpt>
      <trkpt lat="63.331800000742078" lon="10.330964969471097">
        <ele>61.18</ele>
        <time>2017-06-30T05:51:59Z</time>
      </trkpt>
      <trkpt lat="63.331451984122396" lon="10.329435020685196">
        <ele>58.299999999999997</ele>
        <time>2017-06-30T05:52:04Z</time>
      </trkpt>
      <trkpt lat="63.331349976360798" lon="10.329168979078531">
        <ele>57.82</ele>
        <time>2017-06-30T05:52:05Z</time>
      </trkpt>
      <trkpt lat="63.331231959164143" lon="10.328940991312265">
        <ele>57.340000000000003</ele>
        <time>2017-06-30T05:52:06Z</time>
      </trkpt>
      <trkpt lat="63.331099022179842" lon="10.328749967738986">
        <ele>56.859999999999999</ele>
        <time>2017-06-30T05:52:07Z</time>
      </trkpt>
      <trkpt lat="63.330956026911736" lon="10.328594986349344">
        <ele>56.859999999999999</ele>
        <time>2017-06-30T05:52:08Z</time>
      </trkpt>
      <trkpt lat="63.330809008330107" lon="10.328462971374393">
        <ele>56.369999999999997</ele>
        <time>2017-06-30T05:52:09Z</time>
      </trkpt>
      <trkpt lat="63.330657966434956" lon="10.32834998331964">
        <ele>55.409999999999997</ele>
        <time>2017-06-30T05:52:10Z</time>
      </trkpt>
      <trkpt lat="63.328946968540549" lon="10.326852975413203">
        <ele>52.049999999999997</ele>
        <time>2017-06-30T05:52:22Z</time>
      </trkpt>
      <trkpt lat="63.328614961355925" lon="10.326241012662649">
        <ele>50.609999999999999</ele>
        <time>2017-06-30T05:52:25Z</time>
      </trkpt>
      <trkpt lat="63.328528963029385" lon="10.326004978269339">
        <ele>49.649999999999999</ele>
        <time>2017-06-30T05:52:26Z</time>
      </trkpt>
      <trkpt lat="63.328460985794663" lon="10.325747989118099">
        <ele>49.159999999999997</ele>
        <time>2017-06-30T05:52:27Z</time>
      </trkpt>
      <trkpt lat="63.32774399779737" lon="10.322993025183678">
        <ele>47.719999999999999</ele>
        <time>2017-06-30T05:52:38Z</time>
      </trkpt>
      <trkpt lat="63.326894994825125" lon="10.321419993415475">
        <ele>44.359999999999999</ele>
        <time>2017-06-30T05:52:47Z</time>
      </trkpt>
      <trkpt lat="63.325191959738731" lon="10.318741975352168">
        <ele>39.07</ele>
        <time>2017-06-30T05:53:02Z</time>
      </trkpt>
      <trkpt lat="63.325103027746081" lon="10.318571990355849">
        <ele>38.590000000000003</ele>
        <time>2017-06-30T05:53:03Z</time>
      </trkpt>
      <trkpt lat="63.325031027197838" lon="10.318388007581234">
        <ele>38.590000000000003</ele>
        <time>2017-06-30T05:53:04Z</time>
      </trkpt>
      <trkpt lat="63.324975958094001" lon="10.318182986229658">
        <ele>38.109999999999999</ele>
        <time>2017-06-30T05:53:05Z</time>
      </trkpt>
      <trkpt lat="63.324943017214537" lon="10.31794804148376">
        <ele>37.630000000000003</ele>
        <time>2017-06-30T05:53:06Z</time>
      </trkpt>
      <trkpt lat="63.324930025264621" lon="10.317684011533856">
        <ele>37.630000000000003</ele>
        <time>2017-06-30T05:53:07Z</time>
      </trkpt>
      <trkpt lat="63.32492901943624" lon="10.317417969927192">
        <ele>37.149999999999999</ele>
        <time>2017-06-30T05:53:08Z</time>
      </trkpt>
      <trkpt lat="63.324855007231236" lon="10.31285997480154">
        <ele>33.299999999999997</ele>
        <time>2017-06-30T05:53:23Z</time>
      </trkpt>
      <trkpt lat="63.324750987812877" lon="10.308329975232482">
        <ele>28.5</ele>
        <time>2017-06-30T05:53:39Z</time>
      </trkpt>
      <trkpt lat="63.324773032218218" lon="10.30772496946156">
        <ele>27.530000000000001</ele>
        <time>2017-06-30T05:53:42Z</time>
      </trkpt>
      <trkpt lat="63.324803961440921" lon="10.307565964758396">
        <ele>27.530000000000001</ele>
        <time>2017-06-30T05:53:43Z</time>
      </trkpt>
      <trkpt lat="63.3248430211097" lon="10.307427998632193">
        <ele>27.530000000000001</ele>
        <time>2017-06-30T05:53:44Z</time>
      </trkpt>
      <trkpt lat="63.324880991131067" lon="10.307167991995811">
        <ele>27.530000000000001</ele>
        <time>2017-06-30T05:53:46Z</time>
      </trkpt>
      <trkpt lat="63.324861964210868" lon="10.307044023647904">
        <ele>27.530000000000001</ele>
        <time>2017-06-30T05:53:47Z</time>
      </trkpt>
      <trkpt lat="63.324820976704359" lon="10.306959031149745">
        <ele>27.530000000000001</ele>
        <time>2017-06-30T05:53:48Z</time>
      </trkpt>
      <trkpt lat="63.324764985591173" lon="10.306917037814856">
        <ele>27.530000000000001</ele>
        <time>2017-06-30T05:53:49Z</time>
      </trkpt>
      <trkpt lat="63.32469399087131" lon="10.306891975924373">
        <ele>27.050000000000001</ele>
        <time>2017-06-30T05:53:50Z</time>
      </trkpt>
      <trkpt lat="63.324550995603204" lon="10.306753003969789">
        <ele>26.57</ele>
        <time>2017-06-30T05:53:52Z</time>
      </trkpt>
      <trkpt lat="63.324265005066991" lon="10.306258974596858">
        <ele>26.57</ele>
        <time>2017-06-30T05:53:56Z</time>
      </trkpt>
      <trkpt lat="63.324212031438947" lon="10.3060910012573">
        <ele>26.57</ele>
        <time>2017-06-30T05:53:57Z</time>
      </trkpt>
      <trkpt lat="63.323909025639296" lon="10.305028008297086">
        <ele>27.050000000000001</ele>
        <time>2017-06-30T05:54:04Z</time>
      </trkpt>
      <trkpt lat="63.323885975405574" lon="10.304873026907444">
        <ele>27.050000000000001</ele>
        <time>2017-06-30T05:54:05Z</time>
      </trkpt>
      <trkpt lat="63.32387700676918" lon="10.304711004719138">
        <ele>27.050000000000001</ele>
        <time>2017-06-30T05:54:06Z</time>
      </trkpt>
      <trkpt lat="63.323874995112419" lon="10.304532973095775">
        <ele>27.050000000000001</ele>
        <time>2017-06-30T05:54:07Z</time>
      </trkpt>
      <trkpt lat="63.323886981233954" lon="10.304347984492779">
        <ele>26.57</ele>
        <time>2017-06-30T05:54:08Z</time>
      </trkpt>
      <trkpt lat="63.323903996497393" lon="10.304156038910151">
        <ele>26.57</ele>
        <time>2017-06-30T05:54:09Z</time>
      </trkpt>
      <trkpt lat="63.323972979560494" lon="10.303509039804339">
        <ele>26.09</ele>
        <time>2017-06-30T05:54:12Z</time>
      </trkpt>
      <trkpt lat="63.323958981782198" lon="10.30250002630055">
        <ele>27.050000000000001</ele>
        <time>2017-06-30T05:54:16Z</time>
      </trkpt>
      <trkpt lat="63.32383400760591" lon="10.299273999407887">
        <ele>27.530000000000001</ele>
        <time>2017-06-30T05:54:27Z</time>
      </trkpt>
      <trkpt lat="63.323955964297056" lon="10.294593963772058">
        <ele>21.289999999999999</ele>
        <time>2017-06-30T05:54:41Z</time>
      </trkpt>
      <trkpt lat="63.324382016435266" lon="10.291251009330153">
        <ele>16.960000000000001</ele>
        <time>2017-06-30T05:54:50Z</time>
      </trkpt>
      <trkpt lat="63.324657026678324" lon="10.287831025198102">
        <ele>13.6</ele>
        <time>2017-06-30T05:54:59Z</time>
      </trkpt>
      <trkpt lat="63.324470026418567" lon="10.282286982983351">
        <ele>7.83</ele>
        <time>2017-06-30T05:55:13Z</time>
      </trkpt>
      <trkpt lat="63.32430699840188" lon="10.278308009728789">
        <ele>6.39</ele>
        <time>2017-06-30T05:55:24Z</time>
      </trkpt>
      <trkpt lat="63.324268022552133" lon="10.277684982866049">
        <ele>6.39</ele>
        <time>2017-06-30T05:55:30Z</time>
      </trkpt>
      <trkpt lat="63.324250001460314" lon="10.277719013392925">
        <ele>6.87</ele>
        <time>2017-06-30T05:55:45Z</time>
      </trkpt>
      <trkpt lat="63.324233992025256" lon="10.277762012556195">
        <ele>6.87</ele>
        <time>2017-06-30T05:55:46Z</time>
      </trkpt>
      <trkpt lat="63.324222005903721" lon="10.27785899117589">
        <ele>6.87</ele>
        <time>2017-06-30T05:55:47Z</time>
      </trkpt>
      <trkpt lat="63.324226029217243" lon="10.278005003929138">
        <ele>6.87</ele>
        <time>2017-06-30T05:55:48Z</time>
      </trkpt>
      <trkpt lat="63.324234997853637" lon="10.278184963390231">
        <ele>6.87</ele>
        <time>2017-06-30T05:55:49Z</time>
      </trkpt>
      <trkpt lat="63.32436902448535" lon="10.280576990917325">
        <ele>8.789999999999999</ele>
        <time>2017-06-30T05:55:58Z</time>
      </trkpt>
      <trkpt lat="63.324515037238598" lon="10.2845189999789">
        <ele>12.630000000000001</ele>
        <time>2017-06-30T05:56:09Z</time>
      </trkpt>
      <trkpt lat="63.324523000046611" lon="10.290091037750244">
        <ele>18.399999999999999</ele>
        <time>2017-06-30T05:56:23Z</time>
      </trkpt>
      <trkpt lat="63.323997035622597" lon="10.293756024912">
        <ele>23.690000000000001</ele>
        <time>2017-06-30T05:56:33Z</time>
      </trkpt>
      <trkpt lat="63.323820009827614" lon="10.297504998743534">
        <ele>28.5</ele>
        <time>2017-06-30T05:56:43Z</time>
      </trkpt>
      <trkpt lat="63.323892010375857" lon="10.30228796415031">
        <ele>29.940000000000001</ele>
        <time>2017-06-30T05:56:56Z</time>
      </trkpt>
      <trkpt lat="63.32394297234714" lon="10.302885007113218">
        <ele>29.460000000000001</ele>
        <time>2017-06-30T05:56:58Z</time>
      </trkpt>
      <trkpt lat="63.323767958208919" lon="10.304429959505796">
        <ele>28.98</ele>
        <time>2017-06-30T05:57:05Z</time>
      </trkpt>
      <trkpt lat="63.323609959334135" lon="10.30465099029243">
        <ele>29.460000000000001</ele>
        <time>2017-06-30T05:57:07Z</time>
      </trkpt>
      <trkpt lat="63.323514992371202" lon="10.304698012769222">
        <ele>29.460000000000001</ele>
        <time>2017-06-30T05:57:08Z</time>
      </trkpt>
      <trkpt lat="63.323411978781223" lon="10.304707987233996">
        <ele>29.460000000000001</ele>
        <time>2017-06-30T05:57:09Z</time>
      </trkpt>
      <trkpt lat="63.323305025696754" lon="10.304676974192262">
        <ele>29.940000000000001</ele>
        <time>2017-06-30T05:57:10Z</time>
      </trkpt>
      <trkpt lat="63.323198994621634" lon="10.304605979472399">
        <ele>29.940000000000001</ele>
        <time>2017-06-30T05:57:11Z</time>
      </trkpt>
      <trkpt lat="63.323101010173559" lon="10.304516041651368">
        <ele>29.940000000000001</ele>
        <time>2017-06-30T05:57:12Z</time>
      </trkpt>
      <trkpt lat="63.323019035160542" lon="10.304403975605965">
        <ele>29.940000000000001</ele>
        <time>2017-06-30T05:57:13Z</time>
      </trkpt>
      <trkpt lat="63.322944017127156" lon="10.304271038621664">
        <ele>29.460000000000001</ele>
        <time>2017-06-30T05:57:14Z</time>
      </trkpt>
      <trkpt lat="63.322878973558545" lon="10.304119996726513">
        <ele>29.460000000000001</ele>
        <time>2017-06-30T05:57:15Z</time>
      </trkpt>
      <trkpt lat="63.322818959131837" lon="10.303975995630026">
        <ele>29.460000000000001</ele>
        <time>2017-06-30T05:57:16Z</time>
      </trkpt>
      <trkpt lat="63.322713011875749" lon="10.303676007315516">
        <ele>28.5</ele>
        <time>2017-06-30T05:57:21Z</time>
      </trkpt>
      <trkpt lat="63.322536991909146" lon="10.303349029272795">
        <ele>28.02</ele>
        <time>2017-06-30T05:57:27Z</time>
      </trkpt>
      <trkpt lat="63.322181012481451" lon="10.303022973239422">
        <ele>27.530000000000001</ele>
        <time>2017-06-30T05:57:31Z</time>
      </trkpt>
      <trkpt lat="63.322091996669769" lon="10.302896993234754">
        <ele>27.530000000000001</ele>
        <time>2017-06-30T05:57:32Z</time>
      </trkpt>
      <trkpt lat="63.320780983194709" lon="10.300780981779099">
        <ele>24.649999999999999</ele>
        <time>2017-06-30T05:57:45Z</time>
      </trkpt>
      <trkpt lat="63.319030003622174" lon="10.298111010342836">
        <ele>22.25</ele>
        <time>2017-06-30T05:57:59Z</time>
      </trkpt>
      <trkpt lat="63.317943960428238" lon="10.296390037983656">
        <ele>18.399999999999999</ele>
        <time>2017-06-30T05:58:09Z</time>
      </trkpt>
      <trkpt lat="63.317544981837273" lon="10.295731974765658">
        <ele>18.399999999999999</ele>
        <time>2017-06-30T05:58:13Z</time>
      </trkpt>
      <trkpt lat="63.317445991560817" lon="10.295636001974344">
        <ele>18.399999999999999</ele>
        <time>2017-06-30T05:58:14Z</time>
      </trkpt>
      <trkpt lat="63.317340966314077" lon="10.295588979497552">
        <ele>18.399999999999999</ele>
        <time>2017-06-30T05:58:15Z</time>
      </trkpt>
      <trkpt lat="63.31723703071475" lon="10.295594008639455">
        <ele>18.399999999999999</ele>
        <time>2017-06-30T05:58:16Z</time>
      </trkpt>
      <trkpt lat="63.317135022953153" lon="10.295631978660822">
        <ele>18.399999999999999</ele>
        <time>2017-06-30T05:58:17Z</time>
      </trkpt>
      <trkpt lat="63.317037960514426" lon="10.295685036107898">
        <ele>18.399999999999999</ele>
        <time>2017-06-30T05:58:18Z</time>
      </trkpt>
      <trkpt lat="63.31633597612381" lon="10.295959962531924">
        <ele>18.399999999999999</ele>
        <time>2017-06-30T05:58:26Z</time>
      </trkpt>
      <trkpt lat="63.316233968362212" lon="10.295988041907549">
        <ele>18.399999999999999</ele>
        <time>2017-06-30T05:58:27Z</time>
      </trkpt>
      <trkpt lat="63.316129026934505" lon="10.295979995280504">
        <ele>18.399999999999999</ele>
        <time>2017-06-30T05:58:28Z</time>
      </trkpt>
      <trkpt lat="63.316017966717482" lon="10.295931966975331">
        <ele>18.399999999999999</ele>
        <time>2017-06-30T05:58:29Z</time>
      </trkpt>
      <trkpt lat="63.314604023471475" lon="10.294952960684896">
        <ele>19.84</ele>
        <time>2017-06-30T05:58:40Z</time>
      </trkpt>
      <trkpt lat="63.312438977882266" lon="10.293379006907344">
        <ele>17.920000000000002</ele>
        <time>2017-06-30T05:58:57Z</time>
      </trkpt>
      <trkpt lat="63.31233898177743" lon="10.293216984719038">
        <ele>17.920000000000002</ele>
        <time>2017-06-30T05:58:58Z</time>
      </trkpt>
      <trkpt lat="63.312249965965748" lon="10.293016992509365">
        <ele>17.920000000000002</ele>
        <time>2017-06-30T05:58:59Z</time>
      </trkpt>
      <trkpt lat="63.312168996781111" lon="10.292793028056622">
        <ele>17.440000000000001</ele>
        <time>2017-06-30T05:59:00Z</time>
      </trkpt>
      <trkpt lat="63.312104037031531" lon="10.292539978399873">
        <ele>17.440000000000001</ele>
        <time>2017-06-30T05:59:01Z</time>
      </trkpt>
      <trkpt lat="63.312060032039881" lon="10.292267985641956">
        <ele>17.440000000000001</ele>
        <time>2017-06-30T05:59:02Z</time>
      </trkpt>
      <trkpt lat="63.312032036483288" lon="10.291993981227279">
        <ele>17.440000000000001</ele>
        <time>2017-06-30T05:59:03Z</time>
      </trkpt>
      <trkpt lat="63.312013009563088" lon="10.291718970984221">
        <ele>16.960000000000001</ele>
        <time>2017-06-30T05:59:04Z</time>
      </trkpt>
      <trkpt lat="63.311500959098339" lon="10.289993975311518">
        <ele>16</ele>
        <time>2017-06-30T05:59:12Z</time>
      </trkpt>
      <trkpt lat="63.31126400269568" lon="10.289820972830057">
        <ele>16</ele>
        <time>2017-06-30T05:59:14Z</time>
      </trkpt>
      <trkpt lat="63.309896998107433" lon="10.289421994239092">
        <ele>16</ele>
        <time>2017-06-30T05:59:25Z</time>
      </trkpt>
      <trkpt lat="63.309001978486776" lon="10.289091998711228">
        <ele>15.039999999999999</ele>
        <time>2017-06-30T05:59:32Z</time>
      </trkpt>
      <trkpt lat="63.308092961087823" lon="10.289465999230742">
        <ele>16.48</ele>
        <time>2017-06-30T05:59:41Z</time>
      </trkpt>
      <trkpt lat="63.307158965617418" lon="10.289699016138911">
        <ele>16.960000000000001</ele>
        <time>2017-06-30T05:59:52Z</time>
      </trkpt>
      <trkpt lat="63.307055030018091" lon="10.289714019745588">
        <ele>16.960000000000001</ele>
        <time>2017-06-30T05:59:53Z</time>
      </trkpt>
      <trkpt lat="63.30694698728621" lon="10.289704967290163">
        <ele>16.960000000000001</ele>
        <time>2017-06-30T05:59:54Z</time>
      </trkpt>
      <trkpt lat="63.306837016716599" lon="10.289670014753938">
        <ele>16.960000000000001</ele>
        <time>2017-06-30T05:59:55Z</time>
      </trkpt>
      <trkpt lat="63.306724028661847" lon="10.289607988670468">
        <ele>16.960000000000001</ele>
        <time>2017-06-30T05:59:56Z</time>
      </trkpt>
      <trkpt lat="63.306608023121953" lon="10.289533976465464">
        <ele>16.960000000000001</ele>
        <time>2017-06-30T05:59:57Z</time>
      </trkpt>
      <trkpt lat="63.30477599054575" lon="10.288598975166678">
        <ele>16</ele>
        <time>2017-06-30T06:00:11Z</time>
      </trkpt>
      <trkpt lat="63.302984023466706" lon="10.287805963307619">
        <ele>14.56</ele>
        <time>2017-06-30T06:00:23Z</time>
      </trkpt>
      <trkpt lat="63.300486970692873" lon="10.286692008376122">
        <ele>11.67</ele>
        <time>2017-06-30T06:00:37Z</time>
      </trkpt>
      <trkpt lat="63.298353021964431" lon="10.284751011058688">
        <ele>9.27</ele>
        <time>2017-06-30T06:00:48Z</time>
      </trkpt>
      <trkpt lat="63.297043014317751" lon="10.282627958804369">
        <ele>7.35</ele>
        <time>2017-06-30T06:00:55Z</time>
      </trkpt>
      <trkpt lat="63.294124016538262" lon="10.276809995993972">
        <ele>7.35</ele>
        <time>2017-06-30T06:01:12Z</time>
      </trkpt>
      <trkpt lat="63.292133985087276" lon="10.273279035463929">
        <ele>13.6</ele>
        <time>2017-06-30T06:01:24Z</time>
      </trkpt>
      <trkpt lat="63.290786007419229" lon="10.272259963676333">
        <ele>15.52</ele>
        <time>2017-06-30T06:01:31Z</time>
      </trkpt>
      <trkpt lat="63.288691034540534" lon="10.271893003955483">
        <ele>16</ele>
        <time>2017-06-30T06:01:41Z</time>
      </trkpt>
      <trkpt lat="63.285154961049557" lon="10.271805999800563">
        <ele>16</ele>
        <time>2017-06-30T06:01:58Z</time>
      </trkpt>
      <trkpt lat="63.283197032287717" lon="10.273051969707012">
        <ele>13.119999999999999</ele>
        <time>2017-06-30T06:02:08Z</time>
      </trkpt>
      <trkpt lat="63.281011031940579" lon="10.275596966966987">
        <ele>11.67</ele>
        <time>2017-06-30T06:02:20Z</time>
      </trkpt>
      <trkpt lat="63.27948703430593" lon="10.278669018298388">
        <ele>14.08</ele>
        <time>2017-06-30T06:02:30Z</time>
      </trkpt>
      <trkpt lat="63.277046978473663" lon="10.283763958141208">
        <ele>12.15</ele>
        <time>2017-06-30T06:02:47Z</time>
      </trkpt>
      <trkpt lat="63.275586012750864" lon="10.285758012905717">
        <ele>10.23</ele>
        <time>2017-06-30T06:02:54Z</time>
      </trkpt>
      <trkpt lat="63.273936035111547" lon="10.286765014752746">
        <ele>9.27</ele>
        <time>2017-06-30T06:03:01Z</time>
      </trkpt>
      <trkpt lat="63.272082963958383" lon="10.286728972569108">
        <ele>9.75</ele>
        <time>2017-06-30T06:03:09Z</time>
      </trkpt>
      <trkpt lat="63.268791977316141" lon="10.28602397069335">
        <ele>11.19</ele>
        <time>2017-06-30T06:03:24Z</time>
      </trkpt>
      <trkpt lat="63.265108969062567" lon="10.286250030621886">
        <ele>12.630000000000001</ele>
        <time>2017-06-30T06:03:41Z</time>
      </trkpt>
      <trkpt lat="63.262104978784919" lon="10.285773016512394">
        <ele>12.630000000000001</ele>
        <time>2017-06-30T06:03:55Z</time>
      </trkpt>
      <trkpt lat="63.259581020101905" lon="10.284169977530837">
        <ele>8.789999999999999</ele>
        <time>2017-06-30T06:04:07Z</time>
      </trkpt>
      <trkpt lat="63.257279014214873" lon="10.282958038151264">
        <ele>11.19</ele>
        <time>2017-06-30T06:04:18Z</time>
      </trkpt>
      <trkpt lat="63.254296984523535" lon="10.282073998823762">
        <ele>21.289999999999999</ele>
        <time>2017-06-30T06:04:32Z</time>
      </trkpt>
      <trkpt lat="63.252541981637478" lon="10.28048001229763">
        <ele>24.649999999999999</ele>
        <time>2017-06-30T06:04:40Z</time>
      </trkpt>
      <trkpt lat="63.248319011181593" lon="10.276631964370608">
        <ele>31.379999999999999</ele>
        <time>2017-06-30T06:05:00Z</time>
      </trkpt>
      <trkpt lat="63.246299978345633" lon="10.27579796500504">
        <ele>33.299999999999997</ele>
        <time>2017-06-30T06:05:09Z</time>
      </trkpt>
      <trkpt lat="63.243730003014207" lon="10.275958981364965">
        <ele>25.129999999999999</ele>
        <time>2017-06-30T06:05:20Z</time>
      </trkpt>
      <trkpt lat="63.241224987432361" lon="10.276352008804679">
        <ele>16.960000000000001</ele>
        <time>2017-06-30T06:05:31Z</time>
      </trkpt>
      <trkpt lat="63.239810038357973" lon="10.276567004621029">
        <ele>16.960000000000001</ele>
        <time>2017-06-30T06:05:39Z</time>
      </trkpt>
      <trkpt lat="63.237967025488615" lon="10.276818964630365">
        <ele>20.32</ele>
        <time>2017-06-30T06:05:52Z</time>
      </trkpt>
      <trkpt lat="63.236192995682359" lon="10.27701904065907">
        <ele>22.25</ele>
        <time>2017-06-30T06:06:03Z</time>
      </trkpt>
      <trkpt lat="63.233727961778641" lon="10.276958020403981">
        <ele>35.229999999999997</ele>
        <time>2017-06-30T06:06:18Z</time>
      </trkpt>
      <trkpt lat="63.233255976811051" lon="10.276871016249061">
        <ele>38.590000000000003</ele>
        <time>2017-06-30T06:06:21Z</time>
      </trkpt>
      <trkpt lat="63.233105018734932" lon="10.276907980442047">
        <ele>39.07</ele>
        <time>2017-06-30T06:06:22Z</time>
      </trkpt>
      <trkpt lat="63.232959005981684" lon="10.276976963505149">
        <ele>40.030000000000001</ele>
        <time>2017-06-30T06:06:23Z</time>
      </trkpt>
      <trkpt lat="63.232819028198719" lon="10.277076037600636">
        <ele>40.509999999999998</ele>
        <time>2017-06-30T06:06:24Z</time>
      </trkpt>
      <trkpt lat="63.232682989910245" lon="10.277207968756557">
        <ele>40.990000000000002</ele>
        <time>2017-06-30T06:06:25Z</time>
      </trkpt>
      <trkpt lat="63.232551980763674" lon="10.277370996773243">
        <ele>41.469999999999999</ele>
        <time>2017-06-30T06:06:26Z</time>
      </trkpt>
      <trkpt lat="63.232426000759006" lon="10.277556991204619">
        <ele>41.469999999999999</ele>
        <time>2017-06-30T06:06:27Z</time>
      </trkpt>
      <trkpt lat="63.23230697773397" lon="10.277753965929151">
        <ele>41.469999999999999</ele>
        <time>2017-06-30T06:06:28Z</time>
      </trkpt>
      <trkpt lat="63.231162009760737" lon="10.279809962958097">
        <ele>41.950000000000003</ele>
        <time>2017-06-30T06:06:39Z</time>
      </trkpt>
      <trkpt lat="63.229720992967486" lon="10.282914033159614">
        <ele>42.439999999999998</ele>
        <time>2017-06-30T06:06:54Z</time>
      </trkpt>
      <trkpt lat="63.228906020522118" lon="10.285273035988212">
        <ele>34.259999999999998</ele>
        <time>2017-06-30T06:07:04Z</time>
      </trkpt>
      <trkpt lat="63.228780040517449" lon="10.285480991005898">
        <ele>32.82</ele>
        <time>2017-06-30T06:07:05Z</time>
      </trkpt>
      <trkpt lat="63.228642996400595" lon="10.285662040114403">
        <ele>31.859999999999999</ele>
        <time>2017-06-30T06:07:06Z</time>
      </trkpt>
      <trkpt lat="63.228497989475727" lon="10.285819033160806">
        <ele>30.899999999999999</ele>
        <time>2017-06-30T06:07:07Z</time>
      </trkpt>
      <trkpt lat="63.228350970894098" lon="10.285949036478996">
        <ele>29.940000000000001</ele>
        <time>2017-06-30T06:07:08Z</time>
      </trkpt>
      <trkpt lat="63.2273009698838" lon="10.286608021706343">
        <ele>28.5</ele>
        <time>2017-06-30T06:07:16Z</time>
      </trkpt>
      <trkpt lat="63.22599096223712" lon="10.287485020235181">
        <ele>19.359999999999999</ele>
        <time>2017-06-30T06:07:25Z</time>
      </trkpt>
      <trkpt lat="63.224319024011493" lon="10.289415037259459">
        <ele>18.399999999999999</ele>
        <time>2017-06-30T06:07:36Z</time>
      </trkpt>
      <trkpt lat="63.222224973142147" lon="10.292335040867329">
        <ele>18.879999999999999</ele>
        <time>2017-06-30T06:07:51Z</time>
      </trkpt>
      <trkpt lat="63.221066007390618" lon="10.295057985931635">
        <ele>19.359999999999999</ele>
        <time>2017-06-30T06:08:01Z</time>
      </trkpt>
      <trkpt lat="63.220494026318192" lon="10.298012020066381">
        <ele>21.289999999999999</ele>
        <time>2017-06-30T06:08:10Z</time>
      </trkpt>
      <trkpt lat="63.219710988923907" lon="10.302405981346965">
        <ele>21.289999999999999</ele>
        <time>2017-06-30T06:08:23Z</time>
      </trkpt>
      <trkpt lat="63.218700969591737" lon="10.304978974163532">
        <ele>21.77</ele>
        <time>2017-06-30T06:08:32Z</time>
      </trkpt>
      <trkpt lat="63.217673012986779" lon="10.306350002065301">
        <ele>20.809999999999999</ele>
        <time>2017-06-30T06:08:39Z</time>
      </trkpt>
      <trkpt lat="63.216285975649953" lon="10.306898010894656">
        <ele>20.809999999999999</ele>
        <time>2017-06-30T06:08:47Z</time>
      </trkpt>
      <trkpt lat="63.214273983612657" lon="10.306880995631218">
        <ele>19.84</ele>
        <time>2017-06-30T06:08:58Z</time>
      </trkpt>
      <trkpt lat="63.212959030643106" lon="10.305906012654305">
        <ele>19.359999999999999</ele>
        <time>2017-06-30T06:09:06Z</time>
      </trkpt>
      <trkpt lat="63.210070040076971" lon="10.302735976874828">
        <ele>23.210000000000001</ele>
        <time>2017-06-30T06:09:24Z</time>
      </trkpt>
      <trkpt lat="63.207824025303125" lon="10.300456015393138">
        <ele>27.530000000000001</ele>
        <time>2017-06-30T06:09:39Z</time>
      </trkpt>
      <trkpt lat="63.207674995064735" lon="10.300400024279952">
        <ele>28.5</ele>
        <time>2017-06-30T06:09:40Z</time>
      </trkpt>
      <trkpt lat="63.207527976483107" lon="10.300377979874611">
        <ele>28.98</ele>
        <time>2017-06-30T06:09:41Z</time>
      </trkpt>
      <trkpt lat="63.207381963729858" lon="10.300387032330036">
        <ele>29.940000000000001</ele>
        <time>2017-06-30T06:09:42Z</time>
      </trkpt>
      <trkpt lat="63.207236034795642" lon="10.300431959331036">
        <ele>30.420000000000002</ele>
        <time>2017-06-30T06:09:43Z</time>
      </trkpt>
      <trkpt lat="63.207092033699155" lon="10.300509994849563">
        <ele>30.899999999999999</ele>
        <time>2017-06-30T06:09:44Z</time>
      </trkpt>
      <trkpt lat="63.206949960440397" lon="10.300616025924683">
        <ele>30.899999999999999</ele>
        <time>2017-06-30T06:09:45Z</time>
      </trkpt>
      <trkpt lat="63.206804031506181" lon="10.300746029242873">
        <ele>30.899999999999999</ele>
        <time>2017-06-30T06:09:46Z</time>
      </trkpt>
      <trkpt lat="63.205519001930952" lon="10.301717994734645">
        <ele>23.210000000000001</ele>
        <time>2017-06-30T06:09:54Z</time>
      </trkpt>
      <trkpt lat="63.204099023714662" lon="10.301826959475875">
        <ele>20.809999999999999</ele>
        <time>2017-06-30T06:10:01Z</time>
      </trkpt>
      <trkpt lat="63.201757036149502" lon="10.301648005843163">
        <ele>21.77</ele>
        <time>2017-06-30T06:10:13Z</time>
      </trkpt>
      <trkpt lat="63.199448995292187" lon="10.301542980596423">
        <ele>22.25</ele>
        <time>2017-06-30T06:10:27Z</time>
      </trkpt>
      <trkpt lat="63.197992974892259" lon="10.301659991964698">
        <ele>22.73</ele>
        <time>2017-06-30T06:10:39Z</time>
      </trkpt>
      <trkpt lat="63.196783969178796" lon="10.30245803296566">
        <ele>23.690000000000001</ele>
        <time>2017-06-30T06:10:49Z</time>
      </trkpt>
      <trkpt lat="63.195629026740789" lon="10.303557990118861">
        <ele>27.050000000000001</ele>
        <time>2017-06-30T06:10:57Z</time>
      </trkpt>
      <trkpt lat="63.193377982825041" lon="10.305779026821256">
        <ele>40.990000000000002</ele>
        <time>2017-06-30T06:11:11Z</time>
      </trkpt>
      <trkpt lat="63.190435012802482" lon="10.308566009625793">
        <ele>34.740000000000002</ele>
        <time>2017-06-30T06:11:29Z</time>
      </trkpt>
      <trkpt lat="63.188468031585217" lon="10.310517987236381">
        <ele>33.299999999999997</ele>
        <time>2017-06-30T06:11:41Z</time>
      </trkpt>
      <trkpt lat="63.185679037123919" lon="10.313128028064966">
        <ele>36.189999999999998</ele>
        <time>2017-06-30T06:11:57Z</time>
      </trkpt>
      <trkpt lat="63.183531006798148" lon="10.314726959913969">
        <ele>35.710000000000001</ele>
        <time>2017-06-30T06:12:09Z</time>
      </trkpt>
      <trkpt lat="63.18035501986742" lon="10.316456984728575">
        <ele>35.229999999999997</ele>
        <time>2017-06-30T06:12:25Z</time>
      </trkpt>
      <trkpt lat="63.177071996033192" lon="10.316777005791664">
        <ele>40.030000000000001</ele>
        <time>2017-06-30T06:12:42Z</time>
      </trkpt>
      <trkpt lat="63.17410396412015" lon="10.31664096750319">
        <ele>55.890000000000001</ele>
        <time>2017-06-30T06:12:58Z</time>
      </trkpt>
      <trkpt lat="63.172180987894535" lon="10.315678976476192">
        <ele>53.969999999999999</ele>
        <time>2017-06-30T06:13:08Z</time>
      </trkpt>
      <trkpt lat="63.168292958289385" lon="10.313413012772799">
        <ele>56.369999999999997</ele>
        <time>2017-06-30T06:13:29Z</time>
      </trkpt>
      <trkpt lat="63.166256994009018" lon="10.311270011588931">
        <ele>58.780000000000001</ele>
        <time>2017-06-30T06:13:41Z</time>
      </trkpt>
      <trkpt lat="63.166121961548924" lon="10.310985026881099">
        <ele>58.299999999999997</ele>
        <time>2017-06-30T06:13:42Z</time>
      </trkpt>
      <trkpt lat="63.164283977821469" lon="10.306785022839904">
        <ele>50.130000000000003</ele>
        <time>2017-06-30T06:13:56Z</time>
      </trkpt>
      <trkpt lat="63.162800967693329" lon="10.303648011758924">
        <ele>49.649999999999999</ele>
        <time>2017-06-30T06:14:08Z</time>
      </trkpt>
      <trkpt lat="63.161303959786892" lon="10.300431037321687">
        <ele>49.649999999999999</ele>
        <time>2017-06-30T06:14:20Z</time>
      </trkpt>
      <trkpt lat="63.159477962180972" lon="10.296805026009679">
        <ele>47.240000000000002</ele>
        <time>2017-06-30T06:14:34Z</time>
      </trkpt>
      <trkpt lat="63.157482985407114" lon="10.29478901065886">
        <ele>45.32</ele>
        <time>2017-06-30T06:14:47Z</time>
      </trkpt>
      <trkpt lat="63.154260981827974" lon="10.291990041732788">
        <ele>31.859999999999999</ele>
        <time>2017-06-30T06:15:08Z</time>
      </trkpt>
      <trkpt lat="63.153998963534832" lon="10.291740009561181">
        <ele>31.379999999999999</ele>
        <time>2017-06-30T06:15:10Z</time>
      </trkpt>
      <trkpt lat="63.153883963823318" lon="10.291561977937818">
        <ele>30.899999999999999</ele>
        <time>2017-06-30T06:15:11Z</time>
      </trkpt>
      <trkpt lat="63.153779022395611" lon="10.291358968243003">
        <ele>30.899999999999999</ele>
        <time>2017-06-30T06:15:12Z</time>
      </trkpt>
      <trkpt lat="63.153678020462394" lon="10.291133997961879">
        <ele>30.420000000000002</ele>
        <time>2017-06-30T06:15:13Z</time>
      </trkpt>
      <trkpt lat="63.153578024357557" lon="10.290899975225329">
        <ele>30.420000000000002</ele>
        <time>2017-06-30T06:15:14Z</time>
      </trkpt>
      <trkpt lat="63.152454011142254" lon="10.28767503798008">
        <ele>31.379999999999999</ele>
        <time>2017-06-30T06:15:27Z</time>
      </trkpt>
      <trkpt lat="63.152093002572656" lon="10.284861987456679">
        <ele>32.340000000000003</ele>
        <time>2017-06-30T06:15:36Z</time>
      </trkpt>
      <trkpt lat="63.151964005082846" lon="10.28217701241374">
        <ele>32.340000000000003</ele>
        <time>2017-06-30T06:15:46Z</time>
      </trkpt>
      <trkpt lat="63.151917988434434" lon="10.281926980242133">
        <ele>31.859999999999999</ele>
        <time>2017-06-30T06:15:47Z</time>
      </trkpt>
      <trkpt lat="63.151863003149629" lon="10.281678959727287">
        <ele>31.379999999999999</ele>
        <time>2017-06-30T06:15:48Z</time>
      </trkpt>
      <trkpt lat="63.15077000297606" lon="10.277608959004283">
        <ele>32.340000000000003</ele>
        <time>2017-06-30T06:16:04Z</time>
      </trkpt>
      <trkpt lat="63.149479022249579" lon="10.27289698831737">
        <ele>28.98</ele>
        <time>2017-06-30T06:16:21Z</time>
      </trkpt>
      <trkpt lat="63.148296000435948" lon="10.270228022709489">
        <ele>30.420000000000002</ele>
        <time>2017-06-30T06:16:31Z</time>
      </trkpt>
      <trkpt lat="63.146244026720524" lon="10.266467984765768">
        <ele>30.420000000000002</ele>
        <time>2017-06-30T06:16:47Z</time>
      </trkpt>
      <trkpt lat="63.143434999510646" lon="10.262219030410051">
        <ele>30.899999999999999</ele>
        <time>2017-06-30T06:17:07Z</time>
      </trkpt>
      <trkpt lat="63.14043796621263" lon="10.257705040276051">
        <ele>32.82</ele>
        <time>2017-06-30T06:17:27Z</time>
      </trkpt>
      <trkpt lat="63.13835103996098" lon="10.254564005881548">
        <ele>37.630000000000003</ele>
        <time>2017-06-30T06:17:42Z</time>
      </trkpt>
      <trkpt lat="63.13714899122715" lon="10.253555998206139">
        <ele>37.630000000000003</ele>
        <time>2017-06-30T06:17:50Z</time>
      </trkpt>
      <trkpt lat="63.135200031101704" lon="10.252080028876662">
        <ele>37.149999999999999</ele>
        <time>2017-06-30T06:18:02Z</time>
      </trkpt>
      <trkpt lat="63.132190005853772" lon="10.248302975669503">
        <ele>40.030000000000001</ele>
        <time>2017-06-30T06:18:21Z</time>
      </trkpt>
      <trkpt lat="63.12990702688694" lon="10.245990995317698">
        <ele>40.990000000000002</ele>
        <time>2017-06-30T06:18:35Z</time>
      </trkpt>
      <trkpt lat="63.127848012372851" lon="10.244465991854668">
        <ele>43.399999999999999</ele>
        <time>2017-06-30T06:18:47Z</time>
      </trkpt>
      <trkpt lat="63.124885009601712" lon="10.243075015023351">
        <ele>45.799999999999997</ele>
        <time>2017-06-30T06:19:04Z</time>
      </trkpt>
      <trkpt lat="63.123716991394758" lon="10.243747998028994">
        <ele>46.280000000000001</ele>
        <time>2017-06-30T06:19:11Z</time>
      </trkpt>
      <trkpt lat="63.121953019872308" lon="10.245009977370501">
        <ele>47.240000000000002</ele>
        <time>2017-06-30T06:19:21Z</time>
      </trkpt>
      <trkpt lat="63.120377976447344" lon="10.244866982102394">
        <ele>50.609999999999999</ele>
        <time>2017-06-30T06:19:29Z</time>
      </trkpt>
      <trkpt lat="63.118018973618746" lon="10.24339696392417">
        <ele>57.82</ele>
        <time>2017-06-30T06:19:41Z</time>
      </trkpt>
      <trkpt lat="63.115313965827227" lon="10.242168009281158">
        <ele>65.510000000000005</ele>
        <time>2017-06-30T06:19:54Z</time>
      </trkpt>
      <trkpt lat="63.113591987639666" lon="10.240396996960044">
        <ele>75.599999999999994</ele>
        <time>2017-06-30T06:20:03Z</time>
      </trkpt>
      <trkpt lat="63.112610969692469" lon="10.237984014675021">
        <ele>82.810000000000002</ele>
        <time>2017-06-30T06:20:10Z</time>
      </trkpt>
      <trkpt lat="63.111432977020741" lon="10.235441029071808">
        <ele>83.769999999999996</ele>
        <time>2017-06-30T06:20:19Z</time>
      </trkpt>
      <trkpt lat="63.1102279946208" lon="10.234269993379712">
        <ele>79.450000000000003</ele>
        <time>2017-06-30T06:20:26Z</time>
      </trkpt>
      <trkpt lat="63.10885101556778" lon="10.234305029734969">
        <ele>72.719999999999999</ele>
        <time>2017-06-30T06:20:33Z</time>
      </trkpt>
      <trkpt lat="63.107138006016612" lon="10.23563900962472">
        <ele>65.030000000000001</ele>
        <time>2017-06-30T06:20:42Z</time>
      </trkpt>
      <trkpt lat="63.105481993407011" lon="10.235975962132215">
        <ele>57.82</ele>
        <time>2017-06-30T06:20:50Z</time>
      </trkpt>
      <trkpt lat="63.104065032675862" lon="10.235097035765648">
        <ele>52.530000000000001</ele>
        <time>2017-06-30T06:20:57Z</time>
      </trkpt>
      <trkpt lat="63.102197963744402" lon="10.233247987926006">
        <ele>51.090000000000003</ele>
        <time>2017-06-30T06:21:07Z</time>
      </trkpt>
      <trkpt lat="63.100760970264673" lon="10.232967026531696">
        <ele>51.090000000000003</ele>
        <time>2017-06-30T06:21:14Z</time>
      </trkpt>
      <trkpt lat="63.099081991240382" lon="10.233789961785078">
        <ele>50.130000000000003</ele>
        <time>2017-06-30T06:21:22Z</time>
      </trkpt>
      <trkpt lat="63.096332978457212" lon="10.23619900457561">
        <ele>50.609999999999999</ele>
        <time>2017-06-30T06:21:36Z</time>
      </trkpt>
      <trkpt lat="63.094859020784497" lon="10.239110039547086">
        <ele>53.009999999999998</ele>
        <time>2017-06-30T06:21:45Z</time>
      </trkpt>
      <trkpt lat="63.093037968501449" lon="10.243971962481737">
        <ele>54.93</ele>
        <time>2017-06-30T06:21:58Z</time>
      </trkpt>
      <trkpt lat="63.091650009155273" lon="10.248034000396729">
        <ele>53.009999999999998</ele>
        <time>2017-06-30T06:22:09Z</time>
      </trkpt>
      <trkpt lat="63.090538987889886" lon="10.249422965571284">
        <ele>53.490000000000002</ele>
        <time>2017-06-30T06:22:15Z</time>
      </trkpt>
      <trkpt lat="63.08889496140182" lon="10.25027297437191">
        <ele>53.969999999999999</ele>
        <time>2017-06-30T06:22:23Z</time>
      </trkpt>
      <trkpt lat="63.086290033534169" lon="10.25031303986907">
        <ele>55.890000000000001</ele>
        <time>2017-06-30T06:22:35Z</time>
      </trkpt>
      <trkpt lat="63.084743991494179" lon="10.251136980950832">
        <ele>56.369999999999997</ele>
        <time>2017-06-30T06:22:42Z</time>
      </trkpt>
      <trkpt lat="63.083333987742662" lon="10.252911010757089">
        <ele>55.890000000000001</ele>
        <time>2017-06-30T06:22:49Z</time>
      </trkpt>
      <trkpt lat="63.080242993310094" lon="10.257328022271395">
        <ele>56.369999999999997</ele>
        <time>2017-06-30T06:23:05Z</time>
      </trkpt>
      <trkpt lat="63.075811984017491" lon="10.261910995468497">
        <ele>56.859999999999999</ele>
        <time>2017-06-30T06:23:27Z</time>
      </trkpt>
      <trkpt lat="63.071613991633058" lon="10.266864029690623">
        <ele>61.659999999999997</ele>
        <time>2017-06-30T06:23:49Z</time>
      </trkpt>
      <trkpt lat="63.070500958710909" lon="10.269019016996026">
        <ele>63.100000000000001</ele>
        <time>2017-06-30T06:23:56Z</time>
      </trkpt>
      <trkpt lat="63.069969965144992" lon="10.271594021469355">
        <ele>61.18</ele>
        <time>2017-06-30T06:24:02Z</time>
      </trkpt>
      <trkpt lat="63.069171002134681" lon="10.278931958600879">
        <ele>58.299999999999997</ele>
        <time>2017-06-30T06:24:18Z</time>
      </trkpt>
      <trkpt lat="63.068326022475958" lon="10.284162014722824">
        <ele>61.18</ele>
        <time>2017-06-30T06:24:30Z</time>
      </trkpt>
      <trkpt lat="63.067324971780181" lon="10.286424960941076">
        <ele>63.579999999999998</ele>
        <time>2017-06-30T06:24:37Z</time>
      </trkpt>
      <trkpt lat="63.062764964997768" lon="10.290230009704828">
        <ele>63.579999999999998</ele>
        <time>2017-06-30T06:24:59Z</time>
      </trkpt>
      <trkpt lat="63.060388024896383" lon="10.290473001077771">
        <ele>63.579999999999998</ele>
        <time>2017-06-30T06:25:09Z</time>
      </trkpt>
      <trkpt lat="63.058094987645745" lon="10.290984967723489">
        <ele>62.140000000000001</ele>
        <time>2017-06-30T06:25:19Z</time>
      </trkpt>
      <trkpt lat="63.056676015257835" lon="10.292556993663311">
        <ele>63.100000000000001</ele>
        <time>2017-06-30T06:25:26Z</time>
      </trkpt>
      <trkpt lat="63.054975997656584" lon="10.295500969514251">
        <ele>63.100000000000001</ele>
        <time>2017-06-30T06:25:36Z</time>
      </trkpt>
      <trkpt lat="63.052559997886419" lon="10.29940702021122">
        <ele>63.100000000000001</ele>
        <time>2017-06-30T06:25:50Z</time>
      </trkpt>
      <trkpt lat="63.050610031932592" lon="10.301348017528653">
        <ele>63.579999999999998</ele>
        <time>2017-06-30T06:26:00Z</time>
      </trkpt>
      <trkpt lat="63.049052003771067" lon="10.301737021654844">
        <ele>64.069999999999993</ele>
        <time>2017-06-30T06:26:07Z</time>
      </trkpt>
      <trkpt lat="63.047371013090014" lon="10.301046017557383">
        <ele>63.100000000000001</ele>
        <time>2017-06-30T06:26:14Z</time>
      </trkpt>
      <trkpt lat="63.045212002471089" lon="10.299922004342079">
        <ele>63.579999999999998</ele>
        <time>2017-06-30T06:26:23Z</time>
      </trkpt>
      <trkpt lat="63.04100202396512" lon="10.29889203608036">
        <ele>68.390000000000001</ele>
        <time>2017-06-30T06:26:41Z</time>
      </trkpt>
      <trkpt lat="63.038066010922194" lon="10.297592002898455">
        <ele>73.680000000000007</ele>
        <time>2017-06-30T06:26:54Z</time>
      </trkpt>
      <trkpt lat="63.036518963053823" lon="10.295662991702557">
        <ele>72.239999999999995</ele>
        <time>2017-06-30T06:27:02Z</time>
      </trkpt>
      <trkpt lat="63.035117005929351" lon="10.293000983074307">
        <ele>67.430000000000007</ele>
        <time>2017-06-30T06:27:11Z</time>
      </trkpt>
      <trkpt lat="63.033811021596193" lon="10.290227998048067">
        <ele>68.870000000000005</ele>
        <time>2017-06-30T06:27:19Z</time>
      </trkpt>
      <trkpt lat="63.032950032502413" lon="10.287126023322344">
        <ele>70.790000000000006</ele>
        <time>2017-06-30T06:27:26Z</time>
      </trkpt>
      <trkpt lat="63.032480981200933" lon="10.2831029612571">
        <ele>72.239999999999995</ele>
        <time>2017-06-30T06:27:34Z</time>
      </trkpt>
      <trkpt lat="63.031628960743546" lon="10.275869965553284">
        <ele>74.640000000000001</ele>
        <time>2017-06-30T06:27:48Z</time>
      </trkpt>
      <trkpt lat="63.030549958348274" lon="10.272235991433263">
        <ele>77.040000000000006</ele>
        <time>2017-06-30T06:27:56Z</time>
      </trkpt>
      <trkpt lat="63.028559004887938" lon="10.266845002770424">
        <ele>78.969999999999999</ele>
        <time>2017-06-30T06:28:09Z</time>
      </trkpt>
      <trkpt lat="63.027684018015862" lon="10.262483982369304">
        <ele>81.370000000000005</ele>
        <time>2017-06-30T06:28:18Z</time>
      </trkpt>
      <trkpt lat="63.026509964838624" lon="10.257401028648019">
        <ele>85.209999999999994</ele>
        <time>2017-06-30T06:28:29Z</time>
      </trkpt>
      <trkpt lat="63.025073977187276" lon="10.253574019297957">
        <ele>89.540000000000006</ele>
        <time>2017-06-30T06:28:39Z</time>
      </trkpt>
      <trkpt lat="63.023257032036781" lon="10.250529041513801">
        <ele>92.900000000000006</ele>
        <time>2017-06-30T06:28:49Z</time>
      </trkpt>
      <trkpt lat="63.02093499340117" lon="10.248001981526613">
        <ele>94.349999999999994</ele>
        <time>2017-06-30T06:29:00Z</time>
      </trkpt>
      <trkpt lat="63.018268039450049" lon="10.246010022237897">
        <ele>97.709999999999994</ele>
        <time>2017-06-30T06:29:12Z</time>
      </trkpt>
      <trkpt lat="63.016106011345983" lon="10.246005998924375">
        <ele>100.11</ele>
        <time>2017-06-30T06:29:21Z</time>
      </trkpt>
      <trkpt lat="63.013332020491362" lon="10.246622990816832">
        <ele>104.44</ele>
        <time>2017-06-30T06:29:33Z</time>
      </trkpt>
      <trkpt lat="63.011763012036681" lon="10.245954031124711">
        <ele>104.92</ele>
        <time>2017-06-30T06:29:40Z</time>
      </trkpt>
      <trkpt lat="63.009935002774" lon="10.243881018832326">
        <ele>106.84</ele>
        <time>2017-06-30T06:29:49Z</time>
      </trkpt>
      <trkpt lat="63.006013026461005" lon="10.239522010087967">
        <ele>112.13</ele>
        <time>2017-06-30T06:30:08Z</time>
      </trkpt>
      <trkpt lat="63.003829959779978" lon="10.238209990784526">
        <ele>115.01000000000001</ele>
        <time>2017-06-30T06:30:18Z</time>
      </trkpt>
      <trkpt lat="63.001517979428172" lon="10.237887036055326">
        <ele>117.42</ele>
        <time>2017-06-30T06:30:28Z</time>
      </trkpt>
      <trkpt lat="62.998998966068029" lon="10.238665966317058">
        <ele>120.3</ele>
        <time>2017-06-30T06:30:39Z</time>
      </trkpt>
      <trkpt lat="62.99657198600471" lon="10.239718984812498">
        <ele>124.63</ele>
        <time>2017-06-30T06:30:50Z</time>
      </trkpt>
      <trkpt lat="62.995084030553699" lon="10.241259997710586">
        <ele>125.59</ele>
        <time>2017-06-30T06:30:57Z</time>
      </trkpt>
      <trkpt lat="62.994904993101954" lon="10.241599967703223">
        <ele>126.06999999999999</ele>
        <time>2017-06-30T06:30:58Z</time>
      </trkpt>
      <trkpt lat="62.993872007355094" lon="10.244429027661681">
        <ele>127.51000000000001</ele>
        <time>2017-06-30T06:31:05Z</time>
      </trkpt>
      <trkpt lat="62.993142027407885" lon="10.246329037472606">
        <ele>130.40000000000001</ele>
        <time>2017-06-30T06:31:10Z</time>
      </trkpt>
      <trkpt lat="62.992970030754805" lon="10.246642017737031">
        <ele>130.88</ele>
        <time>2017-06-30T06:31:11Z</time>
      </trkpt>
      <trkpt lat="62.992788981646299" lon="10.246929014101624">
        <ele>131.84</ele>
        <time>2017-06-30T06:31:12Z</time>
      </trkpt>
      <trkpt lat="62.992600975558162" lon="10.247180974110961">
        <ele>132.31999999999999</ele>
        <time>2017-06-30T06:31:13Z</time>
      </trkpt>
      <trkpt lat="62.99240299500525" lon="10.24741399101913">
        <ele>134.24000000000001</ele>
        <time>2017-06-30T06:31:14Z</time>
      </trkpt>
      <trkpt lat="62.992197973653674" lon="10.247611971572042">
        <ele>134.72</ele>
        <time>2017-06-30T06:31:15Z</time>
      </trkpt>
      <trkpt lat="62.991988006979227" lon="10.247782040387392">
        <ele>135.68000000000001</ele>
        <time>2017-06-30T06:31:16Z</time>
      </trkpt>
      <trkpt lat="62.991774016991258" lon="10.247916989028454">
        <ele>136.16</ele>
        <time>2017-06-30T06:31:17Z</time>
      </trkpt>
      <trkpt lat="62.991553992033005" lon="10.24801698513329">
        <ele>137.13</ele>
        <time>2017-06-30T06:31:18Z</time>
      </trkpt>
      <trkpt lat="62.991326004266739" lon="10.248078005388379">
        <ele>137.61000000000001</ele>
        <time>2017-06-30T06:31:19Z</time>
      </trkpt>
      <trkpt lat="62.991094999015331" lon="10.248099965974689">
        <ele>138.56999999999999</ele>
        <time>2017-06-30T06:31:20Z</time>
      </trkpt>
      <trkpt lat="62.99085795879364" lon="10.248078005388379">
        <ele>139.05000000000001</ele>
        <time>2017-06-30T06:31:21Z</time>
      </trkpt>
      <trkpt lat="62.990615973249078" lon="10.248026959598064">
        <ele>140.00999999999999</ele>
        <time>2017-06-30T06:31:22Z</time>
      </trkpt>
      <trkpt lat="62.990373987704515" lon="10.247936015948653">
        <ele>140.97</ele>
        <time>2017-06-30T06:31:23Z</time>
      </trkpt>
      <trkpt lat="62.990139964967966" lon="10.247810035943985">
        <ele>141.93000000000001</ele>
        <time>2017-06-30T06:31:24Z</time>
      </trkpt>
      <trkpt lat="62.98991097137332" lon="10.247641978785396">
        <ele>142.41</ele>
        <time>2017-06-30T06:31:25Z</time>
      </trkpt>
      <trkpt lat="62.989684995263815" lon="10.247438969090581">
        <ele>142.88999999999999</ele>
        <time>2017-06-30T06:31:26Z</time>
      </trkpt>
      <trkpt lat="62.989460024982691" lon="10.247203018516302">
        <ele>143.37</ele>
        <time>2017-06-30T06:31:27Z</time>
      </trkpt>
      <trkpt lat="62.989237988367677" lon="10.246935971081257">
        <ele>143.84999999999999</ele>
        <time>2017-06-30T06:31:28Z</time>
      </trkpt>
      <trkpt lat="62.987224990502" lon="10.244610998779535">
        <ele>144.34</ele>
        <time>2017-06-30T06:31:37Z</time>
      </trkpt>
      <trkpt lat="62.985382983461022" lon="10.243456978350878">
        <ele>149.13999999999999</ele>
        <time>2017-06-30T06:31:45Z</time>
      </trkpt>
      <trkpt lat="62.984487041831017" lon="10.24182703346014">
        <ele>150.58000000000001</ele>
        <time>2017-06-30T06:31:50Z</time>
      </trkpt>
      <trkpt lat="62.983010988682508" lon="10.23750901222229">
        <ele>153.94999999999999</ele>
        <time>2017-06-30T06:32:00Z</time>
      </trkpt>
      <trkpt lat="62.981864009052515" lon="10.235588969662786">
        <ele>156.34999999999999</ele>
        <time>2017-06-30T06:32:06Z</time>
      </trkpt>
      <trkpt lat="62.980126021429896" lon="10.233762972056866">
        <ele>160.68000000000001</ele>
        <time>2017-06-30T06:32:14Z</time>
      </trkpt>
      <trkpt lat="62.978681987151504" lon="10.231301039457321">
        <ele>163.56</ele>
        <time>2017-06-30T06:32:22Z</time>
      </trkpt>
      <trkpt lat="62.978325001895428" lon="10.230701984837651">
        <ele>164.52000000000001</ele>
        <time>2017-06-30T06:32:24Z</time>
      </trkpt>
      <trkpt lat="62.978165997192264" lon="10.230361009016633">
        <ele>165</ele>
        <time>2017-06-30T06:32:25Z</time>
      </trkpt>
      <trkpt lat="62.978020990267396" lon="10.22998902015388">
        <ele>165.47999999999999</ele>
        <time>2017-06-30T06:32:26Z</time>
      </trkpt>
      <trkpt lat="62.977403998374939" lon="10.228168973699212">
        <ele>165.96000000000001</ele>
        <time>2017-06-30T06:32:31Z</time>
      </trkpt>
      <trkpt lat="62.977335015311837" lon="10.227860016748309">
        <ele>165.96000000000001</ele>
        <time>2017-06-30T06:32:32Z</time>
      </trkpt>
      <trkpt lat="62.977296961471438" lon="10.227550975978374">
        <ele>165.96000000000001</ele>
        <time>2017-06-30T06:32:33Z</time>
      </trkpt>
      <trkpt lat="62.977295033633709" lon="10.227220980450511">
        <ele>166.44999999999999</ele>
        <time>2017-06-30T06:32:34Z</time>
      </trkpt>
      <trkpt lat="62.977324035018682" lon="10.226890984922647">
        <ele>166.44999999999999</ele>
        <time>2017-06-30T06:32:35Z</time>
      </trkpt>
      <trkpt lat="62.97738497145474" lon="10.226560989394784">
        <ele>166.93000000000001</ele>
        <time>2017-06-30T06:32:36Z</time>
      </trkpt>
      <trkpt lat="62.977482033893466" lon="10.226245997473598">
        <ele>166.93000000000001</ele>
        <time>2017-06-30T06:32:37Z</time>
      </trkpt>
      <trkpt lat="62.977584963664412" lon="10.225935028865933">
        <ele>166.44999999999999</ele>
        <time>2017-06-30T06:32:38Z</time>
      </trkpt>
      <trkpt lat="62.977765006944537" lon="10.225274031981826">
        <ele>166.93000000000001</ele>
        <time>2017-06-30T06:32:40Z</time>
      </trkpt>
      <trkpt lat="62.977818986400962" lon="10.224912017583847">
        <ele>167.41</ele>
        <time>2017-06-30T06:32:41Z</time>
      </trkpt>
      <trkpt lat="62.977838013321161" lon="10.224542040377855">
        <ele>167.41</ele>
        <time>2017-06-30T06:32:42Z</time>
      </trkpt>
      <trkpt lat="62.977823009714484" lon="10.224167034029961">
        <ele>167.88999999999999</ele>
        <time>2017-06-30T06:32:43Z</time>
      </trkpt>
      <trkpt lat="62.97777296975255" lon="10.223804013803601">
        <ele>167.88999999999999</ele>
        <time>2017-06-30T06:32:44Z</time>
      </trkpt>
      <trkpt lat="62.977696023881435" lon="10.223453985527158">
        <ele>168.37</ele>
        <time>2017-06-30T06:32:45Z</time>
      </trkpt>
      <trkpt lat="62.977612037211657" lon="10.223106974735856">
        <ele>168.84999999999999</ele>
        <time>2017-06-30T06:32:46Z</time>
      </trkpt>
      <trkpt lat="62.977539030835032" lon="10.222743032500148">
        <ele>168.84999999999999</ele>
        <time>2017-06-30T06:32:47Z</time>
      </trkpt>
      <trkpt lat="62.977488990873098" lon="10.222354028373957">
        <ele>169.33000000000001</ele>
        <time>2017-06-30T06:32:48Z</time>
      </trkpt>
      <trkpt lat="62.977460995316505" lon="10.221947003155947">
        <ele>169.33000000000001</ele>
        <time>2017-06-30T06:32:49Z</time>
      </trkpt>
      <trkpt lat="62.977445991709828" lon="10.22152598015964">
        <ele>169.81</ele>
        <time>2017-06-30T06:32:50Z</time>
      </trkpt>
      <trkpt lat="62.977443980053067" lon="10.221103029325604">
        <ele>169.81</ele>
        <time>2017-06-30T06:32:51Z</time>
      </trkpt>
      <trkpt lat="62.977453032508492" lon="10.220683012157679">
        <ele>170.28999999999999</ele>
        <time>2017-06-30T06:32:52Z</time>
      </trkpt>
      <trkpt lat="62.97757800668478" lon="10.216862037777901">
        <ele>173.66</ele>
        <time>2017-06-30T06:33:01Z</time>
      </trkpt>
      <trkpt lat="62.97710401006043" lon="10.213416991755366">
        <ele>176.53999999999999</ele>
        <time>2017-06-30T06:33:09Z</time>
      </trkpt>
      <trkpt lat="62.976284008473158" lon="10.209443969652057">
        <ele>180.87</ele>
        <time>2017-06-30T06:33:19Z</time>
      </trkpt>
      <trkpt lat="62.976016039028764" lon="10.207454022020102">
        <ele>182.78999999999999</ele>
        <time>2017-06-30T06:33:24Z</time>
      </trkpt>
      <trkpt lat="62.97592400573194" lon="10.207066023722291">
        <ele>183.27000000000001</ele>
        <time>2017-06-30T06:33:25Z</time>
      </trkpt>
      <trkpt lat="62.975810011848807" lon="10.206697974354029">
        <ele>183.75</ele>
        <time>2017-06-30T06:33:26Z</time>
      </trkpt>
      <trkpt lat="62.975681014358997" lon="10.206350041553378">
        <ele>184.22999999999999</ele>
        <time>2017-06-30T06:33:27Z</time>
      </trkpt>
      <trkpt lat="62.975538019090891" lon="10.206021973863244">
        <ele>184.71000000000001</ele>
        <time>2017-06-30T06:33:28Z</time>
      </trkpt>
      <trkpt lat="62.975385971367359" lon="10.205709999427199">
        <ele>185.66999999999999</ele>
        <time>2017-06-30T06:33:29Z</time>
      </trkpt>
      <trkpt lat="62.975228978320956" lon="10.205419985577464">
        <ele>186.15000000000001</ele>
        <time>2017-06-30T06:33:30Z</time>
      </trkpt>
      <trkpt lat="62.975061004981399" lon="10.205160984769464">
        <ele>186.63</ele>
        <time>2017-06-30T06:33:31Z</time>
      </trkpt>
      <trkpt lat="62.974885990843177" lon="10.204927967861295">
        <ele>187.11000000000001</ele>
        <time>2017-06-30T06:33:32Z</time>
      </trkpt>
      <trkpt lat="62.974703013896942" lon="10.204719007015228">
        <ele>187.11000000000001</ele>
        <time>2017-06-30T06:33:33Z</time>
      </trkpt>
      <trkpt lat="62.973686959594488" lon="10.203663976863027">
        <ele>188.56</ele>
        <time>2017-06-30T06:33:39Z</time>
      </trkpt>
      <trkpt lat="62.973557962104678" lon="10.203405981883407">
        <ele>189.03999999999999</ele>
        <time>2017-06-30T06:33:40Z</time>
      </trkpt>
      <trkpt lat="62.973451009020209" lon="10.203099036589265">
        <ele>189.03999999999999</ele>
        <time>2017-06-30T06:33:41Z</time>
      </trkpt>
      <trkpt lat="62.973358975723386" lon="10.20274699665606">
        <ele>189.52000000000001</ele>
        <time>2017-06-30T06:33:42Z</time>
      </trkpt>
      <trkpt lat="62.97328102402389" lon="10.202368972823024">
        <ele>189.52000000000001</ele>
        <time>2017-06-30T06:33:43Z</time>
      </trkpt>
      <trkpt lat="62.973210029304028" lon="10.201974017545581">
        <ele>190</ele>
        <time>2017-06-30T06:33:44Z</time>
      </trkpt>
      <trkpt lat="62.972547020763159" lon="10.198543975129724">
        <ele>192.40000000000001</ele>
        <time>2017-06-30T06:33:53Z</time>
      </trkpt>
      <trkpt lat="62.972429003566504" lon="10.198252033442259">
        <ele>192.40000000000001</ele>
        <time>2017-06-30T06:33:54Z</time>
      </trkpt>
      <trkpt lat="62.972294976934791" lon="10.197985991835594">
        <ele>192.88</ele>
        <time>2017-06-30T06:33:55Z</time>
      </trkpt>
      <trkpt lat="62.972147958353162" lon="10.197738977149129">
        <ele>193.36000000000001</ele>
        <time>2017-06-30T06:33:56Z</time>
      </trkpt>
      <trkpt lat="62.971998006105423" lon="10.197499003261328">
        <ele>193.36000000000001</ele>
        <time>2017-06-30T06:33:57Z</time>
      </trkpt>
      <trkpt lat="62.970711970701814" lon="10.195955978706479">
        <ele>195.77000000000001</ele>
        <time>2017-06-30T06:34:04Z</time>
      </trkpt>
      <trkpt lat="62.969164000824094" lon="10.193608039990067">
        <ele>198.65000000000001</ele>
        <time>2017-06-30T06:34:12Z</time>
      </trkpt>
      <trkpt lat="62.968567963689566" lon="10.192943019792438">
        <ele>201.05000000000001</ele>
        <time>2017-06-30T06:34:15Z</time>
      </trkpt>
      <trkpt lat="62.968362020328641" lon="10.192806981503963">
        <ele>201.05000000000001</ele>
        <time>2017-06-30T06:34:16Z</time>
      </trkpt>
      <trkpt lat="62.96814501285553" lon="10.192716959863901">
        <ele>201.53</ele>
        <time>2017-06-30T06:34:17Z</time>
      </trkpt>
      <trkpt lat="62.966067977249622" lon="10.192286968231201">
        <ele>205.38</ele>
        <time>2017-06-30T06:34:26Z</time>
      </trkpt>
      <trkpt lat="62.965403040871024" lon="10.192006006836891">
        <ele>206.34</ele>
        <time>2017-06-30T06:34:29Z</time>
      </trkpt>
      <trkpt lat="62.965192990377545" lon="10.191826969385147">
        <ele>206.34</ele>
        <time>2017-06-30T06:34:30Z</time>
      </trkpt>
      <trkpt lat="62.963790027424693" lon="10.189976999536157">
        <ele>210.19</ele>
        <time>2017-06-30T06:34:37Z</time>
      </trkpt>
      <trkpt lat="62.962768021970987" lon="10.187950003892183">
        <ele>213.06999999999999</ele>
        <time>2017-06-30T06:34:44Z</time>
      </trkpt>
      <trkpt lat="62.962674982845783" lon="10.187646998092532">
        <ele>213.06999999999999</ele>
        <time>2017-06-30T06:34:45Z</time>
      </trkpt>
      <trkpt lat="62.962598958984017" lon="10.187323037534952">
        <ele>213.06999999999999</ele>
        <time>2017-06-30T06:34:46Z</time>
      </trkpt>
      <trkpt lat="62.962541040033102" lon="10.186973009258509">
        <ele>213.06999999999999</ele>
        <time>2017-06-30T06:34:47Z</time>
      </trkpt>
      <trkpt lat="62.962498962879181" lon="10.186599008738995">
        <ele>213.55000000000001</ele>
        <time>2017-06-30T06:34:48Z</time>
      </trkpt>
      <trkpt lat="62.962469961494207" lon="10.186210004612803">
        <ele>213.55000000000001</ele>
        <time>2017-06-30T06:34:49Z</time>
      </trkpt>
      <trkpt lat="62.96245202422142" lon="10.185804991051555">
        <ele>213.55000000000001</ele>
        <time>2017-06-30T06:34:50Z</time>
      </trkpt>
      <trkpt lat="62.962439032271504" lon="10.185396960005164">
        <ele>213.55000000000001</ele>
        <time>2017-06-30T06:34:51Z</time>
      </trkpt>
      <trkpt lat="62.962384968996048" lon="10.184260960668325">
        <ele>214.03</ele>
        <time>2017-06-30T06:34:54Z</time>
      </trkpt>
      <trkpt lat="62.962330989539623" lon="10.183917973190546">
        <ele>214.03</ele>
        <time>2017-06-30T06:34:55Z</time>
      </trkpt>
      <trkpt lat="62.962251026183367" lon="10.183622008189559">
        <ele>214.03</ele>
        <time>2017-06-30T06:34:56Z</time>
      </trkpt>
      <trkpt lat="62.962149018421769" lon="10.18338798545301">
        <ele>214.50999999999999</ele>
        <time>2017-06-30T06:34:57Z</time>
      </trkpt>
      <trkpt lat="62.962027983739972" lon="10.183211965486407">
        <ele>214.50999999999999</ele>
        <time>2017-06-30T06:34:58Z</time>
      </trkpt>
      <trkpt lat="62.96189303509891" lon="10.183079028502107">
        <ele>214.99000000000001</ele>
        <time>2017-06-30T06:34:59Z</time>
      </trkpt>
      <trkpt lat="62.961737969890237" lon="10.182994036003947">
        <ele>215.47</ele>
        <time>2017-06-30T06:35:00Z</time>
      </trkpt>
      <trkpt lat="62.961577037349343" lon="10.182929998263717">
        <ele>215.94999999999999</ele>
        <time>2017-06-30T06:35:01Z</time>
      </trkpt>
      <trkpt lat="62.960171978920698" lon="10.181983010843396">
        <ele>217.88</ele>
        <time>2017-06-30T06:35:09Z</time>
      </trkpt>
      <trkpt lat="62.959821028634906" lon="10.181813025847077">
        <ele>218.36000000000001</ele>
        <time>2017-06-30T06:35:11Z</time>
      </trkpt>
      <trkpt lat="62.95963897369802" lon="10.181793998926878">
        <ele>218.84</ele>
        <time>2017-06-30T06:35:12Z</time>
      </trkpt>
      <trkpt lat="62.959449039772153" lon="10.181805985048413">
        <ele>218.84</ele>
        <time>2017-06-30T06:35:13Z</time>
      </trkpt>
      <trkpt lat="62.957461019977927" lon="10.181994996964931">
        <ele>220.28</ele>
        <time>2017-06-30T06:35:24Z</time>
      </trkpt>
      <trkpt lat="62.957292040809989" lon="10.18205601722002">
        <ele>220.75999999999999</ele>
        <time>2017-06-30T06:35:25Z</time>
      </trkpt>
      <trkpt lat="62.9571239836514" lon="10.182148972526193">
        <ele>220.75999999999999</ele>
        <time>2017-06-30T06:35:26Z</time>
      </trkpt>
      <trkpt lat="62.956960033625364" lon="10.182272018864751">
        <ele>220.75999999999999</ele>
        <time>2017-06-30T06:35:27Z</time>
      </trkpt>
      <trkpt lat="62.955307038500905" lon="10.184136992320418">
        <ele>222.68000000000001</ele>
        <time>2017-06-30T06:35:38Z</time>
      </trkpt>
      <trkpt lat="62.953475005924702" lon="10.187820000573993">
        <ele>232.30000000000001</ele>
        <time>2017-06-30T06:35:54Z</time>
      </trkpt>
      <trkpt lat="62.952636983245611" lon="10.189101006835699">
        <ele>232.30000000000001</ele>
        <time>2017-06-30T06:36:02Z</time>
      </trkpt>
      <trkpt lat="62.952532041817904" lon="10.189164960756898">
        <ele>231.81</ele>
        <time>2017-06-30T06:36:03Z</time>
      </trkpt>
      <trkpt lat="62.952418969944119" lon="10.189178036525846">
        <ele>232.30000000000001</ele>
        <time>2017-06-30T06:36:04Z</time>
      </trkpt>
      <trkpt lat="62.952301036566496" lon="10.189156997948885">
        <ele>232.30000000000001</ele>
        <time>2017-06-30T06:36:05Z</time>
      </trkpt>
      <trkpt lat="62.95218201354146" lon="10.189109975472093">
        <ele>232.30000000000001</ele>
        <time>2017-06-30T06:36:06Z</time>
      </trkpt>
      <trkpt lat="62.950619040057063" lon="10.189044009894133">
        <ele>234.22</ele>
        <time>2017-06-30T06:36:17Z</time>
      </trkpt>
      <trkpt lat="62.949686972424388" lon="10.189398983493447">
        <ele>237.58000000000001</ele>
        <time>2017-06-30T06:36:25Z</time>
      </trkpt>
      <trkpt lat="62.948499005287886" lon="10.189537033438683">
        <ele>241.43000000000001</ele>
        <time>2017-06-30T06:36:37Z</time>
      </trkpt>
      <trkpt lat="62.947354959324002" lon="10.189643986523151">
        <ele>242.87</ele>
        <time>2017-06-30T06:36:48Z</time>
      </trkpt>
      <trkpt lat="62.945861974731088" lon="10.189837021753192">
        <ele>245.75</ele>
        <time>2017-06-30T06:36:57Z</time>
      </trkpt>
      <trkpt lat="62.943064011633396" lon="10.190439010038972">
        <ele>251.03999999999999</ele>
        <time>2017-06-30T06:37:11Z</time>
      </trkpt>
      <trkpt lat="62.940616998821497" lon="10.191491022706032">
        <ele>254.88999999999999</ele>
        <time>2017-06-30T06:37:23Z</time>
      </trkpt>
      <trkpt lat="62.939392989501357" lon="10.191613985225558">
        <ele>257.29000000000002</ele>
        <time>2017-06-30T06:37:29Z</time>
      </trkpt>
      <trkpt lat="62.939200038090348" lon="10.191528992727399">
        <ele>257.76999999999998</ele>
        <time>2017-06-30T06:37:30Z</time>
      </trkpt>
      <trkpt lat="62.939010020345449" lon="10.191399995237589">
        <ele>258.25</ele>
        <time>2017-06-30T06:37:31Z</time>
      </trkpt>
      <trkpt lat="62.938828971236944" lon="10.191200003027916">
        <ele>258.73000000000002</ele>
        <time>2017-06-30T06:37:32Z</time>
      </trkpt>
      <trkpt lat="62.938654040917754" lon="10.190954999998212">
        <ele>259.20999999999998</ele>
        <time>2017-06-30T06:37:33Z</time>
      </trkpt>
      <trkpt lat="62.938486989587545" lon="10.190663980320096">
        <ele>260.17000000000002</ele>
        <time>2017-06-30T06:37:34Z</time>
      </trkpt>
      <trkpt lat="62.938329996541142" lon="10.190346976742148">
        <ele>260.64999999999998</ele>
        <time>2017-06-30T06:37:35Z</time>
      </trkpt>
      <trkpt lat="62.93707799166441" lon="10.18841402605176">
        <ele>266.42000000000002</ele>
        <time>2017-06-30T06:37:42Z</time>
      </trkpt>
      <trkpt lat="62.935873009264469" lon="10.187715981155634">
        <ele>270.75</ele>
        <time>2017-06-30T06:37:48Z</time>
      </trkpt>
      <trkpt lat="62.935683997347951" lon="10.187691003084183">
        <ele>271.23000000000002</ele>
        <time>2017-06-30T06:37:49Z</time>
      </trkpt>
      <trkpt lat="62.934342976659536" lon="10.188066009432077">
        <ele>275.56</ele>
        <time>2017-06-30T06:37:56Z</time>
      </trkpt>
      <trkpt lat="62.933648033067584" lon="10.18852399662137">
        <ele>277</ele>
        <time>2017-06-30T06:38:00Z</time>
      </trkpt>
      <trkpt lat="62.933482993394136" lon="10.188551992177963">
        <ele>276.04000000000002</ele>
        <time>2017-06-30T06:38:01Z</time>
      </trkpt>
      <trkpt lat="62.933318037539721" lon="10.188520979136229">
        <ele>275.56</ele>
        <time>2017-06-30T06:38:02Z</time>
      </trkpt>
      <trkpt lat="62.933160960674286" lon="10.188420983031392">
        <ele>275.56</ele>
        <time>2017-06-30T06:38:03Z</time>
      </trkpt>
      <trkpt lat="62.933019977062941" lon="10.188244041055441">
        <ele>275.56</ele>
        <time>2017-06-30T06:38:04Z</time>
      </trkpt>
      <trkpt lat="62.932895002886653" lon="10.187995014712214">
        <ele>275.56</ele>
        <time>2017-06-30T06:38:05Z</time>
      </trkpt>
      <trkpt lat="62.932778997346759" lon="10.187695026397705">
        <ele>275.56</ele>
        <time>2017-06-30T06:38:06Z</time>
      </trkpt>
      <trkpt lat="62.932667015120387" lon="10.18736301921308">
        <ele>275.06999999999999</ele>
        <time>2017-06-30T06:38:07Z</time>
      </trkpt>
      <trkpt lat="62.931555993855" lon="10.1839479804039">
        <ele>279.88</ele>
        <time>2017-06-30T06:38:16Z</time>
      </trkpt>
      <trkpt lat="62.930024033412337" lon="10.180753972381353">
        <ele>287.08999999999997</ele>
        <time>2017-06-30T06:38:25Z</time>
      </trkpt>
      <trkpt lat="62.928889039903879" lon="10.178267983719707">
        <ele>294.77999999999997</ele>
        <time>2017-06-30T06:38:32Z</time>
      </trkpt>
      <trkpt lat="62.928774962201715" lon="10.177850984036922">
        <ele>296.22000000000003</ele>
        <time>2017-06-30T06:38:33Z</time>
      </trkpt>
      <trkpt lat="62.928674966096878" lon="10.177409006282687">
        <ele>297.18000000000001</ele>
        <time>2017-06-30T06:38:34Z</time>
      </trkpt>
      <trkpt lat="62.92859198525548" lon="10.176940960809588">
        <ele>298.14999999999998</ele>
        <time>2017-06-30T06:38:35Z</time>
      </trkpt>
      <trkpt lat="62.92852601967752" lon="10.176460007205606">
        <ele>299.58999999999997</ele>
        <time>2017-06-30T06:38:36Z</time>
      </trkpt>
      <trkpt lat="62.928472040221095" lon="10.175964972004294">
        <ele>301.02999999999997</ele>
        <time>2017-06-30T06:38:37Z</time>
      </trkpt>
      <trkpt lat="62.928425017744303" lon="10.175450993701816">
        <ele>301.99000000000001</ele>
        <time>2017-06-30T06:38:38Z</time>
      </trkpt>
      <trkpt lat="62.928125029429793" lon="10.170099986717105">
        <ele>314.97000000000003</ele>
        <time>2017-06-30T06:38:48Z</time>
      </trkpt>
      <trkpt lat="62.928322004154325" lon="10.165665037930012">
        <ele>326.99000000000001</ele>
        <time>2017-06-30T06:38:56Z</time>
      </trkpt>
      <trkpt lat="62.927931994199753" lon="10.16237698495388">
        <ele>335.63999999999999</ele>
        <time>2017-06-30T06:39:02Z</time>
      </trkpt>
      <trkpt lat="62.926625004038215" lon="10.156776029616594">
        <ele>351.01999999999998</ele>
        <time>2017-06-30T06:39:13Z</time>
      </trkpt>
      <trkpt lat="62.925063036382198" lon="10.151810003444552">
        <ele>364.95999999999998</ele>
        <time>2017-06-30T06:39:24Z</time>
      </trkpt>
      <trkpt lat="62.923707012087107" lon="10.149217983707786">
        <ele>372.17000000000002</ele>
        <time>2017-06-30T06:39:32Z</time>
      </trkpt>
      <trkpt lat="62.921649003401399" lon="10.146766025573015">
        <ele>375.52999999999997</ele>
        <time>2017-06-30T06:39:42Z</time>
      </trkpt>
      <trkpt lat="62.917460985481739" lon="10.141806034371257">
        <ele>377.94</ele>
        <time>2017-06-30T06:40:01Z</time>
      </trkpt>
      <trkpt lat="62.915134001523256" lon="10.139918010681868">
        <ele>378.42000000000002</ele>
        <time>2017-06-30T06:40:11Z</time>
      </trkpt>
      <trkpt lat="62.912357999011874" lon="10.137116024270654">
        <ele>379.86000000000001</ele>
        <time>2017-06-30T06:40:23Z</time>
      </trkpt>
      <trkpt lat="62.910820003598928" lon="10.134448986500502">
        <ele>379.86000000000001</ele>
        <time>2017-06-30T06:40:31Z</time>
      </trkpt>
      <trkpt lat="62.910083988681436" lon="10.131926033645868">
        <ele>381.30000000000001</ele>
        <time>2017-06-30T06:40:37Z</time>
      </trkpt>
      <trkpt lat="62.908998029306531" lon="10.128438994288445">
        <ele>384.18000000000001</ele>
        <time>2017-06-30T06:40:47Z</time>
      </trkpt>
      <trkpt lat="62.907522981986403" lon="10.125526031479239">
        <ele>382.74000000000001</ele>
        <time>2017-06-30T06:40:57Z</time>
      </trkpt>
      <trkpt lat="62.906595021486282" lon="10.123011041432619">
        <ele>385.14999999999998</ele>
        <time>2017-06-30T06:41:04Z</time>
      </trkpt>
      <trkpt lat="62.905205972492695" lon="10.120177958160639">
        <ele>380.33999999999997</ele>
        <time>2017-06-30T06:41:13Z</time>
      </trkpt>
      <trkpt lat="62.904363004490733" lon="10.1177710108459">
        <ele>380.33999999999997</ele>
        <time>2017-06-30T06:41:19Z</time>
      </trkpt>
      <trkpt lat="62.90418597869575" lon="10.117411008104682">
        <ele>380.81999999999999</ele>
        <time>2017-06-30T06:41:20Z</time>
      </trkpt>
      <trkpt lat="62.901900988072157" lon="10.113644013181329">
        <ele>388.02999999999997</ele>
        <time>2017-06-30T06:41:32Z</time>
      </trkpt>
      <trkpt lat="62.899775002151728" lon="10.111093986779451">
        <ele>384.66000000000003</ele>
        <time>2017-06-30T06:41:42Z</time>
      </trkpt>
      <trkpt lat="62.898402968421578" lon="10.109764030203223">
        <ele>385.63</ele>
        <time>2017-06-30T06:41:48Z</time>
      </trkpt>
      <trkpt lat="62.895792005583644" lon="10.106567004695535">
        <ele>390.91000000000003</ele>
        <time>2017-06-30T06:42:00Z</time>
      </trkpt>
      <trkpt lat="62.894216040149331" lon="10.104190986603498">
        <ele>396.19999999999999</ele>
        <time>2017-06-30T06:42:08Z</time>
      </trkpt>
      <trkpt lat="62.892546029761434" lon="10.102317966520786">
        <ele>391.38999999999999</ele>
        <time>2017-06-30T06:42:16Z</time>
      </trkpt>
      <trkpt lat="62.892331033945084" lon="10.10219500400126">
        <ele>390.91000000000003</ele>
        <time>2017-06-30T06:42:17Z</time>
      </trkpt>
      <trkpt lat="62.892107991501689" lon="10.102120991796255">
        <ele>391.38999999999999</ele>
        <time>2017-06-30T06:42:18Z</time>
      </trkpt>
      <trkpt lat="62.889437014237046" lon="10.101275006309152">
        <ele>397.16000000000003</ele>
        <time>2017-06-30T06:42:30Z</time>
      </trkpt>
      <trkpt lat="62.887865994125605" lon="10.101282969117165">
        <ele>396.68000000000001</ele>
        <time>2017-06-30T06:42:37Z</time>
      </trkpt>
      <trkpt lat="62.88671700283885" lon="10.101580023765564">
        <ele>399.56999999999999</ele>
        <time>2017-06-30T06:42:43Z</time>
      </trkpt>
      <trkpt lat="62.886551041156054" lon="10.101552028208971">
        <ele>400.05000000000001</ele>
        <time>2017-06-30T06:42:44Z</time>
      </trkpt>
      <trkpt lat="62.886397987604141" lon="10.101462006568909">
        <ele>399.07999999999998</ele>
        <time>2017-06-30T06:42:45Z</time>
      </trkpt>
      <trkpt lat="62.886247029528022" lon="10.101310964673758">
        <ele>399.07999999999998</ele>
        <time>2017-06-30T06:42:46Z</time>
      </trkpt>
      <trkpt lat="62.88609397597611" lon="10.101111978292465">
        <ele>399.56999999999999</ele>
        <time>2017-06-30T06:42:47Z</time>
      </trkpt>
      <trkpt lat="62.885950980708003" lon="10.100861024111509">
        <ele>399.56999999999999</ele>
        <time>2017-06-30T06:42:48Z</time>
      </trkpt>
      <trkpt lat="62.885802034288645" lon="10.100590037181973">
        <ele>399.56999999999999</ele>
        <time>2017-06-30T06:42:49Z</time>
      </trkpt>
      <trkpt lat="62.885475978255272" lon="10.100103970617056">
        <ele>400.05000000000001</ele>
        <time>2017-06-30T06:42:51Z</time>
      </trkpt>
      <trkpt lat="62.885291995480657" lon="10.099942032247782">
        <ele>400.05000000000001</ele>
        <time>2017-06-30T06:42:52Z</time>
      </trkpt>
      <trkpt lat="62.885086974129081" lon="10.099840024486184">
        <ele>400.52999999999997</ele>
        <time>2017-06-30T06:42:53Z</time>
      </trkpt>
      <trkpt lat="62.884880024939775" lon="10.099771041423082">
        <ele>400.52999999999997</ele>
        <time>2017-06-30T06:42:54Z</time>
      </trkpt>
      <trkpt lat="62.884672991931438" lon="10.099721001461148">
        <ele>400.52999999999997</ele>
        <time>2017-06-30T06:42:55Z</time>
      </trkpt>
      <trkpt lat="62.883922979235649" lon="10.099453032016754">
        <ele>400.52999999999997</ele>
        <time>2017-06-30T06:42:59Z</time>
      </trkpt>
      <trkpt lat="62.88377302698791" lon="10.099308025091887">
        <ele>400.52999999999997</ele>
        <time>2017-06-30T06:43:00Z</time>
      </trkpt>
      <trkpt lat="62.883639000356197" lon="10.099118007346988">
        <ele>401.00999999999999</ele>
        <time>2017-06-30T06:43:01Z</time>
      </trkpt>
      <trkpt lat="62.883518971502781" lon="10.098893037065864">
        <ele>401.00999999999999</ele>
        <time>2017-06-30T06:43:02Z</time>
      </trkpt>
      <trkpt lat="62.883417969569564" lon="10.098609980195761">
        <ele>401.00999999999999</ele>
        <time>2017-06-30T06:43:03Z</time>
      </trkpt>
      <trkpt lat="62.883333982899785" lon="10.098281996324658">
        <ele>401.49000000000001</ele>
        <time>2017-06-30T06:43:04Z</time>
      </trkpt>
      <trkpt lat="62.883269023150206" lon="10.097922999411821">
        <ele>401.49000000000001</ele>
        <time>2017-06-30T06:43:05Z</time>
      </trkpt>
      <trkpt lat="62.88321697153151" lon="10.097529971972108">
        <ele>401.00999999999999</ele>
        <time>2017-06-30T06:43:06Z</time>
      </trkpt>
      <trkpt lat="62.883171960711479" lon="10.097114983946085">
        <ele>401.00999999999999</ele>
        <time>2017-06-30T06:43:07Z</time>
      </trkpt>
      <trkpt lat="62.882975991815329" lon="10.095863984897733">
        <ele>400.52999999999997</ele>
        <time>2017-06-30T06:43:10Z</time>
      </trkpt>
      <trkpt lat="62.882874989882112" lon="10.095468023791909">
        <ele>400.52999999999997</ele>
        <time>2017-06-30T06:43:11Z</time>
      </trkpt>
      <trkpt lat="62.882757978513837" lon="10.09508497081697">
        <ele>400.05000000000001</ele>
        <time>2017-06-30T06:43:12Z</time>
      </trkpt>
      <trkpt lat="62.882618000730872" lon="10.094727985560894">
        <ele>400.05000000000001</ele>
        <time>2017-06-30T06:43:13Z</time>
      </trkpt>
      <trkpt lat="62.882466036826372" lon="10.094395978376269">
        <ele>400.05000000000001</ele>
        <time>2017-06-30T06:43:14Z</time>
      </trkpt>
      <trkpt lat="62.882303008809686" lon="10.094078974798322">
        <ele>399.56999999999999</ele>
        <time>2017-06-30T06:43:15Z</time>
      </trkpt>
      <trkpt lat="62.880643978714943" lon="10.091770011931658">
        <ele>399.07999999999998</ele>
        <time>2017-06-30T06:43:24Z</time>
      </trkpt>
      <trkpt lat="62.877902006730437" lon="10.089484015479684">
        <ele>400.52999999999997</ele>
        <time>2017-06-30T06:43:37Z</time>
      </trkpt>
      <trkpt lat="62.875301018357277" lon="10.086203003302217">
        <ele>401.97000000000003</ele>
        <time>2017-06-30T06:43:50Z</time>
      </trkpt>
      <trkpt lat="62.874721996486187" lon="10.085599003359675">
        <ele>402.44999999999999</ele>
        <time>2017-06-30T06:43:53Z</time>
      </trkpt>
      <trkpt lat="62.874527033418417" lon="10.085490960627794">
        <ele>401.97000000000003</ele>
        <time>2017-06-30T06:43:54Z</time>
      </trkpt>
      <trkpt lat="62.874327963218093" lon="10.085433963686228">
        <ele>401.97000000000003</ele>
        <time>2017-06-30T06:43:55Z</time>
      </trkpt>
      <trkpt lat="62.874128976836801" lon="10.085429018363357">
        <ele>401.97000000000003</ele>
        <time>2017-06-30T06:43:56Z</time>
      </trkpt>
      <trkpt lat="62.873930996283889" lon="10.08543798699975">
        <ele>401.49000000000001</ele>
        <time>2017-06-30T06:43:57Z</time>
      </trkpt>
      <trkpt lat="62.872506994754076" lon="10.085015958175063">
        <ele>399.56999999999999</ele>
        <time>2017-06-30T06:44:04Z</time>
      </trkpt>
      <trkpt lat="62.870716033503413" lon="10.083625987172127">
        <ele>400.52999999999997</ele>
        <time>2017-06-30T06:44:13Z</time>
      </trkpt>
      <trkpt lat="62.868345966562629" lon="10.080415969714522">
        <ele>399.56999999999999</ele>
        <time>2017-06-30T06:44:26Z</time>
      </trkpt>
      <trkpt lat="62.867117011919618" lon="10.077906008809805">
        <ele>399.56999999999999</ele>
        <time>2017-06-30T06:44:35Z</time>
      </trkpt>
      <trkpt lat="62.866471018642187" lon="10.076267011463642">
        <ele>398.60000000000002</ele>
        <time>2017-06-30T06:44:41Z</time>
      </trkpt>
      <trkpt lat="62.866403041407466" lon="10.075923018157482">
        <ele>398.60000000000002</ele>
        <time>2017-06-30T06:44:42Z</time>
      </trkpt>
      <trkpt lat="62.866345960646868" lon="10.07555203512311">
        <ele>398.60000000000002</ele>
        <time>2017-06-30T06:44:43Z</time>
      </trkpt>
      <trkpt lat="62.865938013419509" lon="10.071152038872242">
        <ele>402.44999999999999</ele>
        <time>2017-06-30T06:44:54Z</time>
      </trkpt>
      <trkpt lat="62.865944970399141" lon="10.070770997554064">
        <ele>402.93000000000001</ele>
        <time>2017-06-30T06:44:55Z</time>
      </trkpt>
      <trkpt lat="62.865977995097637" lon="10.07039699703455">
        <ele>403.88999999999999</ele>
        <time>2017-06-30T06:44:56Z</time>
      </trkpt>
      <trkpt lat="62.866037003695965" lon="10.070048980414867">
        <ele>404.85000000000002</ele>
        <time>2017-06-30T06:44:57Z</time>
      </trkpt>
      <trkpt lat="62.866126019507647" lon="10.069705992937088">
        <ele>405.81</ele>
        <time>2017-06-30T06:44:58Z</time>
      </trkpt>
      <trkpt lat="62.866229033097625" lon="10.069380020722747">
        <ele>406.76999999999998</ele>
        <time>2017-06-30T06:44:59Z</time>
      </trkpt>
      <trkpt lat="62.866344032809138" lon="10.069051031023264">
        <ele>407.25999999999999</ele>
        <time>2017-06-30T06:45:00Z</time>
      </trkpt>
      <trkpt lat="62.866919031366706" lon="10.067355958744884">
        <ele>409.18000000000001</ele>
        <time>2017-06-30T06:45:05Z</time>
      </trkpt>
      <trkpt lat="62.866990026086569" lon="10.066976007074118">
        <ele>409.66000000000003</ele>
        <time>2017-06-30T06:45:06Z</time>
      </trkpt>
      <trkpt lat="62.867038976401091" lon="10.066581973806024">
        <ele>410.13999999999999</ele>
        <time>2017-06-30T06:45:07Z</time>
      </trkpt>
      <trkpt lat="62.867060014978051" lon="10.066177966073155">
        <ele>411.10000000000002</ele>
        <time>2017-06-30T06:45:08Z</time>
      </trkpt>
      <trkpt lat="62.867056997492909" lon="10.065775969997048">
        <ele>411.57999999999998</ele>
        <time>2017-06-30T06:45:09Z</time>
      </trkpt>
      <trkpt lat="62.867039982229471" lon="10.06536902859807">
        <ele>412.54000000000002</ele>
        <time>2017-06-30T06:45:10Z</time>
      </trkpt>
      <trkpt lat="62.867148024961352" lon="10.061928005889058">
        <ele>412.06</ele>
        <time>2017-06-30T06:45:18Z</time>
      </trkpt>
      <trkpt lat="62.867856966331601" lon="10.058223959058523">
        <ele>410.13999999999999</ele>
        <time>2017-06-30T06:45:27Z</time>
      </trkpt>
      <trkpt lat="62.869174014776945" lon="10.052016992121935">
        <ele>413.01999999999998</ele>
        <time>2017-06-30T06:45:43Z</time>
      </trkpt>
      <trkpt lat="62.870043972507119" lon="10.047628981992602">
        <ele>413.01999999999998</ele>
        <time>2017-06-30T06:45:54Z</time>
      </trkpt>
      <trkpt lat="62.870068028569221" lon="10.047222962602973">
        <ele>413.5</ele>
        <time>2017-06-30T06:45:55Z</time>
      </trkpt>
      <trkpt lat="62.870110021904111" lon="10.045114997774363">
        <ele>414.94999999999999</ele>
        <time>2017-06-30T06:46:01Z</time>
      </trkpt>
      <trkpt lat="62.870223009958863" lon="10.038568982854486">
        <ele>418.31</ele>
        <time>2017-06-30T06:46:20Z</time>
      </trkpt>
      <trkpt lat="62.870204988867044" lon="10.036899978294969">
        <ele>419.26999999999998</ele>
        <time>2017-06-30T06:46:27Z</time>
      </trkpt>
      <trkpt lat="62.870107004418969" lon="10.035423003137112">
        <ele>419.26999999999998</ele>
        <time>2017-06-30T06:46:33Z</time>
      </trkpt>
      <trkpt lat="62.869927966967225" lon="10.034016016870737">
        <ele>418.79000000000002</ele>
        <time>2017-06-30T06:46:42Z</time>
      </trkpt>
      <trkpt lat="62.869724035263062" lon="10.033195009455085">
        <ele>418.31</ele>
        <time>2017-06-30T06:46:47Z</time>
      </trkpt>
      <trkpt lat="62.869644993916154" lon="10.032838024199009">
        <ele>418.31</ele>
        <time>2017-06-30T06:46:51Z</time>
      </trkpt>
      <trkpt lat="62.869538040831685" lon="10.032392023131251">
        <ele>418.79000000000002</ele>
        <time>2017-06-30T06:46:55Z</time>
      </trkpt>
      <trkpt lat="62.869086004793644" lon="10.030987970530987">
        <ele>419.26999999999998</ele>
        <time>2017-06-30T06:47:06Z</time>
      </trkpt>
      <trkpt lat="62.868505977094173" lon="10.029251994565129">
        <ele>421.19</ele>
        <time>2017-06-30T06:47:20Z</time>
      </trkpt>
      <trkpt lat="62.867842968553305" lon="10.027342010289431">
        <ele>421.68000000000001</ele>
        <time>2017-06-30T06:47:34Z</time>
      </trkpt>
      <trkpt lat="62.867220025509596" lon="10.026152031496167">
        <ele>422.63999999999999</ele>
        <time>2017-06-30T06:47:39Z</time>
      </trkpt>
      <trkpt lat="62.867054985836148" lon="10.025956984609365">
        <ele>422.63999999999999</ele>
        <time>2017-06-30T06:47:40Z</time>
      </trkpt>
      <trkpt lat="62.865477008745074" lon="10.024670027196407">
        <ele>421.68000000000001</ele>
        <time>2017-06-30T06:47:48Z</time>
      </trkpt>
      <trkpt lat="62.863665008917451" lon="10.023304028436542">
        <ele>420.70999999999998</ele>
        <time>2017-06-30T06:47:57Z</time>
      </trkpt>
      <trkpt lat="62.862054007127881" lon="10.02162697724998">
        <ele>420.23000000000002</ele>
        <time>2017-06-30T06:48:05Z</time>
      </trkpt>
      <trkpt lat="62.859857026487589" lon="10.020982995629311">
        <ele>422.16000000000003</ele>
        <time>2017-06-30T06:48:15Z</time>
      </trkpt>
      <trkpt lat="62.857577987015247" lon="10.021086009219289">
        <ele>418.79000000000002</ele>
        <time>2017-06-30T06:48:27Z</time>
      </trkpt>
      <trkpt lat="62.854159008711576" lon="10.021086009219289">
        <ele>420.23000000000002</ele>
        <time>2017-06-30T06:48:45Z</time>
      </trkpt>
      <trkpt lat="62.851925985887647" lon="10.020011030137539">
        <ele>421.68000000000001</ele>
        <time>2017-06-30T06:48:57Z</time>
      </trkpt>
      <trkpt lat="62.85023401491344" lon="10.01945598050952">
        <ele>420.70999999999998</ele>
        <time>2017-06-30T06:49:06Z</time>
      </trkpt>
      <trkpt lat="62.848401982337236" lon="10.018680989742279">
        <ele>422.16000000000003</ele>
        <time>2017-06-30T06:49:16Z</time>
      </trkpt>
      <trkpt lat="62.84589696675539" lon="10.017042998224497">
        <ele>420.70999999999998</ele>
        <time>2017-06-30T06:49:30Z</time>
      </trkpt>
      <trkpt lat="62.843466969206929" lon="10.015895012766123">
        <ele>419.75</ele>
        <time>2017-06-30T06:49:42Z</time>
      </trkpt>
      <trkpt lat="62.840628018602729" lon="10.015448005869985">
        <ele>419.75</ele>
        <time>2017-06-30T06:49:55Z</time>
      </trkpt>
      <trkpt lat="62.837683036923409" lon="10.014877030625939">
        <ele>422.16000000000003</ele>
        <time>2017-06-30T06:50:08Z</time>
      </trkpt>
      <trkpt lat="62.835392011329532" lon="10.014006989076734">
        <ele>426.95999999999998</ele>
        <time>2017-06-30T06:50:19Z</time>
      </trkpt>
      <trkpt lat="62.833692999556661" lon="10.012747021391988">
        <ele>430.32999999999998</ele>
        <time>2017-06-30T06:50:30Z</time>
      </trkpt>
      <trkpt lat="62.83145603723824" lon="10.011288989335299">
        <ele>431.76999999999998</ele>
        <time>2017-06-30T06:50:45Z</time>
      </trkpt>
      <trkpt lat="62.829090999439359" lon="10.009992979466915">
        <ele>427.92000000000002</ele>
        <time>2017-06-30T06:51:03Z</time>
      </trkpt>
      <trkpt lat="62.827413026243448" lon="10.008768970146775">
        <ele>426</ele>
        <time>2017-06-30T06:51:17Z</time>
      </trkpt>
      <trkpt lat="62.826002016663551" lon="10.007872022688389">
        <ele>431.29000000000002</ele>
        <time>2017-06-30T06:51:28Z</time>
      </trkpt>
      <trkpt lat="62.825854998081923" lon="10.007902029901743">
        <ele>431.76999999999998</ele>
        <time>2017-06-30T06:51:29Z</time>
      </trkpt>
      <trkpt lat="62.825704040005803" lon="10.00796003267169">
        <ele>432.73000000000002</ele>
        <time>2017-06-30T06:51:30Z</time>
      </trkpt>
      <trkpt lat="62.825559033080935" lon="10.008044019341469">
        <ele>432.73000000000002</ele>
        <time>2017-06-30T06:51:31Z</time>
      </trkpt>
      <trkpt lat="62.825417965650558" lon="10.008156001567841">
        <ele>433.20999999999998</ele>
        <time>2017-06-30T06:51:32Z</time>
      </trkpt>
      <trkpt lat="62.825279999524355" lon="10.008291034027934">
        <ele>433.20999999999998</ele>
        <time>2017-06-30T06:51:33Z</time>
      </trkpt>
      <trkpt lat="62.825144967064261" lon="10.008445009589195">
        <ele>433.69</ele>
        <time>2017-06-30T06:51:34Z</time>
      </trkpt>
      <trkpt lat="62.825016975402832" lon="10.008614994585514">
        <ele>434.17000000000002</ele>
        <time>2017-06-30T06:51:35Z</time>
      </trkpt>
      <trkpt lat="62.824885966256261" lon="10.008800989016891">
        <ele>434.17000000000002</ele>
        <time>2017-06-30T06:51:36Z</time>
      </trkpt>
      <trkpt lat="62.823445033282042" lon="10.011489987373352">
        <ele>436.57999999999998</ele>
        <time>2017-06-30T06:51:48Z</time>
      </trkpt>
      <trkpt lat="62.822057995945215" lon="10.013949992135167">
        <ele>440.42000000000002</ele>
        <time>2017-06-30T06:51:59Z</time>
      </trkpt>
      <trkpt lat="62.82011398114264" lon="10.016440004110336">
        <ele>442.33999999999997</ele>
        <time>2017-06-30T06:52:13Z</time>
      </trkpt>
      <trkpt lat="62.817593039944768" lon="10.019798967987299">
        <ele>448.11000000000001</ele>
        <time>2017-06-30T06:52:31Z</time>
      </trkpt>
      <trkpt lat="62.816089997068048" lon="10.022865990176797">
        <ele>452.92000000000002</ele>
        <time>2017-06-30T06:52:44Z</time>
      </trkpt>
      <trkpt lat="62.815760001540184" lon="10.025396989658475">
        <ele>456.27999999999997</ele>
        <time>2017-06-30T06:52:52Z</time>
      </trkpt>
      <trkpt lat="62.815853040665388" lon="10.028181038796902">
        <ele>454.36000000000001</ele>
        <time>2017-06-30T06:53:01Z</time>
      </trkpt>
      <trkpt lat="62.815926969051361" lon="10.031211012974381">
        <ele>448.11000000000001</ele>
        <time>2017-06-30T06:53:10Z</time>
      </trkpt>
      <trkpt lat="62.816048003733158" lon="10.032547004520893">
        <ele>447.14999999999998</ele>
        <time>2017-06-30T06:53:14Z</time>
      </trkpt>
      <trkpt lat="62.816048003733158" lon="10.032873982563615">
        <ele>447.14999999999998</ele>
        <time>2017-06-30T06:53:15Z</time>
      </trkpt>
      <trkpt lat="62.816035011783242" lon="10.033192997798324">
        <ele>447.14999999999998</ele>
        <time>2017-06-30T06:53:16Z</time>
      </trkpt>
      <trkpt lat="62.816005004569888" lon="10.033500026911497">
        <ele>447.63</ele>
        <time>2017-06-30T06:53:17Z</time>
      </trkpt>
      <trkpt lat="62.815957982093096" lon="10.033789034932852">
        <ele>447.63</ele>
        <time>2017-06-30T06:53:18Z</time>
      </trkpt>
      <trkpt lat="62.815896039828658" lon="10.034067984670401">
        <ele>448.11000000000001</ele>
        <time>2017-06-30T06:53:19Z</time>
      </trkpt>
      <trkpt lat="62.815813980996609" lon="10.03432204015553">
        <ele>448.11000000000001</ele>
        <time>2017-06-30T06:53:20Z</time>
      </trkpt>
      <trkpt lat="62.815713984891772" lon="10.034549022093415">
        <ele>448.11000000000001</ele>
        <time>2017-06-30T06:53:21Z</time>
      </trkpt>
      <trkpt lat="62.81560099683702" lon="10.034755971282721">
        <ele>448.11000000000001</ele>
        <time>2017-06-30T06:53:22Z</time>
      </trkpt>
      <trkpt lat="62.815481973811984" lon="10.034940037876368">
        <ele>448.58999999999997</ele>
        <time>2017-06-30T06:53:23Z</time>
      </trkpt>
      <trkpt lat="62.815355993807316" lon="10.035104993730783">
        <ele>448.58999999999997</ele>
        <time>2017-06-30T06:53:24Z</time>
      </trkpt>
      <trkpt lat="62.815231019631028" lon="10.035246983170509">
        <ele>449.06999999999999</ele>
        <time>2017-06-30T06:53:25Z</time>
      </trkpt>
      <trkpt lat="62.815096992999315" lon="10.035356031730771">
        <ele>449.55000000000001</ele>
        <time>2017-06-30T06:53:26Z</time>
      </trkpt>
      <trkpt lat="62.814961038529873" lon="10.035426020622253">
        <ele>449.55000000000001</ele>
        <time>2017-06-30T06:53:27Z</time>
      </trkpt>
      <trkpt lat="62.814818965271115" lon="10.035466002300382">
        <ele>449.55000000000001</ele>
        <time>2017-06-30T06:53:28Z</time>
      </trkpt>
      <trkpt lat="62.814671024680138" lon="10.0354840233922">
        <ele>450.02999999999997</ele>
        <time>2017-06-30T06:53:29Z</time>
      </trkpt>
      <trkpt lat="62.814109018072486" lon="10.035429960116744">
        <ele>450.02999999999997</ele>
        <time>2017-06-30T06:53:33Z</time>
      </trkpt>
      <trkpt lat="62.813972979784012" lon="10.035344967618585">
        <ele>449.55000000000001</ele>
        <time>2017-06-30T06:53:34Z</time>
      </trkpt>
      <trkpt lat="62.813843982294202" lon="10.035224016755819">
        <ele>449.06999999999999</ele>
        <time>2017-06-30T06:53:35Z</time>
      </trkpt>
      <trkpt lat="62.813719008117914" lon="10.035067023709416">
        <ele>448.58999999999997</ele>
        <time>2017-06-30T06:53:36Z</time>
      </trkpt>
      <trkpt lat="62.81360199674964" lon="10.034866025671363">
        <ele>448.11000000000001</ele>
        <time>2017-06-30T06:53:37Z</time>
      </trkpt>
      <trkpt lat="62.81349403783679" lon="10.034630997106433">
        <ele>447.63</ele>
        <time>2017-06-30T06:53:38Z</time>
      </trkpt>
      <trkpt lat="62.813399992883205" lon="10.034352969378233">
        <ele>447.14999999999998</ele>
        <time>2017-06-30T06:53:39Z</time>
      </trkpt>
      <trkpt lat="62.813313994556665" lon="10.034060021862388">
        <ele>446.67000000000002</ele>
        <time>2017-06-30T06:53:40Z</time>
      </trkpt>
      <trkpt lat="62.813234031200409" lon="10.033744024112821">
        <ele>446.19</ele>
        <time>2017-06-30T06:53:41Z</time>
      </trkpt>
      <trkpt lat="62.812789035961032" lon="10.032141990959644">
        <ele>443.79000000000002</ele>
        <time>2017-06-30T06:53:46Z</time>
      </trkpt>
      <trkpt lat="62.812673030421138" lon="10.031878966838121">
        <ele>443.31</ele>
        <time>2017-06-30T06:53:47Z</time>
      </trkpt>
      <trkpt lat="62.812544032931328" lon="10.031653996556997">
        <ele>443.31</ele>
        <time>2017-06-30T06:53:48Z</time>
      </trkpt>
      <trkpt lat="62.812402965500951" lon="10.03146599046886">
        <ele>442.81999999999999</ele>
        <time>2017-06-30T06:53:49Z</time>
      </trkpt>
      <trkpt lat="62.812254019081593" lon="10.03131503239274">
        <ele>442.33999999999997</ele>
        <time>2017-06-30T06:53:50Z</time>
      </trkpt>
      <trkpt lat="62.812094008550048" lon="10.031199026852846">
        <ele>441.86000000000001</ele>
        <time>2017-06-30T06:53:51Z</time>
      </trkpt>
      <trkpt lat="62.811929974704981" lon="10.03112300299108">
        <ele>441.38</ele>
        <time>2017-06-30T06:53:52Z</time>
      </trkpt>
      <trkpt lat="62.811762001365423" lon="10.031084027141333">
        <ele>440.89999999999998</ele>
        <time>2017-06-30T06:53:53Z</time>
      </trkpt>
      <trkpt lat="62.811590004712343" lon="10.03108000382781">
        <ele>440.89999999999998</ele>
        <time>2017-06-30T06:53:54Z</time>
      </trkpt>
      <trkpt lat="62.811413984745741" lon="10.03109903074801">
        <ele>440.42000000000002</ele>
        <time>2017-06-30T06:53:55Z</time>
      </trkpt>
      <trkpt lat="62.811236958950758" lon="10.031137000769377">
        <ele>439.94</ele>
        <time>2017-06-30T06:53:56Z</time>
      </trkpt>
      <trkpt lat="62.808541003614664" lon="10.032069990411401">
        <ele>437.06</ele>
        <time>2017-06-30T06:54:11Z</time>
      </trkpt>
      <trkpt lat="62.805888969451189" lon="10.033914009109139">
        <ele>438.5</ele>
        <time>2017-06-30T06:54:28Z</time>
      </trkpt>
      <trkpt lat="62.805484961718321" lon="10.034100003540516">
        <ele>437.06</ele>
        <time>2017-06-30T06:54:31Z</time>
      </trkpt>
      <trkpt lat="62.805353030562401" lon="10.034106960520148">
        <ele>436.57999999999998</ele>
        <time>2017-06-30T06:54:32Z</time>
      </trkpt>
      <trkpt lat="62.805225038900971" lon="10.034086005762219">
        <ele>436.10000000000002</ele>
        <time>2017-06-30T06:54:33Z</time>
      </trkpt>
      <trkpt lat="62.805097969248891" lon="10.034038983285427">
        <ele>435.61000000000001</ele>
        <time>2017-06-30T06:54:34Z</time>
      </trkpt>
      <trkpt lat="62.804971989244223" lon="10.033977041020989">
        <ele>435.13</ele>
        <time>2017-06-30T06:54:35Z</time>
      </trkpt>
      <trkpt lat="62.803829032927752" lon="10.03292603418231">
        <ele>432.25</ele>
        <time>2017-06-30T06:54:44Z</time>
      </trkpt>
      <trkpt lat="62.801544964313507" lon="10.029731020331383">
        <ele>439.45999999999998</ele>
        <time>2017-06-30T06:55:01Z</time>
      </trkpt>
      <trkpt lat="62.800842979922891" lon="10.027819024398923">
        <ele>439.94</ele>
        <time>2017-06-30T06:55:08Z</time>
      </trkpt>
      <trkpt lat="62.799791973084211" lon="10.024817967787385">
        <ele>441.86000000000001</ele>
        <time>2017-06-30T06:55:19Z</time>
      </trkpt>
      <trkpt lat="62.798733003437519" lon="10.023532016202807">
        <ele>435.13</ele>
        <time>2017-06-30T06:55:26Z</time>
      </trkpt>
      <trkpt lat="62.796956039965153" lon="10.022262996062636">
        <ele>421.68000000000001</ele>
        <time>2017-06-30T06:55:36Z</time>
      </trkpt>
      <trkpt lat="62.79680198058486" lon="10.022037019953132">
        <ele>421.19</ele>
        <time>2017-06-30T06:55:37Z</time>
      </trkpt>
      <trkpt lat="62.796655967831612" lon="10.021777013316751">
        <ele>421.19</ele>
        <time>2017-06-30T06:55:38Z</time>
      </trkpt>
      <trkpt lat="62.796524036675692" lon="10.021485993638635">
        <ele>421.19</ele>
        <time>2017-06-30T06:55:39Z</time>
      </trkpt>
      <trkpt lat="62.796408031135798" lon="10.021173013374209">
        <ele>421.19</ele>
        <time>2017-06-30T06:55:40Z</time>
      </trkpt>
      <trkpt lat="62.796304011717439" lon="10.020841006189585">
        <ele>421.68000000000001</ele>
        <time>2017-06-30T06:55:41Z</time>
      </trkpt>
      <trkpt lat="62.796210972592235" lon="10.020491983741522">
        <ele>422.16000000000003</ele>
        <time>2017-06-30T06:55:42Z</time>
      </trkpt>
      <trkpt lat="62.796128997579217" lon="10.020137010142207">
        <ele>422.63999999999999</ele>
        <time>2017-06-30T06:55:43Z</time>
      </trkpt>
      <trkpt lat="62.796061020344496" lon="10.019773989915848">
        <ele>422.63999999999999</ele>
        <time>2017-06-30T06:55:44Z</time>
      </trkpt>
      <trkpt lat="62.795997988432646" lon="10.019403006881475">
        <ele>423.12</ele>
        <time>2017-06-30T06:55:45Z</time>
      </trkpt>
      <trkpt lat="62.795501025393605" lon="10.017023971304297">
        <ele>428.88999999999999</ele>
        <time>2017-06-30T06:55:52Z</time>
      </trkpt>
      <trkpt lat="62.795393988490105" lon="10.016738986596465">
        <ele>429.37</ele>
        <time>2017-06-30T06:55:53Z</time>
      </trkpt>
      <trkpt lat="62.795278988778591" lon="10.016472022980452">
        <ele>429.37</ele>
        <time>2017-06-30T06:55:54Z</time>
      </trkpt>
      <trkpt lat="62.794092027470469" lon="10.01369702629745">
        <ele>430.81</ele>
        <time>2017-06-30T06:56:04Z</time>
      </trkpt>
      <trkpt lat="62.793441005051136" lon="10.010909037664533">
        <ele>440.42000000000002</ele>
        <time>2017-06-30T06:56:13Z</time>
      </trkpt>
      <trkpt lat="62.792958961799741" lon="10.007733972743154">
        <ele>444.75</ele>
        <time>2017-06-30T06:56:23Z</time>
      </trkpt>
      <trkpt lat="62.792146001011133" lon="10.005420986562967">
        <ele>447.14999999999998</ele>
        <time>2017-06-30T06:56:31Z</time>
      </trkpt>
      <trkpt lat="62.791074961423874" lon="10.004101004451513">
        <ele>449.55000000000001</ele>
        <time>2017-06-30T06:56:38Z</time>
      </trkpt>
      <trkpt lat="62.789610978215933" lon="10.003236997872591">
        <ele>451.48000000000002</ele>
        <time>2017-06-30T06:56:46Z</time>
      </trkpt>
      <trkpt lat="62.787812976166606" lon="10.001973006874323">
        <ele>451.95999999999998</ele>
        <time>2017-06-30T06:56:56Z</time>
      </trkpt>
      <trkpt lat="62.786699021235108" lon="9.999878033995628">
        <ele>456.27999999999997</ele>
        <time>2017-06-30T06:57:04Z</time>
      </trkpt>
      <trkpt lat="62.785646002739668" lon="9.997735032811761">
        <ele>455.31999999999999</ele>
        <time>2017-06-30T06:57:13Z</time>
      </trkpt>
      <trkpt lat="62.783768959343433" lon="9.994129976257682">
        <ele>457.72000000000003</ele>
        <time>2017-06-30T06:57:28Z</time>
      </trkpt>
      <trkpt lat="62.782587027177215" lon="9.993080981075764">
        <ele>458.69</ele>
        <time>2017-06-30T06:57:36Z</time>
      </trkpt>
      <trkpt lat="62.781430995091796" lon="9.991722023114562">
        <ele>459.17000000000002</ele>
        <time>2017-06-30T06:57:44Z</time>
      </trkpt>
      <trkpt lat="62.780742002651095" lon="9.990776963531971">
        <ele>458.69</ele>
        <time>2017-06-30T06:57:49Z</time>
      </trkpt>
      <trkpt lat="62.780596995726228" lon="9.990660035982728">
        <ele>459.17000000000002</ele>
        <time>2017-06-30T06:57:50Z</time>
      </trkpt>
      <trkpt lat="62.780444025993347" lon="9.990565991029143">
        <ele>458.69</ele>
        <time>2017-06-30T06:57:51Z</time>
      </trkpt>
      <trkpt lat="62.779840026050806" lon="9.990219986066222">
        <ele>458.20999999999998</ele>
        <time>2017-06-30T06:57:55Z</time>
      </trkpt>
      <trkpt lat="62.77970097027719" lon="9.990071039646864">
        <ele>458.20999999999998</ele>
        <time>2017-06-30T06:57:56Z</time>
      </trkpt>
      <trkpt lat="62.779573984444141" lon="9.989886973053217">
        <ele>458.20999999999998</ele>
        <time>2017-06-30T06:57:57Z</time>
      </trkpt>
      <trkpt lat="62.779455967247486" lon="9.989678012207151">
        <ele>458.20999999999998</ele>
        <time>2017-06-30T06:57:58Z</time>
      </trkpt>
      <trkpt lat="62.779343985021114" lon="9.989447006955743">
        <ele>458.69</ele>
        <time>2017-06-30T06:57:59Z</time>
      </trkpt>
      <trkpt lat="62.779236026108265" lon="9.989206027239561">
        <ele>458.69</ele>
        <time>2017-06-30T06:58:00Z</time>
      </trkpt>
      <trkpt lat="62.779026981443167" lon="9.988719038665295">
        <ele>458.69</ele>
        <time>2017-06-30T06:58:02Z</time>
      </trkpt>
      <trkpt lat="62.778792958706617" lon="9.988342020660639">
        <ele>458.20999999999998</ele>
        <time>2017-06-30T06:58:04Z</time>
      </trkpt>
      <trkpt lat="62.778663039207458" lon="9.988190978765488">
        <ele>457.72000000000003</ele>
        <time>2017-06-30T06:58:05Z</time>
      </trkpt>
      <trkpt lat="62.778521971777081" lon="9.988073967397213">
        <ele>457.72000000000003</ele>
        <time>2017-06-30T06:58:06Z</time>
      </trkpt>
      <trkpt lat="62.778373025357723" lon="9.987989980727434">
        <ele>457.72000000000003</ele>
        <time>2017-06-30T06:58:07Z</time>
      </trkpt>
      <trkpt lat="62.77821603231132" lon="9.987949999049306">
        <ele>457.72000000000003</ele>
        <time>2017-06-30T06:58:08Z</time>
      </trkpt>
      <trkpt lat="62.778051998466253" lon="9.9879589676857">
        <ele>457.24000000000001</ele>
        <time>2017-06-30T06:58:09Z</time>
      </trkpt>
      <trkpt lat="62.777886036783457" lon="9.988017976284027">
        <ele>456.75999999999999</ele>
        <time>2017-06-30T06:58:10Z</time>
      </trkpt>
      <trkpt lat="62.777713034301996" lon="9.988120989874005">
        <ele>456.75999999999999</ele>
        <time>2017-06-30T06:58:11Z</time>
      </trkpt>
      <trkpt lat="62.777531985193491" lon="9.988249987363815">
        <ele>456.27999999999997</ele>
        <time>2017-06-30T06:58:12Z</time>
      </trkpt>
      <trkpt lat="62.775937998667359" lon="9.988931016996503">
        <ele>452.92000000000002</ele>
        <time>2017-06-30T06:58:20Z</time>
      </trkpt>
      <trkpt lat="62.774583986029029" lon="9.988222997635603">
        <ele>451.48000000000002</ele>
        <time>2017-06-30T06:58:27Z</time>
      </trkpt>
      <trkpt lat="62.774210991337895" lon="9.988037003204227">
        <ele>451.48000000000002</ele>
        <time>2017-06-30T06:58:29Z</time>
      </trkpt>
      <trkpt lat="62.774030026048422" lon="9.987997021526098">
        <ele>451</ele>
        <time>2017-06-30T06:58:30Z</time>
      </trkpt>
      <trkpt lat="62.773846965283155" lon="9.987988974899054">
        <ele>450.02999999999997</ele>
        <time>2017-06-30T06:58:31Z</time>
      </trkpt>
      <trkpt lat="62.77366197668016" lon="9.988016970455647">
        <ele>449.55000000000001</ele>
        <time>2017-06-30T06:58:32Z</time>
      </trkpt>
      <trkpt lat="62.773472964763641" lon="9.988086959347129">
        <ele>448.11000000000001</ele>
        <time>2017-06-30T06:58:33Z</time>
      </trkpt>
      <trkpt lat="62.773286970332265" lon="9.988182010129094">
        <ele>447.14999999999998</ele>
        <time>2017-06-30T06:58:34Z</time>
      </trkpt>
      <trkpt lat="62.771803960204124" lon="9.988955995067954">
        <ele>443.79000000000002</ele>
        <time>2017-06-30T06:58:42Z</time>
      </trkpt>
      <trkpt lat="62.771614026278257" lon="9.988967981189489">
        <ele>442.81999999999999</ele>
        <time>2017-06-30T06:58:43Z</time>
      </trkpt>
      <trkpt lat="62.771416967734694" lon="9.988932022824884">
        <ele>442.33999999999997</ele>
        <time>2017-06-30T06:58:44Z</time>
      </trkpt>
      <trkpt lat="62.771228039637208" lon="9.988877959549427">
        <ele>441.86000000000001</ele>
        <time>2017-06-30T06:58:45Z</time>
      </trkpt>
      <trkpt lat="62.771035004407167" lon="9.988800007849932">
        <ele>441.38</ele>
        <time>2017-06-30T06:58:46Z</time>
      </trkpt>
      <trkpt lat="62.769707981497049" lon="9.98873102478683">
        <ele>436.10000000000002</ele>
        <time>2017-06-30T06:58:53Z</time>
      </trkpt>
      <trkpt lat="62.767277983948588" lon="9.989131009206176">
        <ele>430.81</ele>
        <time>2017-06-30T06:59:06Z</time>
      </trkpt>
      <trkpt lat="62.765783993527293" lon="9.990019993856549">
        <ele>426.95999999999998</ele>
        <time>2017-06-30T06:59:14Z</time>
      </trkpt>
      <trkpt lat="62.763595981523395" lon="9.992118990048766">
        <ele>423.60000000000002</ele>
        <time>2017-06-30T06:59:26Z</time>
      </trkpt>
      <trkpt lat="62.761722039431334" lon="9.993818001821637">
        <ele>424.56</ele>
        <time>2017-06-30T06:59:36Z</time>
      </trkpt>
      <trkpt lat="62.760252021253109" lon="9.994874037802219">
        <ele>419.26999999999998</ele>
        <time>2017-06-30T06:59:44Z</time>
      </trkpt>
      <trkpt lat="62.760066026821733" lon="9.994886023923755">
        <ele>418.79000000000002</ele>
        <time>2017-06-30T06:59:45Z</time>
      </trkpt>
      <trkpt lat="62.759875003248453" lon="9.994839001446962">
        <ele>419.26999999999998</ele>
        <time>2017-06-30T06:59:46Z</time>
      </trkpt>
      <trkpt lat="62.759691020473838" lon="9.994753003120422">
        <ele>419.26999999999998</ele>
        <time>2017-06-30T06:59:47Z</time>
      </trkpt>
      <trkpt lat="62.759508965536952" lon="9.994660969823599">
        <ele>418.79000000000002</ele>
        <time>2017-06-30T06:59:48Z</time>
      </trkpt>
      <trkpt lat="62.759131025522947" lon="9.994529960677028">
        <ele>418.79000000000002</ele>
        <time>2017-06-30T06:59:50Z</time>
      </trkpt>
      <trkpt lat="62.75894301943481" lon="9.994501965120435">
        <ele>418.79000000000002</ele>
        <time>2017-06-30T06:59:51Z</time>
      </trkpt>
      <trkpt lat="62.758747972548008" lon="9.99451101757586">
        <ele>418.79000000000002</ele>
        <time>2017-06-30T06:59:52Z</time>
      </trkpt>
      <trkpt lat="62.757631000131369" lon="9.994660969823599">
        <ele>417.35000000000002</ele>
        <time>2017-06-30T06:59:58Z</time>
      </trkpt>
      <trkpt lat="62.757451040670276" lon="9.9945970159024">
        <ele>417.35000000000002</ele>
        <time>2017-06-30T06:59:59Z</time>
      </trkpt>
      <trkpt lat="62.75726999156177" lon="9.9944899789989">
        <ele>417.82999999999998</ele>
        <time>2017-06-30T07:00:00Z</time>
      </trkpt>
      <trkpt lat="62.755926959216595" lon="9.993335036560893">
        <ele>420.70999999999998</ele>
        <time>2017-06-30T07:00:08Z</time>
      </trkpt>
      <trkpt lat="62.755796033889055" lon="9.993132026866078">
        <ele>421.68000000000001</ele>
        <time>2017-06-30T07:00:09Z</time>
      </trkpt>
      <trkpt lat="62.755669970065355" lon="9.992890963330865">
        <ele>422.63999999999999</ele>
        <time>2017-06-30T07:00:10Z</time>
      </trkpt>
      <trkpt lat="62.75554901920259" lon="9.992635985836387">
        <ele>423.60000000000002</ele>
        <time>2017-06-30T07:00:11Z</time>
      </trkpt>
      <trkpt lat="62.755435025319457" lon="9.99236298725009">
        <ele>424.56</ele>
        <time>2017-06-30T07:00:12Z</time>
      </trkpt>
      <trkpt lat="62.754108002409339" lon="9.989365031942725">
        <ele>430.32999999999998</ele>
        <time>2017-06-30T07:00:23Z</time>
      </trkpt>
      <trkpt lat="62.752956999465823" lon="9.986694976687431">
        <ele>432.73000000000002</ele>
        <time>2017-06-30T07:00:33Z</time>
      </trkpt>
      <trkpt lat="62.751911021769047" lon="9.984684996306896">
        <ele>428.88999999999999</ele>
        <time>2017-06-30T07:00:41Z</time>
      </trkpt>
      <trkpt lat="62.75067301467061" lon="9.983379011973739">
        <ele>424.56</ele>
        <time>2017-06-30T07:00:49Z</time>
      </trkpt>
      <trkpt lat="62.748768981546164" lon="9.982495978474617">
        <ele>417.82999999999998</ele>
        <time>2017-06-30T07:01:01Z</time>
      </trkpt>
      <trkpt lat="62.746646013110876" lon="9.981387974694371">
        <ele>407.25999999999999</ele>
        <time>2017-06-30T07:01:13Z</time>
      </trkpt>
      <trkpt lat="62.744091963395476" lon="9.979519983753562">
        <ele>392.83999999999997</ele>
        <time>2017-06-30T07:01:25Z</time>
      </trkpt>
      <trkpt lat="62.742500994354486" lon="9.978639967739582">
        <ele>386.11000000000001</ele>
        <time>2017-06-30T07:01:33Z</time>
      </trkpt>
      <trkpt lat="62.741102976724505" lon="9.978969963267446">
        <ele>381.30000000000001</ele>
        <time>2017-06-30T07:01:40Z</time>
      </trkpt>
      <trkpt lat="62.739609992131591" lon="9.978820011019707">
        <ele>376.97000000000003</ele>
        <time>2017-06-30T07:01:47Z</time>
      </trkpt>
      <trkpt lat="62.737154010683298" lon="9.977031983435154">
        <ele>371.20999999999998</ele>
        <time>2017-06-30T07:01:59Z</time>
      </trkpt>
      <trkpt lat="62.736733993515372" lon="9.976897034794092">
        <ele>369.75999999999999</ele>
        <time>2017-06-30T07:02:01Z</time>
      </trkpt>
      <trkpt lat="62.736523021012545" lon="9.976897034794092">
        <ele>368.80000000000001</ele>
        <time>2017-06-30T07:02:02Z</time>
      </trkpt>
      <trkpt lat="62.736312970519066" lon="9.976944979280233">
        <ele>368.31999999999999</ele>
        <time>2017-06-30T07:02:03Z</time>
      </trkpt>
      <trkpt lat="62.736109960824251" lon="9.977039024233818">
        <ele>367.36000000000001</ele>
        <time>2017-06-30T07:02:04Z</time>
      </trkpt>
      <trkpt lat="62.735903011634946" lon="9.977156035602093">
        <ele>366.88</ele>
        <time>2017-06-30T07:02:05Z</time>
      </trkpt>
      <trkpt lat="62.734868014231324" lon="9.977642018347979">
        <ele>363.04000000000002</ele>
        <time>2017-06-30T07:02:10Z</time>
      </trkpt>
      <trkpt lat="62.734662992879748" lon="9.977617962285876">
        <ele>362.06999999999999</ele>
        <time>2017-06-30T07:02:11Z</time>
      </trkpt>
      <trkpt lat="62.734464006498456" lon="9.977534981444478">
        <ele>361.58999999999997</ele>
        <time>2017-06-30T07:02:12Z</time>
      </trkpt>
      <trkpt lat="62.734270971268415" lon="9.977385029196739">
        <ele>360.63</ele>
        <time>2017-06-30T07:02:13Z</time>
      </trkpt>
      <trkpt lat="62.73408598266542" lon="9.977192999795079">
        <ele>360.14999999999998</ele>
        <time>2017-06-30T07:02:14Z</time>
      </trkpt>
      <trkpt lat="62.733909040689468" lon="9.976957971230149">
        <ele>360.14999999999998</ele>
        <time>2017-06-30T07:02:15Z</time>
      </trkpt>
      <trkpt lat="62.733736960217357" lon="9.976686984300613">
        <ele>360.63</ele>
        <time>2017-06-30T07:02:16Z</time>
      </trkpt>
      <trkpt lat="62.733572004362941" lon="9.976391019299626">
        <ele>361.11000000000001</ele>
        <time>2017-06-30T07:02:17Z</time>
      </trkpt>
      <trkpt lat="62.733405958861113" lon="9.976102011278272">
        <ele>361.58999999999997</ele>
        <time>2017-06-30T07:02:18Z</time>
      </trkpt>
      <trkpt lat="62.733231028541923" lon="9.975858014076948">
        <ele>362.06999999999999</ele>
        <time>2017-06-30T07:02:19Z</time>
      </trkpt>
      <trkpt lat="62.733046961948276" lon="9.975675037130714">
        <ele>363.04000000000002</ele>
        <time>2017-06-30T07:02:20Z</time>
      </trkpt>
      <trkpt lat="62.732848981395364" lon="9.975550984963775">
        <ele>364.48000000000002</ele>
        <time>2017-06-30T07:02:21Z</time>
      </trkpt>
      <trkpt lat="62.73264697752893" lon="9.975494993850589">
        <ele>365.92000000000002</ele>
        <time>2017-06-30T07:02:22Z</time>
      </trkpt>
      <trkpt lat="62.732445979490876" lon="9.975474961102009">
        <ele>367.36000000000001</ele>
        <time>2017-06-30T07:02:23Z</time>
      </trkpt>
      <trkpt lat="62.73223701864481" lon="9.975493988022208">
        <ele>368.31999999999999</ele>
        <time>2017-06-30T07:02:24Z</time>
      </trkpt>
      <trkpt lat="62.731622960418463" lon="9.975445037707686">
        <ele>371.69</ele>
        <time>2017-06-30T07:02:27Z</time>
      </trkpt>
      <trkpt lat="62.731424979865551" lon="9.975359039381146">
        <ele>373.13</ele>
        <time>2017-06-30T07:02:28Z</time>
      </trkpt>
      <trkpt lat="62.731226999312639" lon="9.975232975557447">
        <ele>374.08999999999997</ele>
        <time>2017-06-30T07:02:29Z</time>
      </trkpt>
      <trkpt lat="62.731032958254218" lon="9.975063996389508">
        <ele>374.56999999999999</ele>
        <time>2017-06-30T07:02:30Z</time>
      </trkpt>
      <trkpt lat="62.73084101267159" lon="9.974872972816229">
        <ele>374.56999999999999</ele>
        <time>2017-06-30T07:02:31Z</time>
      </trkpt>
      <trkpt lat="62.728625005111098" lon="9.97221197001636">
        <ele>386.11000000000001</ele>
        <time>2017-06-30T07:02:43Z</time>
      </trkpt>
      <trkpt lat="62.727534016594291" lon="9.969923961907625">
        <ele>395.72000000000003</ele>
        <time>2017-06-30T07:02:50Z</time>
      </trkpt>
      <trkpt lat="62.727343998849392" lon="9.969709971919656">
        <ele>396.68000000000001</ele>
        <time>2017-06-30T07:02:51Z</time>
      </trkpt>
      <trkpt lat="62.727149035781622" lon="9.969534035772085">
        <ele>397.16000000000003</ele>
        <time>2017-06-30T07:02:52Z</time>
      </trkpt>
      <trkpt lat="62.726944014430046" lon="9.96939598582685">
        <ele>398.12</ele>
        <time>2017-06-30T07:02:53Z</time>
      </trkpt>
      <trkpt lat="62.726732036098838" lon="9.969288026914001">
        <ele>399.07999999999998</ele>
        <time>2017-06-30T07:02:54Z</time>
      </trkpt>
      <trkpt lat="62.726512011140585" lon="9.969200016930699">
        <ele>400.05000000000001</ele>
        <time>2017-06-30T07:02:55Z</time>
      </trkpt>
      <trkpt lat="62.725290013477206" lon="9.968172982335091">
        <ele>407.25999999999999</ele>
        <time>2017-06-30T07:03:01Z</time>
      </trkpt>
      <trkpt lat="62.724047983065248" lon="9.967142008244991">
        <ele>409.18000000000001</ele>
        <time>2017-06-30T07:03:07Z</time>
      </trkpt>
      <trkpt lat="62.721310034394264" lon="9.966161996126175">
        <ele>413.98000000000002</ele>
        <time>2017-06-30T07:03:19Z</time>
      </trkpt>
      <trkpt lat="62.719055972993374" lon="9.96576301753521">
        <ele>419.75</ele>
        <time>2017-06-30T07:03:29Z</time>
      </trkpt>
      <trkpt lat="62.716948008164763" lon="9.964237008243799">
        <ele>427.44</ele>
        <time>2017-06-30T07:03:39Z</time>
      </trkpt>
      <trkpt lat="62.7154800016433" lon="9.961850009858608">
        <ele>434.17000000000002</ele>
        <time>2017-06-30T07:03:47Z</time>
      </trkpt>
      <trkpt lat="62.71376296877861" lon="9.960209000855684">
        <ele>440.89999999999998</ele>
        <time>2017-06-30T07:03:55Z</time>
      </trkpt>
      <trkpt lat="62.711069025099277" lon="9.958143029361963">
        <ele>452.92000000000002</ele>
        <time>2017-06-30T07:04:08Z</time>
      </trkpt>
      <trkpt lat="62.710143998265266" lon="9.956722967326641">
        <ele>456.27999999999997</ele>
        <time>2017-06-30T07:04:15Z</time>
      </trkpt>
      <trkpt lat="62.709697997197509" lon="9.955832976847887">
        <ele>457.24000000000001</ele>
        <time>2017-06-30T07:04:19Z</time>
      </trkpt>
      <trkpt lat="62.709559025242925" lon="9.955649999901652">
        <ele>457.72000000000003</ele>
        <time>2017-06-30T07:04:20Z</time>
      </trkpt>
      <trkpt lat="62.709413012489676" lon="9.955492001026869">
        <ele>457.72000000000003</ele>
        <time>2017-06-30T07:04:21Z</time>
      </trkpt>
      <trkpt lat="62.707821037620306" lon="9.954202026128769">
        <ele>462.05000000000001</ele>
        <time>2017-06-30T07:04:30Z</time>
      </trkpt>
      <trkpt lat="62.704626023769379" lon="9.95220503769815">
        <ele>474.06999999999999</ele>
        <time>2017-06-30T07:04:46Z</time>
      </trkpt>
      <trkpt lat="62.702945033088326" lon="9.950608033686876">
        <ele>478.87</ele>
        <time>2017-06-30T07:04:55Z</time>
      </trkpt>
      <trkpt lat="62.700670016929507" lon="9.947692975401878">
        <ele>485.12</ele>
        <time>2017-06-30T07:05:08Z</time>
      </trkpt>
      <trkpt lat="62.697681030258536" lon="9.942813031375408">
        <ele>490.88999999999999</ele>
        <time>2017-06-30T07:05:26Z</time>
      </trkpt>
      <trkpt lat="62.696256022900343" lon="9.940828029066324">
        <ele>493.29000000000002</ele>
        <time>2017-06-30T07:05:34Z</time>
      </trkpt>
      <trkpt lat="62.69427496008575" lon="9.937522960826755">
        <ele>499.06</ele>
        <time>2017-06-30T07:05:46Z</time>
      </trkpt>
      <trkpt lat="62.692265985533595" lon="9.93426701053977">
        <ele>504.82999999999998</ele>
        <time>2017-06-30T07:05:58Z</time>
      </trkpt>
      <trkpt lat="62.692070016637444" lon="9.934090990573168">
        <ele>505.79000000000002</ele>
        <time>2017-06-30T07:05:59Z</time>
      </trkpt>
      <trkpt lat="62.691866001114249" lon="9.933962998911738">
        <ele>506.26999999999998</ele>
        <time>2017-06-30T07:06:00Z</time>
      </trkpt>
      <trkpt lat="62.691657962277532" lon="9.933878006413579">
        <ele>506.75</ele>
        <time>2017-06-30T07:06:01Z</time>
      </trkpt>
      <trkpt lat="62.691444978117943" lon="9.933817991986871">
        <ele>507.23000000000002</ele>
        <time>2017-06-30T07:06:02Z</time>
      </trkpt>
      <trkpt lat="62.689151018857956" lon="9.932774025946856">
        <ele>514.44000000000005</ele>
        <time>2017-06-30T07:06:13Z</time>
      </trkpt>
      <trkpt lat="62.686866028234363" lon="9.930776031687856">
        <ele>518.76999999999998</ele>
        <time>2017-06-30T07:06:25Z</time>
      </trkpt>
      <trkpt lat="62.684856969863176" lon="9.929483039304614">
        <ele>521.64999999999998</ele>
        <time>2017-06-30T07:06:35Z</time>
      </trkpt>
      <trkpt lat="62.681989017874002" lon="9.92732503451407">
        <ele>526.46000000000004</ele>
        <time>2017-06-30T07:06:50Z</time>
      </trkpt>
      <trkpt lat="62.680632993578911" lon="9.925323016941547">
        <ele>528.86000000000001</ele>
        <time>2017-06-30T07:06:58Z</time>
      </trkpt>
      <trkpt lat="62.678875979036093" lon="9.921553004533052">
        <ele>532.71000000000004</ele>
        <time>2017-06-30T07:07:10Z</time>
      </trkpt>
      <trkpt lat="62.677779039368033" lon="9.919991958886385">
        <ele>534.14999999999998</ele>
        <time>2017-06-30T07:07:16Z</time>
      </trkpt>
      <trkpt lat="62.676203995943069" lon="9.917105985805392">
        <ele>537.50999999999999</ele>
        <time>2017-06-30T07:07:25Z</time>
      </trkpt>
      <trkpt lat="62.674732971936464" lon="9.914144994691014">
        <ele>539.44000000000005</ele>
        <time>2017-06-30T07:07:34Z</time>
      </trkpt>
      <trkpt lat="62.672719974070787" lon="9.911374021321535">
        <ele>541.36000000000001</ele>
        <time>2017-06-30T07:07:45Z</time>
      </trkpt>
      <trkpt lat="62.670691972598433" lon="9.908584021031857">
        <ele>543.75999999999999</ele>
        <time>2017-06-30T07:07:56Z</time>
      </trkpt>
      <trkpt lat="62.669867025688291" lon="9.907245012000203">
        <ele>544.24000000000001</ele>
        <time>2017-06-30T07:08:01Z</time>
      </trkpt>
      <trkpt lat="62.669734004884958" lon="9.906918033957481">
        <ele>544.72000000000003</ele>
        <time>2017-06-30T07:08:02Z</time>
      </trkpt>
      <trkpt lat="62.669623028486967" lon="9.906559037044644">
        <ele>544.72000000000003</ele>
        <time>2017-06-30T07:08:03Z</time>
      </trkpt>
      <trkpt lat="62.669532001018524" lon="9.906168021261692">
        <ele>545.20000000000005</ele>
        <time>2017-06-30T07:08:04Z</time>
      </trkpt>
      <trkpt lat="62.669461006298661" lon="9.90575697273016">
        <ele>545.20000000000005</ele>
        <time>2017-06-30T07:08:05Z</time>
      </trkpt>
      <trkpt lat="62.669412977993488" lon="9.905334021896124">
        <ele>545.69000000000005</ele>
        <time>2017-06-30T07:08:06Z</time>
      </trkpt>
      <trkpt lat="62.669383976608515" lon="9.904906963929534">
        <ele>545.69000000000005</ele>
        <time>2017-06-30T07:08:07Z</time>
      </trkpt>
      <trkpt lat="62.669365033507347" lon="9.904472026973963">
        <ele>545.69000000000005</ele>
        <time>2017-06-30T07:08:08Z</time>
      </trkpt>
      <trkpt lat="62.669302001595497" lon="9.903626041486859">
        <ele>545.20000000000005</ele>
        <time>2017-06-30T07:08:10Z</time>
      </trkpt>
      <trkpt lat="62.669240981340408" lon="9.903219016268849">
        <ele>544.72000000000003</ele>
        <time>2017-06-30T07:08:11Z</time>
      </trkpt>
      <trkpt lat="62.669161017984152" lon="9.902830012142658">
        <ele>544.72000000000003</ele>
        <time>2017-06-30T07:08:12Z</time>
      </trkpt>
      <trkpt lat="62.669061021879315" lon="9.902459029108286">
        <ele>544.24000000000001</ele>
        <time>2017-06-30T07:08:13Z</time>
      </trkpt>
      <trkpt lat="62.668951973319054" lon="9.9021250102669">
        <ele>543.75999999999999</ele>
        <time>2017-06-30T07:08:14Z</time>
      </trkpt>
      <trkpt lat="62.668818030506372" lon="9.90180297754705">
        <ele>543.75999999999999</ele>
        <time>2017-06-30T07:08:15Z</time>
      </trkpt>
      <trkpt lat="62.668672017753124" lon="9.901493014767766">
        <ele>543.27999999999997</ele>
        <time>2017-06-30T07:08:16Z</time>
      </trkpt>
      <trkpt lat="62.66649498604238" lon="9.897295022383332">
        <ele>545.20000000000005</ele>
        <time>2017-06-30T07:08:30Z</time>
      </trkpt>
      <trkpt lat="62.664994960650802" lon="9.895799020305276">
        <ele>547.13</ele>
        <time>2017-06-30T07:08:38Z</time>
      </trkpt>
      <trkpt lat="62.663014987483621" lon="9.892712971195579">
        <ele>548.57000000000005</ele>
        <time>2017-06-30T07:08:50Z</time>
      </trkpt>
      <trkpt lat="62.662662025541067" lon="9.892337964847684">
        <ele>549.52999999999997</ele>
        <time>2017-06-30T07:08:52Z</time>
      </trkpt>
      <trkpt lat="62.662477036938071" lon="9.89219999872148">
        <ele>550.00999999999999</ele>
        <time>2017-06-30T07:08:53Z</time>
      </trkpt>
      <trkpt lat="62.661931961774826" lon="9.891806971281767">
        <ele>550.97000000000003</ele>
        <time>2017-06-30T07:08:56Z</time>
      </trkpt>
      <trkpt lat="62.661768011748791" lon="9.891614019870758">
        <ele>551.45000000000005</ele>
        <time>2017-06-30T07:08:57Z</time>
      </trkpt>
      <trkpt lat="62.661613030359149" lon="9.891385026276112">
        <ele>551.45000000000005</ele>
        <time>2017-06-30T07:08:58Z</time>
      </trkpt>
      <trkpt lat="62.659290991723537" lon="9.887549970299006">
        <ele>555.29999999999995</ele>
        <time>2017-06-30T07:09:13Z</time>
      </trkpt>
      <trkpt lat="62.658342998474836" lon="9.885329017415643">
        <ele>556.25999999999999</ele>
        <time>2017-06-30T07:09:21Z</time>
      </trkpt>
      <trkpt lat="62.657584017142653" lon="9.882669020444155">
        <ele>557.70000000000005</ele>
        <time>2017-06-30T07:09:30Z</time>
      </trkpt>
      <trkpt lat="62.656450029462576" lon="9.879703000187874">
        <ele>560.11000000000001</ele>
        <time>2017-06-30T07:09:41Z</time>
      </trkpt>
      <trkpt lat="62.65476199798286" lon="9.875272996723652">
        <ele>562.02999999999997</ele>
        <time>2017-06-30T07:09:56Z</time>
      </trkpt>
      <trkpt lat="62.653723983094096" lon="9.871732983738184">
        <ele>562.02999999999997</ele>
        <time>2017-06-30T07:10:05Z</time>
      </trkpt>
      <trkpt lat="62.652822006493807" lon="9.866779027506709">
        <ele>559.62</ele>
        <time>2017-06-30T07:10:15Z</time>
      </trkpt>
      <trkpt lat="62.651902008801699" lon="9.862367967143655">
        <ele>557.70000000000005</ele>
        <time>2017-06-30T07:10:24Z</time>
      </trkpt>
      <trkpt lat="62.64994902536273" lon="9.857147969305515">
        <ele>560.59000000000003</ele>
        <time>2017-06-30T07:10:37Z</time>
      </trkpt>
      <trkpt lat="62.648701965808868" lon="9.852770017459989">
        <ele>559.13999999999999</ele>
        <time>2017-06-30T07:10:48Z</time>
      </trkpt>
      <trkpt lat="62.64805899001658" lon="9.848237000405788">
        <ele>556.74000000000001</ele>
        <time>2017-06-30T07:10:58Z</time>
      </trkpt>
      <trkpt lat="62.647423977032304" lon="9.843196962028742">
        <ele>555.29999999999995</ele>
        <time>2017-06-30T07:11:09Z</time>
      </trkpt>
      <trkpt lat="62.64653398655355" lon="9.836349030956626">
        <ele>551.92999999999995</ele>
        <time>2017-06-30T07:11:24Z</time>
      </trkpt>
      <trkpt lat="62.645731000229716" lon="9.833406982943416">
        <ele>550.97000000000003</ele>
        <time>2017-06-30T07:11:31Z</time>
      </trkpt>
      <trkpt lat="62.644326025620103" lon="9.829617021605372">
        <ele>552.40999999999997</ele>
        <time>2017-06-30T07:11:41Z</time>
      </trkpt>
      <trkpt lat="62.643974991515279" lon="9.826686959713697">
        <ele>550.97000000000003</ele>
        <time>2017-06-30T07:11:47Z</time>
      </trkpt>
      <trkpt lat="62.643540976569057" lon="9.821218019351363">
        <ele>549.52999999999997</ele>
        <time>2017-06-30T07:11:58Z</time>
      </trkpt>
      <trkpt lat="62.642729021608829" lon="9.817756041884422">
        <ele>551.92999999999995</ele>
        <time>2017-06-30T07:12:06Z</time>
      </trkpt>
      <trkpt lat="62.64099002815783" lon="9.811173984780908">
        <ele>555.77999999999997</ele>
        <time>2017-06-30T07:12:21Z</time>
      </trkpt>
      <trkpt lat="62.63959301635623" lon="9.806116009131074">
        <ele>547.61000000000001</ele>
        <time>2017-06-30T07:12:34Z</time>
      </trkpt>
      <trkpt lat="62.638360038399696" lon="9.803360961377621">
        <ele>547.61000000000001</ele>
        <time>2017-06-30T07:12:41Z</time>
      </trkpt>
      <trkpt lat="62.636158028617501" lon="9.799159029498696">
        <ele>549.52999999999997</ele>
        <time>2017-06-30T07:12:53Z</time>
      </trkpt>
      <trkpt lat="62.634831005707383" lon="9.795994022861123">
        <ele>547.61000000000001</ele>
        <time>2017-06-30T07:13:02Z</time>
      </trkpt>
      <trkpt lat="62.63278397731483" lon="9.790448974817991">
        <ele>549.04999999999995</ele>
        <time>2017-06-30T07:13:16Z</time>
      </trkpt>
      <trkpt lat="62.631250005215406" lon="9.786873003467917">
        <ele>550.49000000000001</ele>
        <time>2017-06-30T07:13:26Z</time>
      </trkpt>
      <trkpt lat="62.628065971657634" lon="9.780291030183435">
        <ele>557.22000000000003</ele>
        <time>2017-06-30T07:13:46Z</time>
      </trkpt>
      <trkpt lat="62.627085037529469" lon="9.777677971869707">
        <ele>560.59000000000003</ele>
        <time>2017-06-30T07:13:54Z</time>
      </trkpt>
      <trkpt lat="62.626483971253037" lon="9.774126978591085">
        <ele>560.11000000000001</ele>
        <time>2017-06-30T07:14:03Z</time>
      </trkpt>
      <trkpt lat="62.626361008733511" lon="9.773575030267239">
        <ele>560.11000000000001</ele>
        <time>2017-06-30T07:14:05Z</time>
      </trkpt>
      <trkpt lat="62.625699006021023" lon="9.771970985457301">
        <ele>561.54999999999995</ele>
        <time>2017-06-30T07:14:12Z</time>
      </trkpt>
      <trkpt lat="62.624337030574679" lon="9.769957987591624">
        <ele>563.95000000000005</ele>
        <time>2017-06-30T07:14:20Z</time>
      </trkpt>
      <trkpt lat="62.62223401106894" lon="9.766752999275923">
        <ele>567.32000000000005</ele>
        <time>2017-06-30T07:14:31Z</time>
      </trkpt>
      <trkpt lat="62.620916040614247" lon="9.763763006776571">
        <ele>567.32000000000005</ele>
        <time>2017-06-30T07:14:39Z</time>
      </trkpt>
      <trkpt lat="62.619447028264403" lon="9.761083982884884">
        <ele>568.75999999999999</ele>
        <time>2017-06-30T07:14:47Z</time>
      </trkpt>
      <trkpt lat="62.617513993754983" lon="9.757739016786218">
        <ele>570.67999999999995</ele>
        <time>2017-06-30T07:14:58Z</time>
      </trkpt>
      <trkpt lat="62.615997958928347" lon="9.755495013669133">
        <ele>572.12</ele>
        <time>2017-06-30T07:15:07Z</time>
      </trkpt>
      <trkpt lat="62.613690001890063" lon="9.751933962106705">
        <ele>569.24000000000001</ele>
        <time>2017-06-30T07:15:20Z</time>
      </trkpt>
      <trkpt lat="62.610786007717252" lon="9.746827958151698">
        <ele>567.79999999999995</ele>
        <time>2017-06-30T07:15:37Z</time>
      </trkpt>
      <trkpt lat="62.609236026182771" lon="9.743323987349868">
        <ele>566.83000000000004</ele>
        <time>2017-06-30T07:15:47Z</time>
      </trkpt>
      <trkpt lat="62.608364978805184" lon="9.740068037062883">
        <ele>566.35000000000002</ele>
        <time>2017-06-30T07:15:56Z</time>
      </trkpt>
      <trkpt lat="62.607060000300407" lon="9.73619400523603">
        <ele>564.42999999999995</ele>
        <time>2017-06-30T07:16:08Z</time>
      </trkpt>
      <trkpt lat="62.604544004425406" lon="9.730405965819955">
        <ele>563.47000000000003</ele>
        <time>2017-06-30T07:16:28Z</time>
      </trkpt>
      <trkpt lat="62.602873994037509" lon="9.726550960913301">
        <ele>562.99000000000001</ele>
        <time>2017-06-30T07:16:42Z</time>
      </trkpt>
      <trkpt lat="62.600865019485354" lon="9.721949966624379">
        <ele>562.99000000000001</ele>
        <time>2017-06-30T07:16:59Z</time>
      </trkpt>
      <trkpt lat="62.600098997354507" lon="9.720117012038827">
        <ele>565.38999999999999</ele>
        <time>2017-06-30T07:17:08Z</time>
      </trkpt>
      <trkpt lat="62.59913801215589" lon="9.717384008690715">
        <ele>563.95000000000005</ele>
        <time>2017-06-30T07:17:21Z</time>
      </trkpt>
      <trkpt lat="62.598475003615022" lon="9.714682018384337">
        <ele>562.99000000000001</ele>
        <time>2017-06-30T07:17:31Z</time>
      </trkpt>
      <trkpt lat="62.597716022282839" lon="9.711501002311707">
        <ele>562.02999999999997</ele>
        <time>2017-06-30T07:17:41Z</time>
      </trkpt>
      <trkpt lat="62.597002973780036" lon="9.706391980871558">
        <ele>561.54999999999995</ele>
        <time>2017-06-30T07:17:56Z</time>
      </trkpt>
      <trkpt lat="62.59619303047657" lon="9.702186025679112">
        <ele>562.02999999999997</ele>
        <time>2017-06-30T07:18:10Z</time>
      </trkpt>
      <trkpt lat="62.595579978078604" lon="9.700084012001753">
        <ele>559.13999999999999</ele>
        <time>2017-06-30T07:18:20Z</time>
      </trkpt>
      <trkpt lat="62.59546497836709" lon="9.699686961248517">
        <ele>558.65999999999997</ele>
        <time>2017-06-30T07:18:22Z</time>
      </trkpt>
      <trkpt lat="62.595427008345723" lon="9.699480012059212">
        <ele>558.65999999999997</ele>
        <time>2017-06-30T07:18:23Z</time>
      </trkpt>
      <trkpt lat="62.59533204138279" lon="9.699152028188109">
        <ele>558.65999999999997</ele>
        <time>2017-06-30T07:18:25Z</time>
      </trkpt>
      <trkpt lat="62.595261968672276" lon="9.699041973799467">
        <ele>558.65999999999997</ele>
        <time>2017-06-30T07:18:26Z</time>
      </trkpt>
      <trkpt lat="62.59505401365459" lon="9.698628997430205">
        <ele>558.17999999999995</ele>
        <time>2017-06-30T07:18:29Z</time>
      </trkpt>
      <trkpt lat="62.595002967864275" lon="9.698422970250249">
        <ele>558.17999999999995</ele>
        <time>2017-06-30T07:18:30Z</time>
      </trkpt>
      <trkpt lat="62.594444984570146" lon="9.695771019905806">
        <ele>554.82000000000005</ele>
        <time>2017-06-30T07:18:40Z</time>
      </trkpt>
      <trkpt lat="62.593850959092379" lon="9.693202972412109">
        <ele>553.86000000000001</ele>
        <time>2017-06-30T07:18:50Z</time>
      </trkpt>
      <trkpt lat="62.593823969364166" lon="9.69298898242414">
        <ele>553.86000000000001</ele>
        <time>2017-06-30T07:18:51Z</time>
      </trkpt>
      <trkpt lat="62.593811983242631" lon="9.692774992436171">
        <ele>553.86000000000001</ele>
        <time>2017-06-30T07:18:52Z</time>
      </trkpt>
      <trkpt lat="62.59380997158587" lon="9.692581035196781">
        <ele>553.86000000000001</ele>
        <time>2017-06-30T07:18:53Z</time>
      </trkpt>
      <trkpt lat="62.593811983242631" lon="9.692410966381431">
        <ele>553.86000000000001</ele>
        <time>2017-06-30T07:18:54Z</time>
      </trkpt>
      <trkpt lat="62.593784993514419" lon="9.692154983058572">
        <ele>553.86000000000001</ele>
        <time>2017-06-30T07:18:56Z</time>
      </trkpt>
      <trkpt lat="62.593739982694387" lon="9.692064039409161">
        <ele>553.86000000000001</ele>
        <time>2017-06-30T07:18:57Z</time>
      </trkpt>
      <trkpt lat="62.593491962179542" lon="9.691535979509354">
        <ele>553.38</ele>
        <time>2017-06-30T07:19:01Z</time>
      </trkpt>
      <trkpt lat="62.592628039419651" lon="9.689513007178903">
        <ele>553.86000000000001</ele>
        <time>2017-06-30T07:19:11Z</time>
      </trkpt>
      <trkpt lat="62.591755986213684" lon="9.687305968254805">
        <ele>554.82000000000005</ele>
        <time>2017-06-30T07:19:22Z</time>
      </trkpt>
      <trkpt lat="62.591693960130215" lon="9.687183005735278">
        <ele>554.34000000000003</ele>
        <time>2017-06-30T07:19:23Z</time>
      </trkpt>
      <trkpt lat="62.591607961803675" lon="9.687119973823428">
        <ele>554.82000000000005</ele>
        <time>2017-06-30T07:19:24Z</time>
      </trkpt>
      <trkpt lat="62.591520035639405" lon="9.687094995751977">
        <ele>554.82000000000005</ele>
        <time>2017-06-30T07:19:25Z</time>
      </trkpt>
      <trkpt lat="62.591423979029059" lon="9.687074963003397">
        <ele>554.82000000000005</ele>
        <time>2017-06-30T07:19:26Z</time>
      </trkpt>
      <trkpt lat="62.591214012354612" lon="9.686960969120264">
        <ele>554.82000000000005</ele>
        <time>2017-06-30T07:19:28Z</time>
      </trkpt>
      <trkpt lat="62.591104963794351" lon="9.686870025470853">
        <ele>555.29999999999995</ele>
        <time>2017-06-30T07:19:29Z</time>
      </trkpt>
      <trkpt lat="62.590993987396359" lon="9.686757959425449">
        <ele>555.77999999999997</ele>
        <time>2017-06-30T07:19:30Z</time>
      </trkpt>
      <trkpt lat="62.589796967804432" lon="9.685089960694313">
        <ele>557.70000000000005</ele>
        <time>2017-06-30T07:19:40Z</time>
      </trkpt>
      <trkpt lat="62.588521996513009" lon="9.683018960058689">
        <ele>556.74000000000001</ele>
        <time>2017-06-30T07:19:49Z</time>
      </trkpt>
      <trkpt lat="62.586242035031319" lon="9.679163033142686">
        <ele>558.17999999999995</ele>
        <time>2017-06-30T07:20:03Z</time>
      </trkpt>
      <trkpt lat="62.5832589995116" lon="9.673899030312896">
        <ele>560.11000000000001</ele>
        <time>2017-06-30T07:20:20Z</time>
      </trkpt>
      <trkpt lat="62.580938972532749" lon="9.669258976355195">
        <ele>552.40999999999997</ele>
        <time>2017-06-30T07:20:34Z</time>
      </trkpt>
      <trkpt lat="62.5799710303545" lon="9.665534980595112">
        <ele>544.24000000000001</ele>
        <time>2017-06-30T07:20:43Z</time>
      </trkpt>
      <trkpt lat="62.579148011282086" lon="9.660468036308885">
        <ele>541.36000000000001</ele>
        <time>2017-06-30T07:20:55Z</time>
      </trkpt>
      <trkpt lat="62.578288028016686" lon="9.657474020496011">
        <ele>539.44000000000005</ele>
        <time>2017-06-30T07:21:03Z</time>
      </trkpt>
      <trkpt lat="62.576815998181701" lon="9.654390988871455">
        <ele>536.54999999999995</ele>
        <time>2017-06-30T07:21:13Z</time>
      </trkpt>
      <trkpt lat="62.573890965431929" lon="9.649628978222609">
        <ele>528.38</ele>
        <time>2017-06-30T07:21:30Z</time>
      </trkpt>
      <trkpt lat="62.572510968893766" lon="9.64825501665473">
        <ele>524.05999999999995</ele>
        <time>2017-06-30T07:21:37Z</time>
      </trkpt>
      <trkpt lat="62.569555006921291" lon="9.646860016509891">
        <ele>515.88</ele>
        <time>2017-06-30T07:21:51Z</time>
      </trkpt>
      <trkpt lat="62.566784033551812" lon="9.645831976085901">
        <ele>509.63999999999999</ele>
        <time>2017-06-30T07:22:04Z</time>
      </trkpt>
      <trkpt lat="62.564930040389299" lon="9.644296998158097">
        <ele>509.63999999999999</ele>
        <time>2017-06-30T07:22:13Z</time>
      </trkpt>
      <trkpt lat="62.56214096210897" lon="9.641925003379583">
        <ele>505.79000000000002</ele>
        <time>2017-06-30T07:22:27Z</time>
      </trkpt>
      <trkpt lat="62.560935979709029" lon="9.640143010765314">
        <ele>505.31</ele>
        <time>2017-06-30T07:22:34Z</time>
      </trkpt>
      <trkpt lat="62.559248032048345" lon="9.637823989614844">
        <ele>505.79000000000002</ele>
        <time>2017-06-30T07:22:44Z</time>
      </trkpt>
      <trkpt lat="62.556310007348657" lon="9.634995013475418">
        <ele>507.23000000000002</ele>
        <time>2017-06-30T07:23:00Z</time>
      </trkpt>
      <trkpt lat="62.553150029852986" lon="9.632723014801741">
        <ele>508.67000000000002</ele>
        <time>2017-06-30T07:23:17Z</time>
      </trkpt>
      <trkpt lat="62.551134014502168" lon="9.632500978186727">
        <ele>511.56</ele>
        <time>2017-06-30T07:23:27Z</time>
      </trkpt>
      <trkpt lat="62.549208020791411" lon="9.632125971838832">
        <ele>512.03999999999996</ele>
        <time>2017-06-30T07:23:37Z</time>
      </trkpt>
      <trkpt lat="62.547088991850615" lon="9.631770998239517">
        <ele>515.88</ele>
        <time>2017-06-30T07:23:48Z</time>
      </trkpt>
      <trkpt lat="62.54383597522974" lon="9.630781011655927">
        <ele>518.76999999999998</ele>
        <time>2017-06-30T07:24:05Z</time>
      </trkpt>
      <trkpt lat="62.541369013488293" lon="9.62977803312242">
        <ele>521.16999999999996</ele>
        <time>2017-06-30T07:24:18Z</time>
      </trkpt>
      <trkpt lat="62.539225006476045" lon="9.628026969730854">
        <ele>524.53999999999996</ele>
        <time>2017-06-30T07:24:29Z</time>
      </trkpt>
      <trkpt lat="62.535800999030471" lon="9.624569015577436">
        <ele>536.07000000000005</ele>
        <time>2017-06-30T07:24:48Z</time>
      </trkpt>
      <trkpt lat="62.534815035760403" lon="9.623365039005876">
        <ele>538.96000000000004</ele>
        <time>2017-06-30T07:24:55Z</time>
      </trkpt>
      <trkpt lat="62.534691989421844" lon="9.623138979077339">
        <ele>538.96000000000004</ele>
        <time>2017-06-30T07:24:56Z</time>
      </trkpt>
      <trkpt lat="62.53457598388195" lon="9.622890036553145">
        <ele>539.44000000000005</ele>
        <time>2017-06-30T07:24:57Z</time>
      </trkpt>
      <trkpt lat="62.534462995827198" lon="9.622631035745144">
        <ele>539.91999999999996</ele>
        <time>2017-06-30T07:24:58Z</time>
      </trkpt>
      <trkpt lat="62.534361993893981" lon="9.622347978875041">
        <ele>540.39999999999998</ele>
        <time>2017-06-30T07:24:59Z</time>
      </trkpt>
      <trkpt lat="62.534268032759428" lon="9.62206601165235">
        <ele>540.88</ele>
        <time>2017-06-30T07:25:00Z</time>
      </trkpt>
      <trkpt lat="62.534185973927379" lon="9.621767029166222">
        <ele>540.88</ele>
        <time>2017-06-30T07:25:01Z</time>
      </trkpt>
      <trkpt lat="62.534111961722374" lon="9.621467040851712">
        <ele>540.88</ele>
        <time>2017-06-30T07:25:02Z</time>
      </trkpt>
      <trkpt lat="62.534053036943078" lon="9.621174009516835">
        <ele>541.36000000000001</ele>
        <time>2017-06-30T07:25:03Z</time>
      </trkpt>
      <trkpt lat="62.534007020294666" lon="9.620877960696816">
        <ele>541.36000000000001</ele>
        <time>2017-06-30T07:25:04Z</time>
      </trkpt>
      <trkpt lat="62.533971983939409" lon="9.620578978210688">
        <ele>541.84000000000003</ele>
        <time>2017-06-30T07:25:05Z</time>
      </trkpt>
      <trkpt lat="62.533941976726055" lon="9.620277984067798">
        <ele>542.32000000000005</ele>
        <time>2017-06-30T07:25:06Z</time>
      </trkpt>
      <trkpt lat="62.533856984227896" lon="9.619026985019445">
        <ele>544.72000000000003</ele>
        <time>2017-06-30T07:25:12Z</time>
      </trkpt>
      <trkpt lat="62.533839968964458" lon="9.618849959224463">
        <ele>545.20000000000005</ele>
        <time>2017-06-30T07:25:15Z</time>
      </trkpt>
      <trkpt lat="62.533831000328064" lon="9.618836967274547">
        <ele>545.69000000000005</ele>
        <time>2017-06-30T07:25:16Z</time>
      </trkpt>
      <trkpt lat="62.533814990893006" lon="9.618904022499919">
        <ele>545.20000000000005</ele>
        <time>2017-06-30T07:25:19Z</time>
      </trkpt>
      <trkpt lat="62.533823037520051" lon="9.618937969207764">
        <ele>545.20000000000005</ele>
        <time>2017-06-30T07:25:20Z</time>
      </trkpt>
      <trkpt lat="62.533827982842922" lon="9.618973005563021">
        <ele>545.20000000000005</ele>
        <time>2017-06-30T07:25:21Z</time>
      </trkpt>
      <trkpt lat="62.533870982006192" lon="9.619199987500906">
        <ele>545.20000000000005</ele>
        <time>2017-06-30T07:25:24Z</time>
      </trkpt>
      <trkpt lat="62.533882968127728" lon="9.619323033839464">
        <ele>545.20000000000005</ele>
        <time>2017-06-30T07:25:25Z</time>
      </trkpt>
      <trkpt lat="62.53401598893106" lon="9.620780982077122">
        <ele>543.75999999999999</ele>
        <time>2017-06-30T07:25:35Z</time>
      </trkpt>
      <trkpt lat="62.534008026123047" lon="9.621001007035375">
        <ele>542.32000000000005</ele>
        <time>2017-06-30T07:25:39Z</time>
      </trkpt>
      <trkpt lat="62.534019006416202" lon="9.621091028675437">
        <ele>540.88</ele>
        <time>2017-06-30T07:25:56Z</time>
      </trkpt>
      <trkpt lat="62.534018000587821" lon="9.621091028675437">
        <ele>540.88</ele>
        <time>2017-06-30T07:28:05Z</time>
      </trkpt>
      <trkpt lat="62.534022023901343" lon="9.621085999533534">
        <ele>540.88</ele>
        <time>2017-06-30T07:30:24Z</time>
      </trkpt>
      <trkpt lat="62.534026969224215" lon="9.621084993705154">
        <ele>540.88</ele>
        <time>2017-06-30T07:32:26Z</time>
      </trkpt>
      <trkpt lat="62.534028980880976" lon="9.621083987876773">
        <ele>540.88</ele>
        <time>2017-06-30T07:34:23Z</time>
      </trkpt>
      <trkpt lat="62.53403602167964" lon="9.62109899148345">
        <ele>540.88</ele>
        <time>2017-06-30T07:35:13Z</time>
      </trkpt>
      <trkpt lat="62.534052031114697" lon="9.621111983433366">
        <ele>540.88</ele>
        <time>2017-06-30T07:35:14Z</time>
      </trkpt>
      <trkpt lat="62.53407902084291" lon="9.621108965948224">
        <ele>540.88</ele>
        <time>2017-06-30T07:35:15Z</time>
      </trkpt>
      <trkpt lat="62.534105004742742" lon="9.62107895873487">
        <ele>540.88</ele>
        <time>2017-06-30T07:35:16Z</time>
      </trkpt>
      <trkpt lat="62.534114979207516" lon="9.621021039783955">
        <ele>540.88</ele>
        <time>2017-06-30T07:35:17Z</time>
      </trkpt>
      <trkpt lat="62.534112967550755" lon="9.620945015922189">
        <ele>540.88</ele>
        <time>2017-06-30T07:35:18Z</time>
      </trkpt>
      <trkpt lat="62.534096036106348" lon="9.620857005938888">
        <ele>540.88</ele>
        <time>2017-06-30T07:35:19Z</time>
      </trkpt>
      <trkpt lat="62.534078015014529" lon="9.620744017884135">
        <ele>540.88</ele>
        <time>2017-06-30T07:35:20Z</time>
      </trkpt>
      <trkpt lat="62.533932002261281" lon="9.619305012747645">
        <ele>542.79999999999995</ele>
        <time>2017-06-30T07:35:28Z</time>
      </trkpt>
      <trkpt lat="62.533634025603533" lon="9.617309030145407">
        <ele>545.69000000000005</ele>
        <time>2017-06-30T07:35:36Z</time>
      </trkpt>
      <trkpt lat="62.533555990085006" lon="9.61708003655076">
        <ele>545.69000000000005</ele>
        <time>2017-06-30T07:35:37Z</time>
      </trkpt>
      <trkpt lat="62.533462028950453" lon="9.616874009370804">
        <ele>546.16999999999996</ele>
        <time>2017-06-30T07:35:38Z</time>
      </trkpt>
      <trkpt lat="62.533357003703713" lon="9.616681979969144">
        <ele>546.16999999999996</ele>
        <time>2017-06-30T07:35:39Z</time>
      </trkpt>
      <trkpt lat="62.533237980678678" lon="9.616505037993193">
        <ele>546.64999999999998</ele>
        <time>2017-06-30T07:35:40Z</time>
      </trkpt>
      <trkpt lat="62.533115018159151" lon="9.616343015804887">
        <ele>546.64999999999998</ele>
        <time>2017-06-30T07:35:41Z</time>
      </trkpt>
      <trkpt lat="62.532988032326102" lon="9.616189040243626">
        <ele>547.13</ele>
        <time>2017-06-30T07:35:42Z</time>
      </trkpt>
      <trkpt lat="62.531537963077426" lon="9.615128980949521">
        <ele>549.04999999999995</ele>
        <time>2017-06-30T07:35:52Z</time>
      </trkpt>
      <trkpt lat="62.529926039278507" lon="9.613733980804682">
        <ele>551.92999999999995</ele>
        <time>2017-06-30T07:36:02Z</time>
      </trkpt>
      <trkpt lat="62.528305985033512" lon="9.611427029594779">
        <ele>554.82000000000005</ele>
        <time>2017-06-30T07:36:13Z</time>
      </trkpt>
      <trkpt lat="62.527080969884992" lon="9.610306033864617">
        <ele>557.22000000000003</ele>
        <time>2017-06-30T07:36:20Z</time>
      </trkpt>
      <trkpt lat="62.525324961170554" lon="9.609658028930426">
        <ele>558.65999999999997</ele>
        <time>2017-06-30T07:36:30Z</time>
      </trkpt>
      <trkpt lat="62.522913990542293" lon="9.609321998432279">
        <ele>557.70000000000005</ele>
        <time>2017-06-30T07:36:44Z</time>
      </trkpt>
      <trkpt lat="62.5208689738065" lon="9.608801985159516">
        <ele>561.54999999999995</ele>
        <time>2017-06-30T07:36:55Z</time>
      </trkpt>
      <trkpt lat="62.517655016854405" lon="9.608238972723484">
        <ele>564.42999999999995</ele>
        <time>2017-06-30T07:37:12Z</time>
      </trkpt>
      <trkpt lat="62.515284027904272" lon="9.60650802589953">
        <ele>569.72000000000003</ele>
        <time>2017-06-30T07:37:25Z</time>
      </trkpt>
      <trkpt lat="62.51425196416676" lon="9.604957960546017">
        <ele>573.55999999999995</ele>
        <time>2017-06-30T07:37:32Z</time>
      </trkpt>
      <trkpt lat="62.512970035895705" lon="9.602584037929773">
        <ele>577.88999999999999</ele>
        <time>2017-06-30T07:37:41Z</time>
      </trkpt>
      <trkpt lat="62.511307988315821" lon="9.601036990061402">
        <ele>581.73000000000002</ele>
        <time>2017-06-30T07:37:50Z</time>
      </trkpt>
      <trkpt lat="62.510238960385323" lon="9.599502012133598">
        <ele>585.58000000000004</ele>
        <time>2017-06-30T07:37:57Z</time>
      </trkpt>
      <trkpt lat="62.510139970108867" lon="9.599211998283863">
        <ele>586.05999999999995</ele>
        <time>2017-06-30T07:37:58Z</time>
      </trkpt>
      <trkpt lat="62.510057995095849" lon="9.598885020241141">
        <ele>586.53999999999996</ele>
        <time>2017-06-30T07:37:59Z</time>
      </trkpt>
      <trkpt lat="62.50999697484076" lon="9.59853800944984">
        <ele>587.01999999999998</ele>
        <time>2017-06-30T07:38:00Z</time>
      </trkpt>
      <trkpt lat="62.509961016476154" lon="9.59817498922348">
        <ele>587.5</ele>
        <time>2017-06-30T07:38:01Z</time>
      </trkpt>
      <trkpt lat="62.509947018697858" lon="9.597800988703966">
        <ele>588.46000000000004</ele>
        <time>2017-06-30T07:38:02Z</time>
      </trkpt>
      <trkpt lat="62.509954981505871" lon="9.597417013719678">
        <ele>589.42999999999995</ele>
        <time>2017-06-30T07:38:03Z</time>
      </trkpt>
      <trkpt lat="62.509978031739593" lon="9.597033960744739">
        <ele>590.38999999999999</ele>
        <time>2017-06-30T07:38:04Z</time>
      </trkpt>
      <trkpt lat="62.510004015639424" lon="9.596664989367127">
        <ele>591.35000000000002</ele>
        <time>2017-06-30T07:38:05Z</time>
      </trkpt>
      <trkpt lat="62.510014995932579" lon="9.596323007717729">
        <ele>591.83000000000004</ele>
        <time>2017-06-30T07:38:06Z</time>
      </trkpt>
      <trkpt lat="62.510000998154283" lon="9.595994018018246">
        <ele>592.78999999999996</ele>
        <time>2017-06-30T07:38:07Z</time>
      </trkpt>
      <trkpt lat="62.509963028132915" lon="9.595685983076692">
        <ele>592.78999999999996</ele>
        <time>2017-06-30T07:38:08Z</time>
      </trkpt>
      <trkpt lat="62.509898990392685" lon="9.59540200419724">
        <ele>593.26999999999998</ele>
        <time>2017-06-30T07:38:09Z</time>
      </trkpt>
      <trkpt lat="62.509816009551287" lon="9.595138980075717">
        <ele>593.75</ele>
        <time>2017-06-30T07:38:10Z</time>
      </trkpt>
      <trkpt lat="62.509717019274831" lon="9.594879979267716">
        <ele>594.71000000000004</ele>
        <time>2017-06-30T07:38:11Z</time>
      </trkpt>
      <trkpt lat="62.509614005684853" lon="9.594623995944858">
        <ele>595.19000000000005</ele>
        <time>2017-06-30T07:38:12Z</time>
      </trkpt>
      <trkpt lat="62.509424993768334" lon="9.594060983508825">
        <ele>596.14999999999998</ele>
        <time>2017-06-30T07:38:14Z</time>
      </trkpt>
      <trkpt lat="62.509348969906569" lon="9.593737022951245">
        <ele>596.63999999999999</ele>
        <time>2017-06-30T07:38:15Z</time>
      </trkpt>
      <trkpt lat="62.509288033470511" lon="9.593400992453098">
        <ele>597.60000000000002</ele>
        <time>2017-06-30T07:38:16Z</time>
      </trkpt>
      <trkpt lat="62.50907395966351" lon="9.591988977044821">
        <ele>600.96000000000004</ele>
        <time>2017-06-30T07:38:20Z</time>
      </trkpt>
      <trkpt lat="62.508992990478873" lon="9.591672979295254">
        <ele>601.91999999999996</ele>
        <time>2017-06-30T07:38:21Z</time>
      </trkpt>
      <trkpt lat="62.50889802351594" lon="9.591382965445519">
        <ele>602.39999999999998</ele>
        <time>2017-06-30T07:38:22Z</time>
      </trkpt>
      <trkpt lat="62.508787969127297" lon="9.591109966859222">
        <ele>602.88</ele>
        <time>2017-06-30T07:38:23Z</time>
      </trkpt>
      <trkpt lat="62.508670035749674" lon="9.59084996022284">
        <ele>603.36000000000001</ele>
        <time>2017-06-30T07:38:24Z</time>
      </trkpt>
      <trkpt lat="62.508545983582735" lon="9.590606968849897">
        <ele>603.85000000000002</ele>
        <time>2017-06-30T07:38:25Z</time>
      </trkpt>
      <trkpt lat="62.507100021466613" lon="9.588554995134473">
        <ele>611.53999999999996</ele>
        <time>2017-06-30T07:38:35Z</time>
      </trkpt>
      <trkpt lat="62.505527995526791" lon="9.587780004367232">
        <ele>619.71000000000004</ele>
        <time>2017-06-30T07:38:44Z</time>
      </trkpt>
      <trkpt lat="62.504457961767912" lon="9.588391967117786">
        <ele>623.07000000000005</ele>
        <time>2017-06-30T07:38:50Z</time>
      </trkpt>
      <trkpt lat="62.504298035055399" lon="9.588597994297743">
        <ele>623.07000000000005</ele>
        <time>2017-06-30T07:38:51Z</time>
      </trkpt>
      <trkpt lat="62.504144981503487" lon="9.588834028691053">
        <ele>623.07000000000005</ele>
        <time>2017-06-30T07:38:52Z</time>
      </trkpt>
      <trkpt lat="62.503516003489494" lon="9.589769029989839">
        <ele>622.11000000000001</ele>
        <time>2017-06-30T07:38:56Z</time>
      </trkpt>
      <trkpt lat="62.50333696603775" lon="9.589939014986157">
        <ele>622.11000000000001</ele>
        <time>2017-06-30T07:38:57Z</time>
      </trkpt>
      <trkpt lat="62.503149965777993" lon="9.590060971677303">
        <ele>621.63</ele>
        <time>2017-06-30T07:38:58Z</time>
      </trkpt>
      <trkpt lat="62.502957014366984" lon="9.59013900719583">
        <ele>621.63</ele>
        <time>2017-06-30T07:38:59Z</time>
      </trkpt>
      <trkpt lat="62.502761967480183" lon="9.590176977217197">
        <ele>622.59000000000003</ele>
        <time>2017-06-30T07:39:00Z</time>
      </trkpt>
      <trkpt lat="62.502568010240793" lon="9.590190974995494">
        <ele>623.07000000000005</ele>
        <time>2017-06-30T07:39:01Z</time>
      </trkpt>
      <trkpt lat="62.500213030725718" lon="9.590436983853579">
        <ele>632.20000000000005</ele>
        <time>2017-06-30T07:39:13Z</time>
      </trkpt>
      <trkpt lat="62.497976990416646" lon="9.590328019112349">
        <ele>642.77999999999997</ele>
        <time>2017-06-30T07:39:24Z</time>
      </trkpt>
      <trkpt lat="62.495336020365357" lon="9.589942032471299">
        <ele>642.77999999999997</ele>
        <time>2017-06-30T07:39:37Z</time>
      </trkpt>
      <trkpt lat="62.493407009169459" lon="9.588773008435965">
        <ele>637.49000000000001</ele>
        <time>2017-06-30T07:39:46Z</time>
      </trkpt>
      <trkpt lat="62.489077001810074" lon="9.585833977907896">
        <ele>626.91999999999996</ele>
        <time>2017-06-30T07:40:06Z</time>
      </trkpt>
      <trkpt lat="62.486949004232883" lon="9.584657996892929">
        <ele>624.50999999999999</ele>
        <time>2017-06-30T07:40:16Z</time>
      </trkpt>
      <trkpt lat="62.483930010348558" lon="9.582594037055969">
        <ele>631.72000000000003</ele>
        <time>2017-06-30T07:40:31Z</time>
      </trkpt>
      <trkpt lat="62.482449011877179" lon="9.581144973635674">
        <ele>637.00999999999999</ele>
        <time>2017-06-30T07:40:39Z</time>
      </trkpt>
      <trkpt lat="62.480351021513343" lon="9.579055029898882">
        <ele>632.67999999999995</ele>
        <time>2017-06-30T07:40:50Z</time>
      </trkpt>
      <trkpt lat="62.477612989023328" lon="9.576079035177827">
        <ele>629.32000000000005</ele>
        <time>2017-06-30T07:41:04Z</time>
      </trkpt>
      <trkpt lat="62.475386001169682" lon="9.574586972594261">
        <ele>629.32000000000005</ele>
        <time>2017-06-30T07:41:15Z</time>
      </trkpt>
      <trkpt lat="62.472885008901358" lon="9.574093027040362">
        <ele>633.16999999999996</ele>
        <time>2017-06-30T07:41:27Z</time>
      </trkpt>
      <trkpt lat="62.469960981979966" lon="9.574670037254691">
        <ele>639.40999999999997</ele>
        <time>2017-06-30T07:41:41Z</time>
      </trkpt>
      <trkpt lat="62.46607999317348" lon="9.576156986877322">
        <ele>652.38999999999999</ele>
        <time>2017-06-30T07:42:00Z</time>
      </trkpt>
      <trkpt lat="62.462056009098887" lon="9.57744000479579">
        <ele>665.85000000000002</ele>
        <time>2017-06-30T07:42:20Z</time>
      </trkpt>
      <trkpt lat="62.460061032325029" lon="9.57741997204721">
        <ele>674.01999999999998</ele>
        <time>2017-06-30T07:42:30Z</time>
      </trkpt>
      <trkpt lat="62.458780026063323" lon="9.576371982693672">
        <ele>682.19000000000005</ele>
        <time>2017-06-30T07:42:37Z</time>
      </trkpt>
      <trkpt lat="62.457178998738527" lon="9.575117966160178">
        <ele>690.36000000000001</ele>
        <time>2017-06-30T07:42:46Z</time>
      </trkpt>
      <trkpt lat="62.455636980012059" lon="9.575102962553501">
        <ele>697.09000000000003</ele>
        <time>2017-06-30T07:42:54Z</time>
      </trkpt>
      <trkpt lat="62.453458020463586" lon="9.57469099201262">
        <ele>705.25999999999999</ele>
        <time>2017-06-30T07:43:05Z</time>
      </trkpt>
      <trkpt lat="62.451241007074714" lon="9.574357978999615">
        <ele>707.66999999999996</ele>
        <time>2017-06-30T07:43:16Z</time>
      </trkpt>
      <trkpt lat="62.450111964717507" lon="9.575488027185202">
        <ele>705.25999999999999</ele>
        <time>2017-06-30T07:43:22Z</time>
      </trkpt>
      <trkpt lat="62.449080990627408" lon="9.57767897285521">
        <ele>700.46000000000004</ele>
        <time>2017-06-30T07:43:29Z</time>
      </trkpt>
      <trkpt lat="62.447937028482556" lon="9.581045983359218">
        <ele>692.76999999999998</ele>
        <time>2017-06-30T07:43:38Z</time>
      </trkpt>
      <trkpt lat="62.446478996425867" lon="9.585793996229768">
        <ele>684.60000000000002</ele>
        <time>2017-06-30T07:43:49Z</time>
      </trkpt>
      <trkpt lat="62.445181980729103" lon="9.588189963251352">
        <ele>682.66999999999996</ele>
        <time>2017-06-30T07:43:56Z</time>
      </trkpt>
      <trkpt lat="62.44287402369082" lon="9.592120992019773">
        <ele>687</ele>
        <time>2017-06-30T07:44:08Z</time>
      </trkpt>
      <trkpt lat="62.441146010532975" lon="9.596772026270628">
        <ele>683.63</ele>
        <time>2017-06-30T07:44:19Z</time>
      </trkpt>
      <trkpt lat="62.438811985775828" lon="9.602332999929786">
        <ele>686.51999999999998</ele>
        <time>2017-06-30T07:44:33Z</time>
      </trkpt>
      <trkpt lat="62.436811979860067" lon="9.605393987149">
        <ele>687.96000000000004</ele>
        <time>2017-06-30T07:44:43Z</time>
      </trkpt>
      <trkpt lat="62.434286009520292" lon="9.609654005616903">
        <ele>690.84000000000003</ele>
        <time>2017-06-30T07:44:56Z</time>
      </trkpt>
      <trkpt lat="62.430281974375248" lon="9.617859972640872">
        <ele>699.98000000000002</ele>
        <time>2017-06-30T07:45:18Z</time>
      </trkpt>
      <trkpt lat="62.428293032571673" lon="9.621094968169928">
        <ele>708.14999999999998</ele>
        <time>2017-06-30T07:45:28Z</time>
      </trkpt>
      <trkpt lat="62.423846013844013" lon="9.627598989754915">
        <ele>715.84000000000003</ele>
        <time>2017-06-30T07:45:49Z</time>
      </trkpt>
      <trkpt lat="62.42061504162848" lon="9.631791030988097">
        <ele>721.61000000000001</ele>
        <time>2017-06-30T07:46:04Z</time>
      </trkpt>
      <trkpt lat="62.417290024459362" lon="9.635238004848361">
        <ele>733.13999999999999</ele>
        <time>2017-06-30T07:46:19Z</time>
      </trkpt>
      <trkpt lat="62.415667036548257" lon="9.636129001155496">
        <ele>738.42999999999995</ele>
        <time>2017-06-30T07:46:26Z</time>
      </trkpt>
      <trkpt lat="62.413526969030499" lon="9.63641800917685">
        <ele>740.83000000000004</ele>
        <time>2017-06-30T07:46:35Z</time>
      </trkpt>
      <trkpt lat="62.411455968394876" lon="9.637463986873627">
        <ele>729.77999999999997</ele>
        <time>2017-06-30T07:46:44Z</time>
      </trkpt>
      <trkpt lat="62.407950991764665" lon="9.638251969590783">
        <ele>712.47000000000003</ele>
        <time>2017-06-30T07:46:58Z</time>
      </trkpt>
      <trkpt lat="62.406205041334033" lon="9.637805968523026">
        <ele>707.66999999999996</ele>
        <time>2017-06-30T07:47:06Z</time>
      </trkpt>
      <trkpt lat="62.403975035995245" lon="9.637013962492347">
        <ele>702.38</ele>
        <time>2017-06-30T07:47:16Z</time>
      </trkpt>
      <trkpt lat="62.40231298841536" lon="9.636368975043297">
        <ele>704.77999999999997</ele>
        <time>2017-06-30T07:47:23Z</time>
      </trkpt>
      <trkpt lat="62.398828966543078" lon="9.635221995413303">
        <ele>703.34000000000003</ele>
        <time>2017-06-30T07:47:38Z</time>
      </trkpt>
      <trkpt lat="62.397028030827641" lon="9.635178996250033">
        <ele>705.25999999999999</ele>
        <time>2017-06-30T07:47:46Z</time>
      </trkpt>
      <trkpt lat="62.394609013572335" lon="9.636083990335465">
        <ele>711.02999999999997</ele>
        <time>2017-06-30T07:47:57Z</time>
      </trkpt>
      <trkpt lat="62.392795002087951" lon="9.63590101338923">
        <ele>710.54999999999995</ele>
        <time>2017-06-30T07:48:05Z</time>
      </trkpt>
      <trkpt lat="62.391447024419904" lon="9.636328993365169">
        <ele>712.47000000000003</ele>
        <time>2017-06-30T07:48:11Z</time>
      </trkpt>
      <trkpt lat="62.388738999143243" lon="9.63781401515007">
        <ele>721.61000000000001</ele>
        <time>2017-06-30T07:48:23Z</time>
      </trkpt>
      <trkpt lat="62.388527020812035" lon="9.637773027643561">
        <ele>723.04999999999995</ele>
        <time>2017-06-30T07:48:24Z</time>
      </trkpt>
      <trkpt lat="62.388328034430742" lon="9.637668002396822">
        <ele>724.49000000000001</ele>
        <time>2017-06-30T07:48:25Z</time>
      </trkpt>
      <trkpt lat="62.388143967837095" lon="9.637522995471954">
        <ele>725.92999999999995</ele>
        <time>2017-06-30T07:48:26Z</time>
      </trkpt>
      <trkpt lat="62.387969959527254" lon="9.637378994375467">
        <ele>726.88999999999999</ele>
        <time>2017-06-30T07:48:27Z</time>
      </trkpt>
      <trkpt lat="62.387794023379683" lon="9.637288972735405">
        <ele>727.37</ele>
        <time>2017-06-30T07:48:28Z</time>
      </trkpt>
      <trkpt lat="62.387612974271178" lon="9.637263994663954">
        <ele>728.34000000000003</ele>
        <time>2017-06-30T07:48:29Z</time>
      </trkpt>
      <trkpt lat="62.38742396235466" lon="9.63729802519083">
        <ele>729.29999999999995</ele>
        <time>2017-06-30T07:48:30Z</time>
      </trkpt>
      <trkpt lat="62.387225981801748" lon="9.637355022132397">
        <ele>730.25999999999999</ele>
        <time>2017-06-30T07:48:31Z</time>
      </trkpt>
      <trkpt lat="62.385761998593807" lon="9.638163959607482">
        <ele>732.17999999999995</ele>
        <time>2017-06-30T07:48:38Z</time>
      </trkpt>
      <trkpt lat="62.384462971240282" lon="9.639211026951671">
        <ele>731.70000000000005</ele>
        <time>2017-06-30T07:48:45Z</time>
      </trkpt>
      <trkpt lat="62.382850963622332" lon="9.640555987134576">
        <ele>731.70000000000005</ele>
        <time>2017-06-30T07:48:54Z</time>
      </trkpt>
      <trkpt lat="62.380497995764017" lon="9.641052028164268">
        <ele>733.13999999999999</ele>
        <time>2017-06-30T07:49:05Z</time>
      </trkpt>
      <trkpt lat="62.378889005631208" lon="9.640548024326563">
        <ele>734.10000000000002</ele>
        <time>2017-06-30T07:49:12Z</time>
      </trkpt>
      <trkpt lat="62.37592801451683" lon="9.639549991115928">
        <ele>735.54999999999995</ele>
        <time>2017-06-30T07:49:24Z</time>
      </trkpt>
      <trkpt lat="62.372890999540687" lon="9.638323970139027">
        <ele>735.07000000000005</ele>
        <time>2017-06-30T07:49:36Z</time>
      </trkpt>
      <trkpt lat="62.368847988545895" lon="9.636903991922736">
        <ele>737.47000000000003</ele>
        <time>2017-06-30T07:49:52Z</time>
      </trkpt>
      <trkpt lat="62.36580996774137" lon="9.636400993913412">
        <ele>740.35000000000002</ele>
        <time>2017-06-30T07:50:04Z</time>
      </trkpt>
      <trkpt lat="62.363524977117777" lon="9.636903991922736">
        <ele>742.75999999999999</ele>
        <time>2017-06-30T07:50:13Z</time>
      </trkpt>
      <trkpt lat="62.361356997862458" lon="9.637736985459924">
        <ele>746.60000000000002</ele>
        <time>2017-06-30T07:50:22Z</time>
      </trkpt>
      <trkpt lat="62.361123980954289" lon="9.637704966589809">
        <ele>746.60000000000002</ele>
        <time>2017-06-30T07:50:23Z</time>
      </trkpt>
      <trkpt lat="62.360891969874501" lon="9.637623997405171">
        <ele>747.08000000000004</ele>
        <time>2017-06-30T07:50:24Z</time>
      </trkpt>
      <trkpt lat="62.360664987936616" lon="9.637488964945078">
        <ele>747.08000000000004</ele>
        <time>2017-06-30T07:50:25Z</time>
      </trkpt>
      <trkpt lat="62.360441023483872" lon="9.637310011312366">
        <ele>747.55999999999995</ele>
        <time>2017-06-30T07:50:26Z</time>
      </trkpt>
      <trkpt lat="62.360219992697239" lon="9.637085041031241">
        <ele>748.03999999999996</ele>
        <time>2017-06-30T07:50:27Z</time>
      </trkpt>
      <trkpt lat="62.360003991052508" lon="9.63682796806097">
        <ele>748.51999999999998</ele>
        <time>2017-06-30T07:50:28Z</time>
      </trkpt>
      <trkpt lat="62.359793018549681" lon="9.63654600083828">
        <ele>749</ele>
        <time>2017-06-30T07:50:29Z</time>
      </trkpt>
      <trkpt lat="62.358303973451257" lon="9.633765975013375">
        <ele>752.37</ele>
        <time>2017-06-30T07:50:37Z</time>
      </trkpt>
      <trkpt lat="62.357614981010556" lon="9.632368963211775">
        <ele>753.80999999999995</ele>
        <time>2017-06-30T07:50:41Z</time>
      </trkpt>
      <trkpt lat="62.357414988800883" lon="9.632099987939">
        <ele>754.76999999999998</ele>
        <time>2017-06-30T07:50:42Z</time>
      </trkpt>
      <trkpt lat="62.357200998812914" lon="9.631875017657876">
        <ele>754.76999999999998</ele>
        <time>2017-06-30T07:50:43Z</time>
      </trkpt>
      <trkpt lat="62.35697703436017" lon="9.631695980206132">
        <ele>755.25</ele>
        <time>2017-06-30T07:50:44Z</time>
      </trkpt>
      <trkpt lat="62.356745023280382" lon="9.631570000201464">
        <ele>756.21000000000004</ele>
        <time>2017-06-30T07:50:45Z</time>
      </trkpt>
      <trkpt lat="62.356508988887072" lon="9.631501017138362">
        <ele>756.69000000000005</ele>
        <time>2017-06-30T07:50:46Z</time>
      </trkpt>
      <trkpt lat="62.356267003342509" lon="9.631485007703304">
        <ele>757.17999999999995</ele>
        <time>2017-06-30T07:50:47Z</time>
      </trkpt>
      <trkpt lat="62.356026023626328" lon="9.631511997431517">
        <ele>758.13999999999999</ele>
        <time>2017-06-30T07:50:48Z</time>
      </trkpt>
      <trkpt lat="62.355787977576256" lon="9.631589027121663">
        <ele>759.10000000000002</ele>
        <time>2017-06-30T07:50:49Z</time>
      </trkpt>
      <trkpt lat="62.355555966496468" lon="9.631705032661557">
        <ele>759.58000000000004</ele>
        <time>2017-06-30T07:50:50Z</time>
      </trkpt>
      <trkpt lat="62.35532202757895" lon="9.631836041808128">
        <ele>760.53999999999996</ele>
        <time>2017-06-30T07:50:51Z</time>
      </trkpt>
      <trkpt lat="62.35386298969388" lon="9.632168971002102">
        <ele>761.5</ele>
        <time>2017-06-30T07:50:57Z</time>
      </trkpt>
      <trkpt lat="62.350896969437599" lon="9.631875017657876">
        <ele>767.75</ele>
        <time>2017-06-30T07:51:09Z</time>
      </trkpt>
      <trkpt lat="62.350679039955139" lon="9.631748031824827">
        <ele>768.23000000000002</ele>
        <time>2017-06-30T07:51:10Z</time>
      </trkpt>
      <trkpt lat="62.350465971976519" lon="9.631571006029844">
        <ele>768.71000000000004</ele>
        <time>2017-06-30T07:51:11Z</time>
      </trkpt>
      <trkpt lat="62.350262962281704" lon="9.63134896941483">
        <ele>769.19000000000005</ele>
        <time>2017-06-30T07:51:12Z</time>
      </trkpt>
      <trkpt lat="62.350066993385553" lon="9.631080999970436">
        <ele>770.14999999999998</ele>
        <time>2017-06-30T07:51:13Z</time>
      </trkpt>
      <trkpt lat="62.349880998954177" lon="9.630768019706011">
        <ele>770.63</ele>
        <time>2017-06-30T07:51:14Z</time>
      </trkpt>
      <trkpt lat="62.349701039493084" lon="9.630417991429567">
        <ele>771.60000000000002</ele>
        <time>2017-06-30T07:51:15Z</time>
      </trkpt>
      <trkpt lat="62.349525019526482" lon="9.630047008395195">
        <ele>772.08000000000004</ele>
        <time>2017-06-30T07:51:16Z</time>
      </trkpt>
      <trkpt lat="62.347271963953972" lon="9.625687999650836">
        <ele>779.28999999999996</ele>
        <time>2017-06-30T07:51:28Z</time>
      </trkpt>
      <trkpt lat="62.345580998808146" lon="9.623353974893689">
        <ele>786.01999999999998</ele>
        <time>2017-06-30T07:51:36Z</time>
      </trkpt>
      <trkpt lat="62.34425900503993" lon="9.621150037273765">
        <ele>792.25999999999999</ele>
        <time>2017-06-30T07:51:43Z</time>
      </trkpt>
      <trkpt lat="62.343372032046318" lon="9.619483966380358">
        <ele>798.99000000000001</ele>
        <time>2017-06-30T07:51:48Z</time>
      </trkpt>
      <trkpt lat="62.343164999037981" lon="9.619252039119601">
        <ele>799.95000000000005</ele>
        <time>2017-06-30T07:51:49Z</time>
      </trkpt>
      <trkpt lat="62.342946985736489" lon="9.619061015546322">
        <ele>800.91999999999996</ele>
        <time>2017-06-30T07:51:50Z</time>
      </trkpt>
      <trkpt lat="62.342721009626985" lon="9.618920031934977">
        <ele>801.88</ele>
        <time>2017-06-30T07:51:51Z</time>
      </trkpt>
      <trkpt lat="62.342484975233674" lon="9.618823975324631">
        <ele>802.36000000000001</ele>
        <time>2017-06-30T07:51:52Z</time>
      </trkpt>
      <trkpt lat="62.342243995517492" lon="9.618775025010109">
        <ele>802.84000000000003</ele>
        <time>2017-06-30T07:51:53Z</time>
      </trkpt>
      <trkpt lat="62.342005027458072" lon="9.618774019181728">
        <ele>803.32000000000005</ele>
        <time>2017-06-30T07:51:54Z</time>
      </trkpt>
      <trkpt lat="62.341767987236381" lon="9.618824981153011">
        <ele>803.79999999999995</ele>
        <time>2017-06-30T07:51:55Z</time>
      </trkpt>
      <trkpt lat="62.341528013348579" lon="9.618936041370034">
        <ele>803.79999999999995</ele>
        <time>2017-06-30T07:51:56Z</time>
      </trkpt>
      <trkpt lat="62.341291978955269" lon="9.619082976132631">
        <ele>804.27999999999997</ele>
        <time>2017-06-30T07:51:57Z</time>
      </trkpt>
      <trkpt lat="62.341059967875481" lon="9.619257990270853">
        <ele>804.27999999999997</ele>
        <time>2017-06-30T07:51:58Z</time>
      </trkpt>
      <trkpt lat="62.33813501894474" lon="9.621134027838707">
        <ele>810.04999999999995</ele>
        <time>2017-06-30T07:52:10Z</time>
      </trkpt>
      <trkpt lat="62.33620198443532" lon="9.621655968949199">
        <ele>819.17999999999995</ele>
        <time>2017-06-30T07:52:18Z</time>
      </trkpt>
      <trkpt lat="62.333591021597385" lon="9.621380036696792">
        <ele>831.67999999999995</ele>
        <time>2017-06-30T07:52:29Z</time>
      </trkpt>
      <trkpt lat="62.331899972632527" lon="9.621536023914814">
        <ele>835.51999999999998</ele>
        <time>2017-06-30T07:52:36Z</time>
      </trkpt>
      <trkpt lat="62.329894015565515" lon="9.621677007526159">
        <ele>836.96000000000004</ele>
        <time>2017-06-30T07:52:44Z</time>
      </trkpt>
      <trkpt lat="62.327050035819411" lon="9.621902983635664">
        <ele>840.33000000000004</ele>
        <time>2017-06-30T07:52:55Z</time>
      </trkpt>
      <trkpt lat="62.325511034578085" lon="9.621878005564213">
        <ele>847.05999999999995</ele>
        <time>2017-06-30T07:53:01Z</time>
      </trkpt>
      <trkpt lat="62.321409014984965" lon="9.620655002072454">
        <ele>869.16999999999996</ele>
        <time>2017-06-30T07:53:17Z</time>
      </trkpt>
      <trkpt lat="62.320016026496887" lon="9.621332008391619">
        <ele>869.64999999999998</ele>
        <time>2017-06-30T07:53:23Z</time>
      </trkpt>
      <trkpt lat="62.319584023207426" lon="9.621395962312818">
        <ele>869.64999999999998</ele>
        <time>2017-06-30T07:53:25Z</time>
      </trkpt>
      <trkpt lat="62.319366009905934" lon="9.621357992291451">
        <ele>869.64999999999998</ele>
        <time>2017-06-30T07:53:26Z</time>
      </trkpt>
      <trkpt lat="62.319145984947681" lon="9.621269982308149">
        <ele>870.13</ele>
        <time>2017-06-30T07:53:27Z</time>
      </trkpt>
      <trkpt lat="62.318926965817809" lon="9.621124975383282">
        <ele>870.13</ele>
        <time>2017-06-30T07:53:28Z</time>
      </trkpt>
      <trkpt lat="62.31871297582984" lon="9.620920037850738">
        <ele>870.13</ele>
        <time>2017-06-30T07:53:29Z</time>
      </trkpt>
      <trkpt lat="62.318507032468915" lon="9.620661959052086">
        <ele>870.13</ele>
        <time>2017-06-30T07:53:30Z</time>
      </trkpt>
      <trkpt lat="62.318310979753733" lon="9.620349984616041">
        <ele>870.61000000000001</ele>
        <time>2017-06-30T07:53:31Z</time>
      </trkpt>
      <trkpt lat="62.318123979493976" lon="9.619997022673488">
        <ele>870.61000000000001</ele>
        <time>2017-06-30T07:53:32Z</time>
      </trkpt>
      <trkpt lat="62.31793999671936" lon="9.619626039639115">
        <ele>871.09000000000003</ele>
        <time>2017-06-30T07:53:33Z</time>
      </trkpt>
      <trkpt lat="62.316296976059675" lon="9.617031002417207">
        <ele>871.57000000000005</ele>
        <time>2017-06-30T07:53:41Z</time>
      </trkpt>
      <trkpt lat="62.314039980992675" lon="9.614440994337201">
        <ele>884.54999999999995</ele>
        <time>2017-06-30T07:53:51Z</time>
      </trkpt>
      <trkpt lat="62.311541000381112" lon="9.612936023622751">
        <ele>894.63999999999999</ele>
        <time>2017-06-30T07:54:01Z</time>
      </trkpt>
      <trkpt lat="62.309250980615616" lon="9.611572036519647">
        <ele>894.63999999999999</ele>
        <time>2017-06-30T07:54:10Z</time>
      </trkpt>
      <trkpt lat="62.307538976892829" lon="9.610024988651276">
        <ele>892.72000000000003</ele>
        <time>2017-06-30T07:54:17Z</time>
      </trkpt>
      <trkpt lat="62.305682972073555" lon="9.607959017157555">
        <ele>889.84000000000003</ele>
        <time>2017-06-30T07:54:26Z</time>
      </trkpt>
      <trkpt lat="62.304536998271942" lon="9.606343992054462">
        <ele>898.00999999999999</ele>
        <time>2017-06-30T07:54:34Z</time>
      </trkpt>
      <trkpt lat="62.303437041118741" lon="9.604527968913317">
        <ele>898.49000000000001</ele>
        <time>2017-06-30T07:54:44Z</time>
      </trkpt>
      <trkpt lat="62.301931986585259" lon="9.603142021223903">
        <ele>898.97000000000003</ele>
        <time>2017-06-30T07:54:54Z</time>
      </trkpt>
      <trkpt lat="62.300310004502535" lon="9.60146002471447">
        <ele>901.85000000000002</ele>
        <time>2017-06-30T07:55:03Z</time>
      </trkpt>
      <trkpt lat="62.298348974436522" lon="9.598445976153016">
        <ele>909.53999999999996</ele>
        <time>2017-06-30T07:55:14Z</time>
      </trkpt>
      <trkpt lat="62.296726992353797" lon="9.595922017470002">
        <ele>908.10000000000002</ele>
        <time>2017-06-30T07:55:23Z</time>
      </trkpt>
      <trkpt lat="62.294634031131864" lon="9.594421992078424">
        <ele>904.74000000000001</ele>
        <time>2017-06-30T07:55:33Z</time>
      </trkpt>
      <trkpt lat="62.292890008538961" lon="9.594689961522818">
        <ele>903.77999999999997</ele>
        <time>2017-06-30T07:55:41Z</time>
      </trkpt>
      <trkpt lat="62.289314959198236" lon="9.595929980278015">
        <ele>902.82000000000005</ele>
        <time>2017-06-30T07:55:58Z</time>
      </trkpt>
      <trkpt lat="62.287829015403986" lon="9.59787399508059">
        <ele>907.62</ele>
        <time>2017-06-30T07:56:06Z</time>
      </trkpt>
      <trkpt lat="62.286056997254491" lon="9.599725976586342">
        <ele>910.50999999999999</ele>
        <time>2017-06-30T07:56:15Z</time>
      </trkpt>
      <trkpt lat="62.28472301736474" lon="9.59997701458633">
        <ele>916.75</ele>
        <time>2017-06-30T07:56:21Z</time>
      </trkpt>
      <trkpt lat="62.282525030896068" lon="9.599475022405386">
        <ele>928.76999999999998</ele>
        <time>2017-06-30T07:56:31Z</time>
      </trkpt>
      <trkpt lat="62.280959039926529" lon="9.599659005180001">
        <ele>929.25</ele>
        <time>2017-06-30T07:56:38Z</time>
      </trkpt>
      <trkpt lat="62.28074898943305" lon="9.599574012681842">
        <ele>928.76999999999998</ele>
        <time>2017-06-30T07:56:39Z</time>
      </trkpt>
      <trkpt lat="62.280547991394997" lon="9.599449038505554">
        <ele>928.28999999999996</ele>
        <time>2017-06-30T07:56:40Z</time>
      </trkpt>
      <trkpt lat="62.280354034155607" lon="9.599286010488868">
        <ele>927.80999999999995</ele>
        <time>2017-06-30T07:56:41Z</time>
      </trkpt>
      <trkpt lat="62.28016996756196" lon="9.599081994965673">
        <ele>927.33000000000004</ele>
        <time>2017-06-30T07:56:42Z</time>
      </trkpt>
      <trkpt lat="62.27999503724277" lon="9.598845038563013">
        <ele>927.33000000000004</ele>
        <time>2017-06-30T07:56:43Z</time>
      </trkpt>
      <trkpt lat="62.2798259742558" lon="9.598574973642826">
        <ele>927.33000000000004</ele>
        <time>2017-06-30T07:56:44Z</time>
      </trkpt>
      <trkpt lat="62.27967300452292" lon="9.598267022520304">
        <ele>927.80999999999995</ele>
        <time>2017-06-30T07:56:45Z</time>
      </trkpt>
      <trkpt lat="62.279531015083194" lon="9.597930992022157">
        <ele>928.28999999999996</ele>
        <time>2017-06-30T07:56:46Z</time>
      </trkpt>
      <trkpt lat="62.279404029250145" lon="9.597566965967417">
        <ele>929.73000000000002</ele>
        <time>2017-06-30T07:56:47Z</time>
      </trkpt>
      <trkpt lat="62.27928601205349" lon="9.597195982933044">
        <ele>930.21000000000004</ele>
        <time>2017-06-30T07:56:48Z</time>
      </trkpt>
      <trkpt lat="62.278204998001456" lon="9.592960020527244">
        <ele>933.58000000000004</ele>
        <time>2017-06-30T07:56:58Z</time>
      </trkpt>
      <trkpt lat="62.277634022757411" lon="9.588636970147491">
        <ele>940.78999999999996</ele>
        <time>2017-06-30T07:57:07Z</time>
      </trkpt>
      <trkpt lat="62.276873029768467" lon="9.586272016167641">
        <ele>944.63</ele>
        <time>2017-06-30T07:57:13Z</time>
      </trkpt>
      <trkpt lat="62.275738036260009" lon="9.584698984399438">
        <ele>946.55999999999995</ele>
        <time>2017-06-30T07:57:19Z</time>
      </trkpt>
      <trkpt lat="62.274246979504824" lon="9.583878982812166">
        <ele>950.39999999999998</ele>
        <time>2017-06-30T07:57:26Z</time>
      </trkpt>
      <trkpt lat="62.271987972781062" lon="9.583087982609868">
        <ele>951.36000000000001</ele>
        <time>2017-06-30T07:57:36Z</time>
      </trkpt>
      <trkpt lat="62.269238959997892" lon="9.583638003095985">
        <ele>958.09000000000003</ele>
        <time>2017-06-30T07:57:48Z</time>
      </trkpt>
      <trkpt lat="62.268462963402271" lon="9.583636997267604">
        <ele>959.52999999999997</ele>
        <time>2017-06-30T07:57:52Z</time>
      </trkpt>
      <trkpt lat="62.268280992284417" lon="9.583545969799161">
        <ele>959.52999999999997</ele>
        <time>2017-06-30T07:57:53Z</time>
      </trkpt>
      <trkpt lat="62.268106983974576" lon="9.583400040864945">
        <ele>960.00999999999999</ele>
        <time>2017-06-30T07:57:54Z</time>
      </trkpt>
      <trkpt lat="62.267943033948541" lon="9.583193007856607">
        <ele>960.00999999999999</ele>
        <time>2017-06-30T07:57:55Z</time>
      </trkpt>
      <trkpt lat="62.267797021195292" lon="9.582934007048607">
        <ele>960.49000000000001</ele>
        <time>2017-06-30T07:57:56Z</time>
      </trkpt>
      <trkpt lat="62.267668023705482" lon="9.582628989592195">
        <ele>960.98000000000002</ele>
        <time>2017-06-30T07:57:57Z</time>
      </trkpt>
      <trkpt lat="62.267552018165588" lon="9.582293964922428">
        <ele>961.94000000000005</ele>
        <time>2017-06-30T07:57:58Z</time>
      </trkpt>
      <trkpt lat="62.267443975433707" lon="9.581931028515101">
        <ele>962.89999999999998</ele>
        <time>2017-06-30T07:57:59Z</time>
      </trkpt>
      <trkpt lat="62.267344985157251" lon="9.581546969711781">
        <ele>963.38</ele>
        <time>2017-06-30T07:58:00Z</time>
      </trkpt>
      <trkpt lat="62.266209991648793" lon="9.576770961284638">
        <ele>969.14999999999998</ele>
        <time>2017-06-30T07:58:11Z</time>
      </trkpt>
      <trkpt lat="62.265930036082864" lon="9.575344026088715">
        <ele>970.11000000000001</ele>
        <time>2017-06-30T07:58:14Z</time>
      </trkpt>
      <trkpt lat="62.265872033312917" lon="9.574852008372545">
        <ele>970.59000000000003</ele>
        <time>2017-06-30T07:58:15Z</time>
      </trkpt>
      <trkpt lat="62.265831967815757" lon="9.574354039505124">
        <ele>971.07000000000005</ele>
        <time>2017-06-30T07:58:16Z</time>
      </trkpt>
      <trkpt lat="62.265597023069859" lon="9.571348959580064">
        <ele>972.99000000000001</ele>
        <time>2017-06-30T07:58:22Z</time>
      </trkpt>
      <trkpt lat="62.265501972287893" lon="9.570869011804462">
        <ele>973.47000000000003</ele>
        <time>2017-06-30T07:58:23Z</time>
      </trkpt>
      <trkpt lat="62.264318028464913" lon="9.566383017227054">
        <ele>979.24000000000001</ele>
        <time>2017-06-30T07:58:33Z</time>
      </trkpt>
      <trkpt lat="62.262962004169822" lon="9.562402032315731">
        <ele>984.52999999999997</ele>
        <time>2017-06-30T07:58:43Z</time>
      </trkpt>
      <trkpt lat="62.261127037927508" lon="9.559008032083511">
        <ele>989.80999999999995</ele>
        <time>2017-06-30T07:58:53Z</time>
      </trkpt>
      <trkpt lat="62.257760027423501" lon="9.553157966583967">
        <ele>995.10000000000002</ele>
        <time>2017-06-30T07:59:10Z</time>
      </trkpt>
      <trkpt lat="62.256325967609882" lon="9.549649972468615">
        <ele>997.01999999999998</ele>
        <time>2017-06-30T07:59:18Z</time>
      </trkpt>
      <trkpt lat="62.254468034952879" lon="9.544768016785383">
        <ele>999.90999999999997</ele>
        <time>2017-06-30T07:59:29Z</time>
      </trkpt>
      <trkpt lat="62.252792995423079" lon="9.542252020910382">
        <ele>1003.27</ele>
        <time>2017-06-30T07:59:37Z</time>
      </trkpt>
      <trkpt lat="62.25081997923553" lon="9.540737997740507">
        <ele>1005.2</ele>
        <time>2017-06-30T07:59:45Z</time>
      </trkpt>
      <trkpt lat="62.247730996459723" lon="9.538836982101202">
        <ele>1007.6</ele>
        <time>2017-06-30T07:59:57Z</time>
      </trkpt>
      <trkpt lat="62.245445000007749" lon="9.536039019003511">
        <ele>1012.41</ele>
        <time>2017-06-30T08:00:07Z</time>
      </trkpt>
      <trkpt lat="62.241973970085382" lon="9.532160041853786">
        <ele>1020.58</ele>
        <time>2017-06-30T08:00:22Z</time>
      </trkpt>
      <trkpt lat="62.239187993109226" lon="9.530499000102282">
        <ele>1025.3800000000001</ele>
        <time>2017-06-30T08:00:33Z</time>
      </trkpt>
      <trkpt lat="62.236156007274985" lon="9.52961303293705">
        <ele>1030.1900000000001</ele>
        <time>2017-06-30T08:00:45Z</time>
      </trkpt>
      <trkpt lat="62.23418902605772" lon="9.530006982386112">
        <ele>1033.55</ele>
        <time>2017-06-30T08:00:53Z</time>
      </trkpt>
      <trkpt lat="62.23255799151957" lon="9.531297963112593">
        <ele>1035.96</ele>
        <time>2017-06-30T08:01:00Z</time>
      </trkpt>
      <trkpt lat="62.231153016909957" lon="9.533449010923505">
        <ele>1035.48</ele>
        <time>2017-06-30T08:01:07Z</time>
      </trkpt>
      <trkpt lat="62.22985097207129" lon="9.536782996729016">
        <ele>1031.6300000000001</ele>
        <time>2017-06-30T08:01:15Z</time>
      </trkpt>
      <trkpt lat="62.228370979428291" lon="9.540989035740495">
        <ele>1027.3099999999999</ele>
        <time>2017-06-30T08:01:25Z</time>
      </trkpt>
      <trkpt lat="62.227222993969917" lon="9.543049978092313">
        <ele>1025.3800000000001</ele>
        <time>2017-06-30T08:01:33Z</time>
      </trkpt>
      <trkpt lat="62.226420007646084" lon="9.545519035309553">
        <ele>1020.58</ele>
        <time>2017-06-30T08:01:41Z</time>
      </trkpt>
      <trkpt lat="62.22538199275732" lon="9.548512967303395">
        <ele>1011.9299999999999</ele>
        <time>2017-06-30T08:01:50Z</time>
      </trkpt>
      <trkpt lat="62.224191008135676" lon="9.549944009631872">
        <ele>1006.64</ele>
        <time>2017-06-30T08:01:57Z</time>
      </trkpt>
      <trkpt lat="62.223305040970445" lon="9.550353968515992">
        <ele>1002.79</ele>
        <time>2017-06-30T08:02:03Z</time>
      </trkpt>
      <trkpt lat="62.223227005451918" lon="9.550398979336023">
        <ele>1002.3099999999999</ele>
        <time>2017-06-30T08:02:04Z</time>
      </trkpt>
      <trkpt lat="62.223170008510351" lon="9.550466034561396">
        <ele>1002.3099999999999</ele>
        <time>2017-06-30T08:02:05Z</time>
      </trkpt>
      <trkpt lat="62.223132960498333" lon="9.550566030666232">
        <ele>1001.83</ele>
        <time>2017-06-30T08:02:06Z</time>
      </trkpt>
      <trkpt lat="62.223113011568785" lon="9.550702990964055">
        <ele>1001.83</ele>
        <time>2017-06-30T08:02:07Z</time>
      </trkpt>
      <trkpt lat="62.223109994083643" lon="9.550874987617135">
        <ele>1001.83</ele>
        <time>2017-06-30T08:02:08Z</time>
      </trkpt>
      <trkpt lat="62.223109994083643" lon="9.551071962341666">
        <ele>1001.35</ele>
        <time>2017-06-30T08:02:09Z</time>
      </trkpt>
      <trkpt lat="62.223019972443581" lon="9.552758987993002">
        <ele>996.05999999999995</ele>
        <time>2017-06-30T08:02:15Z</time>
      </trkpt>
      <trkpt lat="62.223006980493665" lon="9.555902034044266">
        <ele>987.40999999999997</ele>
        <time>2017-06-30T08:02:24Z</time>
      </trkpt>
      <trkpt lat="62.222757032141089" lon="9.559485968202353">
        <ele>977.79999999999995</ele>
        <time>2017-06-30T08:02:33Z</time>
      </trkpt>
      <trkpt lat="62.222424019128084" lon="9.562112018465996">
        <ele>970.11000000000001</ele>
        <time>2017-06-30T08:02:40Z</time>
      </trkpt>
      <trkpt lat="62.222097041085362" lon="9.564403966069222">
        <ele>963.86000000000001</ele>
        <time>2017-06-30T08:02:48Z</time>
      </trkpt>
      <trkpt lat="62.221982963383198" lon="9.565540971234441">
        <ele>960.49000000000001</ele>
        <time>2017-06-30T08:02:55Z</time>
      </trkpt>
      <trkpt lat="62.221670988947153" lon="9.567614989355207">
        <ele>955.21000000000004</ele>
        <time>2017-06-30T08:03:03Z</time>
      </trkpt>
      <trkpt lat="62.22123596817255" lon="9.570268029347062">
        <ele>948.48000000000002</ele>
        <time>2017-06-30T08:03:12Z</time>
      </trkpt>
      <trkpt lat="62.221010997891426" lon="9.573203036561608">
        <ele>947.51999999999998</ele>
        <time>2017-06-30T08:03:22Z</time>
      </trkpt>
      <trkpt lat="62.22076297737658" lon="9.577523991465569">
        <ele>946.55999999999995</ele>
        <time>2017-06-30T08:03:34Z</time>
      </trkpt>
      <trkpt lat="62.220606990158558" lon="9.582810960710049">
        <ele>943.66999999999996</ele>
        <time>2017-06-30T08:03:47Z</time>
      </trkpt>
      <trkpt lat="62.220486961305141" lon="9.585801037028432">
        <ele>940.78999999999996</ele>
        <time>2017-06-30T08:03:54Z</time>
      </trkpt>
      <trkpt lat="62.22041898407042" lon="9.586198003962636">
        <ele>940.30999999999995</ele>
        <time>2017-06-30T08:03:55Z</time>
      </trkpt>
      <trkpt lat="62.220329968258739" lon="9.586578961461783">
        <ele>939.83000000000004</ele>
        <time>2017-06-30T08:03:56Z</time>
      </trkpt>
      <trkpt lat="62.220227038487792" lon="9.586941981688142">
        <ele>939.83000000000004</ele>
        <time>2017-06-30T08:03:57Z</time>
      </trkpt>
      <trkpt lat="62.220121007412672" lon="9.587292009964585">
        <ele>939.83000000000004</ele>
        <time>2017-06-30T08:03:58Z</time>
      </trkpt>
      <trkpt lat="62.219943981617689" lon="9.588008997961879">
        <ele>939.35000000000002</ele>
        <time>2017-06-30T08:04:00Z</time>
      </trkpt>
      <trkpt lat="62.219885978847742" lon="9.588400013744831">
        <ele>938.86000000000001</ele>
        <time>2017-06-30T08:04:01Z</time>
      </trkpt>
      <trkpt lat="62.219847002997994" lon="9.58880796097219">
        <ele>938.86000000000001</ele>
        <time>2017-06-30T08:04:02Z</time>
      </trkpt>
      <trkpt lat="62.219593031331897" lon="9.591290010139346">
        <ele>936.46000000000004</ele>
        <time>2017-06-30T08:04:08Z</time>
      </trkpt>
      <trkpt lat="62.219510972499847" lon="9.591655964031816">
        <ele>936.46000000000004</ele>
        <time>2017-06-30T08:04:09Z</time>
      </trkpt>
      <trkpt lat="62.219410976395011" lon="9.591997023671866">
        <ele>936.46000000000004</ele>
        <time>2017-06-30T08:04:10Z</time>
      </trkpt>
      <trkpt lat="62.219137977808714" lon="9.592934958636761">
        <ele>935.98000000000002</ele>
        <time>2017-06-30T08:04:13Z</time>
      </trkpt>
      <trkpt lat="62.219089027494192" lon="9.593265037983656">
        <ele>936.46000000000004</ele>
        <time>2017-06-30T08:04:14Z</time>
      </trkpt>
      <trkpt lat="62.219061031937599" lon="9.593624034896493">
        <ele>935.98000000000002</ele>
        <time>2017-06-30T08:04:15Z</time>
      </trkpt>
      <trkpt lat="62.218976961448789" lon="9.594759028404951">
        <ele>935.01999999999998</ele>
        <time>2017-06-30T08:04:18Z</time>
      </trkpt>
      <trkpt lat="62.218919964507222" lon="9.595143003389239">
        <ele>935.01999999999998</ele>
        <time>2017-06-30T08:04:19Z</time>
      </trkpt>
      <trkpt lat="62.218842012807727" lon="9.595525972545147">
        <ele>934.53999999999996</ele>
        <time>2017-06-30T08:04:20Z</time>
      </trkpt>
      <trkpt lat="62.218743022531271" lon="9.595905002206564">
        <ele>934.53999999999996</ele>
        <time>2017-06-30T08:04:21Z</time>
      </trkpt>
      <trkpt lat="62.218631040304899" lon="9.596276991069317">
        <ele>934.53999999999996</ele>
        <time>2017-06-30T08:04:22Z</time>
      </trkpt>
      <trkpt lat="62.218403974547982" lon="9.597043013200164">
        <ele>934.05999999999995</ele>
        <time>2017-06-30T08:04:24Z</time>
      </trkpt>
      <trkpt lat="62.218310013413429" lon="9.597467975690961">
        <ele>934.05999999999995</ele>
        <time>2017-06-30T08:04:25Z</time>
      </trkpt>
      <trkpt lat="62.218035003170371" lon="9.598709000274539">
        <ele>933.10000000000002</ele>
        <time>2017-06-30T08:04:28Z</time>
      </trkpt>
      <trkpt lat="62.217914974316955" lon="9.599083000794053">
        <ele>932.62</ele>
        <time>2017-06-30T08:04:29Z</time>
      </trkpt>
      <trkpt lat="62.217778014019132" lon="9.599438980221748">
        <ele>932.62</ele>
        <time>2017-06-30T08:04:30Z</time>
      </trkpt>
      <trkpt lat="62.216821974143386" lon="9.601390035822988">
        <ele>930.21000000000004</ele>
        <time>2017-06-30T08:04:36Z</time>
      </trkpt>
      <trkpt lat="62.216646037995815" lon="9.601620035246015">
        <ele>929.73000000000002</ele>
        <time>2017-06-30T08:04:37Z</time>
      </trkpt>
      <trkpt lat="62.216459037736058" lon="9.601797983050346">
        <ele>929.73000000000002</ele>
        <time>2017-06-30T08:04:38Z</time>
      </trkpt>
      <trkpt lat="62.216258961707354" lon="9.601917006075382">
        <ele>929.73000000000002</ele>
        <time>2017-06-30T08:04:39Z</time>
      </trkpt>
      <trkpt lat="62.216053018346429" lon="9.601995041593909">
        <ele>929.25</ele>
        <time>2017-06-30T08:04:40Z</time>
      </trkpt>
      <trkpt lat="62.21584296785295" lon="9.602037034928799">
        <ele>929.25</ele>
        <time>2017-06-30T08:04:41Z</time>
      </trkpt>
      <trkpt lat="62.215628977864981" lon="9.602070981636643">
        <ele>928.76999999999998</ele>
        <time>2017-06-30T08:04:42Z</time>
      </trkpt>
      <trkpt lat="62.214435981586576" lon="9.602415980771184">
        <ele>925.88999999999999</ele>
        <time>2017-06-30T08:04:48Z</time>
      </trkpt>
      <trkpt lat="62.214241018518806" lon="9.60238597355783">
        <ele>925.40999999999997</ele>
        <time>2017-06-30T08:04:49Z</time>
      </trkpt>
      <trkpt lat="62.214051000773907" lon="9.602308021858335">
        <ele>925.40999999999997</ele>
        <time>2017-06-30T08:04:50Z</time>
      </trkpt>
      <trkpt lat="62.213860983029008" lon="9.602193022146821">
        <ele>924.92999999999995</ele>
        <time>2017-06-30T08:04:51Z</time>
      </trkpt>
      <trkpt lat="62.21367197111249" lon="9.60204198025167">
        <ele>924.92999999999995</ele>
        <time>2017-06-30T08:04:52Z</time>
      </trkpt>
      <trkpt lat="62.213483965024352" lon="9.601880041882396">
        <ele>924.45000000000005</ele>
        <time>2017-06-30T08:04:53Z</time>
      </trkpt>
      <trkpt lat="62.213293025270104" lon="9.601746015250683">
        <ele>923.96000000000004</ele>
        <time>2017-06-30T08:04:54Z</time>
      </trkpt>
      <trkpt lat="62.213097978383303" lon="9.601666973903775">
        <ele>923.48000000000002</ele>
        <time>2017-06-30T08:04:55Z</time>
      </trkpt>
      <trkpt lat="62.212902009487152" lon="9.601651970297098">
        <ele>923</ele>
        <time>2017-06-30T08:04:56Z</time>
      </trkpt>
      <trkpt lat="62.212709980085492" lon="9.601698992773891">
        <ele>922.51999999999998</ele>
        <time>2017-06-30T08:04:57Z</time>
      </trkpt>
      <trkpt lat="62.212515017017722" lon="9.601771999150515">
        <ele>922.51999999999998</ele>
        <time>2017-06-30T08:04:58Z</time>
      </trkpt>
      <trkpt lat="62.209086986258626" lon="9.603177979588509">
        <ele>915.78999999999996</ele>
        <time>2017-06-30T08:05:15Z</time>
      </trkpt>
      <trkpt lat="62.207742026075721" lon="9.604659983888269">
        <ele>911.95000000000005</ele>
        <time>2017-06-30T08:05:22Z</time>
      </trkpt>
      <trkpt lat="62.207540022209287" lon="9.604794010519981">
        <ele>911.95000000000005</ele>
        <time>2017-06-30T08:05:23Z</time>
      </trkpt>
      <trkpt lat="62.207337012514472" lon="9.604886965826154">
        <ele>911.47000000000003</ele>
        <time>2017-06-30T08:05:24Z</time>
      </trkpt>
      <trkpt lat="62.205909993499517" lon="9.605292985215783">
        <ele>909.05999999999995</ele>
        <time>2017-06-30T08:05:32Z</time>
      </trkpt>
      <trkpt lat="62.20574302598834" lon="9.605403961613774">
        <ele>908.58000000000004</ele>
        <time>2017-06-30T08:05:33Z</time>
      </trkpt>
      <trkpt lat="62.20557396300137" lon="9.605557015165687">
        <ele>908.10000000000002</ele>
        <time>2017-06-30T08:05:34Z</time>
      </trkpt>
      <trkpt lat="62.203903030604124" lon="9.607473034411669">
        <ele>903.29999999999995</ele>
        <time>2017-06-30T08:05:43Z</time>
      </trkpt>
      <trkpt lat="62.202346008270979" lon="9.609787026420236">
        <ele>899.92999999999995</ele>
        <time>2017-06-30T08:05:52Z</time>
      </trkpt>
      <trkpt lat="62.202038979157805" lon="9.610316008329392">
        <ele>899.45000000000005</ele>
        <time>2017-06-30T08:05:54Z</time>
      </trkpt>
      <trkpt lat="62.201905036345124" lon="9.610628988593817">
        <ele>898.97000000000003</ele>
        <time>2017-06-30T08:05:55Z</time>
      </trkpt>
      <trkpt lat="62.201784001663327" lon="9.610968958586454">
        <ele>898.49000000000001</ele>
        <time>2017-06-30T08:05:56Z</time>
      </trkpt>
      <trkpt lat="62.20078001730144" lon="9.614458009600639">
        <ele>893.20000000000005</ele>
        <time>2017-06-30T08:06:05Z</time>
      </trkpt>
      <trkpt lat="62.200318006798625" lon="9.617728041484952">
        <ele>890.79999999999995</ele>
        <time>2017-06-30T08:06:12Z</time>
      </trkpt>
      <trkpt lat="62.199830012395978" lon="9.624284030869603">
        <ele>885.50999999999999</ele>
        <time>2017-06-30T08:06:25Z</time>
      </trkpt>
      <trkpt lat="62.199717024341226" lon="9.627064978703857">
        <ele>884.07000000000005</ele>
        <time>2017-06-30T08:06:31Z</time>
      </trkpt>
      <trkpt lat="62.199636977165937" lon="9.630033010616899">
        <ele>881.19000000000005</ele>
        <time>2017-06-30T08:06:38Z</time>
      </trkpt>
      <trkpt lat="62.199493981897831" lon="9.635218977928162">
        <ele>875.89999999999998</ele>
        <time>2017-06-30T08:06:49Z</time>
      </trkpt>
      <trkpt lat="62.19953496940434" lon="9.640592029318214">
        <ele>871.09000000000003</ele>
        <time>2017-06-30T08:07:00Z</time>
      </trkpt>
      <trkpt lat="62.19970403239131" lon="9.648211011663079">
        <ele>862.44000000000005</ele>
        <time>2017-06-30T08:07:16Z</time>
      </trkpt>
      <trkpt lat="62.19947000965476" lon="9.653901988640428">
        <ele>857.14999999999998</ele>
        <time>2017-06-30T08:07:28Z</time>
      </trkpt>
      <trkpt lat="62.198984026908875" lon="9.662154978141189">
        <ele>850.41999999999996</ele>
        <time>2017-06-30T08:07:44Z</time>
      </trkpt>
      <trkpt lat="62.19904001802206" lon="9.668139992281795">
        <ele>848.98000000000002</ele>
        <time>2017-06-30T08:07:56Z</time>
      </trkpt>
      <trkpt lat="62.198885036632419" lon="9.671626025810838">
        <ele>848.5</ele>
        <time>2017-06-30T08:08:03Z</time>
      </trkpt>
      <trkpt lat="62.198038967326283" lon="9.676354005932808">
        <ele>848.01999999999998</ele>
        <time>2017-06-30T08:08:13Z</time>
      </trkpt>
      <trkpt lat="62.196369040757418" lon="9.684025039896369">
        <ele>844.65999999999997</ele>
        <time>2017-06-30T08:08:30Z</time>
      </trkpt>
      <trkpt lat="62.196235014125705" lon="9.684360986575484">
        <ele>844.65999999999997</ele>
        <time>2017-06-30T08:08:31Z</time>
      </trkpt>
      <trkpt lat="62.196086989715695" lon="9.684660974889994">
        <ele>844.65999999999997</ele>
        <time>2017-06-30T08:08:32Z</time>
      </trkpt>
      <trkpt lat="62.19592597335577" lon="9.684935985133052">
        <ele>844.65999999999997</ele>
        <time>2017-06-30T08:08:33Z</time>
      </trkpt>
      <trkpt lat="62.19575397670269" lon="9.685192974284291">
        <ele>844.65999999999997</ele>
        <time>2017-06-30T08:08:34Z</time>
      </trkpt>
      <trkpt lat="62.195572005584836" lon="9.685430014505982">
        <ele>844.65999999999997</ele>
        <time>2017-06-30T08:08:35Z</time>
      </trkpt>
      <trkpt lat="62.194791985675693" lon="9.686181033030152">
        <ele>844.17999999999995</ele>
        <time>2017-06-30T08:08:39Z</time>
      </trkpt>
      <trkpt lat="62.194585036486387" lon="9.686280023306608">
        <ele>844.17999999999995</ele>
        <time>2017-06-30T08:08:40Z</time>
      </trkpt>
      <trkpt lat="62.194382026791573" lon="9.686334002763033">
        <ele>844.17999999999995</ele>
        <time>2017-06-30T08:08:41Z</time>
      </trkpt>
      <trkpt lat="62.19295903109014" lon="9.686613036319614">
        <ele>844.17999999999995</ele>
        <time>2017-06-30T08:08:48Z</time>
      </trkpt>
      <trkpt lat="62.192775970324874" lon="9.68675896525383">
        <ele>844.65999999999997</ele>
        <time>2017-06-30T08:08:49Z</time>
      </trkpt>
      <trkpt lat="62.192605985328555" lon="9.686944037675858">
        <ele>844.17999999999995</ele>
        <time>2017-06-30T08:08:50Z</time>
      </trkpt>
      <trkpt lat="62.192448992282152" lon="9.68716599047184">
        <ele>844.17999999999995</ele>
        <time>2017-06-30T08:08:51Z</time>
      </trkpt>
      <trkpt lat="62.192299962043762" lon="9.687418034300208">
        <ele>844.17999999999995</ele>
        <time>2017-06-30T08:08:52Z</time>
      </trkpt>
      <trkpt lat="62.192160990089178" lon="9.687700001522899">
        <ele>844.17999999999995</ele>
        <time>2017-06-30T08:08:53Z</time>
      </trkpt>
      <trkpt lat="62.192034004256129" lon="9.68800300732255">
        <ele>843.69000000000005</ele>
        <time>2017-06-30T08:08:54Z</time>
      </trkpt>
      <trkpt lat="62.191919004544616" lon="9.688338031992316">
        <ele>844.17999999999995</ele>
        <time>2017-06-30T08:08:55Z</time>
      </trkpt>
      <trkpt lat="62.191823031753302" lon="9.688701974228025">
        <ele>843.69000000000005</ele>
        <time>2017-06-30T08:08:56Z</time>
      </trkpt>
      <trkpt lat="62.191738961264491" lon="9.689087960869074">
        <ele>843.69000000000005</ele>
        <time>2017-06-30T08:08:57Z</time>
      </trkpt>
      <trkpt lat="62.191669978201389" lon="9.689493980258703">
        <ele>843.21000000000004</ele>
        <time>2017-06-30T08:08:58Z</time>
      </trkpt>
      <trkpt lat="62.191600995138288" lon="9.689912991598249">
        <ele>843.21000000000004</ele>
        <time>2017-06-30T08:08:59Z</time>
      </trkpt>
      <trkpt lat="62.190654007717967" lon="9.694628985598683">
        <ele>839.37</ele>
        <time>2017-06-30T08:09:10Z</time>
      </trkpt>
      <trkpt lat="62.189854960888624" lon="9.697218993678689">
        <ele>838.40999999999997</ele>
        <time>2017-06-30T08:09:17Z</time>
      </trkpt>
      <trkpt lat="62.189077036455274" lon="9.700652975589037">
        <ele>835.51999999999998</ele>
        <time>2017-06-30T08:09:25Z</time>
      </trkpt>
      <trkpt lat="62.187753031030297" lon="9.703848995268345">
        <ele>832.63999999999999</ele>
        <time>2017-06-30T08:09:34Z</time>
      </trkpt>
      <trkpt lat="62.187268976122141" lon="9.70471803098917">
        <ele>832.63999999999999</ele>
        <time>2017-06-30T08:09:37Z</time>
      </trkpt>
      <trkpt lat="62.18713603913784" lon="9.705050960183144">
        <ele>832.15999999999997</ele>
        <time>2017-06-30T08:09:38Z</time>
      </trkpt>
      <trkpt lat="62.187012992799282" lon="9.70540601760149">
        <ele>832.15999999999997</ele>
        <time>2017-06-30T08:09:39Z</time>
      </trkpt>
      <trkpt lat="62.186896987259388" lon="9.705785969272256">
        <ele>831.67999999999995</ele>
        <time>2017-06-30T08:09:40Z</time>
      </trkpt>
      <trkpt lat="62.186786010861397" lon="9.706187965348363">
        <ele>831.20000000000005</ele>
        <time>2017-06-30T08:09:41Z</time>
      </trkpt>
      <trkpt lat="62.185673983767629" lon="9.711067993193865">
        <ele>826.38999999999999</ele>
        <time>2017-06-30T08:09:52Z</time>
      </trkpt>
      <trkpt lat="62.184508983045816" lon="9.715919019654393">
        <ele>823.02999999999997</ele>
        <time>2017-06-30T08:10:03Z</time>
      </trkpt>
      <trkpt lat="62.183903977274895" lon="9.718333007767797">
        <ele>823.02999999999997</ele>
        <time>2017-06-30T08:10:09Z</time>
      </trkpt>
      <trkpt lat="62.183458982035518" lon="9.723279001191258">
        <ele>818.22000000000003</ele>
        <time>2017-06-30T08:10:19Z</time>
      </trkpt>
      <trkpt lat="62.183066038414836" lon="9.728670995682478">
        <ele>813.88999999999999</ele>
        <time>2017-06-30T08:10:30Z</time>
      </trkpt>
      <trkpt lat="62.183282962068915" lon="9.734728010371327">
        <ele>808.61000000000001</ele>
        <time>2017-06-30T08:10:42Z</time>
      </trkpt>
      <trkpt lat="62.183330990374088" lon="9.741350971162319">
        <ele>801.88</ele>
        <time>2017-06-30T08:10:55Z</time>
      </trkpt>
      <trkpt lat="62.183314980939031" lon="9.742643963545561">
        <ele>801.39999999999998</ele>
        <time>2017-06-30T08:10:58Z</time>
      </trkpt>
      <trkpt lat="62.183341970667243" lon="9.7430270165205">
        <ele>800.91999999999996</ele>
        <time>2017-06-30T08:10:59Z</time>
      </trkpt>
      <trkpt lat="62.183393016457558" lon="9.743387019261718">
        <ele>800.91999999999996</ele>
        <time>2017-06-30T08:11:00Z</time>
      </trkpt>
      <trkpt lat="62.183469040319324" lon="9.743730006739497">
        <ele>800.44000000000005</ele>
        <time>2017-06-30T08:11:01Z</time>
      </trkpt>
      <trkpt lat="62.183565013110638" lon="9.744054973125458">
        <ele>800.44000000000005</ele>
        <time>2017-06-30T08:11:02Z</time>
      </trkpt>
      <trkpt lat="62.183669032528996" lon="9.744367031380534">
        <ele>800.44000000000005</ele>
        <time>2017-06-30T08:11:03Z</time>
      </trkpt>
      <trkpt lat="62.183779003098607" lon="9.744664002209902">
        <ele>799.95000000000005</ele>
        <time>2017-06-30T08:11:04Z</time>
      </trkpt>
      <trkpt lat="62.183900037780404" lon="9.744948986917734">
        <ele>799.95000000000005</ele>
        <time>2017-06-30T08:11:05Z</time>
      </trkpt>
      <trkpt lat="62.184317959472537" lon="9.745700005441904">
        <ele>798.99000000000001</ele>
        <time>2017-06-30T08:11:08Z</time>
      </trkpt>
      <trkpt lat="62.184479981660843" lon="9.745903015136719">
        <ele>798.50999999999999</ele>
        <time>2017-06-30T08:11:09Z</time>
      </trkpt>
      <trkpt lat="62.186498008668423" lon="9.748070994392037">
        <ele>794.66999999999996</ele>
        <time>2017-06-30T08:11:20Z</time>
      </trkpt>
      <trkpt lat="62.189077958464622" lon="9.75127698853612">
        <ele>791.29999999999995</ele>
        <time>2017-06-30T08:11:34Z</time>
      </trkpt>
      <trkpt lat="62.190468013286591" lon="9.754220964387059">
        <ele>788.89999999999998</ele>
        <time>2017-06-30T08:11:43Z</time>
      </trkpt>
      <trkpt lat="62.191555984318256" lon="9.75804596208036">
        <ele>786.98000000000002</ele>
        <time>2017-06-30T08:11:53Z</time>
      </trkpt>
      <trkpt lat="62.192190997302532" lon="9.762488035485148">
        <ele>783.13</ele>
        <time>2017-06-30T08:12:03Z</time>
      </trkpt>
      <trkpt lat="62.192426025867462" lon="9.767804006114602">
        <ele>779.28999999999996</ele>
        <time>2017-06-30T08:12:14Z</time>
      </trkpt>
      <trkpt lat="62.192645967006683" lon="9.778172001242638">
        <ele>765.35000000000002</ele>
        <time>2017-06-30T08:12:35Z</time>
      </trkpt>
      <trkpt lat="62.192590981721878" lon="9.784036986529827">
        <ele>761.98000000000002</ele>
        <time>2017-06-30T08:12:47Z</time>
      </trkpt>
      <trkpt lat="62.1923169773072" lon="9.787399973720312">
        <ele>760.05999999999995</ele>
        <time>2017-06-30T08:12:55Z</time>
      </trkpt>
      <trkpt lat="62.191278040409088" lon="9.79327904060483">
        <ele>758.13999999999999</ele>
        <time>2017-06-30T08:13:09Z</time>
      </trkpt>
      <trkpt lat="62.190783005207777" lon="9.795115012675524">
        <ele>758.62</ele>
        <time>2017-06-30T08:13:14Z</time>
      </trkpt>
      <trkpt lat="62.190645961090922" lon="9.795412989333272">
        <ele>759.10000000000002</ele>
        <time>2017-06-30T08:13:15Z</time>
      </trkpt>
      <trkpt lat="62.190496008843184" lon="9.795683976262808">
        <ele>759.58000000000004</ele>
        <time>2017-06-30T08:13:16Z</time>
      </trkpt>
      <trkpt lat="62.190334992483258" lon="9.79592302814126">
        <ele>760.05999999999995</ele>
        <time>2017-06-30T08:13:17Z</time>
      </trkpt>
      <trkpt lat="62.190162995830178" lon="9.796131988987327">
        <ele>760.53999999999996</ele>
        <time>2017-06-30T08:13:18Z</time>
      </trkpt>
      <trkpt lat="62.189980018883944" lon="9.796318989247084">
        <ele>761.01999999999998</ele>
        <time>2017-06-30T08:13:19Z</time>
      </trkpt>
      <trkpt lat="62.187681030482054" lon="9.798990972340107">
        <ele>766.78999999999996</ele>
        <time>2017-06-30T08:13:32Z</time>
      </trkpt>
      <trkpt lat="62.185668032616377" lon="9.801658010110259">
        <ele>767.26999999999998</ele>
        <time>2017-06-30T08:13:44Z</time>
      </trkpt>
      <trkpt lat="62.183041982352734" lon="9.805233981460333">
        <ele>765.83000000000004</ele>
        <time>2017-06-30T08:13:59Z</time>
      </trkpt>
      <trkpt lat="62.181801041588187" lon="9.806978004053235">
        <ele>764.87</ele>
        <time>2017-06-30T08:14:07Z</time>
      </trkpt>
      <trkpt lat="62.180079985409975" lon="9.809429040178657">
        <ele>765.35000000000002</ele>
        <time>2017-06-30T08:14:20Z</time>
      </trkpt>
      <trkpt lat="62.178061958402395" lon="9.812361029908061">
        <ele>765.35000000000002</ele>
        <time>2017-06-30T08:14:35Z</time>
      </trkpt>
      <trkpt lat="62.176639968529344" lon="9.814387019723654">
        <ele>763.89999999999998</ele>
        <time>2017-06-30T08:14:46Z</time>
      </trkpt>
      <trkpt lat="62.175085041671991" lon="9.816652983427048">
        <ele>762.46000000000004</ele>
        <time>2017-06-30T08:14:57Z</time>
      </trkpt>
      <trkpt lat="62.173543022945523" lon="9.818900004029274">
        <ele>761.01999999999998</ele>
        <time>2017-06-30T08:15:08Z</time>
      </trkpt>
      <trkpt lat="62.171158958226442" lon="9.822505982592702">
        <ele>755.25</ele>
        <time>2017-06-30T08:15:24Z</time>
      </trkpt>
      <trkpt lat="62.169098015874624" lon="9.82628496363759">
        <ele>750.45000000000005</ele>
        <time>2017-06-30T08:15:37Z</time>
      </trkpt>
      <trkpt lat="62.16829301789403" lon="9.828629968687892">
        <ele>750.45000000000005</ele>
        <time>2017-06-30T08:15:44Z</time>
      </trkpt>
      <trkpt lat="62.166732978075743" lon="9.833760028705001">
        <ele>753.33000000000004</ele>
        <time>2017-06-30T08:15:59Z</time>
      </trkpt>
      <trkpt lat="62.165342001244426" lon="9.836284993216395">
        <ele>752.37</ele>
        <time>2017-06-30T08:16:08Z</time>
      </trkpt>
      <trkpt lat="62.162971012294292" lon="9.840814992785454">
        <ele>749</ele>
        <time>2017-06-30T08:16:22Z</time>
      </trkpt>
      <trkpt lat="62.162002986297011" lon="9.843201991170645">
        <ele>750.92999999999995</ele>
        <time>2017-06-30T08:16:29Z</time>
      </trkpt>
      <trkpt lat="62.160401036962867" lon="9.849177030846477">
        <ele>750.45000000000005</ele>
        <time>2017-06-30T08:16:44Z</time>
      </trkpt>
      <trkpt lat="62.159325974062085" lon="9.851187011227012">
        <ele>751.40999999999997</ele>
        <time>2017-06-30T08:16:51Z</time>
      </trkpt>
      <trkpt lat="62.158144041895866" lon="9.853664031252265">
        <ele>748.03999999999996</ele>
        <time>2017-06-30T08:16:59Z</time>
      </trkpt>
      <trkpt lat="62.155867014080286" lon="9.860994005575776">
        <ele>749.49000000000001</ele>
        <time>2017-06-30T08:17:19Z</time>
      </trkpt>
      <trkpt lat="62.154558012261987" lon="9.865843020379543">
        <ele>751.88999999999999</ele>
        <time>2017-06-30T08:17:32Z</time>
      </trkpt>
      <trkpt lat="62.15316804125905" lon="9.868529001250863">
        <ele>749.49000000000001</ele>
        <time>2017-06-30T08:17:41Z</time>
      </trkpt>
      <trkpt lat="62.150499997660518" lon="9.872448965907097">
        <ele>749.97000000000003</ele>
        <time>2017-06-30T08:17:57Z</time>
      </trkpt>
      <trkpt lat="62.148857982829213" lon="9.875841038301587">
        <ele>746.12</ele>
        <time>2017-06-30T08:18:08Z</time>
      </trkpt>
      <trkpt lat="62.1478829998523" lon="9.87937199883163">
        <ele>740.83000000000004</ele>
        <time>2017-06-30T08:18:17Z</time>
      </trkpt>
      <trkpt lat="62.147757019847631" lon="9.881916996091604">
        <ele>737.47000000000003</ele>
        <time>2017-06-30T08:18:23Z</time>
      </trkpt>
      <trkpt lat="62.148116016760468" lon="9.885712992399931">
        <ele>736.02999999999997</ele>
        <time>2017-06-30T08:18:32Z</time>
      </trkpt>
      <trkpt lat="62.148112999275327" lon="9.886129992082715">
        <ele>736.50999999999999</ele>
        <time>2017-06-30T08:18:33Z</time>
      </trkpt>
      <trkpt lat="62.14809799566865" lon="9.88654900342226">
        <ele>736.99000000000001</ele>
        <time>2017-06-30T08:18:34Z</time>
      </trkpt>
      <trkpt lat="62.147832037881017" lon="9.89136197604239">
        <ele>730.74000000000001</ele>
        <time>2017-06-30T08:18:45Z</time>
      </trkpt>
      <trkpt lat="62.147735981270671" lon="9.894939037039876">
        <ele>724.97000000000003</ele>
        <time>2017-06-30T08:18:53Z</time>
      </trkpt>
      <trkpt lat="62.146958978846669" lon="9.899442968890071">
        <ele>721.61000000000001</ele>
        <time>2017-06-30T08:19:04Z</time>
      </trkpt>
      <trkpt lat="62.145920963957906" lon="9.904460040852428">
        <ele>720.15999999999997</ele>
        <time>2017-06-30T08:19:16Z</time>
      </trkpt>
      <trkpt lat="62.144543984904885" lon="9.911866039037705">
        <ele>719.20000000000005</ele>
        <time>2017-06-30T08:19:34Z</time>
      </trkpt>
      <trkpt lat="62.14339398778975" lon="9.91796001791954">
        <ele>720.64999999999998</ele>
        <time>2017-06-30T08:19:49Z</time>
      </trkpt>
      <trkpt lat="62.143187038600445" lon="9.921559961512685">
        <ele>719.20000000000005</ele>
        <time>2017-06-30T08:19:57Z</time>
      </trkpt>
      <trkpt lat="62.142586978152394" lon="9.924486000090838">
        <ele>717.75999999999999</ele>
        <time>2017-06-30T08:20:04Z</time>
      </trkpt>
      <trkpt lat="62.142316997051239" lon="9.927573977038264">
        <ele>716.79999999999995</ele>
        <time>2017-06-30T08:20:11Z</time>
      </trkpt>
      <trkpt lat="62.141983984038234" lon="9.93166602216661">
        <ele>716.79999999999995</ele>
        <time>2017-06-30T08:20:20Z</time>
      </trkpt>
      <trkpt lat="62.140796016901731" lon="9.940838003531098">
        <ele>722.09000000000003</ele>
        <time>2017-06-30T08:20:41Z</time>
      </trkpt>
      <trkpt lat="62.139853974804282" lon="9.945806041359901">
        <ele>723.52999999999997</ele>
        <time>2017-06-30T08:20:53Z</time>
      </trkpt>
      <trkpt lat="62.138753011822701" lon="9.951687958091497">
        <ele>723.52999999999997</ele>
        <time>2017-06-30T08:21:07Z</time>
      </trkpt>
      <trkpt lat="62.137995036318898" lon="9.954822035506368">
        <ele>720.64999999999998</ele>
        <time>2017-06-30T08:21:15Z</time>
      </trkpt>
      <trkpt lat="62.136309016495943" lon="9.958321982994676">
        <ele>717.27999999999997</ele>
        <time>2017-06-30T08:21:26Z</time>
      </trkpt>
      <trkpt lat="62.135694958269596" lon="9.960575960576534">
        <ele>715.84000000000003</ele>
        <time>2017-06-30T08:21:32Z</time>
      </trkpt>
      <trkpt lat="62.135524973273277" lon="9.963797964155674">
        <ele>713.44000000000005</ele>
        <time>2017-06-30T08:21:39Z</time>
      </trkpt>
      <trkpt lat="62.135631004348397" lon="9.971236987039447">
        <ele>712.95000000000005</ele>
        <time>2017-06-30T08:21:55Z</time>
      </trkpt>
      <trkpt lat="62.135501001030207" lon="9.975771009922028">
        <ele>713.91999999999996</ele>
        <time>2017-06-30T08:22:05Z</time>
      </trkpt>
      <trkpt lat="62.134988028556108" lon="9.978039991110563">
        <ele>715.36000000000001</ele>
        <time>2017-06-30T08:22:11Z</time>
      </trkpt>
      <trkpt lat="62.134122010320425" lon="9.9804160092026">
        <ele>718.24000000000001</ele>
        <time>2017-06-30T08:22:20Z</time>
      </trkpt>
      <trkpt lat="62.133538965135813" lon="9.983057985082269">
        <ele>713.91999999999996</ele>
        <time>2017-06-30T08:22:29Z</time>
      </trkpt>
      <trkpt lat="62.133133029565215" lon="9.985530981794">
        <ele>713.44000000000005</ele>
        <time>2017-06-30T08:22:38Z</time>
      </trkpt>
      <trkpt lat="62.132901018485427" lon="9.988790033385158">
        <ele>712.95000000000005</ele>
        <time>2017-06-30T08:22:49Z</time>
      </trkpt>
      <trkpt lat="62.132660038769245" lon="9.9930480401963">
        <ele>712.95000000000005</ele>
        <time>2017-06-30T08:23:03Z</time>
      </trkpt>
      <trkpt lat="62.132502961903811" lon="9.997485000640154">
        <ele>714.39999999999998</ele>
        <time>2017-06-30T08:23:18Z</time>
      </trkpt>
      <trkpt lat="62.132764980196953" lon="9.999562036246061">
        <ele>715.36000000000001</ele>
        <time>2017-06-30T08:23:27Z</time>
      </trkpt>
      <trkpt lat="62.132946029305458" lon="10.001076981425285">
        <ele>715.36000000000001</ele>
        <time>2017-06-30T08:23:37Z</time>
      </trkpt>
      <trkpt lat="62.13297301903367" lon="10.001075975596905">
        <ele>715.84000000000003</ele>
        <time>2017-06-30T08:23:38Z</time>
      </trkpt>
      <trkpt lat="62.132989028468728" lon="10.001041023060679">
        <ele>715.84000000000003</ele>
        <time>2017-06-30T08:23:39Z</time>
      </trkpt>
      <trkpt lat="62.133001014590263" lon="10.000998023897409">
        <ele>715.84000000000003</ele>
        <time>2017-06-30T08:23:40Z</time>
      </trkpt>
      <trkpt lat="62.133005037903786" lon="10.000948989763856">
        <ele>715.36000000000001</ele>
        <time>2017-06-30T08:23:41Z</time>
      </trkpt>
      <trkpt lat="62.133001014590263" lon="10.000883024185896">
        <ele>715.84000000000003</ele>
        <time>2017-06-30T08:23:42Z</time>
      </trkpt>
      <trkpt lat="62.132990034297109" lon="10.000813035294414">
        <ele>715.36000000000001</ele>
        <time>2017-06-30T08:23:43Z</time>
      </trkpt>
      <trkpt lat="62.132971007376909" lon="10.00074103474617">
        <ele>715.84000000000003</ele>
        <time>2017-06-30T08:23:44Z</time>
      </trkpt>
      <trkpt lat="62.13290998712182" lon="10.000380026176572">
        <ele>715.84000000000003</ele>
        <time>2017-06-30T08:23:47Z</time>
      </trkpt>
      <trkpt lat="62.132641011849046" lon="9.998383037745953">
        <ele>714.39999999999998</ele>
        <time>2017-06-30T08:23:56Z</time>
      </trkpt>
      <trkpt lat="62.13249902240932" lon="9.997058026492596">
        <ele>712.95000000000005</ele>
        <time>2017-06-30T08:24:02Z</time>
      </trkpt>
      <trkpt lat="62.132460968568921" lon="9.996956018730998">
        <ele>712.47000000000003</ele>
        <time>2017-06-30T08:24:03Z</time>
      </trkpt>
      <trkpt lat="62.132410006597638" lon="9.996902039274573">
        <ele>712.47000000000003</ele>
        <time>2017-06-30T08:24:04Z</time>
      </trkpt>
      <trkpt lat="62.13234999217093" lon="9.996917964890599">
        <ele>712.47000000000003</ele>
        <time>2017-06-30T08:24:05Z</time>
      </trkpt>
      <trkpt lat="62.132288971915841" lon="9.996990971267223">
        <ele>711.99000000000001</ele>
        <time>2017-06-30T08:24:06Z</time>
      </trkpt>
      <trkpt lat="62.132219988852739" lon="9.997098008170724">
        <ele>711.50999999999999</ele>
        <time>2017-06-30T08:24:07Z</time>
      </trkpt>
      <trkpt lat="62.131437035277486" lon="9.998139040544629">
        <ele>703.82000000000005</ele>
        <time>2017-06-30T08:24:14Z</time>
      </trkpt>
      <trkpt lat="62.129985960200429" lon="9.999364977702498">
        <ele>696.61000000000001</ele>
        <time>2017-06-30T08:24:23Z</time>
      </trkpt>
      <trkpt lat="62.127297967672348" lon="10.001378981396556">
        <ele>696.13</ele>
        <time>2017-06-30T08:24:38Z</time>
      </trkpt>
      <trkpt lat="62.125028986483812" lon="10.002835001796484">
        <ele>706.71000000000004</ele>
        <time>2017-06-30T08:24:51Z</time>
      </trkpt>
      <trkpt lat="62.12364798411727" lon="10.002899039536715">
        <ele>711.99000000000001</ele>
        <time>2017-06-30T08:24:59Z</time>
      </trkpt>
      <trkpt lat="62.122013010084629" lon="10.003004986792803">
        <ele>711.02999999999997</ele>
        <time>2017-06-30T08:25:07Z</time>
      </trkpt>
      <trkpt lat="62.120695961639285" lon="10.004261014983058">
        <ele>720.64999999999998</ele>
        <time>2017-06-30T08:25:14Z</time>
      </trkpt>
      <trkpt lat="62.119828015565872" lon="10.006151972338557">
        <ele>729.29999999999995</ele>
        <time>2017-06-30T08:25:20Z</time>
      </trkpt>
      <trkpt lat="62.119187973439693" lon="10.008945995941758">
        <ele>737.47000000000003</ele>
        <time>2017-06-30T08:25:27Z</time>
      </trkpt>
      <trkpt lat="62.118738032877445" lon="10.010855980217457">
        <ele>740.83000000000004</ele>
        <time>2017-06-30T08:25:32Z</time>
      </trkpt>
      <trkpt lat="62.118608029559255" lon="10.01116200350225">
        <ele>741.30999999999995</ele>
        <time>2017-06-30T08:25:33Z</time>
      </trkpt>
      <trkpt lat="62.118463022634387" lon="10.011438019573689">
        <ele>741.30999999999995</ele>
        <time>2017-06-30T08:25:34Z</time>
      </trkpt>
      <trkpt lat="62.118305023759604" lon="10.01167899928987">
        <ele>741.78999999999996</ele>
        <time>2017-06-30T08:25:35Z</time>
      </trkpt>
      <trkpt lat="62.118137972429395" lon="10.011883014813066">
        <ele>741.78999999999996</ele>
        <time>2017-06-30T08:25:36Z</time>
      </trkpt>
      <trkpt lat="62.117963964119554" lon="10.01204595901072">
        <ele>741.78999999999996</ele>
        <time>2017-06-30T08:25:37Z</time>
      </trkpt>
      <trkpt lat="62.117781993001699" lon="10.012160036712885">
        <ele>741.78999999999996</ele>
        <time>2017-06-30T08:25:38Z</time>
      </trkpt>
      <trkpt lat="62.117593986913562" lon="10.012232037261128">
        <ele>741.78999999999996</ele>
        <time>2017-06-30T08:25:39Z</time>
      </trkpt>
      <trkpt lat="62.117399023845792" lon="10.012261960655451">
        <ele>741.78999999999996</ele>
        <time>2017-06-30T08:25:40Z</time>
      </trkpt>
      <trkpt lat="62.117201965302229" lon="10.012253997847438">
        <ele>741.78999999999996</ele>
        <time>2017-06-30T08:25:41Z</time>
      </trkpt>
      <trkpt lat="62.117004990577698" lon="10.012222984805703">
        <ele>741.78999999999996</ele>
        <time>2017-06-30T08:25:42Z</time>
      </trkpt>
      <trkpt lat="62.116804998368025" lon="10.012179985642433">
        <ele>742.27999999999997</ele>
        <time>2017-06-30T08:25:43Z</time>
      </trkpt>
      <trkpt lat="62.114424034953117" lon="10.010981038212776">
        <ele>743.72000000000003</ele>
        <time>2017-06-30T08:25:55Z</time>
      </trkpt>
      <trkpt lat="62.112149018794298" lon="10.00802599824965">
        <ele>749.49000000000001</ele>
        <time>2017-06-30T08:26:08Z</time>
      </trkpt>
      <trkpt lat="62.109891017898917" lon="10.00422103330493">
        <ele>752.85000000000002</ele>
        <time>2017-06-30T08:26:22Z</time>
      </trkpt>
      <trkpt lat="62.107381979003549" lon="9.99934796243906">
        <ele>756.21000000000004</ele>
        <time>2017-06-30T08:26:38Z</time>
      </trkpt>
      <trkpt lat="62.105855969712138" lon="9.996892986819148">
        <ele>756.21000000000004</ele>
        <time>2017-06-30T08:26:47Z</time>
      </trkpt>
      <trkpt lat="62.104368014261127" lon="9.994495008140802">
        <ele>757.65999999999997</ele>
        <time>2017-06-30T08:26:56Z</time>
      </trkpt>
      <trkpt lat="62.101830979809165" lon="9.988504964858294">
        <ele>766.30999999999995</ele>
        <time>2017-06-30T08:27:14Z</time>
      </trkpt>
      <trkpt lat="62.1002749633044" lon="9.986629011109471">
        <ele>771.11000000000001</ele>
        <time>2017-06-30T08:27:23Z</time>
      </trkpt>
      <trkpt lat="62.1001229993999" lon="9.986371016129851">
        <ele>772.55999999999995</ele>
        <time>2017-06-30T08:27:24Z</time>
      </trkpt>
      <trkpt lat="62.099980004131794" lon="9.986088965088129">
        <ele>773.03999999999996</ele>
        <time>2017-06-30T08:27:25Z</time>
      </trkpt>
      <trkpt lat="62.099852012470365" lon="9.985783025622368">
        <ele>773.51999999999998</ele>
        <time>2017-06-30T08:27:26Z</time>
      </trkpt>
      <trkpt lat="62.099733995273709" lon="9.985448000952601">
        <ele>773.51999999999998</ele>
        <time>2017-06-30T08:27:27Z</time>
      </trkpt>
      <trkpt lat="62.099623018875718" lon="9.985084980726242">
        <ele>773.51999999999998</ele>
        <time>2017-06-30T08:27:28Z</time>
      </trkpt>
      <trkpt lat="62.099522016942501" lon="9.98469103127718">
        <ele>774</ele>
        <time>2017-06-30T08:27:29Z</time>
      </trkpt>
      <trkpt lat="62.098356010392308" lon="9.980587000027299">
        <ele>776.39999999999998</ele>
        <time>2017-06-30T08:27:40Z</time>
      </trkpt>
      <trkpt lat="62.09606297314167" lon="9.975594989955425">
        <ele>782.64999999999998</ele>
        <time>2017-06-30T08:27:57Z</time>
      </trkpt>
      <trkpt lat="62.094781966879964" lon="9.974141987040639">
        <ele>785.04999999999995</ele>
        <time>2017-06-30T08:28:05Z</time>
      </trkpt>
      <trkpt lat="62.092062039300799" lon="9.971235981211066">
        <ele>787.46000000000004</ele>
        <time>2017-06-30T08:28:23Z</time>
      </trkpt>
      <trkpt lat="62.091391989961267" lon="9.97038597241044">
        <ele>787.46000000000004</ele>
        <time>2017-06-30T08:28:27Z</time>
      </trkpt>
      <trkpt lat="62.091245977208018" lon="9.970110040158033">
        <ele>787.46000000000004</ele>
        <time>2017-06-30T08:28:28Z</time>
      </trkpt>
      <trkpt lat="62.091115973889828" lon="9.969806028530002">
        <ele>787.46000000000004</ele>
        <time>2017-06-30T08:28:29Z</time>
      </trkpt>
      <trkpt lat="62.091000974178314" lon="9.969475027173758">
        <ele>786.98000000000002</ele>
        <time>2017-06-30T08:28:30Z</time>
      </trkpt>
      <trkpt lat="62.090902989730239" lon="9.969120975583792">
        <ele>786.98000000000002</ele>
        <time>2017-06-30T08:28:31Z</time>
      </trkpt>
      <trkpt lat="62.090814979746938" lon="9.968744963407517">
        <ele>786.98000000000002</ele>
        <time>2017-06-30T08:28:32Z</time>
      </trkpt>
      <trkpt lat="62.09073300473392" lon="9.968355037271977">
        <ele>786.98000000000002</ele>
        <time>2017-06-30T08:28:33Z</time>
      </trkpt>
      <trkpt lat="62.090207962319255" lon="9.965960998088121">
        <ele>788.41999999999996</ele>
        <time>2017-06-30T08:28:39Z</time>
      </trkpt>
      <trkpt lat="62.090080976486206" lon="9.96561398729682">
        <ele>788.41999999999996</ele>
        <time>2017-06-30T08:28:40Z</time>
      </trkpt>
      <trkpt lat="62.088915975764394" lon="9.962671017274261">
        <ele>791.29999999999995</ele>
        <time>2017-06-30T08:28:49Z</time>
      </trkpt>
      <trkpt lat="62.088783038780093" lon="9.962399024516344">
        <ele>791.77999999999997</ele>
        <time>2017-06-30T08:28:50Z</time>
      </trkpt>
      <trkpt lat="62.088638031855226" lon="9.962174976244569">
        <ele>792.25999999999999</ele>
        <time>2017-06-30T08:28:51Z</time>
      </trkpt>
      <trkpt lat="62.088483972474933" lon="9.961999962106347">
        <ele>792.74000000000001</ele>
        <time>2017-06-30T08:28:52Z</time>
      </trkpt>
      <trkpt lat="62.088315999135375" lon="9.961883034557104">
        <ele>792.74000000000001</ele>
        <time>2017-06-30T08:28:53Z</time>
      </trkpt>
      <trkpt lat="62.088139979168773" lon="9.961820002645254">
        <ele>792.74000000000001</ele>
        <time>2017-06-30T08:28:54Z</time>
      </trkpt>
      <trkpt lat="62.087957002222538" lon="9.961802987381816">
        <ele>793.22000000000003</ele>
        <time>2017-06-30T08:28:55Z</time>
      </trkpt>
      <trkpt lat="62.087762961164117" lon="9.961815979331732">
        <ele>793.22000000000003</ele>
        <time>2017-06-30T08:28:56Z</time>
      </trkpt>
      <trkpt lat="62.087563974782825" lon="9.961838023737073">
        <ele>793.22000000000003</ele>
        <time>2017-06-30T08:28:57Z</time>
      </trkpt>
      <trkpt lat="62.085054013878107" lon="9.962258962914348">
        <ele>796.11000000000001</ele>
        <time>2017-06-30T08:29:09Z</time>
      </trkpt>
      <trkpt lat="62.083893958479166" lon="9.961639037355781">
        <ele>798.50999999999999</ele>
        <time>2017-06-30T08:29:15Z</time>
      </trkpt>
      <trkpt lat="62.081185011193156" lon="9.959674989804626">
        <ele>803.79999999999995</ele>
        <time>2017-06-30T08:29:29Z</time>
      </trkpt>
      <trkpt lat="62.080430975183845" lon="9.959371984004974">
        <ele>804.75999999999999</ele>
        <time>2017-06-30T08:29:33Z</time>
      </trkpt>
      <trkpt lat="62.080235006287694" lon="9.959388999268413">
        <ele>804.75999999999999</ele>
        <time>2017-06-30T08:29:34Z</time>
      </trkpt>
      <trkpt lat="62.080039037391543" lon="9.959451025351882">
        <ele>804.75999999999999</ele>
        <time>2017-06-30T08:29:35Z</time>
      </trkpt>
      <trkpt lat="62.079843990504742" lon="9.959562001749873">
        <ele>804.27999999999997</ele>
        <time>2017-06-30T08:29:36Z</time>
      </trkpt>
      <trkpt lat="62.079654978588223" lon="9.959714971482754">
        <ele>803.32000000000005</ele>
        <time>2017-06-30T08:29:37Z</time>
      </trkpt>
      <trkpt lat="62.079466972500086" lon="9.959904989227653">
        <ele>802.84000000000003</ele>
        <time>2017-06-30T08:29:38Z</time>
      </trkpt>
      <trkpt lat="62.079283995553851" lon="9.960137000307441">
        <ele>801.88</ele>
        <time>2017-06-30T08:29:39Z</time>
      </trkpt>
      <trkpt lat="62.079105963930488" lon="9.960388960316777">
        <ele>801.39999999999998</ele>
        <time>2017-06-30T08:29:40Z</time>
      </trkpt>
      <trkpt lat="62.078932961449027" lon="9.960665982216597">
        <ele>800.44000000000005</ele>
        <time>2017-06-30T08:29:41Z</time>
      </trkpt>
      <trkpt lat="62.078763982281089" lon="9.960962031036615">
        <ele>799.95000000000005</ele>
        <time>2017-06-30T08:29:42Z</time>
      </trkpt>
      <trkpt lat="62.078007012605667" lon="9.962332975119352">
        <ele>798.02999999999997</ele>
        <time>2017-06-30T08:29:47Z</time>
      </trkpt>
      <trkpt lat="62.07784197293222" lon="9.962518969550729">
        <ele>797.54999999999995</ele>
        <time>2017-06-30T08:29:48Z</time>
      </trkpt>
      <trkpt lat="62.076368015259504" lon="9.964180011302233">
        <ele>794.66999999999996</ele>
        <time>2017-06-30T08:29:57Z</time>
      </trkpt>
      <trkpt lat="62.075062030926347" lon="9.966900022700429">
        <ele>789.38</ele>
        <time>2017-06-30T08:30:06Z</time>
      </trkpt>
      <trkpt lat="62.074218979105353" lon="9.970164019614458">
        <ele>783.13</ele>
        <time>2017-06-30T08:30:14Z</time>
      </trkpt>
      <trkpt lat="62.073381040245295" lon="9.973330032080412">
        <ele>781.69000000000005</ele>
        <time>2017-06-30T08:30:22Z</time>
      </trkpt>
      <trkpt lat="62.072629015892744" lon="9.974703993648291">
        <ele>783.13</ele>
        <time>2017-06-30T08:30:27Z</time>
      </trkpt>
      <trkpt lat="62.072500018402934" lon="9.975019991397858">
        <ele>783.13</ele>
        <time>2017-06-30T08:30:28Z</time>
      </trkpt>
      <trkpt lat="62.071819994598627" lon="9.976600985974073">
        <ele>782.16999999999996</ele>
        <time>2017-06-30T08:30:33Z</time>
      </trkpt>
      <trkpt lat="62.07165596075356" lon="9.976855041459203">
        <ele>781.69000000000005</ele>
        <time>2017-06-30T08:30:34Z</time>
      </trkpt>
      <trkpt lat="62.07148103043437" lon="9.97708504088223">
        <ele>781.69000000000005</ele>
        <time>2017-06-30T08:30:35Z</time>
      </trkpt>
      <trkpt lat="62.070249980315566" lon="9.979066019877791">
        <ele>778.80999999999995</ele>
        <time>2017-06-30T08:30:42Z</time>
      </trkpt>
      <trkpt lat="62.067461991682649" lon="9.984245030209422">
        <ele>775.91999999999996</ele>
        <time>2017-06-30T08:30:59Z</time>
      </trkpt>
      <trkpt lat="62.064216015860438" lon="9.990155026316643">
        <ele>781.69000000000005</ele>
        <time>2017-06-30T08:31:18Z</time>
      </trkpt>
      <trkpt lat="62.063139025121927" lon="9.99225402250886">
        <ele>787.46000000000004</ele>
        <time>2017-06-30T08:31:25Z</time>
      </trkpt>
      <trkpt lat="62.063032994046807" lon="9.99262098222971">
        <ele>787.94000000000005</ele>
        <time>2017-06-30T08:31:26Z</time>
      </trkpt>
      <trkpt lat="62.06222103908658" lon="9.996298039332032">
        <ele>790.82000000000005</ele>
        <time>2017-06-30T08:31:35Z</time>
      </trkpt>
      <trkpt lat="62.062110984697938" lon="9.996669022366405">
        <ele>790.34000000000003</ele>
        <time>2017-06-30T08:31:36Z</time>
      </trkpt>
      <trkpt lat="62.061980981379747" lon="9.997015027329326">
        <ele>790.82000000000005</ele>
        <time>2017-06-30T08:31:37Z</time>
      </trkpt>
      <trkpt lat="62.06183597445488" lon="9.997333958745003">
        <ele>790.82000000000005</ele>
        <time>2017-06-30T08:31:38Z</time>
      </trkpt>
      <trkpt lat="62.060625040903687" lon="9.999233968555927">
        <ele>791.29999999999995</ele>
        <time>2017-06-30T08:31:45Z</time>
      </trkpt>
      <trkpt lat="62.058995012193918" lon="10.00037700869143">
        <ele>793.22000000000003</ele>
        <time>2017-06-30T08:31:53Z</time>
      </trkpt>
      <trkpt lat="62.05695703625679" lon="10.000683031976223">
        <ele>795.63</ele>
        <time>2017-06-30T08:32:02Z</time>
      </trkpt>
      <trkpt lat="62.054905984550714" lon="10.000580018386245">
        <ele>800.91999999999996</ele>
        <time>2017-06-30T08:32:11Z</time>
      </trkpt>
      <trkpt lat="62.051945999264717" lon="9.99915299937129">
        <ele>802.84000000000003</ele>
        <time>2017-06-30T08:32:25Z</time>
      </trkpt>
      <trkpt lat="62.050026040524244" lon="9.997609974816442">
        <ele>797.07000000000005</ele>
        <time>2017-06-30T08:32:35Z</time>
      </trkpt>
      <trkpt lat="62.049128003418446" lon="9.997429009526968">
        <ele>793.71000000000004</ele>
        <time>2017-06-30T08:32:41Z</time>
      </trkpt>
      <trkpt lat="62.048870008438826" lon="9.997404031455517">
        <ele>793.71000000000004</ele>
        <time>2017-06-30T08:32:47Z</time>
      </trkpt>
      <trkpt lat="62.048733970150352" lon="9.997371006757021">
        <ele>793.71000000000004</ele>
        <time>2017-06-30T08:32:59Z</time>
      </trkpt>
      <trkpt lat="62.048738999292254" lon="9.997371006757021">
        <ele>794.19000000000005</ele>
        <time>2017-06-30T08:34:09Z</time>
      </trkpt>
      <trkpt lat="62.048762971535325" lon="9.997301017865539">
        <ele>796.59000000000003</ele>
        <time>2017-06-30T08:39:16Z</time>
      </trkpt>
      <trkpt lat="62.048765989020467" lon="9.997334964573383">
        <ele>797.07000000000005</ele>
        <time>2017-06-30T08:39:34Z</time>
      </trkpt>
      <trkpt lat="62.0485570281744" lon="9.997149975970388">
        <ele>794.19000000000005</ele>
        <time>2017-06-30T08:39:39Z</time>
      </trkpt>
      <trkpt lat="62.047573998570442" lon="9.996644966304302">
        <ele>786.98000000000002</ele>
        <time>2017-06-30T08:39:48Z</time>
      </trkpt>
      <trkpt lat="62.046239012852311" lon="9.996047001332045">
        <ele>779.76999999999998</ele>
        <time>2017-06-30T08:39:57Z</time>
      </trkpt>
      <trkpt lat="62.045240979641676" lon="9.996529966592789">
        <ele>777.36000000000001</ele>
        <time>2017-06-30T08:40:05Z</time>
      </trkpt>
      <trkpt lat="62.044340008869767" lon="9.997909041121602">
        <ele>772.08000000000004</ele>
        <time>2017-06-30T08:40:12Z</time>
      </trkpt>
      <trkpt lat="62.042500013485551" lon="10.001060971990228">
        <ele>772.55999999999995</ele>
        <time>2017-06-30T08:40:24Z</time>
      </trkpt>
      <trkpt lat="62.040420966222882" lon="10.004107039421797">
        <ele>775.91999999999996</ele>
        <time>2017-06-30T08:40:36Z</time>
      </trkpt>
      <trkpt lat="62.038678033277392" lon="10.005506984889507">
        <ele>779.28999999999996</ele>
        <time>2017-06-30T08:40:45Z</time>
      </trkpt>
      <trkpt lat="62.036695964634418" lon="10.007236003875732">
        <ele>785.04999999999995</ele>
        <time>2017-06-30T08:40:55Z</time>
      </trkpt>
      <trkpt lat="62.034574002027512" lon="10.008909031748772">
        <ele>786.5</ele>
        <time>2017-06-30T08:41:05Z</time>
      </trkpt>
      <trkpt lat="62.03375500626862" lon="10.00950900837779">
        <ele>786.01999999999998</ele>
        <time>2017-06-30T08:41:09Z</time>
      </trkpt>
      <trkpt lat="62.033548979088664" lon="10.00955100171268">
        <ele>785.52999999999997</ele>
        <time>2017-06-30T08:41:10Z</time>
      </trkpt>
      <trkpt lat="62.03229496255517" lon="10.00952904112637">
        <ele>785.04999999999995</ele>
        <time>2017-06-30T08:41:16Z</time>
      </trkpt>
      <trkpt lat="62.032102011144161" lon="10.009599030017853">
        <ele>785.52999999999997</ele>
        <time>2017-06-30T08:41:17Z</time>
      </trkpt>
      <trkpt lat="62.031911993399262" lon="10.009704977273941">
        <ele>785.52999999999997</ele>
        <time>2017-06-30T08:41:18Z</time>
      </trkpt>
      <trkpt lat="62.031720969825983" lon="10.009844033047557">
        <ele>785.52999999999997</ele>
        <time>2017-06-30T08:41:19Z</time>
      </trkpt>
      <trkpt lat="62.031532041728497" lon="10.010018963366747">
        <ele>785.52999999999997</ele>
        <time>2017-06-30T08:41:20Z</time>
      </trkpt>
      <trkpt lat="62.03134898096323" lon="10.010221973061562">
        <ele>785.04999999999995</ele>
        <time>2017-06-30T08:41:21Z</time>
      </trkpt>
      <trkpt lat="62.031169021502137" lon="10.010459013283253">
        <ele>785.04999999999995</ele>
        <time>2017-06-30T08:41:22Z</time>
      </trkpt>
      <trkpt lat="62.030991995707154" lon="10.010716002434492">
        <ele>785.04999999999995</ele>
        <time>2017-06-30T08:41:23Z</time>
      </trkpt>
      <trkpt lat="62.030817987397313" lon="10.011001992970705">
        <ele>785.04999999999995</ele>
        <time>2017-06-30T08:41:24Z</time>
      </trkpt>
      <trkpt lat="62.029028031975031" lon="10.013368036597967">
        <ele>782.16999999999996</ele>
        <time>2017-06-30T08:41:34Z</time>
      </trkpt>
      <trkpt lat="62.026741029694676" lon="10.014955988153815">
        <ele>778.80999999999995</ele>
        <time>2017-06-30T08:41:45Z</time>
      </trkpt>
      <trkpt lat="62.024470958858728" lon="10.015374999493361">
        <ele>775.44000000000005</ele>
        <time>2017-06-30T08:41:55Z</time>
      </trkpt>
      <trkpt lat="62.022439017891884" lon="10.015094038099051">
        <ele>773.03999999999996</ele>
        <time>2017-06-30T08:42:04Z</time>
      </trkpt>
      <trkpt lat="62.022235002368689" lon="10.015157992020249">
        <ele>772.55999999999995</ele>
        <time>2017-06-30T08:42:05Z</time>
      </trkpt>
      <trkpt lat="62.020804965868592" lon="10.015429984778166">
        <ele>770.63</ele>
        <time>2017-06-30T08:42:12Z</time>
      </trkpt>
      <trkpt lat="62.0206059794873" lon="10.015324959531426">
        <ele>770.14999999999998</ele>
        <time>2017-06-30T08:42:13Z</time>
      </trkpt>
      <trkpt lat="62.020409004762769" lon="10.015195962041616">
        <ele>770.14999999999998</ele>
        <time>2017-06-30T08:42:14Z</time>
      </trkpt>
      <trkpt lat="62.017745990306139" lon="10.013022031635046">
        <ele>765.83000000000004</ele>
        <time>2017-06-30T08:42:28Z</time>
      </trkpt>
      <trkpt lat="62.016571015119553" lon="10.012878030538559">
        <ele>761.5</ele>
        <time>2017-06-30T08:42:34Z</time>
      </trkpt>
      <trkpt lat="62.014513006433845" lon="10.012921029701829">
        <ele>754.28999999999996</ele>
        <time>2017-06-30T08:42:44Z</time>
      </trkpt>
      <trkpt lat="62.011911012232304" lon="10.011989967897534">
        <ele>748.51999999999998</ele>
        <time>2017-06-30T08:42:57Z</time>
      </trkpt>
      <trkpt lat="62.011201987043023" lon="10.0119140278548">
        <ele>744.67999999999995</ele>
        <time>2017-06-30T08:43:01Z</time>
      </trkpt>
      <trkpt lat="62.01104398816824" lon="10.011977981775999">
        <ele>743.24000000000001</ele>
        <time>2017-06-30T08:43:02Z</time>
      </trkpt>
      <trkpt lat="62.010884983465075" lon="10.012079989537597">
        <ele>741.78999999999996</ele>
        <time>2017-06-30T08:43:03Z</time>
      </trkpt>
      <trkpt lat="62.01072296127677" lon="10.012204963713884">
        <ele>740.83000000000004</ele>
        <time>2017-06-30T08:43:04Z</time>
      </trkpt>
      <trkpt lat="62.010558005422354" lon="10.012354999780655">
        <ele>740.35000000000002</ele>
        <time>2017-06-30T08:43:05Z</time>
      </trkpt>
      <trkpt lat="62.010395983234048" lon="10.012534037232399">
        <ele>739.38999999999999</ele>
        <time>2017-06-30T08:43:06Z</time>
      </trkpt>
      <trkpt lat="62.010229015722871" lon="10.012745009735227">
        <ele>738.90999999999997</ele>
        <time>2017-06-30T08:43:07Z</time>
      </trkpt>
      <trkpt lat="62.008858993649483" lon="10.014014029875398">
        <ele>736.02999999999997</ele>
        <time>2017-06-30T08:43:15Z</time>
      </trkpt>
      <trkpt lat="62.008671993389726" lon="10.014044959098101">
        <ele>735.54999999999995</ele>
        <time>2017-06-30T08:43:16Z</time>
      </trkpt>
      <trkpt lat="62.006355989724398" lon="10.013840021565557">
        <ele>733.13999999999999</ele>
        <time>2017-06-30T08:43:28Z</time>
      </trkpt>
      <trkpt lat="62.004667958244681" lon="10.013055978342891">
        <ele>731.22000000000003</ele>
        <time>2017-06-30T08:43:37Z</time>
      </trkpt>
      <trkpt lat="62.003348981961608" lon="10.012906026095152">
        <ele>730.25999999999999</ele>
        <time>2017-06-30T08:43:44Z</time>
      </trkpt>
      <trkpt lat="62.001242022961378" lon="10.013660984113812">
        <ele>728.34000000000003</ele>
        <time>2017-06-30T08:43:55Z</time>
      </trkpt>
      <trkpt lat="61.998312966898084" lon="10.015665013343096">
        <ele>725.92999999999995</ele>
        <time>2017-06-30T08:44:09Z</time>
      </trkpt>
      <trkpt lat="61.994411023333669" lon="10.018416959792376">
        <ele>720.64999999999998</ele>
        <time>2017-06-30T08:44:27Z</time>
      </trkpt>
      <trkpt lat="61.993187014013529" lon="10.020041037350893">
        <ele>719.20000000000005</ele>
        <time>2017-06-30T08:44:34Z</time>
      </trkpt>
      <trkpt lat="61.991800982505083" lon="10.022904966026545">
        <ele>716.79999999999995</ele>
        <time>2017-06-30T08:44:44Z</time>
      </trkpt>
      <trkpt lat="61.991055998951197" lon="10.026252027601004">
        <ele>715.84000000000003</ele>
        <time>2017-06-30T08:44:53Z</time>
      </trkpt>
      <trkpt lat="61.990733966231346" lon="10.027524987235665">
        <ele>714.88</ele>
        <time>2017-06-30T08:44:57Z</time>
      </trkpt>
      <trkpt lat="61.990627013146877" lon="10.027804020792246">
        <ele>714.88</ele>
        <time>2017-06-30T08:44:58Z</time>
      </trkpt>
      <trkpt lat="61.99050203897059" lon="10.028066039085388">
        <ele>714.88</ele>
        <time>2017-06-30T08:44:59Z</time>
      </trkpt>
      <trkpt lat="61.990366000682116" lon="10.028308024629951">
        <ele>714.88</ele>
        <time>2017-06-30T08:45:00Z</time>
      </trkpt>
      <trkpt lat="61.990216970443726" lon="10.028527965769172">
        <ele>714.39999999999998</ele>
        <time>2017-06-30T08:45:01Z</time>
      </trkpt>
      <trkpt lat="61.990058971568942" lon="10.028717983514071">
        <ele>714.39999999999998</ele>
        <time>2017-06-30T08:45:02Z</time>
      </trkpt>
      <trkpt lat="61.989889992401004" lon="10.028871959075332">
        <ele>713.91999999999996</ele>
        <time>2017-06-30T08:45:03Z</time>
      </trkpt>
      <trkpt lat="61.989714978262782" lon="10.028983019292355">
        <ele>713.91999999999996</ele>
        <time>2017-06-30T08:45:04Z</time>
      </trkpt>
      <trkpt lat="61.989535018801689" lon="10.029047979041934">
        <ele>713.91999999999996</ele>
        <time>2017-06-30T08:45:05Z</time>
      </trkpt>
      <trkpt lat="61.989352041855454" lon="10.029076980426908">
        <ele>713.91999999999996</ele>
        <time>2017-06-30T08:45:06Z</time>
      </trkpt>
      <trkpt lat="61.989165963605046" lon="10.029090978205204">
        <ele>713.91999999999996</ele>
        <time>2017-06-30T08:45:07Z</time>
      </trkpt>
      <trkpt lat="61.986978035420179" lon="10.029649967327714">
        <ele>712.47000000000003</ele>
        <time>2017-06-30T08:45:18Z</time>
      </trkpt>
      <trkpt lat="61.986568998545408" lon="10.02970302477479">
        <ele>712.47000000000003</ele>
        <time>2017-06-30T08:45:20Z</time>
      </trkpt>
      <trkpt lat="61.986370012164116" lon="10.029674023389816">
        <ele>712.47000000000003</ele>
        <time>2017-06-30T08:45:21Z</time>
      </trkpt>
      <trkpt lat="61.986173037439585" lon="10.029602022841573">
        <ele>712.47000000000003</ele>
        <time>2017-06-30T08:45:22Z</time>
      </trkpt>
      <trkpt lat="61.984156016260386" lon="10.028887968510389">
        <ele>711.50999999999999</ele>
        <time>2017-06-30T08:45:32Z</time>
      </trkpt>
      <trkpt lat="61.980944992974401" lon="10.028143990784883">
        <ele>710.07000000000005</ele>
        <time>2017-06-30T08:45:48Z</time>
      </trkpt>
      <trkpt lat="61.979262996464968" lon="10.028800964355469">
        <ele>708.63</ele>
        <time>2017-06-30T08:45:57Z</time>
      </trkpt>
      <trkpt lat="61.977260978892446" lon="10.029175970703363">
        <ele>708.14999999999998</ele>
        <time>2017-06-30T08:46:07Z</time>
      </trkpt>
      <trkpt lat="61.976113999262452" lon="10.028288997709751">
        <ele>707.66999999999996</ele>
        <time>2017-06-30T08:46:13Z</time>
      </trkpt>
      <trkpt lat="61.974558988586068" lon="10.02615999430418">
        <ele>708.14999999999998</ele>
        <time>2017-06-30T08:46:22Z</time>
      </trkpt>
      <trkpt lat="61.971738981083035" lon="10.023133037611842">
        <ele>708.14999999999998</ele>
        <time>2017-06-30T08:46:37Z</time>
      </trkpt>
      <trkpt lat="61.969411997124553" lon="10.021050972864032">
        <ele>710.07000000000005</ele>
        <time>2017-06-30T08:46:50Z</time>
      </trkpt>
      <trkpt lat="61.967622041702271" lon="10.021054996177554">
        <ele>707.66999999999996</ele>
        <time>2017-06-30T08:46:59Z</time>
      </trkpt>
      <trkpt lat="61.965182991698384" lon="10.020559960976243">
        <ele>707.66999999999996</ele>
        <time>2017-06-30T08:47:11Z</time>
      </trkpt>
      <trkpt lat="61.964114969596267" lon="10.019788993522525">
        <ele>708.14999999999998</ele>
        <time>2017-06-30T08:47:18Z</time>
      </trkpt>
      <trkpt lat="61.963082989677787" lon="10.01872600056231">
        <ele>708.14999999999998</ele>
        <time>2017-06-30T08:47:28Z</time>
      </trkpt>
      <trkpt lat="61.9618009775877" lon="10.018370021134615">
        <ele>707.66999999999996</ele>
        <time>2017-06-30T08:47:37Z</time>
      </trkpt>
      <trkpt lat="61.960566993802786" lon="10.017599975690246">
        <ele>708.63</ele>
        <time>2017-06-30T08:47:45Z</time>
      </trkpt>
      <trkpt lat="61.95945899002254" lon="10.016055023297668">
        <ele>708.63</ele>
        <time>2017-06-30T08:47:53Z</time>
      </trkpt>
      <trkpt lat="61.957914959639311" lon="10.015295958146453">
        <ele>708.14999999999998</ele>
        <time>2017-06-30T08:48:02Z</time>
      </trkpt>
      <trkpt lat="61.955684032291174" lon="10.015376005321741">
        <ele>709.11000000000001</ele>
        <time>2017-06-30T08:48:13Z</time>
      </trkpt>
      <trkpt lat="61.953912014141679" lon="10.015598963946104">
        <ele>708.63</ele>
        <time>2017-06-30T08:48:22Z</time>
      </trkpt>
      <trkpt lat="61.953745968639851" lon="10.015536015853286">
        <ele>708.63</ele>
        <time>2017-06-30T08:48:23Z</time>
      </trkpt>
      <trkpt lat="61.953587969765067" lon="10.015441970899701">
        <ele>708.63</ele>
        <time>2017-06-30T08:48:24Z</time>
      </trkpt>
      <trkpt lat="61.953437011688948" lon="10.015322025865316">
        <ele>709.11000000000001</ele>
        <time>2017-06-30T08:48:25Z</time>
      </trkpt>
      <trkpt lat="61.953296028077602" lon="10.01518196426332">
        <ele>709.11000000000001</ele>
        <time>2017-06-30T08:48:26Z</time>
      </trkpt>
      <trkpt lat="61.953160995617509" lon="10.015036035329103">
        <ele>708.63</ele>
        <time>2017-06-30T08:48:27Z</time>
      </trkpt>
      <trkpt lat="61.951623000204563" lon="10.013514971360564">
        <ele>708.63</ele>
        <time>2017-06-30T08:48:38Z</time>
      </trkpt>
      <trkpt lat="61.949818963184953" lon="10.013373987749219">
        <ele>710.54999999999995</ele>
        <time>2017-06-30T08:48:48Z</time>
      </trkpt>
      <trkpt lat="61.948834005743265" lon="10.014002965763211">
        <ele>711.99000000000001</ele>
        <time>2017-06-30T08:48:54Z</time>
      </trkpt>
      <trkpt lat="61.947105992585421" lon="10.016133980825543">
        <ele>707.66999999999996</ele>
        <time>2017-06-30T08:49:04Z</time>
      </trkpt>
      <trkpt lat="61.944371983408928" lon="10.019636023789644">
        <ele>706.71000000000004</ele>
        <time>2017-06-30T08:49:19Z</time>
      </trkpt>
      <trkpt lat="61.942342976108193" lon="10.022798012942076">
        <ele>705.75</ele>
        <time>2017-06-30T08:49:31Z</time>
      </trkpt>
      <trkpt lat="61.940151024609804" lon="10.026668021455407">
        <ele>704.29999999999995</ele>
        <time>2017-06-30T08:49:44Z</time>
      </trkpt>
      <trkpt lat="61.937539977952838" lon="10.030789989978075">
        <ele>703.34000000000003</ele>
        <time>2017-06-30T08:49:58Z</time>
      </trkpt>
      <trkpt lat="61.935529997572303" lon="10.032534012570977">
        <ele>702.38</ele>
        <time>2017-06-30T08:50:07Z</time>
      </trkpt>
      <trkpt lat="61.932679982855916" lon="10.03507599234581">
        <ele>705.25999999999999</ele>
        <time>2017-06-30T08:50:20Z</time>
      </trkpt>
      <trkpt lat="61.930686011910439" lon="10.03810697235167">
        <ele>701.89999999999998</ele>
        <time>2017-06-30T08:50:30Z</time>
      </trkpt>
      <trkpt lat="61.927421009168029" lon="10.043580019846559">
        <ele>701.89999999999998</ele>
        <time>2017-06-30T08:50:47Z</time>
      </trkpt>
      <trkpt lat="61.925631975755095" lon="10.046748965978622">
        <ele>699.98000000000002</ele>
        <time>2017-06-30T08:50:57Z</time>
      </trkpt>
      <trkpt lat="61.923382021486759" lon="10.050820978358388">
        <ele>699.01999999999998</ele>
        <time>2017-06-30T08:51:10Z</time>
      </trkpt>
      <trkpt lat="61.921933041885495" lon="10.053863022476435">
        <ele>698.04999999999995</ele>
        <time>2017-06-30T08:51:19Z</time>
      </trkpt>
      <trkpt lat="61.919977040961385" lon="10.05935300141573">
        <ele>697.57000000000005</ele>
        <time>2017-06-30T08:51:33Z</time>
      </trkpt>
      <trkpt lat="61.918074013665318" lon="10.06506803445518">
        <ele>699.01999999999998</ele>
        <time>2017-06-30T08:51:47Z</time>
      </trkpt>
      <trkpt lat="61.917087966576219" lon="10.067050019279122">
        <ele>699.98000000000002</ele>
        <time>2017-06-30T08:51:53Z</time>
      </trkpt>
      <trkpt lat="61.91696098074317" lon="10.067411027848721">
        <ele>699.5</ele>
        <time>2017-06-30T08:51:54Z</time>
      </trkpt>
      <trkpt lat="61.916850004345179" lon="10.067796008661389">
        <ele>699.5</ele>
        <time>2017-06-30T08:51:55Z</time>
      </trkpt>
      <trkpt lat="61.915857000276446" lon="10.071190008893609">
        <ele>699.5</ele>
        <time>2017-06-30T08:52:04Z</time>
      </trkpt>
      <trkpt lat="61.914387987926602" lon="10.075419014319777">
        <ele>700.46000000000004</ele>
        <time>2017-06-30T08:52:16Z</time>
      </trkpt>
      <trkpt lat="61.913293981924653" lon="10.07873497903347">
        <ele>699.5</ele>
        <time>2017-06-30T08:52:25Z</time>
      </trkpt>
      <trkpt lat="61.911710975691676" lon="10.08257900364697">
        <ele>699.01999999999998</ele>
        <time>2017-06-30T08:52:36Z</time>
      </trkpt>
      <trkpt lat="61.910812016576529" lon="10.085793966427445">
        <ele>699.01999999999998</ele>
        <time>2017-06-30T08:52:44Z</time>
      </trkpt>
      <trkpt lat="61.90931199118495" lon="10.090738032013178">
        <ele>699.01999999999998</ele>
        <time>2017-06-30T08:52:56Z</time>
      </trkpt>
      <trkpt lat="61.908227959647775" lon="10.09330197237432">
        <ele>699.5</ele>
        <time>2017-06-30T08:53:03Z</time>
      </trkpt>
      <trkpt lat="61.905661001801491" lon="10.097805988043547">
        <ele>703.34000000000003</ele>
        <time>2017-06-30T08:53:17Z</time>
      </trkpt>
      <trkpt lat="61.90445501357317" lon="10.100003974512219">
        <ele>711.02999999999997</ele>
        <time>2017-06-30T08:53:24Z</time>
      </trkpt>
      <trkpt lat="61.904325010254979" lon="10.100349979475141">
        <ele>711.99000000000001</ele>
        <time>2017-06-30T08:53:25Z</time>
      </trkpt>
      <trkpt lat="61.903909016400576" lon="10.101329991593957">
        <ele>714.39999999999998</ele>
        <time>2017-06-30T08:53:28Z</time>
      </trkpt>
      <trkpt lat="61.903734002262354" lon="10.10159402154386">
        <ele>714.88</ele>
        <time>2017-06-30T08:53:29Z</time>
      </trkpt>
      <trkpt lat="61.902524996548891" lon="10.103125981986523">
        <ele>723.04999999999995</ele>
        <time>2017-06-30T08:53:36Z</time>
      </trkpt>
      <trkpt lat="61.901560993865132" lon="10.105002019554377">
        <ele>731.70000000000005</ele>
        <time>2017-06-30T08:53:43Z</time>
      </trkpt>
      <trkpt lat="61.901459991931915" lon="10.105336038395762">
        <ele>732.65999999999997</ele>
        <time>2017-06-30T08:53:44Z</time>
      </trkpt>
      <trkpt lat="61.901369970291853" lon="10.105689000338316">
        <ele>733.13999999999999</ele>
        <time>2017-06-30T08:53:45Z</time>
      </trkpt>
      <trkpt lat="61.900582993403077" lon="10.108799021691084">
        <ele>736.02999999999997</ele>
        <time>2017-06-30T08:53:53Z</time>
      </trkpt>
      <trkpt lat="61.899064024910331" lon="10.113032972440124">
        <ele>737.95000000000005</ele>
        <time>2017-06-30T08:54:04Z</time>
      </trkpt>
      <trkpt lat="61.898587010800838" lon="10.115594984963536">
        <ele>736.02999999999997</ele>
        <time>2017-06-30T08:54:10Z</time>
      </trkpt>
      <trkpt lat="61.898481985554099" lon="10.115974014624953">
        <ele>736.02999999999997</ele>
        <time>2017-06-30T08:54:11Z</time>
      </trkpt>
      <trkpt lat="61.898356005549431" lon="10.116329994052649">
        <ele>736.02999999999997</ele>
        <time>2017-06-30T08:54:12Z</time>
      </trkpt>
      <trkpt lat="61.897138031199574" lon="10.119136003777385">
        <ele>737.47000000000003</ele>
        <time>2017-06-30T08:54:20Z</time>
      </trkpt>
      <trkpt lat="61.895834980532527" lon="10.121178003028035">
        <ele>743.24000000000001</ele>
        <time>2017-06-30T08:54:27Z</time>
      </trkpt>
      <trkpt lat="61.895244978368282" lon="10.122641986235976">
        <ele>741.30999999999995</ele>
        <time>2017-06-30T08:54:31Z</time>
      </trkpt>
      <trkpt lat="61.895070970058441" lon="10.122953038662672">
        <ele>740.83000000000004</ele>
        <time>2017-06-30T08:54:32Z</time>
      </trkpt>
      <trkpt lat="61.894881036132574" lon="10.123234000056982">
        <ele>740.83000000000004</ele>
        <time>2017-06-30T08:54:33Z</time>
      </trkpt>
      <trkpt lat="61.89467903226614" lon="10.12348503805697">
        <ele>740.83000000000004</ele>
        <time>2017-06-30T08:54:34Z</time>
      </trkpt>
      <trkpt lat="61.894481973722577" lon="10.12372300028801">
        <ele>741.30999999999995</ele>
        <time>2017-06-30T08:54:35Z</time>
      </trkpt>
      <trkpt lat="61.893965983763337" lon="10.124449962750077">
        <ele>743.72000000000003</ele>
        <time>2017-06-30T08:54:38Z</time>
      </trkpt>
      <trkpt lat="61.89382097683847" lon="10.12475598603487">
        <ele>744.67999999999995</ele>
        <time>2017-06-30T08:54:39Z</time>
      </trkpt>
      <trkpt lat="61.893693991005421" lon="10.125101990997791">
        <ele>745.15999999999997</ele>
        <time>2017-06-30T08:54:40Z</time>
      </trkpt>
      <trkpt lat="61.893578991293907" lon="10.125489989295602">
        <ele>746.12</ele>
        <time>2017-06-30T08:54:41Z</time>
      </trkpt>
      <trkpt lat="61.893473966047168" lon="10.125904977321625">
        <ele>746.12</ele>
        <time>2017-06-30T08:54:42Z</time>
      </trkpt>
      <trkpt lat="61.89242597669363" lon="10.130905034020543">
        <ele>751.40999999999997</ele>
        <time>2017-06-30T08:54:53Z</time>
      </trkpt>
      <trkpt lat="61.891947034746408" lon="10.135099003091455">
        <ele>752.85000000000002</ele>
        <time>2017-06-30T08:55:02Z</time>
      </trkpt>
      <trkpt lat="61.891477983444929" lon="10.137262037023902">
        <ele>755.73000000000002</ele>
        <time>2017-06-30T08:55:07Z</time>
      </trkpt>
      <trkpt lat="61.891421992331743" lon="10.137747013941407">
        <ele>755.73000000000002</ele>
        <time>2017-06-30T08:55:08Z</time>
      </trkpt>
      <trkpt lat="61.890988983213902" lon="10.141808968037367">
        <ele>754.28999999999996</ele>
        <time>2017-06-30T08:55:16Z</time>
      </trkpt>
      <trkpt lat="61.890570977702737" lon="10.144919995218515">
        <ele>759.58000000000004</ele>
        <time>2017-06-30T08:55:23Z</time>
      </trkpt>
      <trkpt lat="61.890538958832622" lon="10.14535803347826">
        <ele>760.53999999999996</ele>
        <time>2017-06-30T08:55:24Z</time>
      </trkpt>
      <trkpt lat="61.890539964661002" lon="10.14581099152565">
        <ele>761.5</ele>
        <time>2017-06-30T08:55:25Z</time>
      </trkpt>
      <trkpt lat="61.890566032379866" lon="10.146268978714943">
        <ele>762.46000000000004</ele>
        <time>2017-06-30T08:55:26Z</time>
      </trkpt>
      <trkpt lat="61.890654964372516" lon="10.147583009675145">
        <ele>764.38999999999999</ele>
        <time>2017-06-30T08:55:29Z</time>
      </trkpt>
      <trkpt lat="61.890644989907742" lon="10.148019036278129">
        <ele>765.35000000000002</ele>
        <time>2017-06-30T08:55:30Z</time>
      </trkpt>
      <trkpt lat="61.890613976866007" lon="10.148465959355235">
        <ele>766.30999999999995</ele>
        <time>2017-06-30T08:55:31Z</time>
      </trkpt>
      <trkpt lat="61.890380959957838" lon="10.150705017149448">
        <ele>769.66999999999996</ele>
        <time>2017-06-30T08:55:36Z</time>
      </trkpt>
      <trkpt lat="61.890366962179542" lon="10.15118395909667">
        <ele>771.11000000000001</ele>
        <time>2017-06-30T08:55:37Z</time>
      </trkpt>
      <trkpt lat="61.890367968007922" lon="10.151674970984459">
        <ele>771.60000000000002</ele>
        <time>2017-06-30T08:55:38Z</time>
      </trkpt>
      <trkpt lat="61.89023301936686" lon="10.154949026182294">
        <ele>777.36000000000001</ele>
        <time>2017-06-30T08:55:45Z</time>
      </trkpt>
      <trkpt lat="61.890078037977219" lon="10.156441004946828">
        <ele>778.80999999999995</ele>
        <time>2017-06-30T08:55:50Z</time>
      </trkpt>
      <trkpt lat="61.890052976086736" lon="10.156594980508089">
        <ele>778.80999999999995</ele>
        <time>2017-06-30T08:55:51Z</time>
      </trkpt>
      <trkpt lat="61.890030009672046" lon="10.156695982441306">
        <ele>778.80999999999995</ele>
        <time>2017-06-30T08:55:52Z</time>
      </trkpt>
      <trkpt lat="61.890008971095085" lon="10.156755996868014">
        <ele>778.80999999999995</ele>
        <time>2017-06-30T08:55:53Z</time>
      </trkpt>
      <trkpt lat="61.889992039650679" lon="10.156786004081368">
        <ele>778.80999999999995</ele>
        <time>2017-06-30T08:55:54Z</time>
      </trkpt>
      <trkpt lat="61.88997502438724" lon="10.156808970496058">
        <ele>778.80999999999995</ele>
        <time>2017-06-30T08:55:55Z</time>
      </trkpt>
      <trkpt lat="61.88995398581028" lon="10.1568310149014">
        <ele>778.80999999999995</ele>
        <time>2017-06-30T08:55:56Z</time>
      </trkpt>
      <trkpt lat="61.889686016365886" lon="10.157414982095361">
        <ele>779.28999999999996</ele>
        <time>2017-06-30T08:56:11Z</time>
      </trkpt>
      <trkpt lat="61.889642011374235" lon="10.157553032040596">
        <ele>779.28999999999996</ele>
        <time>2017-06-30T08:56:23Z</time>
      </trkpt>
      <trkpt lat="61.88963396474719" lon="10.157566023990512">
        <ele>778.80999999999995</ele>
        <time>2017-06-30T08:57:06Z</time>
      </trkpt>
      <trkpt lat="61.88963396474719" lon="10.157558983191848">
        <ele>778.80999999999995</ele>
        <time>2017-06-30T08:58:25Z</time>
      </trkpt>
      <trkpt lat="61.889638993889093" lon="10.157642969861627">
        <ele>779.28999999999996</ele>
        <time>2017-06-30T08:58:27Z</time>
      </trkpt>
      <trkpt lat="61.889691967517138" lon="10.158459031954408">
        <ele>781.21000000000004</ele>
        <time>2017-06-30T08:58:34Z</time>
      </trkpt>
      <trkpt lat="61.889690039679408" lon="10.158609990030527">
        <ele>781.69000000000005</ele>
        <time>2017-06-30T08:58:35Z</time>
      </trkpt>
      <trkpt lat="61.889678975567222" lon="10.158774023875594">
        <ele>781.69000000000005</ele>
        <time>2017-06-30T08:58:36Z</time>
      </trkpt>
      <trkpt lat="61.889659026637673" lon="10.158946020528674">
        <ele>781.69000000000005</ele>
        <time>2017-06-30T08:58:37Z</time>
      </trkpt>
      <trkpt lat="61.889629019424319" lon="10.159134026616812">
        <ele>782.16999999999996</ele>
        <time>2017-06-30T08:58:38Z</time>
      </trkpt>
      <trkpt lat="61.889261975884438" lon="10.16117200255394">
        <ele>782.16999999999996</ele>
        <time>2017-06-30T08:58:46Z</time>
      </trkpt>
      <trkpt lat="61.888735005632043" lon="10.164031991735101">
        <ele>781.21000000000004</ele>
        <time>2017-06-30T08:58:54Z</time>
      </trkpt>
      <trkpt lat="61.887849038466811" lon="10.168123031035066">
        <ele>781.69000000000005</ele>
        <time>2017-06-30T08:59:05Z</time>
      </trkpt>
      <trkpt lat="61.8876320309937" lon="10.168718984350562">
        <ele>781.21000000000004</ele>
        <time>2017-06-30T08:59:07Z</time>
      </trkpt>
      <trkpt lat="61.887499010190368" lon="10.168972034007311">
        <ele>780.73000000000002</ele>
        <time>2017-06-30T08:59:08Z</time>
      </trkpt>
      <trkpt lat="61.887369006872177" lon="10.169192980974913">
        <ele>780.73000000000002</ele>
        <time>2017-06-30T08:59:09Z</time>
      </trkpt>
      <trkpt lat="61.887234980240464" lon="10.169377969577909">
        <ele>781.21000000000004</ele>
        <time>2017-06-30T08:59:10Z</time>
      </trkpt>
      <trkpt lat="61.887103971093893" lon="10.169538985937834">
        <ele>780.73000000000002</ele>
        <time>2017-06-30T08:59:11Z</time>
      </trkpt>
      <trkpt lat="61.886874977499247" lon="10.169840985909104">
        <ele>781.69000000000005</ele>
        <time>2017-06-30T08:59:13Z</time>
      </trkpt>
      <trkpt lat="61.886791996657848" lon="10.17002203501761">
        <ele>782.16999999999996</ele>
        <time>2017-06-30T08:59:14Z</time>
      </trkpt>
      <trkpt lat="61.886728964745998" lon="10.170220015570521">
        <ele>782.16999999999996</ele>
        <time>2017-06-30T08:59:15Z</time>
      </trkpt>
      <trkpt lat="61.886693006381392" lon="10.170438028872013">
        <ele>782.16999999999996</ele>
        <time>2017-06-30T08:59:16Z</time>
      </trkpt>
      <trkpt lat="61.886684959754348" lon="10.170661993324757">
        <ele>782.16999999999996</ele>
        <time>2017-06-30T08:59:17Z</time>
      </trkpt>
      <trkpt lat="61.886701975017786" lon="10.170895010232925">
        <ele>782.16999999999996</ele>
        <time>2017-06-30T08:59:18Z</time>
      </trkpt>
      <trkpt lat="61.886737011373043" lon="10.171130960807204">
        <ele>781.69000000000005</ele>
        <time>2017-06-30T08:59:19Z</time>
      </trkpt>
      <trkpt lat="61.886782022193074" lon="10.171355009078979">
        <ele>781.21000000000004</ele>
        <time>2017-06-30T08:59:20Z</time>
      </trkpt>
      <trkpt lat="61.886830972507596" lon="10.17200100235641">
        <ele>780.25</ele>
        <time>2017-06-30T08:59:23Z</time>
      </trkpt>
      <trkpt lat="61.886799037456512" lon="10.172203006222844">
        <ele>779.76999999999998</ele>
        <time>2017-06-30T08:59:24Z</time>
      </trkpt>
      <trkpt lat="61.886734999716282" lon="10.172362010926008">
        <ele>779.76999999999998</ele>
        <time>2017-06-30T08:59:25Z</time>
      </trkpt>
      <trkpt lat="61.886641038581729" lon="10.172467036172748">
        <ele>779.76999999999998</ele>
        <time>2017-06-30T08:59:26Z</time>
      </trkpt>
      <trkpt lat="61.886523021385074" lon="10.172519003972411">
        <ele>780.25</ele>
        <time>2017-06-30T08:59:27Z</time>
      </trkpt>
      <trkpt lat="61.886395029723644" lon="10.172555968165398">
        <ele>780.73000000000002</ele>
        <time>2017-06-30T08:59:28Z</time>
      </trkpt>
      <trkpt lat="61.885204967111349" lon="10.173229034990072">
        <ele>783.61000000000001</ele>
        <time>2017-06-30T08:59:36Z</time>
      </trkpt>
      <trkpt lat="61.884919982403517" lon="10.173629019409418">
        <ele>784.09000000000003</ele>
        <time>2017-06-30T08:59:38Z</time>
      </trkpt>
      <trkpt lat="61.884792996570468" lon="10.173865975812078">
        <ele>784.09000000000003</ele>
        <time>2017-06-30T08:59:39Z</time>
      </trkpt>
      <trkpt lat="61.884679002687335" lon="10.174135034903884">
        <ele>784.57000000000005</ele>
        <time>2017-06-30T08:59:40Z</time>
      </trkpt>
      <trkpt lat="61.884571965783834" lon="10.174436029046774">
        <ele>784.57000000000005</ele>
        <time>2017-06-30T08:59:41Z</time>
      </trkpt>
      <trkpt lat="61.884473981335759" lon="10.174769964069128">
        <ele>784.09000000000003</ele>
        <time>2017-06-30T08:59:42Z</time>
      </trkpt>
      <trkpt lat="61.884384965524077" lon="10.175126027315855">
        <ele>784.09000000000003</ele>
        <time>2017-06-30T08:59:43Z</time>
      </trkpt>
      <trkpt lat="61.884301984682679" lon="10.175507990643382">
        <ele>783.61000000000001</ele>
        <time>2017-06-30T08:59:44Z</time>
      </trkpt>
      <trkpt lat="61.883204039186239" lon="10.180564038455486">
        <ele>780.73000000000002</ele>
        <time>2017-06-30T08:59:57Z</time>
      </trkpt>
      <trkpt lat="61.882191002368927" lon="10.182635961100459">
        <ele>780.73000000000002</ele>
        <time>2017-06-30T09:00:04Z</time>
      </trkpt>
      <trkpt lat="61.880562985315919" lon="10.185406012460589">
        <ele>780.25</ele>
        <time>2017-06-30T09:00:15Z</time>
      </trkpt>
      <trkpt lat="61.879650028422475" lon="10.186773017048836">
        <ele>779.28999999999996</ele>
        <time>2017-06-30T09:00:23Z</time>
      </trkpt>
      <trkpt lat="61.878024023026228" lon="10.18860999494791">
        <ele>776.88</ele>
        <time>2017-06-30T09:00:34Z</time>
      </trkpt>
      <trkpt lat="61.87693496234715" lon="10.189394960179925">
        <ele>780.25</ele>
        <time>2017-06-30T09:00:41Z</time>
      </trkpt>
      <trkpt lat="61.876798002049327" lon="10.189583972096443">
        <ele>779.76999999999998</ele>
        <time>2017-06-30T09:00:42Z</time>
      </trkpt>
      <trkpt lat="61.876671016216278" lon="10.189800979569554">
        <ele>779.76999999999998</ele>
        <time>2017-06-30T09:00:43Z</time>
      </trkpt>
      <trkpt lat="61.876051006838679" lon="10.190846035256982">
        <ele>777.84000000000003</ele>
        <time>2017-06-30T09:00:48Z</time>
      </trkpt>
      <trkpt lat="61.875911029055715" lon="10.190956005826592">
        <ele>777.84000000000003</ele>
        <time>2017-06-30T09:00:49Z</time>
      </trkpt>
      <trkpt lat="61.875768033787608" lon="10.191014008596539">
        <ele>778.32000000000005</ele>
        <time>2017-06-30T09:00:50Z</time>
      </trkpt>
      <trkpt lat="61.875624032691121" lon="10.191020965576172">
        <ele>778.80999999999995</ele>
        <time>2017-06-30T09:00:51Z</time>
      </trkpt>
      <trkpt lat="61.875481959432364" lon="10.190981989726424">
        <ele>779.28999999999996</ele>
        <time>2017-06-30T09:00:52Z</time>
      </trkpt>
      <trkpt lat="61.875339969992638" lon="10.190937984734774">
        <ele>779.28999999999996</ele>
        <time>2017-06-30T09:00:53Z</time>
      </trkpt>
      <trkpt lat="61.875069988891482" lon="10.190904038026929">
        <ele>779.76999999999998</ele>
        <time>2017-06-30T09:00:55Z</time>
      </trkpt>
      <trkpt lat="61.874935040250421" lon="10.190938990563154">
        <ele>780.25</ele>
        <time>2017-06-30T09:00:56Z</time>
      </trkpt>
      <trkpt lat="61.874805958941579" lon="10.191020965576172">
        <ele>779.76999999999998</ele>
        <time>2017-06-30T09:00:57Z</time>
      </trkpt>
      <trkpt lat="61.874685008078814" lon="10.191151974722743">
        <ele>779.76999999999998</ele>
        <time>2017-06-30T09:00:58Z</time>
      </trkpt>
      <trkpt lat="61.874567996710539" lon="10.191326988860965">
        <ele>779.76999999999998</ele>
        <time>2017-06-30T09:00:59Z</time>
      </trkpt>
      <trkpt lat="61.874458026140928" lon="10.191529998555779">
        <ele>779.28999999999996</ele>
        <time>2017-06-30T09:01:00Z</time>
      </trkpt>
      <trkpt lat="61.874348977580667" lon="10.191752035170794">
        <ele>778.80999999999995</ele>
        <time>2017-06-30T09:01:01Z</time>
      </trkpt>
      <trkpt lat="61.87323896214366" lon="10.194110032171011">
        <ele>777.36000000000001</ele>
        <time>2017-06-30T09:01:11Z</time>
      </trkpt>
      <trkpt lat="61.872930005192757" lon="10.194688970223069">
        <ele>776.88</ele>
        <time>2017-06-30T09:01:16Z</time>
      </trkpt>
      <trkpt lat="61.8728949688375" lon="10.194731969386339">
        <ele>776.39999999999998</ele>
        <time>2017-06-30T09:01:17Z</time>
      </trkpt>
      <trkpt lat="61.872868984937668" lon="10.194748984649777">
        <ele>776.88</ele>
        <time>2017-06-30T09:01:18Z</time>
      </trkpt>
      <trkpt lat="61.872753985226154" lon="10.194834982976317">
        <ele>776.88</ele>
        <time>2017-06-30T09:01:31Z</time>
      </trkpt>
      <trkpt lat="61.872755996882915" lon="10.194836994633079">
        <ele>776.88</ele>
        <time>2017-06-30T09:02:20Z</time>
      </trkpt>
      <trkpt lat="61.872750967741013" lon="10.194798018783331">
        <ele>783.61000000000001</ele>
        <time>2017-06-30T09:06:51Z</time>
      </trkpt>
      <trkpt lat="61.872752979397774" lon="10.194834982976317">
        <ele>790.34000000000003</ele>
        <time>2017-06-30T09:08:27Z</time>
      </trkpt>
      <trkpt lat="61.872752979397774" lon="10.194829031825066">
        <ele>789.86000000000001</ele>
        <time>2017-06-30T09:09:51Z</time>
      </trkpt>
      <trkpt lat="61.872754991054535" lon="10.194824002683163">
        <ele>789.86000000000001</ele>
        <time>2017-06-30T09:11:01Z</time>
      </trkpt>
      <trkpt lat="61.872663041576743" lon="10.195059031248093">
        <ele>789.38</ele>
        <time>2017-06-30T09:11:05Z</time>
      </trkpt>
      <trkpt lat="61.872609984129667" lon="10.19516103900969">
        <ele>789.38</ele>
        <time>2017-06-30T09:11:06Z</time>
      </trkpt>
      <trkpt lat="61.872548963874578" lon="10.195263968780637">
        <ele>788.89999999999998</ele>
        <time>2017-06-30T09:11:07Z</time>
      </trkpt>
      <trkpt lat="61.872480986639857" lon="10.195360025390983">
        <ele>788.89999999999998</ele>
        <time>2017-06-30T09:11:08Z</time>
      </trkpt>
      <trkpt lat="61.872412003576756" lon="10.195447029545903">
        <ele>788.89999999999998</ele>
        <time>2017-06-30T09:11:09Z</time>
      </trkpt>
      <trkpt lat="61.871615974232554" lon="10.196168040856719">
        <ele>786.5</ele>
        <time>2017-06-30T09:11:17Z</time>
      </trkpt>
      <trkpt lat="61.870149979367852" lon="10.196869019418955">
        <ele>784.09000000000003</ele>
        <time>2017-06-30T09:11:27Z</time>
      </trkpt>
      <trkpt lat="61.869116993620992" lon="10.197961013764143">
        <ele>780.73000000000002</ele>
        <time>2017-06-30T09:11:34Z</time>
      </trkpt>
      <trkpt lat="61.868136981502175" lon="10.19963102415204">
        <ele>776.39999999999998</ele>
        <time>2017-06-30T09:11:41Z</time>
      </trkpt>
      <trkpt lat="61.867969008162618" lon="10.199815006926656">
        <ele>776.39999999999998</ele>
        <time>2017-06-30T09:11:42Z</time>
      </trkpt>
      <trkpt lat="61.867794999852777" lon="10.199951967224479">
        <ele>775.91999999999996</ele>
        <time>2017-06-30T09:11:43Z</time>
      </trkpt>
      <trkpt lat="61.867615962401032" lon="10.200045006349683">
        <ele>776.39999999999998</ele>
        <time>2017-06-30T09:11:44Z</time>
      </trkpt>
      <trkpt lat="61.867436002939939" lon="10.200122036039829">
        <ele>776.39999999999998</ele>
        <time>2017-06-30T09:11:45Z</time>
      </trkpt>
      <trkpt lat="61.866904003545642" lon="10.200411966070533">
        <ele>774.96000000000004</ele>
        <time>2017-06-30T09:11:48Z</time>
      </trkpt>
      <trkpt lat="61.866738041862845" lon="10.200585974380374">
        <ele>774.48000000000002</ele>
        <time>2017-06-30T09:11:49Z</time>
      </trkpt>
      <trkpt lat="61.866582976654172" lon="10.200803987681866">
        <ele>774</ele>
        <time>2017-06-30T09:11:50Z</time>
      </trkpt>
      <trkpt lat="61.866431012749672" lon="10.201056031510234">
        <ele>773.51999999999998</ele>
        <time>2017-06-30T09:11:51Z</time>
      </trkpt>
      <trkpt lat="61.86627795919776" lon="10.201324000954628">
        <ele>773.03999999999996</ele>
        <time>2017-06-30T09:11:52Z</time>
      </trkpt>
      <trkpt lat="61.863714018836617" lon="10.205498021095991">
        <ele>765.83000000000004</ele>
        <time>2017-06-30T09:12:08Z</time>
      </trkpt>
      <trkpt lat="61.862788992002606" lon="10.207095025107265">
        <ele>761.5</ele>
        <time>2017-06-30T09:12:14Z</time>
      </trkpt>
      <trkpt lat="61.862618001177907" lon="10.207305997610092">
        <ele>761.01999999999998</ele>
        <time>2017-06-30T09:12:15Z</time>
      </trkpt>
      <trkpt lat="61.862438963726163" lon="10.207487968727946">
        <ele>760.53999999999996</ele>
        <time>2017-06-30T09:12:16Z</time>
      </trkpt>
      <trkpt lat="61.860628975555301" lon="10.209451010450721">
        <ele>754.76999999999998</ele>
        <time>2017-06-30T09:12:26Z</time>
      </trkpt>
      <trkpt lat="61.859445031732321" lon="10.211172988638282">
        <ele>750.92999999999995</ele>
        <time>2017-06-30T09:12:33Z</time>
      </trkpt>
      <trkpt lat="61.859276974573731" lon="10.211420003324747">
        <ele>750.45000000000005</ele>
        <time>2017-06-30T09:12:34Z</time>
      </trkpt>
      <trkpt lat="61.859120987355709" lon="10.211698031052947">
        <ele>749</ele>
        <time>2017-06-30T09:12:35Z</time>
      </trkpt>
      <trkpt lat="61.857708971947432" lon="10.215162020176649">
        <ele>742.27999999999997</ele>
        <time>2017-06-30T09:12:45Z</time>
      </trkpt>
      <trkpt lat="61.857614004984498" lon="10.215538032352924">
        <ele>742.27999999999997</ele>
        <time>2017-06-30T09:12:46Z</time>
      </trkpt>
      <trkpt lat="61.857533035799861" lon="10.215932987630367">
        <ele>742.27999999999997</ele>
        <time>2017-06-30T09:12:47Z</time>
      </trkpt>
      <trkpt lat="61.857322985306382" lon="10.217126989737153">
        <ele>741.78999999999996</ele>
        <time>2017-06-30T09:12:50Z</time>
      </trkpt>
      <trkpt lat="61.857222989201546" lon="10.217493027448654">
        <ele>741.78999999999996</ele>
        <time>2017-06-30T09:12:51Z</time>
      </trkpt>
      <trkpt lat="61.857102960348129" lon="10.217831991612911">
        <ele>741.78999999999996</ele>
        <time>2017-06-30T09:12:52Z</time>
      </trkpt>
      <trkpt lat="61.856964994221926" lon="10.218131979927421">
        <ele>741.78999999999996</ele>
        <time>2017-06-30T09:12:53Z</time>
      </trkpt>
      <trkpt lat="61.856815963983536" lon="10.218405984342098">
        <ele>741.78999999999996</ele>
        <time>2017-06-30T09:12:54Z</time>
      </trkpt>
      <trkpt lat="61.856658970937133" lon="10.218665990978479">
        <ele>741.78999999999996</ele>
        <time>2017-06-30T09:12:55Z</time>
      </trkpt>
      <trkpt lat="61.856357976794243" lon="10.21924601867795">
        <ele>740.83000000000004</ele>
        <time>2017-06-30T09:12:57Z</time>
      </trkpt>
      <trkpt lat="61.856224033981562" lon="10.219576014205813">
        <ele>740.35000000000002</ele>
        <time>2017-06-30T09:12:58Z</time>
      </trkpt>
      <trkpt lat="61.856104005128145" lon="10.219925958663225">
        <ele>739.38999999999999</ele>
        <time>2017-06-30T09:12:59Z</time>
      </trkpt>
      <trkpt lat="61.854863986372948" lon="10.22405999712646">
        <ele>731.22000000000003</ele>
        <time>2017-06-30T09:13:10Z</time>
      </trkpt>
      <trkpt lat="61.853316016495228" lon="10.229272032156587">
        <ele>716.79999999999995</ele>
        <time>2017-06-30T09:13:24Z</time>
      </trkpt>
      <trkpt lat="61.852908991277218" lon="10.230266964063048">
        <ele>712.95000000000005</ele>
        <time>2017-06-30T09:13:27Z</time>
      </trkpt>
      <trkpt lat="61.852747974917293" lon="10.230549015104771">
        <ele>711.50999999999999</ele>
        <time>2017-06-30T09:13:28Z</time>
      </trkpt>
      <trkpt lat="61.851674001663923" lon="10.23302000015974">
        <ele>706.23000000000002</ele>
        <time>2017-06-30T09:13:36Z</time>
      </trkpt>
      <trkpt lat="61.851305030286312" lon="10.233789961785078">
        <ele>705.75</ele>
        <time>2017-06-30T09:13:39Z</time>
      </trkpt>
      <trkpt lat="61.851167986169457" lon="10.233966987580061">
        <ele>705.25999999999999</ele>
        <time>2017-06-30T09:13:40Z</time>
      </trkpt>
      <trkpt lat="61.851027002558112" lon="10.234095985069871">
        <ele>705.25999999999999</ele>
        <time>2017-06-30T09:13:41Z</time>
      </trkpt>
      <trkpt lat="61.850880989804864" lon="10.234163962304592">
        <ele>705.75</ele>
        <time>2017-06-30T09:13:42Z</time>
      </trkpt>
      <trkpt lat="61.850731037557125" lon="10.234173014760017">
        <ele>705.75</ele>
        <time>2017-06-30T09:13:43Z</time>
      </trkpt>
      <trkpt lat="61.850582007318735" lon="10.234139990061522">
        <ele>706.23000000000002</ele>
        <time>2017-06-30T09:13:44Z</time>
      </trkpt>
      <trkpt lat="61.850429037585855" lon="10.234076036140323">
        <ele>706.23000000000002</ele>
        <time>2017-06-30T09:13:45Z</time>
      </trkpt>
      <trkpt lat="61.850275984033942" lon="10.23400504142046">
        <ele>706.23000000000002</ele>
        <time>2017-06-30T09:13:46Z</time>
      </trkpt>
      <trkpt lat="61.8487239908427" lon="10.233569014817476">
        <ele>705.25999999999999</ele>
        <time>2017-06-30T09:13:55Z</time>
      </trkpt>
      <trkpt lat="61.848540008068085" lon="10.233634980395436">
        <ele>705.75</ele>
        <time>2017-06-30T09:13:56Z</time>
      </trkpt>
      <trkpt lat="61.848348984494805" lon="10.233731037005782">
        <ele>706.23000000000002</ele>
        <time>2017-06-30T09:13:57Z</time>
      </trkpt>
      <trkpt lat="61.848157960921526" lon="10.233874032273889">
        <ele>707.19000000000005</ele>
        <time>2017-06-30T09:13:58Z</time>
      </trkpt>
      <trkpt lat="61.847969032824039" lon="10.23404804058373">
        <ele>708.14999999999998</ele>
        <time>2017-06-30T09:13:59Z</time>
      </trkpt>
      <trkpt lat="61.847783038392663" lon="10.234246021136642">
        <ele>708.63</ele>
        <time>2017-06-30T09:14:00Z</time>
      </trkpt>
      <trkpt lat="61.84593197889626" lon="10.23667199537158">
        <ele>720.15999999999997</ele>
        <time>2017-06-30T09:14:10Z</time>
      </trkpt>
      <trkpt lat="61.844352995976806" lon="10.238736039027572">
        <ele>733.62</ele>
        <time>2017-06-30T09:14:19Z</time>
      </trkpt>
      <trkpt lat="61.844159960746765" lon="10.23884198628366">
        <ele>734.58000000000004</ele>
        <time>2017-06-30T09:14:20Z</time>
      </trkpt>
      <trkpt lat="61.843960974365473" lon="10.238895965740085">
        <ele>736.02999999999997</ele>
        <time>2017-06-30T09:14:21Z</time>
      </trkpt>
      <trkpt lat="61.843755031004548" lon="10.238889008760452">
        <ele>737.95000000000005</ele>
        <time>2017-06-30T09:14:22Z</time>
      </trkpt>
      <trkpt lat="61.843551015481353" lon="10.238826982676983">
        <ele>739.38999999999999</ele>
        <time>2017-06-30T09:14:23Z</time>
      </trkpt>
      <trkpt lat="61.843348005786538" lon="10.238725980743766">
        <ele>740.83000000000004</ele>
        <time>2017-06-30T09:14:24Z</time>
      </trkpt>
      <trkpt lat="61.843147007748485" lon="10.238591032102704">
        <ele>742.27999999999997</ele>
        <time>2017-06-30T09:14:25Z</time>
      </trkpt>
      <trkpt lat="61.842946009710431" lon="10.238419035449624">
        <ele>743.24000000000001</ele>
        <time>2017-06-30T09:14:26Z</time>
      </trkpt>
      <trkpt lat="61.841939007863402" lon="10.237543964758515">
        <ele>745.63999999999999</ele>
        <time>2017-06-30T09:14:31Z</time>
      </trkpt>
      <trkpt lat="61.841724012047052" lon="10.237456960603595">
        <ele>746.12</ele>
        <time>2017-06-30T09:14:32Z</time>
      </trkpt>
      <trkpt lat="61.841510022059083" lon="10.237424019724131">
        <ele>747.08000000000004</ele>
        <time>2017-06-30T09:14:33Z</time>
      </trkpt>
      <trkpt lat="61.838892018422484" lon="10.237536001950502">
        <ele>762.94000000000005</ele>
        <time>2017-06-30T09:14:45Z</time>
      </trkpt>
      <trkpt lat="61.837616041302681" lon="10.237381020560861">
        <ele>771.11000000000001</ele>
        <time>2017-06-30T09:14:51Z</time>
      </trkpt>
      <trkpt lat="61.837414037436247" lon="10.237223021686077">
        <ele>772.55999999999995</ele>
        <time>2017-06-30T09:14:52Z</time>
      </trkpt>
      <trkpt lat="61.837211027741432" lon="10.237021017819643">
        <ele>774</ele>
        <time>2017-06-30T09:14:53Z</time>
      </trkpt>
      <trkpt lat="61.835301965475082" lon="10.235082032158971">
        <ele>782.16999999999996</ele>
        <time>2017-06-30T09:15:02Z</time>
      </trkpt>
      <trkpt lat="61.833293996751308" lon="10.233976962044835">
        <ele>776.39999999999998</ele>
        <time>2017-06-30T09:15:11Z</time>
      </trkpt>
      <trkpt lat="61.832924019545317" lon="10.233692983165383">
        <ele>775.91999999999996</ele>
        <time>2017-06-30T09:15:13Z</time>
      </trkpt>
      <trkpt lat="61.832746993750334" lon="10.233489973470569">
        <ele>775.44000000000005</ele>
        <time>2017-06-30T09:15:14Z</time>
      </trkpt>
      <trkpt lat="61.832578014582396" lon="10.233238013461232">
        <ele>775.44000000000005</ele>
        <time>2017-06-30T09:15:15Z</time>
      </trkpt>
      <trkpt lat="61.83241699822247" lon="10.232946993783116">
        <ele>775.44000000000005</ele>
        <time>2017-06-30T09:15:16Z</time>
      </trkpt>
      <trkpt lat="61.832261011004448" lon="10.232625966891646">
        <ele>776.39999999999998</ele>
        <time>2017-06-30T09:15:17Z</time>
      </trkpt>
      <trkpt lat="61.830597035586834" lon="10.229251999408007">
        <ele>776.88</ele>
        <time>2017-06-30T09:15:27Z</time>
      </trkpt>
      <trkpt lat="61.828323025256395" lon="10.225432030856609">
        <ele>769.66999999999996</ele>
        <time>2017-06-30T09:15:39Z</time>
      </trkpt>
      <trkpt lat="61.825823038816452" lon="10.221703005954623">
        <ele>772.55999999999995</ele>
        <time>2017-06-30T09:15:52Z</time>
      </trkpt>
      <trkpt lat="61.824157973751426" lon="10.218455018475652">
        <ele>783.61000000000001</ele>
        <time>2017-06-30T09:16:02Z</time>
      </trkpt>
      <trkpt lat="61.823278041556478" lon="10.216621980071068">
        <ele>786.01999999999998</ele>
        <time>2017-06-30T09:16:08Z</time>
      </trkpt>
      <trkpt lat="61.823115013539791" lon="10.216419976204634">
        <ele>786.01999999999998</ele>
        <time>2017-06-30T09:16:09Z</time>
      </trkpt>
      <trkpt lat="61.82294100522995" lon="10.216248985379934">
        <ele>786.01999999999998</ele>
        <time>2017-06-30T09:16:10Z</time>
      </trkpt>
      <trkpt lat="61.820501033216715" lon="10.214244034141302">
        <ele>785.52999999999997</ele>
        <time>2017-06-30T09:16:23Z</time>
      </trkpt>
      <trkpt lat="61.817767024040222" lon="10.211992990225554">
        <ele>772.08000000000004</ele>
        <time>2017-06-30T09:16:37Z</time>
      </trkpt>
      <trkpt lat="61.816845014691353" lon="10.210177972912788">
        <ele>766.78999999999996</ele>
        <time>2017-06-30T09:16:43Z</time>
      </trkpt>
      <trkpt lat="61.816685004159808" lon="10.209906985983253">
        <ele>766.30999999999995</ele>
        <time>2017-06-30T09:16:44Z</time>
      </trkpt>
      <trkpt lat="61.81651602499187" lon="10.209682015702128">
        <ele>766.30999999999995</ele>
        <time>2017-06-30T09:16:45Z</time>
      </trkpt>
      <trkpt lat="61.816338999196887" lon="10.209500966593623">
        <ele>766.30999999999995</ele>
        <time>2017-06-30T09:16:46Z</time>
      </trkpt>
      <trkpt lat="61.816153004765511" lon="10.209375992417336">
        <ele>766.30999999999995</ele>
        <time>2017-06-30T09:16:47Z</time>
      </trkpt>
      <trkpt lat="61.815958963707089" lon="10.209296029061079">
        <ele>766.30999999999995</ele>
        <time>2017-06-30T09:16:48Z</time>
      </trkpt>
      <trkpt lat="61.815760983154178" lon="10.209255963563919">
        <ele>766.78999999999996</ele>
        <time>2017-06-30T09:16:49Z</time>
      </trkpt>
      <trkpt lat="61.815558979287744" lon="10.209241965785623">
        <ele>767.26999999999998</ele>
        <time>2017-06-30T09:16:50Z</time>
      </trkpt>
      <trkpt lat="61.815358987078071" lon="10.209240037947893">
        <ele>767.26999999999998</ele>
        <time>2017-06-30T09:16:51Z</time>
      </trkpt>
      <trkpt lat="61.812976012006402" lon="10.209615966305137">
        <ele>765.35000000000002</ele>
        <time>2017-06-30T09:17:02Z</time>
      </trkpt>
      <trkpt lat="61.811313964426517" lon="10.210874006152153">
        <ele>762.94000000000005</ele>
        <time>2017-06-30T09:17:09Z</time>
      </trkpt>
      <trkpt lat="61.807314036414027" lon="10.215383972972631">
        <ele>759.10000000000002</ele>
        <time>2017-06-30T09:17:27Z</time>
      </trkpt>
      <trkpt lat="61.804170990362763" lon="10.219820011407137">
        <ele>760.05999999999995</ele>
        <time>2017-06-30T09:17:43Z</time>
      </trkpt>
      <trkpt lat="61.801465982571244" lon="10.223105968907475">
        <ele>761.01999999999998</ele>
        <time>2017-06-30T09:17:56Z</time>
      </trkpt>
      <trkpt lat="61.799853974953294" lon="10.223819017410278">
        <ele>760.05999999999995</ele>
        <time>2017-06-30T09:18:03Z</time>
      </trkpt>
      <trkpt lat="61.796044986695051" lon="10.224170973524451">
        <ele>760.05999999999995</ele>
        <time>2017-06-30T09:18:19Z</time>
      </trkpt>
      <trkpt lat="61.793026998639107" lon="10.223591029644012">
        <ele>758.13999999999999</ele>
        <time>2017-06-30T09:18:32Z</time>
      </trkpt>
      <trkpt lat="61.790833035483956" lon="10.22358600050211">
        <ele>758.62</ele>
        <time>2017-06-30T09:18:42Z</time>
      </trkpt>
      <trkpt lat="61.789592010900378" lon="10.224509015679359">
        <ele>757.17999999999995</ele>
        <time>2017-06-30T09:18:48Z</time>
      </trkpt>
      <trkpt lat="61.788072036579251" lon="10.226483959704638">
        <ele>761.01999999999998</ele>
        <time>2017-06-30T09:18:58Z</time>
      </trkpt>
      <trkpt lat="61.786660021170974" lon="10.228367038071156">
        <ele>760.53999999999996</ele>
        <time>2017-06-30T09:19:07Z</time>
      </trkpt>
      <trkpt lat="61.786315022036433" lon="10.229034991934896">
        <ele>760.05999999999995</ele>
        <time>2017-06-30T09:19:11Z</time>
      </trkpt>
      <trkpt lat="61.78624402731657" lon="10.229121996089816">
        <ele>760.05999999999995</ele>
        <time>2017-06-30T09:19:12Z</time>
      </trkpt>
      <trkpt lat="61.786173032596707" lon="10.229139011353254">
        <ele>760.05999999999995</ele>
        <time>2017-06-30T09:19:13Z</time>
      </trkpt>
      <trkpt lat="61.7860939912498" lon="10.229089977219701">
        <ele>760.05999999999995</ele>
        <time>2017-06-30T09:19:14Z</time>
      </trkpt>
      <trkpt lat="61.786020984873176" lon="10.228973971679807">
        <ele>759.58000000000004</ele>
        <time>2017-06-30T09:19:15Z</time>
      </trkpt>
      <trkpt lat="61.78594596683979" lon="10.228815972805023">
        <ele>759.10000000000002</ele>
        <time>2017-06-30T09:19:16Z</time>
      </trkpt>
      <trkpt lat="61.785868015140295" lon="10.228630984202027">
        <ele>757.65999999999997</ele>
        <time>2017-06-30T09:19:17Z</time>
      </trkpt>
      <trkpt lat="61.784837041050196" lon="10.226204004138708">
        <ele>762.46000000000004</ele>
        <time>2017-06-30T09:19:28Z</time>
      </trkpt>
      <trkpt lat="61.784602012485266" lon="10.225480981171131">
        <ele>764.38999999999999</ele>
        <time>2017-06-30T09:19:31Z</time>
      </trkpt>
      <trkpt lat="61.784540992230177" lon="10.225222986191511">
        <ele>764.87</ele>
        <time>2017-06-30T09:19:32Z</time>
      </trkpt>
      <trkpt lat="61.784489024430513" lon="10.224959040060639">
        <ele>765.83000000000004</ele>
        <time>2017-06-30T09:19:33Z</time>
      </trkpt>
      <trkpt lat="61.784385005012155" lon="10.224465010687709">
        <ele>766.78999999999996</ele>
        <time>2017-06-30T09:19:35Z</time>
      </trkpt>
      <trkpt lat="61.784305041655898" lon="10.224285973235965">
        <ele>767.75</ele>
        <time>2017-06-30T09:19:36Z</time>
      </trkpt>
      <trkpt lat="61.784214014187455" lon="10.22416602820158">
        <ele>767.75</ele>
        <time>2017-06-30T09:19:37Z</time>
      </trkpt>
      <trkpt lat="61.784112006425858" lon="10.224127974361181">
        <ele>767.75</ele>
        <time>2017-06-30T09:19:38Z</time>
      </trkpt>
      <trkpt lat="61.78400999866426" lon="10.224173991009593">
        <ele>768.71000000000004</ele>
        <time>2017-06-30T09:19:39Z</time>
      </trkpt>
      <trkpt lat="61.783916037529707" lon="10.224279016256332">
        <ele>769.19000000000005</ele>
        <time>2017-06-30T09:19:40Z</time>
      </trkpt>
      <trkpt lat="61.783844036981463" lon="10.224441038444638">
        <ele>769.66999999999996</ele>
        <time>2017-06-30T09:19:41Z</time>
      </trkpt>
      <trkpt lat="61.783803971484303" lon="10.224660979583859">
        <ele>770.14999999999998</ele>
        <time>2017-06-30T09:19:42Z</time>
      </trkpt>
      <trkpt lat="61.783789973706007" lon="10.224901959300041">
        <ele>771.11000000000001</ele>
        <time>2017-06-30T09:19:43Z</time>
      </trkpt>
      <trkpt lat="61.783792991191149" lon="10.225171018391848">
        <ele>772.08000000000004</ele>
        <time>2017-06-30T09:19:44Z</time>
      </trkpt>
      <trkpt lat="61.783790979534388" lon="10.225442005321383">
        <ele>772.55999999999995</ele>
        <time>2017-06-30T09:19:45Z</time>
      </trkpt>
      <trkpt lat="61.783767007291317" lon="10.225715003907681">
        <ele>774</ele>
        <time>2017-06-30T09:19:46Z</time>
      </trkpt>
      <trkpt lat="61.783728031441569" lon="10.225978028029203">
        <ele>774.48000000000002</ele>
        <time>2017-06-30T09:19:47Z</time>
      </trkpt>
      <trkpt lat="61.783661982044578" lon="10.226200986653566">
        <ele>775.44000000000005</ele>
        <time>2017-06-30T09:19:48Z</time>
      </trkpt>
      <trkpt lat="61.783573972061276" lon="10.226334007456899">
        <ele>776.88</ele>
        <time>2017-06-30T09:19:49Z</time>
      </trkpt>
      <trkpt lat="61.78347397595644" lon="10.226386981084943">
        <ele>778.32000000000005</ele>
        <time>2017-06-30T09:19:50Z</time>
      </trkpt>
      <trkpt lat="61.783357970416546" lon="10.226376000791788">
        <ele>778.32000000000005</ele>
        <time>2017-06-30T09:19:51Z</time>
      </trkpt>
      <trkpt lat="61.783238025382161" lon="10.22633702494204">
        <ele>778.80999999999995</ele>
        <time>2017-06-30T09:19:52Z</time>
      </trkpt>
      <trkpt lat="61.783116990700364" lon="10.226268041878939">
        <ele>780.73000000000002</ele>
        <time>2017-06-30T09:19:53Z</time>
      </trkpt>
      <trkpt lat="61.782991010695696" lon="10.226171985268593">
        <ele>782.64999999999998</ele>
        <time>2017-06-30T09:19:54Z</time>
      </trkpt>
      <trkpt lat="61.782877016812563" lon="10.226038964465261">
        <ele>782.64999999999998</ele>
        <time>2017-06-30T09:19:55Z</time>
      </trkpt>
      <trkpt lat="61.782775009050965" lon="10.2258659619838">
        <ele>783.61000000000001</ele>
        <time>2017-06-30T09:19:56Z</time>
      </trkpt>
      <trkpt lat="61.782705020159483" lon="10.225664963945746">
        <ele>784.57000000000005</ele>
        <time>2017-06-30T09:19:57Z</time>
      </trkpt>
      <trkpt lat="61.782668977975845" lon="10.225429013371468">
        <ele>786.01999999999998</ele>
        <time>2017-06-30T09:19:58Z</time>
      </trkpt>
      <trkpt lat="61.782669983804226" lon="10.225180992856622">
        <ele>786.98000000000002</ele>
        <time>2017-06-30T09:19:59Z</time>
      </trkpt>
      <trkpt lat="61.782681969925761" lon="10.224905982613564">
        <ele>790.34000000000003</ele>
        <time>2017-06-30T09:20:00Z</time>
      </trkpt>
      <trkpt lat="61.782705020159483" lon="10.224624015390873">
        <ele>791.77999999999997</ele>
        <time>2017-06-30T09:20:01Z</time>
      </trkpt>
      <trkpt lat="61.782748019322753" lon="10.223784986883402">
        <ele>796.11000000000001</ele>
        <time>2017-06-30T09:20:04Z</time>
      </trkpt>
      <trkpt lat="61.782708959653974" lon="10.223562028259039">
        <ele>797.54999999999995</ele>
        <time>2017-06-30T09:20:05Z</time>
      </trkpt>
      <trkpt lat="61.782641988247633" lon="10.223390031605959">
        <ele>798.99000000000001</ele>
        <time>2017-06-30T09:20:06Z</time>
      </trkpt>
      <trkpt lat="61.782550038769841" lon="10.223274026066065">
        <ele>800.44000000000005</ele>
        <time>2017-06-30T09:20:07Z</time>
      </trkpt>
      <trkpt lat="61.782450964674354" lon="10.223204037174582">
        <ele>801.88</ele>
        <time>2017-06-30T09:20:08Z</time>
      </trkpt>
      <trkpt lat="61.782343005761504" lon="10.223146034404635">
        <ele>802.84000000000003</ele>
        <time>2017-06-30T09:20:09Z</time>
      </trkpt>
      <trkpt lat="61.782222976908088" lon="10.223108986392617">
        <ele>803.79999999999995</ele>
        <time>2017-06-30T09:20:10Z</time>
      </trkpt>
      <trkpt lat="61.782090961933136" lon="10.223085014149547">
        <ele>804.75999999999999</ele>
        <time>2017-06-30T09:20:11Z</time>
      </trkpt>
      <trkpt lat="61.780922021716833" lon="10.22309398278594">
        <ele>814.85000000000002</ele>
        <time>2017-06-30T09:20:18Z</time>
      </trkpt>
      <trkpt lat="61.779574966058135" lon="10.223733019083738">
        <ele>826.87</ele>
        <time>2017-06-30T09:20:25Z</time>
      </trkpt>
      <trkpt lat="61.777347978204489" lon="10.225078985095024">
        <ele>855.23000000000002</ele>
        <time>2017-06-30T09:20:36Z</time>
      </trkpt>
      <trkpt lat="61.776829976588488" lon="10.225508976727724">
        <ele>861.48000000000002</ele>
        <time>2017-06-30T09:20:41Z</time>
      </trkpt>
      <trkpt lat="61.776281967759132" lon="10.22601499222219">
        <ele>868.69000000000005</ele>
        <time>2017-06-30T09:20:49Z</time>
      </trkpt>
      <trkpt lat="61.775326011702418" lon="10.226338030770421">
        <ele>878.77999999999997</ele>
        <time>2017-06-30T09:20:56Z</time>
      </trkpt>
      <trkpt lat="61.773585006594658" lon="10.226528970524669">
        <ele>897.52999999999997</ele>
        <time>2017-06-30T09:21:06Z</time>
      </trkpt>
      <trkpt lat="61.773145040497184" lon="10.226520001888275">
        <ele>901.37</ele>
        <time>2017-06-30T09:21:09Z</time>
      </trkpt>
      <trkpt lat="61.773018976673484" lon="10.226456969976425">
        <ele>902.82000000000005</ele>
        <time>2017-06-30T09:21:10Z</time>
      </trkpt>
      <trkpt lat="61.772909006103873" lon="10.226343981921673">
        <ele>903.77999999999997</ele>
        <time>2017-06-30T09:21:11Z</time>
      </trkpt>
      <trkpt lat="61.772820996120572" lon="10.226181959733367">
        <ele>904.74000000000001</ele>
        <time>2017-06-30T09:21:12Z</time>
      </trkpt>
      <trkpt lat="61.772753018885851" lon="10.225980039685965">
        <ele>905.70000000000005</ele>
        <time>2017-06-30T09:21:13Z</time>
      </trkpt>
      <trkpt lat="61.772713037207723" lon="10.22573403082788">
        <ele>906.65999999999997</ele>
        <time>2017-06-30T09:21:14Z</time>
      </trkpt>
      <trkpt lat="61.772696021944284" lon="10.225466983392835">
        <ele>908.10000000000002</ele>
        <time>2017-06-30T09:21:15Z</time>
      </trkpt>
      <trkpt lat="61.772689986974001" lon="10.225189961493015">
        <ele>909.05999999999995</ele>
        <time>2017-06-30T09:21:16Z</time>
      </trkpt>
      <trkpt lat="61.77268797531724" lon="10.224903970956802">
        <ele>910.02999999999997</ele>
        <time>2017-06-30T09:21:17Z</time>
      </trkpt>
      <trkpt lat="61.772560989484191" lon="10.221562022343278">
        <ele>918.67999999999995</ele>
        <time>2017-06-30T09:21:27Z</time>
      </trkpt>
      <trkpt lat="61.772079030051827" lon="10.217932993546128">
        <ele>931.16999999999996</ele>
        <time>2017-06-30T09:21:37Z</time>
      </trkpt>
      <trkpt lat="61.771988002583385" lon="10.217631999403238">
        <ele>931.64999999999998</ele>
        <time>2017-06-30T09:21:38Z</time>
      </trkpt>
      <trkpt lat="61.771879959851503" lon="10.217342991381884">
        <ele>932.62</ele>
        <time>2017-06-30T09:21:39Z</time>
      </trkpt>
      <trkpt lat="61.771439993754029" lon="10.216197017580271">
        <ele>937.41999999999996</ele>
        <time>2017-06-30T09:21:43Z</time>
      </trkpt>
      <trkpt lat="61.771357012912631" lon="10.215876996517181">
        <ele>937.89999999999998</ele>
        <time>2017-06-30T09:21:44Z</time>
      </trkpt>
      <trkpt lat="61.770982006564736" lon="10.214383006095886">
        <ele>944.63</ele>
        <time>2017-06-30T09:21:50Z</time>
      </trkpt>
      <trkpt lat="61.770251020789146" lon="10.212782984599471">
        <ele>952.79999999999995</ele>
        <time>2017-06-30T09:21:58Z</time>
      </trkpt>
      <trkpt lat="61.768903965130448" lon="10.210859002545476">
        <ele>959.52999999999997</ele>
        <time>2017-06-30T09:22:07Z</time>
      </trkpt>
      <trkpt lat="61.766846962273121" lon="10.208259020000696">
        <ele>973.95000000000005</ele>
        <time>2017-06-30T09:22:18Z</time>
      </trkpt>
      <trkpt lat="61.765537960454822" lon="10.205524004995823">
        <ele>982.60000000000002</ele>
        <time>2017-06-30T09:22:26Z</time>
      </trkpt>
      <trkpt lat="61.764445966109633" lon="10.202255984768271">
        <ele>989.80999999999995</ele>
        <time>2017-06-30T09:22:35Z</time>
      </trkpt>
      <trkpt lat="61.76286899484694" lon="10.199257023632526">
        <ele>1001.83</ele>
        <time>2017-06-30T09:22:44Z</time>
      </trkpt>
      <trkpt lat="61.760872006416321" lon="10.196332996711135">
        <ele>1015.77</ele>
        <time>2017-06-30T09:22:54Z</time>
      </trkpt>
      <trkpt lat="61.758644012734294" lon="10.194792989641428">
        <ele>1017.21</ele>
        <time>2017-06-30T09:23:03Z</time>
      </trkpt>
      <trkpt lat="61.75558696500957" lon="10.192445972934365">
        <ele>1011.9299999999999</ele>
        <time>2017-06-30T09:23:15Z</time>
      </trkpt>
      <trkpt lat="61.753259981051087" lon="10.190389975905418">
        <ele>1002.3099999999999</ele>
        <time>2017-06-30T09:23:25Z</time>
      </trkpt>
      <trkpt lat="61.751743024215102" lon="10.19028302282095">
        <ele>996.05999999999995</ele>
        <time>2017-06-30T09:23:31Z</time>
      </trkpt>
      <trkpt lat="61.749022006988525" lon="10.191369988024235">
        <ele>988.85000000000002</ele>
        <time>2017-06-30T09:23:41Z</time>
      </trkpt>
      <trkpt lat="61.747411005198956" lon="10.191490016877651">
        <ele>993.17999999999995</ele>
        <time>2017-06-30T09:23:47Z</time>
      </trkpt>
      <trkpt lat="61.745331035926938" lon="10.190416965633631">
        <ele>995.58000000000004</ele>
        <time>2017-06-30T09:23:55Z</time>
      </trkpt>
      <trkpt lat="61.741955978795886" lon="10.188772017136216">
        <ele>1001.35</ele>
        <time>2017-06-30T09:24:08Z</time>
      </trkpt>
      <trkpt lat="61.74000802449882" lon="10.187443988397717">
        <ele>1011.9299999999999</ele>
        <time>2017-06-30T09:24:16Z</time>
      </trkpt>
      <trkpt lat="61.738384030759335" lon="10.185814965516329">
        <ele>1023.46</ele>
        <time>2017-06-30T09:24:23Z</time>
      </trkpt>
      <trkpt lat="61.736616035923362" lon="10.185371981933713">
        <ele>1037.8800000000001</ele>
        <time>2017-06-30T09:24:30Z</time>
      </trkpt>
      <trkpt lat="61.734973015263677" lon="10.18435399979353">
        <ele>1051.8199999999999</ele>
        <time>2017-06-30T09:24:37Z</time>
      </trkpt>
      <trkpt lat="61.733266040682793" lon="10.182199012488127">
        <ele>1058.55</ele>
        <time>2017-06-30T09:24:45Z</time>
      </trkpt>
      <trkpt lat="61.731804991140962" lon="10.18128102645278">
        <ele>1060.95</ele>
        <time>2017-06-30T09:24:51Z</time>
      </trkpt>
      <trkpt lat="61.730852974578738" lon="10.180677026510239">
        <ele>1061.9100000000001</ele>
        <time>2017-06-30T09:24:55Z</time>
      </trkpt>
      <trkpt lat="61.730639990419149" lon="10.180420959368348">
        <ele>1061.9100000000001</ele>
        <time>2017-06-30T09:24:56Z</time>
      </trkpt>
      <trkpt lat="61.730455001816154" lon="10.180117031559348">
        <ele>1061.4300000000001</ele>
        <time>2017-06-30T09:24:57Z</time>
      </trkpt>
      <trkpt lat="61.730281999334693" lon="10.179773038253188">
        <ele>1061.4300000000001</ele>
        <time>2017-06-30T09:24:58Z</time>
      </trkpt>
      <trkpt lat="61.730124000459909" lon="10.179397026076913">
        <ele>1060.95</ele>
        <time>2017-06-30T09:24:59Z</time>
      </trkpt>
      <trkpt lat="61.729972958564758" lon="10.178990000858903">
        <ele>1060.47</ele>
        <time>2017-06-30T09:25:00Z</time>
      </trkpt>
      <trkpt lat="61.729524023830891" lon="10.177832962945104">
        <ele>1058.55</ele>
        <time>2017-06-30T09:25:03Z</time>
      </trkpt>
      <trkpt lat="61.729356972500682" lon="10.177514031529427">
        <ele>1058.0699999999999</ele>
        <time>2017-06-30T09:25:04Z</time>
      </trkpt>
      <trkpt lat="61.729172989726067" lon="10.177233992144465">
        <ele>1057.1099999999999</ele>
        <time>2017-06-30T09:25:05Z</time>
      </trkpt>
      <trkpt lat="61.728976015001535" lon="10.176984965801239">
        <ele>1056.1500000000001</ele>
        <time>2017-06-30T09:25:06Z</time>
      </trkpt>
      <trkpt lat="61.728762025013566" lon="10.176780028268695">
        <ele>1055.6700000000001</ele>
        <time>2017-06-30T09:25:07Z</time>
      </trkpt>
      <trkpt lat="61.728538982570171" lon="10.176613982766867">
        <ele>1054.7</ele>
        <time>2017-06-30T09:25:08Z</time>
      </trkpt>
      <trkpt lat="61.728304959833622" lon="10.176506023854017">
        <ele>1053.74</ele>
        <time>2017-06-30T09:25:09Z</time>
      </trkpt>
      <trkpt lat="61.728064985945821" lon="10.176425976678729">
        <ele>1053.26</ele>
        <time>2017-06-30T09:25:10Z</time>
      </trkpt>
      <trkpt lat="61.727819982916117" lon="10.176365962252021">
        <ele>1052.3</ele>
        <time>2017-06-30T09:25:11Z</time>
      </trkpt>
      <trkpt lat="61.72636597417295" lon="10.175412017852068">
        <ele>1052.3</ele>
        <time>2017-06-30T09:25:17Z</time>
      </trkpt>
      <trkpt lat="61.724246023222804" lon="10.172839025035501">
        <ele>1055.6700000000001</ele>
        <time>2017-06-30T09:25:27Z</time>
      </trkpt>
      <trkpt lat="61.723020002245903" lon="10.172439040616155">
        <ele>1059.51</ele>
        <time>2017-06-30T09:25:33Z</time>
      </trkpt>
      <trkpt lat="61.721490975469351" lon="10.173005992546678">
        <ele>1059.03</ele>
        <time>2017-06-30T09:25:40Z</time>
      </trkpt>
      <trkpt lat="61.720130005851388" lon="10.172710027545691">
        <ele>1057.5899999999999</ele>
        <time>2017-06-30T09:25:46Z</time>
      </trkpt>
      <trkpt lat="61.718678008764982" lon="10.171058038249612">
        <ele>1060.95</ele>
        <time>2017-06-30T09:25:53Z</time>
      </trkpt>
      <trkpt lat="61.716703986749053" lon="10.169177977368236">
        <ele>1058.55</ele>
        <time>2017-06-30T09:26:02Z</time>
      </trkpt>
      <trkpt lat="61.712499959394336" lon="10.165741983801126">
        <ele>1049.4200000000001</ele>
        <time>2017-06-30T09:26:20Z</time>
      </trkpt>
      <trkpt lat="61.710303984582424" lon="10.164947966113687">
        <ele>1050.8599999999999</ele>
        <time>2017-06-30T09:26:29Z</time>
      </trkpt>
      <trkpt lat="61.707490012049675" lon="10.164747973904014">
        <ele>1055.1800000000001</ele>
        <time>2017-06-30T09:26:40Z</time>
      </trkpt>
      <trkpt lat="61.704898998141289" lon="10.163576016202569">
        <ele>1055.6700000000001</ele>
        <time>2017-06-30T09:26:50Z</time>
      </trkpt>
      <trkpt lat="61.703048022463918" lon="10.162878977134824">
        <ele>1053.74</ele>
        <time>2017-06-30T09:26:58Z</time>
      </trkpt>
      <trkpt lat="61.702105980366468" lon="10.162974027916789">
        <ele>1050.3800000000001</ele>
        <time>2017-06-30T09:27:03Z</time>
      </trkpt>
      <trkpt lat="61.700265984982252" lon="10.163436038419604">
        <ele>1041.73</ele>
        <time>2017-06-30T09:27:12Z</time>
      </trkpt>
      <trkpt lat="61.697458969429135" lon="10.163727980107069">
        <ele>1027.79</ele>
        <time>2017-06-30T09:27:24Z</time>
      </trkpt>
      <trkpt lat="61.696191038936377" lon="10.16265501268208">
        <ele>1021.0599999999999</ele>
        <time>2017-06-30T09:27:30Z</time>
      </trkpt>
      <trkpt lat="61.695182025432587" lon="10.160611001774669">
        <ele>1015.77</ele>
        <time>2017-06-30T09:27:36Z</time>
      </trkpt>
      <trkpt lat="61.694620018824935" lon="10.157747995108366">
        <ele>1013.85</ele>
        <time>2017-06-30T09:27:42Z</time>
      </trkpt>
      <trkpt lat="61.694607026875019" lon="10.154587011784315">
        <ele>1013.37</ele>
        <time>2017-06-30T09:27:48Z</time>
      </trkpt>
      <trkpt lat="61.694685984402895" lon="10.149873029440641">
        <ele>1013.85</ele>
        <time>2017-06-30T09:27:57Z</time>
      </trkpt>
      <trkpt lat="61.694203019142151" lon="10.147072970867157">
        <ele>1011.4400000000001</ele>
        <time>2017-06-30T09:28:03Z</time>
      </trkpt>
      <trkpt lat="61.692776000127196" lon="10.142600974068046">
        <ele>1008.08</ele>
        <time>2017-06-30T09:28:13Z</time>
      </trkpt>
      <trkpt lat="61.690999958664179" lon="10.137934014201164">
        <ele>1002.79</ele>
        <time>2017-06-30T09:28:24Z</time>
      </trkpt>
      <trkpt lat="61.689247973263264" lon="10.135514996945858">
        <ele>992.70000000000005</ele>
        <time>2017-06-30T09:28:32Z</time>
      </trkpt>
      <trkpt lat="61.686944039538503" lon="10.132302967831492">
        <ele>982.60000000000002</ele>
        <time>2017-06-30T09:28:43Z</time>
      </trkpt>
      <trkpt lat="61.685573011636734" lon="10.129338037222624">
        <ele>982.12</ele>
        <time>2017-06-30T09:28:51Z</time>
      </trkpt>
      <trkpt lat="61.685403026640415" lon="10.129055986180902">
        <ele>982.12</ele>
        <time>2017-06-30T09:28:52Z</time>
      </trkpt>
      <trkpt lat="61.685223989188671" lon="10.128821963444352">
        <ele>982.12</ele>
        <time>2017-06-30T09:28:53Z</time>
      </trkpt>
      <trkpt lat="61.68502701446414" lon="10.128637980669737">
        <ele>982.12</ele>
        <time>2017-06-30T09:28:54Z</time>
      </trkpt>
      <trkpt lat="61.684820987284184" lon="10.128485010936856">
        <ele>981.63999999999999</ele>
        <time>2017-06-30T09:28:55Z</time>
      </trkpt>
      <trkpt lat="61.684605991467834" lon="10.128352995961905">
        <ele>981.15999999999997</ele>
        <time>2017-06-30T09:28:56Z</time>
      </trkpt>
      <trkpt lat="61.683753971010447" lon="10.127858966588974">
        <ele>978.27999999999997</ele>
        <time>2017-06-30T09:29:00Z</time>
      </trkpt>
      <trkpt lat="61.68356697075069" lon="10.127670960500836">
        <ele>976.84000000000003</ele>
        <time>2017-06-30T09:29:01Z</time>
      </trkpt>
      <trkpt lat="61.683390028774738" lon="10.12743903324008">
        <ele>975.88</ele>
        <time>2017-06-30T09:29:02Z</time>
      </trkpt>
      <trkpt lat="61.683215014636517" lon="10.127170979976654">
        <ele>974.42999999999995</ele>
        <time>2017-06-30T09:29:03Z</time>
      </trkpt>
      <trkpt lat="61.683045029640198" lon="10.126878032460809">
        <ele>973.95000000000005</ele>
        <time>2017-06-30T09:29:04Z</time>
      </trkpt>
      <trkpt lat="61.68107402510941" lon="10.123269036412239">
        <ele>971.54999999999995</ele>
        <time>2017-06-30T09:29:15Z</time>
      </trkpt>
      <trkpt lat="61.679493030533195" lon="10.121084041893482">
        <ele>974.42999999999995</ele>
        <time>2017-06-30T09:29:23Z</time>
      </trkpt>
      <trkpt lat="61.679357998073101" lon="10.120797967538238">
        <ele>973.95000000000005</ele>
        <time>2017-06-30T09:29:24Z</time>
      </trkpt>
      <trkpt lat="61.679235035553575" lon="10.120491022244096">
        <ele>973.95000000000005</ele>
        <time>2017-06-30T09:29:25Z</time>
      </trkpt>
      <trkpt lat="61.679123975336552" lon="10.120161026716232">
        <ele>973.47000000000003</ele>
        <time>2017-06-30T09:29:26Z</time>
      </trkpt>
      <trkpt lat="61.679030014201999" lon="10.119793983176351">
        <ele>973.95000000000005</ele>
        <time>2017-06-30T09:29:27Z</time>
      </trkpt>
      <trkpt lat="61.67894896119833" lon="10.119406990706921">
        <ele>974.42999999999995</ele>
        <time>2017-06-30T09:29:28Z</time>
      </trkpt>
      <trkpt lat="61.678880983963609" lon="10.119002982974052">
        <ele>974.90999999999997</ele>
        <time>2017-06-30T09:29:29Z</time>
      </trkpt>
      <trkpt lat="61.678827004507184" lon="10.118573997169733">
        <ele>974.90999999999997</ele>
        <time>2017-06-30T09:29:30Z</time>
      </trkpt>
      <trkpt lat="61.678781993687153" lon="10.118134031072259">
        <ele>974.90999999999997</ele>
        <time>2017-06-30T09:29:31Z</time>
      </trkpt>
      <trkpt lat="61.678564986214042" lon="10.116427978500724">
        <ele>974.42999999999995</ele>
        <time>2017-06-30T09:29:35Z</time>
      </trkpt>
      <trkpt lat="61.678473958745599" lon="10.116050960496068">
        <ele>973.95000000000005</ele>
        <time>2017-06-30T09:29:36Z</time>
      </trkpt>
      <trkpt lat="61.678360970690846" lon="10.115691041573882">
        <ele>973.47000000000003</ele>
        <time>2017-06-30T09:29:37Z</time>
      </trkpt>
      <trkpt lat="61.678231973201036" lon="10.115350987762213">
        <ele>972.99000000000001</ele>
        <time>2017-06-30T09:29:38Z</time>
      </trkpt>
      <trkpt lat="61.678089983761311" lon="10.115026021376252">
        <ele>972.99000000000001</ele>
        <time>2017-06-30T09:29:39Z</time>
      </trkpt>
      <trkpt lat="61.677939025685191" lon="10.11472200974822">
        <ele>972.50999999999999</ele>
        <time>2017-06-30T09:29:40Z</time>
      </trkpt>
      <trkpt lat="61.677780020982027" lon="10.114439036697149">
        <ele>972.50999999999999</ele>
        <time>2017-06-30T09:29:41Z</time>
      </trkpt>
      <trkpt lat="61.677614981308579" lon="10.114177018404007">
        <ele>972.02999999999997</ele>
        <time>2017-06-30T09:29:42Z</time>
      </trkpt>
      <trkpt lat="61.677441978827119" lon="10.113956993445754">
        <ele>972.02999999999997</ele>
        <time>2017-06-30T09:29:43Z</time>
      </trkpt>
      <trkpt lat="61.677259001880884" lon="10.113777033984661">
        <ele>971.54999999999995</ele>
        <time>2017-06-30T09:29:44Z</time>
      </trkpt>
      <trkpt lat="61.677066972479224" lon="10.113617023453116">
        <ele>971.07000000000005</ele>
        <time>2017-06-30T09:29:45Z</time>
      </trkpt>
      <trkpt lat="61.676868991926312" lon="10.113470004871488">
        <ele>970.11000000000001</ele>
        <time>2017-06-30T09:29:46Z</time>
      </trkpt>
      <trkpt lat="61.674759015440941" lon="10.112152034416795">
        <ele>960.49000000000001</ele>
        <time>2017-06-30T09:29:56Z</time>
      </trkpt>
      <trkpt lat="61.674400018528104" lon="10.111943995580077">
        <ele>959.04999999999995</ele>
        <time>2017-06-30T09:29:58Z</time>
      </trkpt>
      <trkpt lat="61.674244031310081" lon="10.111921029165387">
        <ele>959.04999999999995</ele>
        <time>2017-06-30T09:29:59Z</time>
      </trkpt>
      <trkpt lat="61.674095001071692" lon="10.111967967823148">
        <ele>958.57000000000005</ele>
        <time>2017-06-30T09:30:00Z</time>
      </trkpt>
      <trkpt lat="61.673958040773869" lon="10.112086990848184">
        <ele>958.57000000000005</ele>
        <time>2017-06-30T09:30:01Z</time>
      </trkpt>
      <trkpt lat="61.673818985000253" lon="10.112239038571715">
        <ele>958.09000000000003</ele>
        <time>2017-06-30T09:30:02Z</time>
      </trkpt>
      <trkpt lat="61.673680013045669" lon="10.112435007467866">
        <ele>958.09000000000003</ele>
        <time>2017-06-30T09:30:03Z</time>
      </trkpt>
      <trkpt lat="61.673543974757195" lon="10.11265997774899">
        <ele>958.09000000000003</ele>
        <time>2017-06-30T09:30:04Z</time>
      </trkpt>
      <trkpt lat="61.673407014459372" lon="10.112903974950314">
        <ele>958.09000000000003</ele>
        <time>2017-06-30T09:30:05Z</time>
      </trkpt>
      <trkpt lat="61.671870024874806" lon="10.115707973018289">
        <ele>952.32000000000005</ele>
        <time>2017-06-30T09:30:15Z</time>
      </trkpt>
      <trkpt lat="61.670435965061188" lon="10.118322037160397">
        <ele>946.07000000000005</ele>
        <time>2017-06-30T09:30:25Z</time>
      </trkpt>
      <trkpt lat="61.669243974611163" lon="10.120436958968639">
        <ele>943.19000000000005</ele>
        <time>2017-06-30T09:30:33Z</time>
      </trkpt>
      <trkpt lat="61.667089993134141" lon="10.123678995296359">
        <ele>939.83000000000004</ele>
        <time>2017-06-30T09:30:45Z</time>
      </trkpt>
      <trkpt lat="61.665675966069102" lon="10.12421996332705">
        <ele>937.89999999999998</ele>
        <time>2017-06-30T09:30:52Z</time>
      </trkpt>
      <trkpt lat="61.663793977349997" lon="10.123770022764802">
        <ele>933.58000000000004</ele>
        <time>2017-06-30T09:31:01Z</time>
      </trkpt>
      <trkpt lat="61.66229696944356" lon="10.122398994863033">
        <ele>929.25</ele>
        <time>2017-06-30T09:31:08Z</time>
      </trkpt>
      <trkpt lat="61.660540038719773" lon="10.120057007297873">
        <ele>925.40999999999997</ele>
        <time>2017-06-30T09:31:17Z</time>
      </trkpt>
      <trkpt lat="61.660326970741153" lon="10.119923986494541">
        <ele>925.40999999999997</ele>
        <time>2017-06-30T09:31:18Z</time>
      </trkpt>
      <trkpt lat="61.660109041258693" lon="10.119830025359988">
        <ele>925.40999999999997</ele>
        <time>2017-06-30T09:31:19Z</time>
      </trkpt>
      <trkpt lat="61.65988901630044" lon="10.119776967912912">
        <ele>925.40999999999997</ele>
        <time>2017-06-30T09:31:20Z</time>
      </trkpt>
      <trkpt lat="61.659667985513806" lon="10.119756013154984">
        <ele>925.40999999999997</ele>
        <time>2017-06-30T09:31:21Z</time>
      </trkpt>
      <trkpt lat="61.658108029514551" lon="10.119093004614115">
        <ele>925.40999999999997</ele>
        <time>2017-06-30T09:31:28Z</time>
      </trkpt>
      <trkpt lat="61.655200012028217" lon="10.116713969036937">
        <ele>919.15999999999997</ele>
        <time>2017-06-30T09:31:41Z</time>
      </trkpt>
      <trkpt lat="61.653536036610603" lon="10.114282965660095">
        <ele>924.92999999999995</ele>
        <time>2017-06-30T09:31:50Z</time>
      </trkpt>
      <trkpt lat="61.652605980634689" lon="10.113260038197041">
        <ele>920.12</ele>
        <time>2017-06-30T09:31:55Z</time>
      </trkpt>
      <trkpt lat="61.651465035974979" lon="10.111316023394465">
        <ele>917.24000000000001</ele>
        <time>2017-06-30T09:32:03Z</time>
      </trkpt>
      <trkpt lat="61.651065973564982" lon="10.110729038715363">
        <ele>917.24000000000001</ele>
        <time>2017-06-30T09:32:06Z</time>
      </trkpt>
      <trkpt lat="61.650923984125257" lon="10.110586965456605">
        <ele>917.24000000000001</ele>
        <time>2017-06-30T09:32:07Z</time>
      </trkpt>
      <trkpt lat="61.650784006342292" lon="10.11048898100853">
        <ele>917.24000000000001</ele>
        <time>2017-06-30T09:32:08Z</time>
      </trkpt>
      <trkpt lat="61.650645034387708" lon="10.110418992117047">
        <ele>917.72000000000003</ele>
        <time>2017-06-30T09:32:09Z</time>
      </trkpt>
      <trkpt lat="61.65050002746284" lon="10.110378004610538">
        <ele>918.20000000000005</ele>
        <time>2017-06-30T09:32:10Z</time>
      </trkpt>
      <trkpt lat="61.650348985567689" lon="10.110372975468636">
        <ele>918.67999999999995</ele>
        <time>2017-06-30T09:32:11Z</time>
      </trkpt>
      <trkpt lat="61.650192998349667" lon="10.110400971025229">
        <ele>919.15999999999997</ele>
        <time>2017-06-30T09:32:12Z</time>
      </trkpt>
      <trkpt lat="61.650034999474883" lon="10.110450005158782">
        <ele>919.63999999999999</ele>
        <time>2017-06-30T09:32:13Z</time>
      </trkpt>
      <trkpt lat="61.649260008707643" lon="10.110676987096667">
        <ele>921.55999999999995</ele>
        <time>2017-06-30T09:32:18Z</time>
      </trkpt>
      <trkpt lat="61.649140985682607" lon="10.110613033175468">
        <ele>921.08000000000004</ele>
        <time>2017-06-30T09:32:19Z</time>
      </trkpt>
      <trkpt lat="61.649055993184447" lon="10.11048998683691">
        <ele>920.60000000000002</ele>
        <time>2017-06-30T09:32:20Z</time>
      </trkpt>
      <trkpt lat="61.64899698458612" lon="10.110318996012211">
        <ele>920.12</ele>
        <time>2017-06-30T09:32:21Z</time>
      </trkpt>
      <trkpt lat="61.648960020393133" lon="10.11010299436748">
        <ele>919.15999999999997</ele>
        <time>2017-06-30T09:32:22Z</time>
      </trkpt>
      <trkpt lat="61.648939987644553" lon="10.109851034358144">
        <ele>918.20000000000005</ele>
        <time>2017-06-30T09:32:23Z</time>
      </trkpt>
      <trkpt lat="61.64893202483654" lon="10.109573006629944">
        <ele>917.24000000000001</ele>
        <time>2017-06-30T09:32:24Z</time>
      </trkpt>
      <trkpt lat="61.648693978786469" lon="10.106658032163978">
        <ele>908.58000000000004</ele>
        <time>2017-06-30T09:32:33Z</time>
      </trkpt>
      <trkpt lat="61.648301035165787" lon="10.10198101401329">
        <ele>902.82000000000005</ele>
        <time>2017-06-30T09:32:45Z</time>
      </trkpt>
      <trkpt lat="61.647904990240932" lon="10.09660704061389">
        <ele>896.09000000000003</ele>
        <time>2017-06-30T09:32:59Z</time>
      </trkpt>
      <trkpt lat="61.647899961099029" lon="10.095508005470037">
        <ele>896.09000000000003</ele>
        <time>2017-06-30T09:33:02Z</time>
      </trkpt>
      <trkpt lat="61.647929968312383" lon="10.095165017992258">
        <ele>896.57000000000005</ele>
        <time>2017-06-30T09:33:03Z</time>
      </trkpt>
      <trkpt lat="61.647980008274317" lon="10.094823036342859">
        <ele>896.57000000000005</ele>
        <time>2017-06-30T09:33:04Z</time>
      </trkpt>
      <trkpt lat="61.648475965484977" lon="10.092481970787048">
        <ele>897.04999999999995</ele>
        <time>2017-06-30T09:33:12Z</time>
      </trkpt>
      <trkpt lat="61.648479988798499" lon="10.092279966920614">
        <ele>897.04999999999995</ele>
        <time>2017-06-30T09:33:13Z</time>
      </trkpt>
      <trkpt lat="61.648463979363441" lon="10.092107970267534">
        <ele>896.09000000000003</ele>
        <time>2017-06-30T09:33:14Z</time>
      </trkpt>
      <trkpt lat="61.648434977978468" lon="10.091974027454853">
        <ele>895.61000000000001</ele>
        <time>2017-06-30T09:33:15Z</time>
      </trkpt>
      <trkpt lat="61.648398013785481" lon="10.091877970844507">
        <ele>895.12</ele>
        <time>2017-06-30T09:33:16Z</time>
      </trkpt>
      <trkpt lat="61.648363983258605" lon="10.091805970296264">
        <ele>894.63999999999999</ele>
        <time>2017-06-30T09:33:17Z</time>
      </trkpt>
      <trkpt lat="61.648325007408857" lon="10.091759031638503">
        <ele>894.15999999999997</ele>
        <time>2017-06-30T09:33:18Z</time>
      </trkpt>
      <trkpt lat="61.648274967446923" lon="10.091721983626485">
        <ele>893.67999999999995</ele>
        <time>2017-06-30T09:33:19Z</time>
      </trkpt>
      <trkpt lat="61.648214031010866" lon="10.091705974191427">
        <ele>892.72000000000003</ele>
        <time>2017-06-30T09:33:20Z</time>
      </trkpt>
      <trkpt lat="61.648139012977481" lon="10.091719971969724">
        <ele>891.75999999999999</ele>
        <time>2017-06-30T09:33:21Z</time>
      </trkpt>
      <trkpt lat="61.648056032136083" lon="10.091756014153361">
        <ele>890.79999999999995</ele>
        <time>2017-06-30T09:33:22Z</time>
      </trkpt>
      <trkpt lat="61.647960981354117" lon="10.091826003044844">
        <ele>889.84000000000003</ele>
        <time>2017-06-30T09:33:23Z</time>
      </trkpt>
      <trkpt lat="61.64785897359252" lon="10.091916024684906">
        <ele>888.88</ele>
        <time>2017-06-30T09:33:24Z</time>
      </trkpt>
      <trkpt lat="61.646918021142483" lon="10.092778019607067">
        <ele>882.63</ele>
        <time>2017-06-30T09:33:31Z</time>
      </trkpt>
      <trkpt lat="61.645658975467086" lon="10.093059986829758">
        <ele>885.99000000000001</ele>
        <time>2017-06-30T09:33:38Z</time>
      </trkpt>
      <trkpt lat="61.644177976995707" lon="10.092457998543978">
        <ele>893.20000000000005</ele>
        <time>2017-06-30T09:33:47Z</time>
      </trkpt>
      <trkpt lat="61.642846008762717" lon="10.091856010258198">
        <ele>896.57000000000005</ele>
        <time>2017-06-30T09:33:56Z</time>
      </trkpt>
      <trkpt lat="61.640852959826589" lon="10.091247987002134">
        <ele>900.88999999999999</ele>
        <time>2017-06-30T09:34:06Z</time>
      </trkpt>
      <trkpt lat="61.638859994709492" lon="10.091872019693255">
        <ele>905.22000000000003</ele>
        <time>2017-06-30T09:34:15Z</time>
      </trkpt>
      <trkpt lat="61.636868035420775" lon="10.092147029936314">
        <ele>913.87</ele>
        <time>2017-06-30T09:34:24Z</time>
      </trkpt>
      <trkpt lat="61.634113993495703" lon="10.092143006622791">
        <ele>931.64999999999998</ele>
        <time>2017-06-30T09:34:37Z</time>
      </trkpt>
      <trkpt lat="61.631007995456457" lon="10.092937024310231">
        <ele>952.79999999999995</ele>
        <time>2017-06-30T09:34:51Z</time>
      </trkpt>
      <trkpt lat="61.630216995254159" lon="10.093591986224055">
        <ele>958.09000000000003</ele>
        <time>2017-06-30T09:34:55Z</time>
      </trkpt>
      <trkpt lat="61.630053967237473" lon="10.093822991475463">
        <ele>958.57000000000005</ele>
        <time>2017-06-30T09:34:56Z</time>
      </trkpt>
      <trkpt lat="61.62906096316874" lon="10.095314970239997">
        <ele>964.34000000000003</ele>
        <time>2017-06-30T09:35:02Z</time>
      </trkpt>
      <trkpt lat="61.628878992050886" lon="10.095476992428303">
        <ele>965.29999999999995</ele>
        <time>2017-06-30T09:35:03Z</time>
      </trkpt>
      <trkpt lat="61.628686040639877" lon="10.095587968826294">
        <ele>966.25999999999999</ele>
        <time>2017-06-30T09:35:04Z</time>
      </trkpt>
      <trkpt lat="61.628485964611173" lon="10.095640020444989">
        <ele>967.22000000000003</ele>
        <time>2017-06-30T09:35:05Z</time>
      </trkpt>
      <trkpt lat="61.628281027078629" lon="10.095637002959847">
        <ele>968.17999999999995</ele>
        <time>2017-06-30T09:35:06Z</time>
      </trkpt>
      <trkpt lat="61.628076005727053" lon="10.095580006018281">
        <ele>969.14999999999998</ele>
        <time>2017-06-30T09:35:07Z</time>
      </trkpt>
      <trkpt lat="61.627867966890335" lon="10.095503982156515">
        <ele>969.63</ele>
        <time>2017-06-30T09:35:08Z</time>
      </trkpt>
      <trkpt lat="61.625522961840034" lon="10.094330012798309">
        <ele>974.42999999999995</ele>
        <time>2017-06-30T09:35:19Z</time>
      </trkpt>
      <trkpt lat="61.62349496036768" lon="10.092035969719291">
        <ele>973.95000000000005</ele>
        <time>2017-06-30T09:35:29Z</time>
      </trkpt>
      <trkpt lat="61.623168988153338" lon="10.091533977538347">
        <ele>974.90999999999997</ele>
        <time>2017-06-30T09:35:31Z</time>
      </trkpt>
      <trkpt lat="61.623038984835148" lon="10.091248992830515">
        <ele>975.38999999999999</ele>
        <time>2017-06-30T09:35:32Z</time>
      </trkpt>
      <trkpt lat="61.622937982901931" lon="10.090942969545722">
        <ele>975.88</ele>
        <time>2017-06-30T09:35:33Z</time>
      </trkpt>
      <trkpt lat="61.622875034809113" lon="10.090619008988142">
        <ele>975.88</ele>
        <time>2017-06-30T09:35:34Z</time>
      </trkpt>
      <trkpt lat="61.622842010110617" lon="10.09029395878315">
        <ele>975.88</ele>
        <time>2017-06-30T09:35:35Z</time>
      </trkpt>
      <trkpt lat="61.622837986797094" lon="10.089951977133751">
        <ele>975.88</ele>
        <time>2017-06-30T09:35:36Z</time>
      </trkpt>
      <trkpt lat="61.622853996232152" lon="10.089585017412901">
        <ele>975.88</ele>
        <time>2017-06-30T09:35:37Z</time>
      </trkpt>
      <trkpt lat="61.622885009273887" lon="10.089200958609581">
        <ele>975.88</ele>
        <time>2017-06-30T09:35:38Z</time>
      </trkpt>
      <trkpt lat="61.622919039800763" lon="10.08881296031177">
        <ele>975.38999999999999</ele>
        <time>2017-06-30T09:35:39Z</time>
      </trkpt>
      <trkpt lat="61.622959021478891" lon="10.087608983740211">
        <ele>974.42999999999995</ele>
        <time>2017-06-30T09:35:42Z</time>
      </trkpt>
      <trkpt lat="61.62293303757906" lon="10.087210005149245">
        <ele>973.95000000000005</ele>
        <time>2017-06-30T09:35:43Z</time>
      </trkpt>
      <trkpt lat="61.6228929720819" lon="10.086812032386661">
        <ele>973.95000000000005</ele>
        <time>2017-06-30T09:35:44Z</time>
      </trkpt>
      <trkpt lat="61.622228035703301" lon="10.083274031057954">
        <ele>968.66999999999996</ele>
        <time>2017-06-30T09:35:53Z</time>
      </trkpt>
      <trkpt lat="61.622110018506646" lon="10.082935988903046">
        <ele>968.17999999999995</ele>
        <time>2017-06-30T09:35:54Z</time>
      </trkpt>
      <trkpt lat="61.621980015188456" lon="10.082616973668337">
        <ele>967.22000000000003</ele>
        <time>2017-06-30T09:35:55Z</time>
      </trkpt>
      <trkpt lat="61.621255986392498" lon="10.080422004684806">
        <ele>965.77999999999997</ele>
        <time>2017-06-30T09:36:02Z</time>
      </trkpt>
      <trkpt lat="61.621040990576148" lon="10.079525979235768">
        <ele>962.89999999999998</ele>
        <time>2017-06-30T09:36:05Z</time>
      </trkpt>
      <trkpt lat="61.620944011956453" lon="10.079263038933277">
        <ele>961.94000000000005</ele>
        <time>2017-06-30T09:36:06Z</time>
      </trkpt>
      <trkpt lat="61.620828006416559" lon="10.079031027853489">
        <ele>960.98000000000002</ele>
        <time>2017-06-30T09:36:07Z</time>
      </trkpt>
      <trkpt lat="61.620696997269988" lon="10.078823994845152">
        <ele>960.49000000000001</ele>
        <time>2017-06-30T09:36:08Z</time>
      </trkpt>
      <trkpt lat="61.620557019487023" lon="10.078635988757014">
        <ele>959.52999999999997</ele>
        <time>2017-06-30T09:36:09Z</time>
      </trkpt>
      <trkpt lat="61.620405977591872" lon="10.078460974618793">
        <ele>958.57000000000005</ele>
        <time>2017-06-30T09:36:10Z</time>
      </trkpt>
      <trkpt lat="61.618860019370914" lon="10.07675701752305">
        <ele>948</ele>
        <time>2017-06-30T09:36:20Z</time>
      </trkpt>
      <trkpt lat="61.616836041212082" lon="10.075065968558192">
        <ele>924.92999999999995</ele>
        <time>2017-06-30T09:36:32Z</time>
      </trkpt>
      <trkpt lat="61.615130994468927" lon="10.074353003874421">
        <ele>912.42999999999995</ele>
        <time>2017-06-30T09:36:42Z</time>
      </trkpt>
      <trkpt lat="61.613983009010553" lon="10.074148988351226">
        <ele>901.37</ele>
        <time>2017-06-30T09:36:49Z</time>
      </trkpt>
      <trkpt lat="61.61382501013577" lon="10.074052009731531">
        <ele>899.45000000000005</ele>
        <time>2017-06-30T09:36:50Z</time>
      </trkpt>
      <trkpt lat="61.612082999199629" lon="10.073016006499529">
        <ele>880.71000000000004</ele>
        <time>2017-06-30T09:37:00Z</time>
      </trkpt>
      <trkpt lat="61.610676012933254" lon="10.07194496691227">
        <ele>869.64999999999998</ele>
        <time>2017-06-30T09:37:08Z</time>
      </trkpt>
      <trkpt lat="61.609582006931305" lon="10.07153601385653">
        <ele>859.08000000000004</ele>
        <time>2017-06-30T09:37:14Z</time>
      </trkpt>
      <trkpt lat="61.608845992013812" lon="10.071249017491937">
        <ele>850.89999999999998</ele>
        <time>2017-06-30T09:37:18Z</time>
      </trkpt>
      <trkpt lat="61.608677012845874" lon="10.071077020838857">
        <ele>849.46000000000004</ele>
        <time>2017-06-30T09:37:19Z</time>
      </trkpt>
      <trkpt lat="61.608509039506316" lon="10.07086998783052">
        <ele>848.5</ele>
        <time>2017-06-30T09:37:20Z</time>
      </trkpt>
      <trkpt lat="61.607174975797534" lon="10.068963021039963">
        <ele>835.51999999999998</ele>
        <time>2017-06-30T09:37:28Z</time>
      </trkpt>
      <trkpt lat="61.607003984972835" lon="10.06882899440825">
        <ele>834.08000000000004</ele>
        <time>2017-06-30T09:37:29Z</time>
      </trkpt>
      <trkpt lat="61.606829976662993" lon="10.068741990253329">
        <ele>833.12</ele>
        <time>2017-06-30T09:37:30Z</time>
      </trkpt>
      <trkpt lat="61.606655968353152" lon="10.068698991090059">
        <ele>831.67999999999995</ele>
        <time>2017-06-30T09:37:31Z</time>
      </trkpt>
      <trkpt lat="61.60647701472044" lon="10.068696979433298">
        <ele>830.72000000000003</ele>
        <time>2017-06-30T09:37:32Z</time>
      </trkpt>
      <trkpt lat="61.606299988925457" lon="10.068726986646652">
        <ele>828.78999999999996</ele>
        <time>2017-06-30T09:37:33Z</time>
      </trkpt>
      <trkpt lat="61.604318004101515" lon="10.069038039073348">
        <ele>811.97000000000003</ele>
        <time>2017-06-30T09:37:43Z</time>
      </trkpt>
      <trkpt lat="61.60374996252358" lon="10.069013983011246">
        <ele>806.20000000000005</ele>
        <time>2017-06-30T09:37:46Z</time>
      </trkpt>
      <trkpt lat="61.60355499945581" lon="10.06893603131175">
        <ele>804.75999999999999</ele>
        <time>2017-06-30T09:37:47Z</time>
      </trkpt>
      <trkpt lat="61.601929999887943" lon="10.068288026377559">
        <ele>789.86000000000001</ele>
        <time>2017-06-30T09:37:55Z</time>
      </trkpt>
      <trkpt lat="61.600556038320065" lon="10.067850993946195">
        <ele>778.80999999999995</ele>
        <time>2017-06-30T09:38:02Z</time>
      </trkpt>
      <trkpt lat="61.600395021960139" lon="10.067661982029676">
        <ele>777.36000000000001</ele>
        <time>2017-06-30T09:38:03Z</time>
      </trkpt>
      <trkpt lat="61.600244985893369" lon="10.067442040890455">
        <ele>775.91999999999996</ele>
        <time>2017-06-30T09:38:04Z</time>
      </trkpt>
      <trkpt lat="61.600115988403559" lon="10.067179016768932">
        <ele>774.96000000000004</ele>
        <time>2017-06-30T09:38:05Z</time>
      </trkpt>
      <trkpt lat="61.599984979256988" lon="10.06691699847579">
        <ele>774</ele>
        <time>2017-06-30T09:38:06Z</time>
      </trkpt>
      <trkpt lat="61.599642997607589" lon="10.066108983010054">
        <ele>771.11000000000001</ele>
        <time>2017-06-30T09:38:09Z</time>
      </trkpt>
      <trkpt lat="61.599561022594571" lon="10.065813018009067">
        <ele>770.14999999999998</ele>
        <time>2017-06-30T09:38:10Z</time>
      </trkpt>
      <trkpt lat="61.599506959319115" lon="10.065506994724274">
        <ele>769.19000000000005</ele>
        <time>2017-06-30T09:38:11Z</time>
      </trkpt>
      <trkpt lat="61.599482987076044" lon="10.065198037773371">
        <ele>768.23000000000002</ele>
        <time>2017-06-30T09:38:12Z</time>
      </trkpt>
      <trkpt lat="61.599490027874708" lon="10.064893020316958">
        <ele>767.75</ele>
        <time>2017-06-30T09:38:13Z</time>
      </trkpt>
      <trkpt lat="61.599534032866359" lon="10.064585991203785">
        <ele>765.83000000000004</ele>
        <time>2017-06-30T09:38:14Z</time>
      </trkpt>
      <trkpt lat="61.599605027586222" lon="10.064287008717656">
        <ele>764.38999999999999</ele>
        <time>2017-06-30T09:38:15Z</time>
      </trkpt>
      <trkpt lat="61.599693037569523" lon="10.063986014574766">
        <ele>762.46000000000004</ele>
        <time>2017-06-30T09:38:16Z</time>
      </trkpt>
      <trkpt lat="61.59979697316885" lon="10.063682002946734">
        <ele>759.58000000000004</ele>
        <time>2017-06-30T09:38:17Z</time>
      </trkpt>
      <trkpt lat="61.600072989240289" lon="10.062715988606215">
        <ele>758.62</ele>
        <time>2017-06-30T09:38:20Z</time>
      </trkpt>
      <trkpt lat="61.600130992010236" lon="10.062386998906732">
        <ele>752.85000000000002</ele>
        <time>2017-06-30T09:38:21Z</time>
      </trkpt>
      <trkpt lat="61.600164016708732" lon="10.062047028914094">
        <ele>750.45000000000005</ele>
        <time>2017-06-30T09:38:22Z</time>
      </trkpt>
      <trkpt lat="61.600172985345125" lon="10.061708986759186">
        <ele>748.51999999999998</ele>
        <time>2017-06-30T09:38:23Z</time>
      </trkpt>
      <trkpt lat="61.60016099922359" lon="10.061376979574561">
        <ele>747.08000000000004</ele>
        <time>2017-06-30T09:38:24Z</time>
      </trkpt>
      <trkpt lat="61.600134009495378" lon="10.061043966561556">
        <ele>744.67999999999995</ele>
        <time>2017-06-30T09:38:25Z</time>
      </trkpt>
      <trkpt lat="61.600091010332108" lon="10.060708019882441">
        <ele>742.75999999999999</ele>
        <time>2017-06-30T09:38:26Z</time>
      </trkpt>
      <trkpt lat="61.600038036704063" lon="10.060376012697816">
        <ele>740.83000000000004</ele>
        <time>2017-06-30T09:38:27Z</time>
      </trkpt>
      <trkpt lat="61.599567979574203" lon="10.057333968579769">
        <ele>721.13</ele>
        <time>2017-06-30T09:38:36Z</time>
      </trkpt>
      <trkpt lat="61.598594002425671" lon="10.054700961336493">
        <ele>701.41999999999996</ele>
        <time>2017-06-30T09:38:45Z</time>
      </trkpt>
      <trkpt lat="61.597378039732575" lon="10.051908027380705">
        <ele>682.19000000000005</ele>
        <time>2017-06-30T09:38:55Z</time>
      </trkpt>
      <trkpt lat="61.596620986238122" lon="10.050834976136684">
        <ele>672.58000000000004</ele>
        <time>2017-06-30T09:39:01Z</time>
      </trkpt>
      <trkpt lat="61.596505986526608" lon="10.050763981416821">
        <ele>671.13999999999999</ele>
        <time>2017-06-30T09:39:02Z</time>
      </trkpt>
      <trkpt lat="61.596388975158334" lon="10.050745960325003">
        <ele>669.70000000000005</ele>
        <time>2017-06-30T09:39:03Z</time>
      </trkpt>
      <trkpt lat="61.596267018467188" lon="10.050771022215486">
        <ele>668.25</ele>
        <time>2017-06-30T09:39:04Z</time>
      </trkpt>
      <trkpt lat="61.596137015148997" lon="10.05080203525722">
        <ele>666.80999999999995</ele>
        <time>2017-06-30T09:39:05Z</time>
      </trkpt>
      <trkpt lat="61.595216011628509" lon="10.051056006923318">
        <ele>656.72000000000003</ele>
        <time>2017-06-30T09:39:11Z</time>
      </trkpt>
      <trkpt lat="61.594182020053267" lon="10.051857987418771">
        <ele>647.59000000000003</ele>
        <time>2017-06-30T09:39:18Z</time>
      </trkpt>
      <trkpt lat="61.593709029257298" lon="10.052647981792688">
        <ele>642.77999999999997</ele>
        <time>2017-06-30T09:39:22Z</time>
      </trkpt>
      <trkpt lat="61.593599980697036" lon="10.052761975675821">
        <ele>641.82000000000005</ele>
        <time>2017-06-30T09:39:23Z</time>
      </trkpt>
      <trkpt lat="61.59350199624896" lon="10.052808998152614">
        <ele>641.34000000000003</ele>
        <time>2017-06-30T09:39:24Z</time>
      </trkpt>
      <trkpt lat="61.593407029286027" lon="10.052797012031078">
        <ele>639.88999999999999</ele>
        <time>2017-06-30T09:39:25Z</time>
      </trkpt>
      <trkpt lat="61.593318013474345" lon="10.052726017311215">
        <ele>638.92999999999995</ele>
        <time>2017-06-30T09:39:26Z</time>
      </trkpt>
      <trkpt lat="61.593232015147805" lon="10.052609005942941">
        <ele>637.97000000000003</ele>
        <time>2017-06-30T09:39:27Z</time>
      </trkpt>
      <trkpt lat="61.593154985457659" lon="10.052473973482847">
        <ele>637.00999999999999</ele>
        <time>2017-06-30T09:39:28Z</time>
      </trkpt>
      <trkpt lat="61.593004027381539" lon="10.052253026515245">
        <ele>636.04999999999995</ele>
        <time>2017-06-30T09:39:30Z</time>
      </trkpt>
      <trkpt lat="61.592918029054999" lon="10.052169039845467">
        <ele>636.04999999999995</ele>
        <time>2017-06-30T09:39:31Z</time>
      </trkpt>
      <trkpt lat="61.59283597022295" lon="10.05211103707552">
        <ele>635.57000000000005</ele>
        <time>2017-06-30T09:39:32Z</time>
      </trkpt>
      <trkpt lat="61.592756006866693" lon="10.052088992670178">
        <ele>635.57000000000005</ele>
        <time>2017-06-30T09:39:33Z</time>
      </trkpt>
      <trkpt lat="61.592671014368534" lon="10.052100978791714">
        <ele>635.09000000000003</ele>
        <time>2017-06-30T09:39:34Z</time>
      </trkpt>
      <trkpt lat="61.592589039355516" lon="10.052154958248138">
        <ele>635.09000000000003</ele>
        <time>2017-06-30T09:39:35Z</time>
      </trkpt>
      <trkpt lat="61.592501029372215" lon="10.052238022908568">
        <ele>634.61000000000001</ele>
        <time>2017-06-30T09:39:36Z</time>
      </trkpt>
      <trkpt lat="61.592411007732153" lon="10.052335001528263">
        <ele>634.13</ele>
        <time>2017-06-30T09:39:37Z</time>
      </trkpt>
      <trkpt lat="61.591272996738553" lon="10.053218035027385">
        <ele>625.47000000000003</ele>
        <time>2017-06-30T09:39:47Z</time>
      </trkpt>
      <trkpt lat="61.589491004124284" lon="10.054525025188923">
        <ele>613.46000000000004</ele>
        <time>2017-06-30T09:39:59Z</time>
      </trkpt>
      <trkpt lat="61.587369041517377" lon="10.056933984160423">
        <ele>610.09000000000003</ele>
        <time>2017-06-30T09:40:13Z</time>
      </trkpt>
      <trkpt lat="61.585226962342858" lon="10.05924797616899">
        <ele>607.21000000000004</ele>
        <time>2017-06-30T09:40:27Z</time>
      </trkpt>
      <trkpt lat="61.583394007757306" lon="10.060539962723851">
        <ele>597.60000000000002</ele>
        <time>2017-06-30T09:40:38Z</time>
      </trkpt>
      <trkpt lat="61.58183204010129" lon="10.06124303676188">
        <ele>587.98000000000002</ele>
        <time>2017-06-30T09:40:47Z</time>
      </trkpt>
      <trkpt lat="61.578628979623318" lon="10.063148997724056">
        <ele>571.63999999999999</ele>
        <time>2017-06-30T09:41:05Z</time>
      </trkpt>
      <trkpt lat="61.577355014160275" lon="10.06332702934742">
        <ele>568.27999999999997</ele>
        <time>2017-06-30T09:41:12Z</time>
      </trkpt>
      <trkpt lat="61.575906034559011" lon="10.063615031540394">
        <ele>561.54999999999995</ele>
        <time>2017-06-30T09:41:20Z</time>
      </trkpt>
      <trkpt lat="61.574182966724038" lon="10.064462022855878">
        <ele>552.40999999999997</ele>
        <time>2017-06-30T09:41:29Z</time>
      </trkpt>
      <trkpt lat="61.572760976850986" lon="10.064705014228821">
        <ele>550.49000000000001</ele>
        <time>2017-06-30T09:41:36Z</time>
      </trkpt>
      <trkpt lat="61.570973033085465" lon="10.064823031425476">
        <ele>548.09000000000003</ele>
        <time>2017-06-30T09:41:45Z</time>
      </trkpt>
      <trkpt lat="61.569472001865506" lon="10.065975962206721">
        <ele>543.27999999999997</ele>
        <time>2017-06-30T09:41:53Z</time>
      </trkpt>
      <trkpt lat="61.568215973675251" lon="10.067573972046375">
        <ele>529.34000000000003</ele>
        <time>2017-06-30T09:42:01Z</time>
      </trkpt>
      <trkpt lat="61.56791104003787" lon="10.067882006987929">
        <ele>525.98000000000002</ele>
        <time>2017-06-30T09:42:03Z</time>
      </trkpt>
      <trkpt lat="61.567757986485958" lon="10.067953001707792">
        <ele>524.05999999999995</ele>
        <time>2017-06-30T09:42:04Z</time>
      </trkpt>
      <trkpt lat="61.567597975954413" lon="10.067976973950863">
        <ele>522.61000000000001</ele>
        <time>2017-06-30T09:42:05Z</time>
      </trkpt>
      <trkpt lat="61.567433020099998" lon="10.067955013364553">
        <ele>521.16999999999996</ele>
        <time>2017-06-30T09:42:06Z</time>
      </trkpt>
      <trkpt lat="61.567261023446918" lon="10.067901033908129">
        <ele>519.25</ele>
        <time>2017-06-30T09:42:07Z</time>
      </trkpt>
      <trkpt lat="61.567079974338412" lon="10.067838001996279">
        <ele>517.33000000000004</ele>
        <time>2017-06-30T09:42:08Z</time>
      </trkpt>
      <trkpt lat="61.565938023850322" lon="10.067592998966575">
        <ele>506.75</ele>
        <time>2017-06-30T09:42:14Z</time>
      </trkpt>
      <trkpt lat="61.565740965306759" lon="10.067620994523168">
        <ele>505.79000000000002</ele>
        <time>2017-06-30T09:42:15Z</time>
      </trkpt>
      <trkpt lat="61.56408897601068" lon="10.068354997783899">
        <ele>492.32999999999998</ele>
        <time>2017-06-30T09:42:23Z</time>
      </trkpt>
      <trkpt lat="61.562851974740624" lon="10.068952040746808">
        <ele>480.80000000000001</ele>
        <time>2017-06-30T09:42:29Z</time>
      </trkpt>
      <trkpt lat="61.562686013057828" lon="10.069115990772843">
        <ele>478.38999999999999</ele>
        <time>2017-06-30T09:42:30Z</time>
      </trkpt>
      <trkpt lat="61.562537988647819" lon="10.069319000467658">
        <ele>477.43000000000001</ele>
        <time>2017-06-30T09:42:31Z</time>
      </trkpt>
      <trkpt lat="61.562403040006757" lon="10.069567020982504">
        <ele>476.47000000000003</ele>
        <time>2017-06-30T09:42:32Z</time>
      </trkpt>
      <trkpt lat="61.562279993668199" lon="10.069834990426898">
        <ele>475.50999999999999</ele>
        <time>2017-06-30T09:42:33Z</time>
      </trkpt>
      <trkpt lat="61.562165999785066" lon="10.070111006498337">
        <ele>474.06999999999999</ele>
        <time>2017-06-30T09:42:34Z</time>
      </trkpt>
      <trkpt lat="61.561160003766418" lon="10.072752982378006">
        <ele>460.13</ele>
        <time>2017-06-30T09:42:44Z</time>
      </trkpt>
      <trkpt lat="61.561108035966754" lon="10.073024975135922">
        <ele>458.69</ele>
        <time>2017-06-30T09:42:45Z</time>
      </trkpt>
      <trkpt lat="61.561065958812833" lon="10.073307026177645">
        <ele>457.24000000000001</ele>
        <time>2017-06-30T09:42:46Z</time>
      </trkpt>
      <trkpt lat="61.560945007950068" lon="10.074158040806651">
        <ele>453.39999999999998</ele>
        <time>2017-06-30T09:42:49Z</time>
      </trkpt>
      <trkpt lat="61.560867978259921" lon="10.074427016079426">
        <ele>452.44</ele>
        <time>2017-06-30T09:42:50Z</time>
      </trkpt>
      <trkpt lat="61.560776028782129" lon="10.074678976088762">
        <ele>450.51999999999998</ele>
        <time>2017-06-30T09:42:51Z</time>
      </trkpt>
      <trkpt lat="61.560662034898996" lon="10.074919033795595">
        <ele>449.06999999999999</ele>
        <time>2017-06-30T09:42:52Z</time>
      </trkpt>
      <trkpt lat="61.560531025752425" lon="10.075133023783565">
        <ele>446.19</ele>
        <time>2017-06-30T09:42:53Z</time>
      </trkpt>
      <trkpt lat="61.560381995514035" lon="10.075308037921786">
        <ele>444.26999999999998</ele>
        <time>2017-06-30T09:42:54Z</time>
      </trkpt>
      <trkpt lat="61.560222990810871" lon="10.075475005432963">
        <ele>443.31</ele>
        <time>2017-06-30T09:42:55Z</time>
      </trkpt>
      <trkpt lat="61.559887966141105" lon="10.0758340023458">
        <ele>438.98000000000002</ele>
        <time>2017-06-30T09:42:57Z</time>
      </trkpt>
      <trkpt lat="61.559729967266321" lon="10.076077999547124">
        <ele>437.06</ele>
        <time>2017-06-30T09:42:58Z</time>
      </trkpt>
      <trkpt lat="61.558232959359884" lon="10.078512020409107">
        <ele>424.07999999999998</ele>
        <time>2017-06-30T09:43:07Z</time>
      </trkpt>
      <trkpt lat="61.557940011844039" lon="10.07894997484982">
        <ele>417.82999999999998</ele>
        <time>2017-06-30T09:43:09Z</time>
      </trkpt>
      <trkpt lat="61.557780001312494" lon="10.079090958461165">
        <ele>415.91000000000003</ele>
        <time>2017-06-30T09:43:10Z</time>
      </trkpt>
      <trkpt lat="61.557613033801317" lon="10.079180980101228">
        <ele>414.47000000000003</ele>
        <time>2017-06-30T09:43:11Z</time>
      </trkpt>
      <trkpt lat="61.557438019663095" lon="10.079242000356317">
        <ele>412.06</ele>
        <time>2017-06-30T09:43:12Z</time>
      </trkpt>
      <trkpt lat="61.557267028838396" lon="10.079287011176348">
        <ele>410.13999999999999</ele>
        <time>2017-06-30T09:43:13Z</time>
      </trkpt>
      <trkpt lat="61.556929992511868" lon="10.079460013657808">
        <ele>405.32999999999998</ele>
        <time>2017-06-30T09:43:15Z</time>
      </trkpt>
      <trkpt lat="61.556777022778988" lon="10.079609965905547">
        <ele>403.88999999999999</ele>
        <time>2017-06-30T09:43:16Z</time>
      </trkpt>
      <trkpt lat="61.556634027510881" lon="10.079806018620729">
        <ele>401.97000000000003</ele>
        <time>2017-06-30T09:43:17Z</time>
      </trkpt>
      <trkpt lat="61.556498995050788" lon="10.080048004165292">
        <ele>400.05000000000001</ele>
        <time>2017-06-30T09:43:18Z</time>
      </trkpt>
      <trkpt lat="61.556372009217739" lon="10.080318991094828">
        <ele>398.60000000000002</ele>
        <time>2017-06-30T09:43:19Z</time>
      </trkpt>
      <trkpt lat="61.55624502338469" lon="10.080602969974279">
        <ele>396.19999999999999</ele>
        <time>2017-06-30T09:43:20Z</time>
      </trkpt>
      <trkpt lat="61.554411984980106" lon="10.084242979064584">
        <ele>369.75999999999999</ele>
        <time>2017-06-30T09:43:33Z</time>
      </trkpt>
      <trkpt lat="61.553217982873321" lon="10.086546996608377">
        <ele>351.5</ele>
        <time>2017-06-30T09:43:42Z</time>
      </trkpt>
      <trkpt lat="61.551801022142172" lon="10.088894013315439">
        <ele>329.87</ele>
        <time>2017-06-30T09:43:52Z</time>
      </trkpt>
      <trkpt lat="61.550602996721864" lon="10.090426979586482">
        <ele>316.41000000000003</ele>
        <time>2017-06-30T09:44:00Z</time>
      </trkpt>
      <trkpt lat="61.550526972860098" lon="10.090595036745071">
        <ele>315.93000000000001</ele>
        <time>2017-06-30T09:44:01Z</time>
      </trkpt>
      <trkpt lat="61.550472993403673" lon="10.090791005641222">
        <ele>315.44999999999999</ele>
        <time>2017-06-30T09:44:02Z</time>
      </trkpt>
      <trkpt lat="61.550427982583642" lon="10.091009018942714">
        <ele>315.93000000000001</ele>
        <time>2017-06-30T09:44:03Z</time>
      </trkpt>
      <trkpt lat="61.550390012562275" lon="10.091241030022502">
        <ele>316.88999999999999</ele>
        <time>2017-06-30T09:44:04Z</time>
      </trkpt>
      <trkpt lat="61.550223967060447" lon="10.092654973268509">
        <ele>321.22000000000003</ele>
        <time>2017-06-30T09:44:09Z</time>
      </trkpt>
      <trkpt lat="61.550159007310867" lon="10.092968959361315">
        <ele>321.69999999999999</ele>
        <time>2017-06-30T09:44:10Z</time>
      </trkpt>
      <trkpt lat="61.550081977620721" lon="10.093272970989347">
        <ele>322.18000000000001</ele>
        <time>2017-06-30T09:44:11Z</time>
      </trkpt>
      <trkpt lat="61.549943005666137" lon="10.093873031437397">
        <ele>322.18000000000001</ele>
        <time>2017-06-30T09:44:13Z</time>
      </trkpt>
      <trkpt lat="61.549892965704203" lon="10.094199003651738">
        <ele>321.69999999999999</ele>
        <time>2017-06-30T09:44:14Z</time>
      </trkpt>
      <trkpt lat="61.549862958490849" lon="10.094549031928182">
        <ele>322.18000000000001</ele>
        <time>2017-06-30T09:44:15Z</time>
      </trkpt>
      <trkpt lat="61.549851978197694" lon="10.09491397999227">
        <ele>322.66000000000003</ele>
        <time>2017-06-30T09:44:16Z</time>
      </trkpt>
      <trkpt lat="61.549850972369313" lon="10.095281023532152">
        <ele>323.13999999999999</ele>
        <time>2017-06-30T09:44:17Z</time>
      </trkpt>
      <trkpt lat="61.549808979034424" lon="10.096030030399561">
        <ele>325.06</ele>
        <time>2017-06-30T09:44:19Z</time>
      </trkpt>
      <trkpt lat="61.549759022891521" lon="10.09639598429203">
        <ele>325.54000000000002</ele>
        <time>2017-06-30T09:44:20Z</time>
      </trkpt>
      <trkpt lat="61.549696996808052" lon="10.096763027831912">
        <ele>326.5</ele>
        <time>2017-06-30T09:44:21Z</time>
      </trkpt>
      <trkpt lat="61.548958970233798" lon="10.100297005847096">
        <ele>334.19999999999999</ele>
        <time>2017-06-30T09:44:31Z</time>
      </trkpt>
      <trkpt lat="61.548027992248535" lon="10.104746958240867">
        <ele>341.88999999999999</ele>
        <time>2017-06-30T09:44:45Z</time>
      </trkpt>
      <trkpt lat="61.547095002606511" lon="10.108387973159552">
        <ele>341.41000000000003</ele>
        <time>2017-06-30T09:44:56Z</time>
      </trkpt>
      <trkpt lat="61.545564970001578" lon="10.112253958359361">
        <ele>337.07999999999998</ele>
        <time>2017-06-30T09:45:09Z</time>
      </trkpt>
      <trkpt lat="61.544142980128527" lon="10.11571099050343">
        <ele>331.79000000000002</ele>
        <time>2017-06-30T09:45:22Z</time>
      </trkpt>
      <trkpt lat="61.544020017609" lon="10.115884998813272">
        <ele>331.79000000000002</ele>
        <time>2017-06-30T09:45:23Z</time>
      </trkpt>
      <trkpt lat="61.543894959613681" lon="10.116047021001577">
        <ele>331.31</ele>
        <time>2017-06-30T09:45:24Z</time>
      </trkpt>
      <trkpt lat="61.542700035497546" lon="10.117396004498005">
        <ele>329.38999999999999</ele>
        <time>2017-06-30T09:45:34Z</time>
      </trkpt>
      <trkpt lat="61.542101986706257" lon="10.118150962516665">
        <ele>325.54000000000002</ele>
        <time>2017-06-30T09:45:39Z</time>
      </trkpt>
      <trkpt lat="61.541955973953009" lon="10.118257999420166">
        <ele>324.57999999999998</ele>
        <time>2017-06-30T09:45:40Z</time>
      </trkpt>
      <trkpt lat="61.541369995102286" lon="10.118691008538008">
        <ele>321.22000000000003</ele>
        <time>2017-06-30T09:45:44Z</time>
      </trkpt>
      <trkpt lat="61.54124703258276" lon="10.118848001584411">
        <ele>319.30000000000001</ele>
        <time>2017-06-30T09:45:45Z</time>
      </trkpt>
      <trkpt lat="61.54112096875906" lon="10.119044976308942">
        <ele>318.81</ele>
        <time>2017-06-30T09:45:46Z</time>
      </trkpt>
      <trkpt lat="61.540737999603152" lon="10.119628021493554">
        <ele>315.93000000000001</ele>
        <time>2017-06-30T09:45:49Z</time>
      </trkpt>
      <trkpt lat="61.540592992678285" lon="10.119776967912912">
        <ele>314.97000000000003</ele>
        <time>2017-06-30T09:45:50Z</time>
      </trkpt>
      <trkpt lat="61.53985102660954" lon="10.120492028072476">
        <ele>311.12</ele>
        <time>2017-06-30T09:45:55Z</time>
      </trkpt>
      <trkpt lat="61.539725968614221" lon="10.120689002797008">
        <ele>310.16000000000003</ele>
        <time>2017-06-30T09:45:56Z</time>
      </trkpt>
      <trkpt lat="61.539609963074327" lon="10.120905004441738">
        <ele>309.19999999999999</ele>
        <time>2017-06-30T09:45:57Z</time>
      </trkpt>
      <trkpt lat="61.539395973086357" lon="10.121357040479779">
        <ele>307.75999999999999</ele>
        <time>2017-06-30T09:45:59Z</time>
      </trkpt>
      <trkpt lat="61.539234034717083" lon="10.12183103710413">
        <ele>305.83999999999997</ele>
        <time>2017-06-30T09:46:01Z</time>
      </trkpt>
      <trkpt lat="61.539179971441627" lon="10.122094983235002">
        <ele>304.88</ele>
        <time>2017-06-30T09:46:02Z</time>
      </trkpt>
      <trkpt lat="61.539071006700397" lon="10.122643997892737">
        <ele>302.94999999999999</ele>
        <time>2017-06-30T09:46:04Z</time>
      </trkpt>
      <trkpt lat="61.53899397701025" lon="10.122893024235964">
        <ele>301.99000000000001</ele>
        <time>2017-06-30T09:46:05Z</time>
      </trkpt>
      <trkpt lat="61.538902027532458" lon="10.123111037537456">
        <ele>301.02999999999997</ele>
        <time>2017-06-30T09:46:06Z</time>
      </trkpt>
      <trkpt lat="61.538791973143816" lon="10.123309018090367">
        <ele>300.06999999999999</ele>
        <time>2017-06-30T09:46:07Z</time>
      </trkpt>
      <trkpt lat="61.538665993139148" lon="10.123481014743447">
        <ele>298.63</ele>
        <time>2017-06-30T09:46:08Z</time>
      </trkpt>
      <trkpt lat="61.538530038669705" lon="10.123648988083005">
        <ele>297.67000000000002</ele>
        <time>2017-06-30T09:46:09Z</time>
      </trkpt>
      <trkpt lat="61.537352968007326" lon="10.125575987622142">
        <ele>290.45999999999998</ele>
        <time>2017-06-30T09:46:18Z</time>
      </trkpt>
      <trkpt lat="61.537265041843057" lon="10.125876981765032">
        <ele>290.45999999999998</ele>
        <time>2017-06-30T09:46:19Z</time>
      </trkpt>
      <trkpt lat="61.536666993051767" lon="10.129032013937831">
        <ele>288.52999999999997</ele>
        <time>2017-06-30T09:46:29Z</time>
      </trkpt>
      <trkpt lat="61.536042038351297" lon="10.132910991087556">
        <ele>282.76999999999998</ele>
        <time>2017-06-30T09:46:42Z</time>
      </trkpt>
      <trkpt lat="61.535956040024757" lon="10.133148031309247">
        <ele>281.80000000000001</ele>
        <time>2017-06-30T09:46:43Z</time>
      </trkpt>
      <trkpt lat="61.535855960100889" lon="10.13337098993361">
        <ele>280.83999999999997</ele>
        <time>2017-06-30T09:46:44Z</time>
      </trkpt>
      <trkpt lat="61.534403041005135" lon="10.136189991608262">
        <ele>266.42000000000002</ele>
        <time>2017-06-30T09:46:57Z</time>
      </trkpt>
      <trkpt lat="61.533571975305676" lon="10.137662021443248">
        <ele>255.84999999999999</ele>
        <time>2017-06-30T09:47:06Z</time>
      </trkpt>
      <trkpt lat="61.533493017777801" lon="10.137725975364447">
        <ele>255.37</ele>
        <time>2017-06-30T09:47:07Z</time>
      </trkpt>
      <trkpt lat="61.533412970602512" lon="10.137728992849588">
        <ele>254.41</ele>
        <time>2017-06-30T09:47:08Z</time>
      </trkpt>
      <trkpt lat="61.533334013074636" lon="10.13768800534308">
        <ele>253.44</ele>
        <time>2017-06-30T09:47:09Z</time>
      </trkpt>
      <trkpt lat="61.533252960070968" lon="10.137631008401513">
        <ele>252.47999999999999</ele>
        <time>2017-06-30T09:47:10Z</time>
      </trkpt>
      <trkpt lat="61.533175008371472" lon="10.137550039216876">
        <ele>251.03999999999999</ele>
        <time>2017-06-30T09:47:11Z</time>
      </trkpt>
      <trkpt lat="61.533085992559791" lon="10.137475021183491">
        <ele>250.56</ele>
        <time>2017-06-30T09:47:12Z</time>
      </trkpt>
      <trkpt lat="61.532920030876994" lon="10.137363960966468">
        <ele>248.16</ele>
        <time>2017-06-30T09:47:14Z</time>
      </trkpt>
      <trkpt lat="61.532852975651622" lon="10.13738701120019">
        <ele>247.19999999999999</ele>
        <time>2017-06-30T09:47:15Z</time>
      </trkpt>
      <trkpt lat="61.532808970659971" lon="10.137460017576814">
        <ele>246.22999999999999</ele>
        <time>2017-06-30T09:47:16Z</time>
      </trkpt>
      <trkpt lat="61.532791033387184" lon="10.137564959004521">
        <ele>245.27000000000001</ele>
        <time>2017-06-30T09:47:17Z</time>
      </trkpt>
      <trkpt lat="61.532801007851958" lon="10.137680964544415">
        <ele>244.78999999999999</ele>
        <time>2017-06-30T09:47:18Z</time>
      </trkpt>
      <trkpt lat="61.532832020893693" lon="10.137801999226213">
        <ele>244.31</ele>
        <time>2017-06-30T09:47:19Z</time>
      </trkpt>
      <trkpt lat="61.532874014228582" lon="10.137939965352416">
        <ele>243.34999999999999</ele>
        <time>2017-06-30T09:47:20Z</time>
      </trkpt>
      <trkpt lat="61.532937968149781" lon="10.138281024992466">
        <ele>241.91</ele>
        <time>2017-06-30T09:47:22Z</time>
      </trkpt>
      <trkpt lat="61.532948026433587" lon="10.138470958918333">
        <ele>240.47</ele>
        <time>2017-06-30T09:47:23Z</time>
      </trkpt>
      <trkpt lat="61.532940985634923" lon="10.138668017461896">
        <ele>239.50999999999999</ele>
        <time>2017-06-30T09:47:24Z</time>
      </trkpt>
      <trkpt lat="61.532923970371485" lon="10.138864992186427">
        <ele>238.53999999999999</ele>
        <time>2017-06-30T09:47:25Z</time>
      </trkpt>
      <trkpt lat="61.532901003956795" lon="10.139058027416468">
        <ele>237.58000000000001</ele>
        <time>2017-06-30T09:47:26Z</time>
      </trkpt>
      <trkpt lat="61.532853981480002" lon="10.139616010710597">
        <ele>234.69999999999999</ele>
        <time>2017-06-30T09:47:29Z</time>
      </trkpt>
      <trkpt lat="61.532862028107047" lon="10.139788007363677">
        <ele>233.74000000000001</ele>
        <time>2017-06-30T09:47:30Z</time>
      </trkpt>
      <trkpt lat="61.532888012006879" lon="10.139935025945306">
        <ele>232.78</ele>
        <time>2017-06-30T09:47:31Z</time>
      </trkpt>
      <trkpt lat="61.532921036705375" lon="10.140150021761656">
        <ele>231.81</ele>
        <time>2017-06-30T09:47:33Z</time>
      </trkpt>
      <trkpt lat="61.532907038927078" lon="10.140240965411067">
        <ele>231.33000000000001</ele>
        <time>2017-06-30T09:47:34Z</time>
      </trkpt>
      <trkpt lat="61.532866973429918" lon="10.140300979837775">
        <ele>230.84999999999999</ele>
        <time>2017-06-30T09:47:35Z</time>
      </trkpt>
      <trkpt lat="61.532817017287016" lon="10.140326963737607">
        <ele>230.37</ele>
        <time>2017-06-30T09:47:36Z</time>
      </trkpt>
      <trkpt lat="61.532750967890024" lon="10.140322018414736">
        <ele>229.88999999999999</ele>
        <time>2017-06-30T09:47:37Z</time>
      </trkpt>
      <trkpt lat="61.5326779615134" lon="10.140276001766324">
        <ele>228.93000000000001</ele>
        <time>2017-06-30T09:47:38Z</time>
      </trkpt>
      <trkpt lat="61.532604033127427" lon="10.140233002603054">
        <ele>227.97</ele>
        <time>2017-06-30T09:47:39Z</time>
      </trkpt>
      <trkpt lat="61.532458020374179" lon="10.140108028426766">
        <ele>226.05000000000001</ele>
        <time>2017-06-30T09:47:41Z</time>
      </trkpt>
      <trkpt lat="61.532400017604232" lon="10.139999985694885">
        <ele>225.56999999999999</ele>
        <time>2017-06-30T09:47:42Z</time>
      </trkpt>
      <trkpt lat="61.532363975420594" lon="10.139865037053823">
        <ele>224.61000000000001</ele>
        <time>2017-06-30T09:47:43Z</time>
      </trkpt>
      <trkpt lat="61.532340003177524" lon="10.139725981280208">
        <ele>224.12</ele>
        <time>2017-06-30T09:47:44Z</time>
      </trkpt>
      <trkpt lat="61.532327011227608" lon="10.139589020982385">
        <ele>223.16</ele>
        <time>2017-06-30T09:47:45Z</time>
      </trkpt>
      <trkpt lat="61.532320976257324" lon="10.139444014057517">
        <ele>222.68000000000001</ele>
        <time>2017-06-30T09:47:46Z</time>
      </trkpt>
      <trkpt lat="61.532293986529112" lon="10.139154000207782">
        <ele>221.24000000000001</ele>
        <time>2017-06-30T09:47:48Z</time>
      </trkpt>
      <trkpt lat="61.532265990972519" lon="10.139059033244848">
        <ele>220.75999999999999</ele>
        <time>2017-06-30T09:47:49Z</time>
      </trkpt>
      <trkpt lat="61.532227015122771" lon="10.138996001332998">
        <ele>219.80000000000001</ele>
        <time>2017-06-30T09:47:50Z</time>
      </trkpt>
      <trkpt lat="61.53218200430274" lon="10.138982003554702">
        <ele>219.31999999999999</ele>
        <time>2017-06-30T09:47:51Z</time>
      </trkpt>
      <trkpt lat="61.53213900513947" lon="10.138991978019476">
        <ele>218.84</ele>
        <time>2017-06-30T09:47:52Z</time>
      </trkpt>
      <trkpt lat="61.532099023461342" lon="10.139011004939675">
        <ele>218.36000000000001</ele>
        <time>2017-06-30T09:47:53Z</time>
      </trkpt>
      <trkpt lat="61.532061975449324" lon="10.139046041294932">
        <ele>217.40000000000001</ele>
        <time>2017-06-30T09:47:54Z</time>
      </trkpt>
      <trkpt lat="61.532022999599576" lon="10.139083005487919">
        <ele>217.40000000000001</ele>
        <time>2017-06-30T09:47:55Z</time>
      </trkpt>
      <trkpt lat="61.531883021816611" lon="10.139245027676225">
        <ele>215.94999999999999</ele>
        <time>2017-06-30T09:48:00Z</time>
      </trkpt>
      <trkpt lat="61.531872041523457" lon="10.139316022396088">
        <ele>215.94999999999999</ele>
        <time>2017-06-30T09:48:01Z</time>
      </trkpt>
      <trkpt lat="61.531876986846328" lon="10.139409983530641">
        <ele>215.47</ele>
        <time>2017-06-30T09:48:02Z</time>
      </trkpt>
      <trkpt lat="61.531897019594908" lon="10.139520959928632">
        <ele>215.47</ele>
        <time>2017-06-30T09:48:03Z</time>
      </trkpt>
      <trkpt lat="61.531926020979881" lon="10.139641994610429">
        <ele>215.47</ele>
        <time>2017-06-30T09:48:04Z</time>
      </trkpt>
      <trkpt lat="61.532110003754497" lon="10.141125004738569">
        <ele>215.94999999999999</ele>
        <time>2017-06-30T09:48:16Z</time>
      </trkpt>
      <trkpt lat="61.53211796656251" lon="10.141200022771955">
        <ele>213.55000000000001</ele>
        <time>2017-06-30T09:48:26Z</time>
      </trkpt>
      <trkpt lat="61.532132970169187" lon="10.141683993861079">
        <ele>214.03</ele>
        <time>2017-06-30T09:48:31Z</time>
      </trkpt>
      <trkpt lat="61.532115032896399" lon="10.141838975250721">
        <ele>214.03</ele>
        <time>2017-06-30T09:48:32Z</time>
      </trkpt>
      <trkpt lat="61.532087037339807" lon="10.141989011317492">
        <ele>214.50999999999999</ele>
        <time>2017-06-30T09:48:33Z</time>
      </trkpt>
      <trkpt lat="61.532046971842647" lon="10.142123959958553">
        <ele>214.50999999999999</ele>
        <time>2017-06-30T09:48:34Z</time>
      </trkpt>
      <trkpt lat="61.531995004042983" lon="10.142246000468731">
        <ele>214.03</ele>
        <time>2017-06-30T09:48:35Z</time>
      </trkpt>
      <trkpt lat="61.531927026808262" lon="10.142362006008625">
        <ele>213.55000000000001</ele>
        <time>2017-06-30T09:48:36Z</time>
      </trkpt>
      <trkpt lat="61.531852008774877" lon="10.142462002113461">
        <ele>213.06999999999999</ele>
        <time>2017-06-30T09:48:37Z</time>
      </trkpt>
      <trkpt lat="61.531770033761859" lon="10.142555963248014">
        <ele>212.11000000000001</ele>
        <time>2017-06-30T09:48:38Z</time>
      </trkpt>
      <trkpt lat="61.530711986124516" lon="10.143613005056977">
        <ele>204.90000000000001</ele>
        <time>2017-06-30T09:48:51Z</time>
      </trkpt>
      <trkpt lat="61.529684029519558" lon="10.14503600075841">
        <ele>202.00999999999999</ele>
        <time>2017-06-30T09:49:04Z</time>
      </trkpt>
      <trkpt lat="61.529315980151296" lon="10.145752988755703">
        <ele>201.53</ele>
        <time>2017-06-30T09:49:12Z</time>
      </trkpt>
      <trkpt lat="61.529282033443451" lon="10.14576799236238">
        <ele>201.53</ele>
        <time>2017-06-30T09:49:13Z</time>
      </trkpt>
      <trkpt lat="61.529254037886858" lon="10.145762963220477">
        <ele>201.53</ele>
        <time>2017-06-30T09:49:14Z</time>
      </trkpt>
      <trkpt lat="61.5292380284518" lon="10.145748965442181">
        <ele>201.53</ele>
        <time>2017-06-30T09:49:15Z</time>
      </trkpt>
      <trkpt lat="61.529229981824756" lon="10.145690962672234">
        <ele>201.05000000000001</ele>
        <time>2017-06-30T09:49:26Z</time>
      </trkpt>
      <trkpt lat="61.529226964339614" lon="10.145678976550698">
        <ele>201.05000000000001</ele>
        <time>2017-06-30T09:49:27Z</time>
      </trkpt>
      <trkpt lat="61.529227970167994" lon="10.145628014579415">
        <ele>201.53</ele>
        <time>2017-06-30T09:49:28Z</time>
      </trkpt>
      <trkpt lat="61.529230987653136" lon="10.145545033738017">
        <ele>202.00999999999999</ele>
        <time>2017-06-30T09:49:29Z</time>
      </trkpt>
      <trkpt lat="61.529243979603052" lon="10.145459035411477">
        <ele>202.00999999999999</ele>
        <time>2017-06-30T09:49:30Z</time>
      </trkpt>
      <trkpt lat="61.529268035665154" lon="10.145386029034853">
        <ele>202.00999999999999</ele>
        <time>2017-06-30T09:49:31Z</time>
      </trkpt>
      <trkpt lat="61.529296031221747" lon="10.145336994901299">
        <ele>202.49000000000001</ele>
        <time>2017-06-30T09:49:32Z</time>
      </trkpt>
      <trkpt lat="61.52932302094996" lon="10.145298019051552">
        <ele>202.97999999999999</ele>
        <time>2017-06-30T09:49:33Z</time>
      </trkpt>
      <trkpt lat="61.529347999021411" lon="10.145262982696295">
        <ele>202.97999999999999</ele>
        <time>2017-06-30T09:49:34Z</time>
      </trkpt>
      <trkpt lat="61.529397033154964" lon="10.145174972712994">
        <ele>201.53</ele>
        <time>2017-06-30T09:49:37Z</time>
      </trkpt>
      <trkpt lat="61.529403990134597" lon="10.145151000469923">
        <ele>201.05000000000001</ele>
        <time>2017-06-30T09:49:38Z</time>
      </trkpt>
      <trkpt lat="61.529407007619739" lon="10.145092997699976">
        <ele>199.61000000000001</ele>
        <time>2017-06-30T09:49:41Z</time>
      </trkpt>
      <trkpt lat="61.529399966821074" lon="10.145056033506989">
        <ele>199.13</ele>
        <time>2017-06-30T09:49:42Z</time>
      </trkpt>
      <trkpt lat="61.529390998184681" lon="10.144941033795476">
        <ele>197.69</ele>
        <time>2017-06-30T09:49:45Z</time>
      </trkpt>
      <trkpt lat="61.529446989297867" lon="10.144730983301997">
        <ele>197.21000000000001</ele>
        <time>2017-06-30T09:49:59Z</time>
      </trkpt>
      <trkpt lat="61.529413964599371" lon="10.144526967778802">
        <ele>206.34</ele>
        <time>2017-06-30T10:29:20Z</time>
      </trkpt>
      <trkpt lat="61.529427962377667" lon="10.144458990544081">
        <ele>209.22</ele>
        <time>2017-06-30T10:30:05Z</time>
      </trkpt>
      <trkpt lat="61.529429974034429" lon="10.144462008029222">
        <ele>209.69999999999999</ele>
        <time>2017-06-30T10:30:17Z</time>
      </trkpt>
      <trkpt lat="61.529417987912893" lon="10.144376009702682">
        <ele>208.74000000000001</ele>
        <time>2017-06-30T10:30:22Z</time>
      </trkpt>
      <trkpt lat="61.529422011226416" lon="10.144164031371474">
        <ele>204.90000000000001</ele>
        <time>2017-06-30T10:30:33Z</time>
      </trkpt>
      <trkpt lat="61.529401978477836" lon="10.144056994467974">
        <ele>204.41999999999999</ele>
        <time>2017-06-30T10:30:43Z</time>
      </trkpt>
      <trkpt lat="61.52936602011323" lon="10.144050037488341">
        <ele>204.41999999999999</ele>
        <time>2017-06-30T10:30:53Z</time>
      </trkpt>
      <trkpt lat="61.529310029000044" lon="10.14421901665628">
        <ele>203.94</ele>
        <time>2017-06-30T10:30:56Z</time>
      </trkpt>
      <trkpt lat="61.529134009033442" lon="10.145499017089605">
        <ele>200.09</ele>
        <time>2017-06-30T10:31:05Z</time>
      </trkpt>
      <trkpt lat="61.528625981882215" lon="10.146921006962657">
        <ele>197.69</ele>
        <time>2017-06-30T10:31:16Z</time>
      </trkpt>
      <trkpt lat="61.528090965002775" lon="10.147815020754933">
        <ele>195.28</ele>
        <time>2017-06-30T10:31:26Z</time>
      </trkpt>
      <trkpt lat="61.528062969446182" lon="10.147833963856101">
        <ele>193.84</ele>
        <time>2017-06-30T10:31:35Z</time>
      </trkpt>
      <trkpt lat="61.528062969446182" lon="10.147833041846752">
        <ele>193.84</ele>
        <time>2017-06-30T10:32:45Z</time>
      </trkpt>
      <trkpt lat="61.528046038001776" lon="10.147871011868119">
        <ele>193.36000000000001</ele>
        <time>2017-06-30T10:34:09Z</time>
      </trkpt>
      <trkpt lat="61.528023993596435" lon="10.147944018244743">
        <ele>193.36000000000001</ele>
        <time>2017-06-30T10:34:10Z</time>
      </trkpt>
      <trkpt lat="61.527869012206793" lon="10.148262027651072">
        <ele>193.36000000000001</ele>
        <time>2017-06-30T10:34:13Z</time>
      </trkpt>
      <trkpt lat="61.527051022276282" lon="10.149844028055668">
        <ele>192.40000000000001</ele>
        <time>2017-06-30T10:34:23Z</time>
      </trkpt>
      <trkpt lat="61.525604976341128" lon="10.152776017785072">
        <ele>189.03999999999999</ele>
        <time>2017-06-30T10:34:38Z</time>
      </trkpt>
      <trkpt lat="61.524428995326161" lon="10.15462196432054">
        <ele>187.11000000000001</ele>
        <time>2017-06-30T10:34:48Z</time>
      </trkpt>
      <trkpt lat="61.523465998470783" lon="10.155972959473729">
        <ele>186.15000000000001</ele>
        <time>2017-06-30T10:34:55Z</time>
      </trkpt>
      <trkpt lat="61.521642012521625" lon="10.158719960600138">
        <ele>184.22999999999999</ele>
        <time>2017-06-30T10:35:09Z</time>
      </trkpt>
      <trkpt lat="61.520329993218184" lon="10.160166006535292">
        <ele>184.71000000000001</ele>
        <time>2017-06-30T10:35:18Z</time>
      </trkpt>
      <trkpt lat="61.518871961161494" lon="10.161362020298839">
        <ele>184.71000000000001</ele>
        <time>2017-06-30T10:35:28Z</time>
      </trkpt>
      <trkpt lat="61.517131039872766" lon="10.16304099932313">
        <ele>184.71000000000001</ele>
        <time>2017-06-30T10:35:40Z</time>
      </trkpt>
      <trkpt lat="61.515172021463513" lon="10.164600033313036">
        <ele>186.63</ele>
        <time>2017-06-30T10:35:53Z</time>
      </trkpt>
      <trkpt lat="61.513114012777805" lon="10.166054964065552">
        <ele>186.63</ele>
        <time>2017-06-30T10:36:05Z</time>
      </trkpt>
      <trkpt lat="61.51118902489543" lon="10.16654497012496">
        <ele>189.52000000000001</ele>
        <time>2017-06-30T10:36:15Z</time>
      </trkpt>
      <trkpt lat="61.509411977604032" lon="10.166572965681553">
        <ele>190.96000000000001</ele>
        <time>2017-06-30T10:36:24Z</time>
      </trkpt>
      <trkpt lat="61.507899966090918" lon="10.167517019435763">
        <ele>190.47999999999999</ele>
        <time>2017-06-30T10:36:32Z</time>
      </trkpt>
      <trkpt lat="61.506022000685334" lon="10.168093023821712">
        <ele>190.96000000000001</ele>
        <time>2017-06-30T10:36:42Z</time>
      </trkpt>
      <trkpt lat="61.50461501441896" lon="10.168006019666791">
        <ele>191.44</ele>
        <time>2017-06-30T10:36:50Z</time>
      </trkpt>
      <trkpt lat="61.503486977890134" lon="10.168647989630699">
        <ele>190</ele>
        <time>2017-06-30T10:36:57Z</time>
      </trkpt>
      <trkpt lat="61.501561990007758" lon="10.169914998114109">
        <ele>190.96000000000001</ele>
        <time>2017-06-30T10:37:09Z</time>
      </trkpt>
      <trkpt lat="61.499919975176454" lon="10.171379987150431">
        <ele>188.56</ele>
        <time>2017-06-30T10:37:19Z</time>
      </trkpt>
      <trkpt lat="61.49778401479125" lon="10.173604041337967">
        <ele>187.59</ele>
        <time>2017-06-30T10:37:33Z</time>
      </trkpt>
      <trkpt lat="61.496277032420039" lon="10.174231007695198">
        <ele>190</ele>
        <time>2017-06-30T10:37:42Z</time>
      </trkpt>
      <trkpt lat="61.495085963979363" lon="10.175053020939231">
        <ele>189.52000000000001</ele>
        <time>2017-06-30T10:37:49Z</time>
      </trkpt>
      <trkpt lat="61.493746032938361" lon="10.176002020016313">
        <ele>190.47999999999999</ele>
        <time>2017-06-30T10:37:57Z</time>
      </trkpt>
      <trkpt lat="61.492102006450295" lon="10.176348024979234">
        <ele>190.96000000000001</ele>
        <time>2017-06-30T10:38:06Z</time>
      </trkpt>
      <trkpt lat="61.489983983337879" lon="10.17829698510468">
        <ele>190.96000000000001</ele>
        <time>2017-06-30T10:38:19Z</time>
      </trkpt>
      <trkpt lat="61.488337023183703" lon="10.180635033175349">
        <ele>193.36000000000001</ele>
        <time>2017-06-30T10:38:30Z</time>
      </trkpt>
      <trkpt lat="61.487075965851545" lon="10.181079022586346">
        <ele>194.80000000000001</ele>
        <time>2017-06-30T10:38:37Z</time>
      </trkpt>
      <trkpt lat="61.484326031059027" lon="10.181743958964944">
        <ele>196.25</ele>
        <time>2017-06-30T10:38:52Z</time>
      </trkpt>
      <trkpt lat="61.482774959877133" lon="10.181652009487152">
        <ele>196.72999999999999</ele>
        <time>2017-06-30T10:39:00Z</time>
      </trkpt>
      <trkpt lat="61.482420992106199" lon="10.181681010872126">
        <ele>196.72999999999999</ele>
        <time>2017-06-30T10:39:02Z</time>
      </trkpt>
      <trkpt lat="61.482241032645106" lon="10.18175502307713">
        <ele>196.72999999999999</ele>
        <time>2017-06-30T10:39:03Z</time>
      </trkpt>
      <trkpt lat="61.482056966051459" lon="10.181870022788644">
        <ele>196.25</ele>
        <time>2017-06-30T10:39:04Z</time>
      </trkpt>
      <trkpt lat="61.481882035732269" lon="10.18201201222837">
        <ele>196.25</ele>
        <time>2017-06-30T10:39:05Z</time>
      </trkpt>
      <trkpt lat="61.481715990230441" lon="10.182202029973269">
        <ele>195.28</ele>
        <time>2017-06-30T10:39:06Z</time>
      </trkpt>
      <trkpt lat="61.481556985527277" lon="10.182414008304477">
        <ele>194.31999999999999</ele>
        <time>2017-06-30T10:39:07Z</time>
      </trkpt>
      <trkpt lat="61.481405021622777" lon="10.18263403326273">
        <ele>193.84</ele>
        <time>2017-06-30T10:39:08Z</time>
      </trkpt>
      <trkpt lat="61.481258003041148" lon="10.182882975786924">
        <ele>193.84</ele>
        <time>2017-06-30T10:39:09Z</time>
      </trkpt>
      <trkpt lat="61.481121964752674" lon="10.183154968544841">
        <ele>192.88</ele>
        <time>2017-06-30T10:39:10Z</time>
      </trkpt>
      <trkpt lat="61.480988021939993" lon="10.183439031243324">
        <ele>192.40000000000001</ele>
        <time>2017-06-30T10:39:11Z</time>
      </trkpt>
      <trkpt lat="61.478860024362803" lon="10.187839027494192">
        <ele>187.59</ele>
        <time>2017-06-30T10:39:27Z</time>
      </trkpt>
      <trkpt lat="61.47760801948607" lon="10.189193962141871">
        <ele>186.63</ele>
        <time>2017-06-30T10:39:35Z</time>
      </trkpt>
      <trkpt lat="61.476140012964606" lon="10.18981003202498">
        <ele>188.08000000000001</ele>
        <time>2017-06-30T10:39:43Z</time>
      </trkpt>
      <trkpt lat="61.474544014781713" lon="10.189487999305129">
        <ele>189.52000000000001</ele>
        <time>2017-06-30T10:39:51Z</time>
      </trkpt>
      <trkpt lat="61.472837962210178" lon="10.188085036352277">
        <ele>190</ele>
        <time>2017-06-30T10:40:00Z</time>
      </trkpt>
      <trkpt lat="61.471472969278693" lon="10.187582038342953">
        <ele>189.52000000000001</ele>
        <time>2017-06-30T10:40:07Z</time>
      </trkpt>
      <trkpt lat="61.469472041353583" lon="10.187870962545276">
        <ele>189.52000000000001</ele>
        <time>2017-06-30T10:40:16Z</time>
      </trkpt>
      <trkpt lat="61.467654006555676" lon="10.18781497143209">
        <ele>189.52000000000001</ele>
        <time>2017-06-30T10:40:25Z</time>
      </trkpt>
      <trkpt lat="61.465738993138075" lon="10.186684001237154">
        <ele>190</ele>
        <time>2017-06-30T10:40:37Z</time>
      </trkpt>
      <trkpt lat="61.462885038927197" lon="10.18485096283257">
        <ele>190</ele>
        <time>2017-06-30T10:40:54Z</time>
      </trkpt>
      <trkpt lat="61.460109036415815" lon="10.183300981298089">
        <ele>190</ele>
        <time>2017-06-30T10:41:10Z</time>
      </trkpt>
      <trkpt lat="61.457260027527809" lon="10.181721998378634">
        <ele>190.96000000000001</ele>
        <time>2017-06-30T10:41:24Z</time>
      </trkpt>
      <trkpt lat="61.455614995211363" lon="10.181735996156931">
        <ele>190.47999999999999</ele>
        <time>2017-06-30T10:41:32Z</time>
      </trkpt>
      <trkpt lat="61.454271962866187" lon="10.182759007439017">
        <ele>189.03999999999999</ele>
        <time>2017-06-30T10:41:39Z</time>
      </trkpt>
      <trkpt lat="61.453220034018159" lon="10.184451984241605">
        <ele>186.15000000000001</ele>
        <time>2017-06-30T10:41:46Z</time>
      </trkpt>
      <trkpt lat="61.451581958681345" lon="10.188114959746599">
        <ele>181.83000000000001</ele>
        <time>2017-06-30T10:41:58Z</time>
      </trkpt>
      <trkpt lat="61.44995997659862" lon="10.191163038834929">
        <ele>182.31</ele>
        <time>2017-06-30T10:42:09Z</time>
      </trkpt>
      <trkpt lat="61.448906036093831" lon="10.192533982917666">
        <ele>182.31</ele>
        <time>2017-06-30T10:42:14Z</time>
      </trkpt>
      <trkpt lat="61.447479017078876" lon="10.194631973281503">
        <ele>181.34999999999999</ele>
        <time>2017-06-30T10:42:21Z</time>
      </trkpt>
      <trkpt lat="61.446330025792122" lon="10.1970290299505">
        <ele>180.87</ele>
        <time>2017-06-30T10:42:29Z</time>
      </trkpt>
      <trkpt lat="61.444900995120406" lon="10.199490962550044">
        <ele>181.83000000000001</ele>
        <time>2017-06-30T10:42:39Z</time>
      </trkpt>
      <trkpt lat="61.443586964160204" lon="10.200443984940648">
        <ele>182.78999999999999</ele>
        <time>2017-06-30T10:42:46Z</time>
      </trkpt>
      <trkpt lat="61.442066989839077" lon="10.200537024065852">
        <ele>184.22999999999999</ele>
        <time>2017-06-30T10:42:53Z</time>
      </trkpt>
      <trkpt lat="61.43930297344923" lon="10.199836967512965">
        <ele>186.15000000000001</ele>
        <time>2017-06-30T10:43:06Z</time>
      </trkpt>
      <trkpt lat="61.436948999762535" lon="10.200036959722638">
        <ele>186.15000000000001</ele>
        <time>2017-06-30T10:43:17Z</time>
      </trkpt>
      <trkpt lat="61.434704996645451" lon="10.201238002628088">
        <ele>185.19</ele>
        <time>2017-06-30T10:43:28Z</time>
      </trkpt>
      <trkpt lat="61.432744972407818" lon="10.203230967745185">
        <ele>184.22999999999999</ele>
        <time>2017-06-30T10:43:38Z</time>
      </trkpt>
      <trkpt lat="61.430896008387208" lon="10.206086011603475">
        <ele>183.75</ele>
        <time>2017-06-30T10:43:47Z</time>
      </trkpt>
      <trkpt lat="61.428785026073456" lon="10.210985988378525">
        <ele>182.78999999999999</ele>
        <time>2017-06-30T10:43:59Z</time>
      </trkpt>
      <trkpt lat="61.427160026505589" lon="10.215429989621043">
        <ele>181.83000000000001</ele>
        <time>2017-06-30T10:44:10Z</time>
      </trkpt>
      <trkpt lat="61.425974993035197" lon="10.21856096573174">
        <ele>181.83000000000001</ele>
        <time>2017-06-30T10:44:18Z</time>
      </trkpt>
      <trkpt lat="61.424273969605565" lon="10.221669981256127">
        <ele>182.31</ele>
        <time>2017-06-30T10:44:27Z</time>
      </trkpt>
      <trkpt lat="61.422540005296469" lon="10.223309984430671">
        <ele>182.78999999999999</ele>
        <time>2017-06-30T10:44:35Z</time>
      </trkpt>
      <trkpt lat="61.420101961120963" lon="10.22433802485466">
        <ele>184.71000000000001</ele>
        <time>2017-06-30T10:44:46Z</time>
      </trkpt>
      <trkpt lat="61.417598035186529" lon="10.224267030134797">
        <ele>186.15000000000001</ele>
        <time>2017-06-30T10:44:57Z</time>
      </trkpt>
      <trkpt lat="61.414579041302204" lon="10.223987996578217">
        <ele>187.59</ele>
        <time>2017-06-30T10:45:11Z</time>
      </trkpt>
      <trkpt lat="61.413150010630488" lon="10.224813027307391">
        <ele>186.63</ele>
        <time>2017-06-30T10:45:18Z</time>
      </trkpt>
      <trkpt lat="61.410506023094058" lon="10.226686969399452">
        <ele>185.19</ele>
        <time>2017-06-30T10:45:31Z</time>
      </trkpt>
      <trkpt lat="61.408787984400988" lon="10.226598959416151">
        <ele>185.66999999999999</ele>
        <time>2017-06-30T10:45:39Z</time>
      </trkpt>
      <trkpt lat="61.405251994729042" lon="10.22569396533072">
        <ele>188.08000000000001</ele>
        <time>2017-06-30T10:45:56Z</time>
      </trkpt>
      <trkpt lat="61.403811983764172" lon="10.225995965301991">
        <ele>189.03999999999999</ele>
        <time>2017-06-30T10:46:03Z</time>
      </trkpt>
      <trkpt lat="61.401286013424397" lon="10.227595986798406">
        <ele>188.56</ele>
        <time>2017-06-30T10:46:16Z</time>
      </trkpt>
      <trkpt lat="61.399633018299937" lon="10.229499014094472">
        <ele>190.96000000000001</ele>
        <time>2017-06-30T10:46:26Z</time>
      </trkpt>
      <trkpt lat="61.397353978827596" lon="10.232414994388819">
        <ele>185.66999999999999</ele>
        <time>2017-06-30T10:46:41Z</time>
      </trkpt>
      <trkpt lat="61.395814977586269" lon="10.234411982819438">
        <ele>183.75</ele>
        <time>2017-06-30T10:46:51Z</time>
      </trkpt>
      <trkpt lat="61.394152007997036" lon="10.236038994044065">
        <ele>184.71000000000001</ele>
        <time>2017-06-30T10:47:01Z</time>
      </trkpt>
      <trkpt lat="61.392221990972757" lon="10.236847009509802">
        <ele>187.59</ele>
        <time>2017-06-30T10:47:12Z</time>
      </trkpt>
      <trkpt lat="61.390888011083007" lon="10.237835990265012">
        <ele>188.08000000000001</ele>
        <time>2017-06-30T10:47:20Z</time>
      </trkpt>
      <trkpt lat="61.389590995386243" lon="10.239820992574096">
        <ele>185.19</ele>
        <time>2017-06-30T10:47:28Z</time>
      </trkpt>
      <trkpt lat="61.388269001618028" lon="10.242952974513173">
        <ele>183.27000000000001</ele>
        <time>2017-06-30T10:47:38Z</time>
      </trkpt>
      <trkpt lat="61.387226041406393" lon="10.246988022699952">
        <ele>180.87</ele>
        <time>2017-06-30T10:47:49Z</time>
      </trkpt>
      <trkpt lat="61.386764030903578" lon="10.251042013987899">
        <ele>181.83000000000001</ele>
        <time>2017-06-30T10:47:59Z</time>
      </trkpt>
      <trkpt lat="61.386477034538984" lon="10.255950037389994">
        <ele>179.90000000000001</ele>
        <time>2017-06-30T10:48:11Z</time>
      </trkpt>
      <trkpt lat="61.385853001847863" lon="10.259541012346745">
        <ele>180.87</ele>
        <time>2017-06-30T10:48:20Z</time>
      </trkpt>
      <trkpt lat="61.384970974177122" lon="10.262939035892487">
        <ele>183.27000000000001</ele>
        <time>2017-06-30T10:48:28Z</time>
      </trkpt>
      <trkpt lat="61.383986016735435" lon="10.265588974580169">
        <ele>183.27000000000001</ele>
        <time>2017-06-30T10:48:36Z</time>
      </trkpt>
      <trkpt lat="61.382770976051688" lon="10.267091011628509">
        <ele>181.83000000000001</ele>
        <time>2017-06-30T10:48:43Z</time>
      </trkpt>
      <trkpt lat="61.381067018955946" lon="10.268186023458838">
        <ele>182.78999999999999</ele>
        <time>2017-06-30T10:48:52Z</time>
      </trkpt>
      <trkpt lat="61.379907969385386" lon="10.269742039963603">
        <ele>182.31</ele>
        <time>2017-06-30T10:48:59Z</time>
      </trkpt>
      <trkpt lat="61.378938015550375" lon="10.271954024210572">
        <ele>181.34999999999999</ele>
        <time>2017-06-30T10:49:06Z</time>
      </trkpt>
      <trkpt lat="61.377835962921381" lon="10.27409702539444">
        <ele>181.83000000000001</ele>
        <time>2017-06-30T10:49:12Z</time>
      </trkpt>
      <trkpt lat="61.376109961420298" lon="10.277034966275096">
        <ele>183.27000000000001</ele>
        <time>2017-06-30T10:49:21Z</time>
      </trkpt>
      <trkpt lat="61.374166030436754" lon="10.279721030965447">
        <ele>185.19</ele>
        <time>2017-06-30T10:49:31Z</time>
      </trkpt>
      <trkpt lat="61.372459977865219" lon="10.28103799559176">
        <ele>185.66999999999999</ele>
        <time>2017-06-30T10:49:39Z</time>
      </trkpt>
      <trkpt lat="61.369821019470692" lon="10.282559981569648">
        <ele>190.96000000000001</ele>
        <time>2017-06-30T10:49:50Z</time>
      </trkpt>
      <trkpt lat="61.368497014045715" lon="10.283528007566929">
        <ele>194.31999999999999</ele>
        <time>2017-06-30T10:49:57Z</time>
      </trkpt>
      <trkpt lat="61.367306029424071" lon="10.285256020724773">
        <ele>191.91999999999999</ele>
        <time>2017-06-30T10:50:05Z</time>
      </trkpt>
      <trkpt lat="61.366071039810777" lon="10.286715980619192">
        <ele>189.03999999999999</ele>
        <time>2017-06-30T10:50:13Z</time>
      </trkpt>
      <trkpt lat="61.364484010264277" lon="10.287417965009809">
        <ele>187.11000000000001</ele>
        <time>2017-06-30T10:50:21Z</time>
      </trkpt>
      <trkpt lat="61.362609984353185" lon="10.287810992449522">
        <ele>188.08000000000001</ele>
        <time>2017-06-30T10:50:29Z</time>
      </trkpt>
      <trkpt lat="61.361455963924527" lon="10.287982989102602">
        <ele>189.52000000000001</ele>
        <time>2017-06-30T10:50:35Z</time>
      </trkpt>
      <trkpt lat="61.359235011041164" lon="10.287640001624823">
        <ele>191.44</ele>
        <time>2017-06-30T10:50:47Z</time>
      </trkpt>
      <trkpt lat="61.356865027919412" lon="10.28696802444756">
        <ele>189.52000000000001</ele>
        <time>2017-06-30T10:50:59Z</time>
      </trkpt>
      <trkpt lat="61.354269990697503" lon="10.286448011174798">
        <ele>190</ele>
        <time>2017-06-30T10:51:10Z</time>
      </trkpt>
      <trkpt lat="61.351925991475582" lon="10.286598969250917">
        <ele>193.36000000000001</ele>
        <time>2017-06-30T10:51:20Z</time>
      </trkpt>
      <trkpt lat="61.349576963111758" lon="10.286700977012515">
        <ele>194.80000000000001</ele>
        <time>2017-06-30T10:51:30Z</time>
      </trkpt>
      <trkpt lat="61.346619995310903" lon="10.286895018070936">
        <ele>198.65000000000001</ele>
        <time>2017-06-30T10:51:43Z</time>
      </trkpt>
      <trkpt lat="61.34427297860384" lon="10.287832031026483">
        <ele>198.16999999999999</ele>
        <time>2017-06-30T10:51:54Z</time>
      </trkpt>
      <trkpt lat="61.341525977477431" lon="10.289907976984978">
        <ele>184.22999999999999</ele>
        <time>2017-06-30T10:52:07Z</time>
      </trkpt>
      <trkpt lat="61.339744990691543" lon="10.290054995566607">
        <ele>187.59</ele>
        <time>2017-06-30T10:52:15Z</time>
      </trkpt>
      <trkpt lat="61.336853988468647" lon="10.289505980908871">
        <ele>191.91999999999999</ele>
        <time>2017-06-30T10:52:28Z</time>
      </trkpt>
      <trkpt lat="61.335199987515807" lon="10.288001010194421">
        <ele>193.84</ele>
        <time>2017-06-30T10:52:36Z</time>
      </trkpt>
      <trkpt lat="61.333020022138953" lon="10.286006033420563">
        <ele>197.69</ele>
        <time>2017-06-30T10:52:47Z</time>
      </trkpt>
      <trkpt lat="61.331502981483936" lon="10.285973008722067">
        <ele>196.25</ele>
        <time>2017-06-30T10:52:54Z</time>
      </trkpt>
      <trkpt lat="61.329134004190564" lon="10.287195006385446">
        <ele>194.31999999999999</ele>
        <time>2017-06-30T10:53:05Z</time>
      </trkpt>
      <trkpt lat="61.326283989474177" lon="10.288676004856825">
        <ele>197.21000000000001</ele>
        <time>2017-06-30T10:53:19Z</time>
      </trkpt>
      <trkpt lat="61.324684973806143" lon="10.289171962067485">
        <ele>197.21000000000001</ele>
        <time>2017-06-30T10:53:28Z</time>
      </trkpt>
      <trkpt lat="61.322823017835617" lon="10.289317974820733">
        <ele>196.72999999999999</ele>
        <time>2017-06-30T10:53:39Z</time>
      </trkpt>
      <trkpt lat="61.322551025077701" lon="10.289377989247441">
        <ele>193.84</ele>
        <time>2017-06-30T10:53:44Z</time>
      </trkpt>
      <trkpt lat="61.322544990107417" lon="10.289372960105538">
        <ele>191.91999999999999</ele>
        <time>2017-06-30T10:53:49Z</time>
      </trkpt>
      <trkpt lat="61.322526969015598" lon="10.289409002289176">
        <ele>190.96000000000001</ele>
        <time>2017-06-30T10:53:50Z</time>
      </trkpt>
      <trkpt lat="61.322509031742811" lon="10.289487959817052">
        <ele>190.47999999999999</ele>
        <time>2017-06-30T10:53:51Z</time>
      </trkpt>
      <trkpt lat="61.322497967630625" lon="10.289614023640752">
        <ele>190</ele>
        <time>2017-06-30T10:53:52Z</time>
      </trkpt>
      <trkpt lat="61.322500985115767" lon="10.289765987545252">
        <ele>189.52000000000001</ele>
        <time>2017-06-30T10:53:53Z</time>
      </trkpt>
      <trkpt lat="61.322509031742811" lon="10.289938990026712">
        <ele>189.52000000000001</ele>
        <time>2017-06-30T10:53:54Z</time>
      </trkpt>
      <trkpt lat="61.322581032291055" lon="10.291994987055659">
        <ele>187.11000000000001</ele>
        <time>2017-06-30T10:54:03Z</time>
      </trkpt>
      <trkpt lat="61.322488998994231" lon="10.292815994471312">
        <ele>186.63</ele>
        <time>2017-06-30T10:54:06Z</time>
      </trkpt>
      <trkpt lat="61.322435019537807" lon="10.293074995279312">
        <ele>186.63</ele>
        <time>2017-06-30T10:54:07Z</time>
      </trkpt>
      <trkpt lat="61.322367964312434" lon="10.293323015794158">
        <ele>186.63</ele>
        <time>2017-06-30T10:54:08Z</time>
      </trkpt>
      <trkpt lat="61.322285989299417" lon="10.293562989681959">
        <ele>186.15000000000001</ele>
        <time>2017-06-30T10:54:09Z</time>
      </trkpt>
      <trkpt lat="61.322192028164864" lon="10.293782008811831">
        <ele>185.66999999999999</ele>
        <time>2017-06-30T10:54:10Z</time>
      </trkpt>
      <trkpt lat="61.322081973776221" lon="10.293979989364743">
        <ele>185.66999999999999</ele>
        <time>2017-06-30T10:54:11Z</time>
      </trkpt>
      <trkpt lat="61.321963034570217" lon="10.29414301738143">
        <ele>185.66999999999999</ele>
        <time>2017-06-30T10:54:12Z</time>
      </trkpt>
      <trkpt lat="61.321837976574898" lon="10.294279977679253">
        <ele>185.66999999999999</ele>
        <time>2017-06-30T10:54:13Z</time>
      </trkpt>
      <trkpt lat="61.321707973256707" lon="10.294399000704288">
        <ele>185.66999999999999</ele>
        <time>2017-06-30T10:54:14Z</time>
      </trkpt>
      <trkpt lat="61.321317041292787" lon="10.294741988182068">
        <ele>185.66999999999999</ele>
        <time>2017-06-30T10:54:17Z</time>
      </trkpt>
      <trkpt lat="61.32119701243937" lon="10.294904010370374">
        <ele>186.15000000000001</ele>
        <time>2017-06-30T10:54:18Z</time>
      </trkpt>
      <trkpt lat="61.32012396119535" lon="10.296919019892812">
        <ele>186.63</ele>
        <time>2017-06-30T10:54:28Z</time>
      </trkpt>
      <trkpt lat="61.319003971293569" lon="10.298864040523767">
        <ele>190</ele>
        <time>2017-06-30T10:54:39Z</time>
      </trkpt>
      <trkpt lat="61.318474989384413" lon="10.299973972141743">
        <ele>189.03999999999999</ele>
        <time>2017-06-30T10:54:45Z</time>
      </trkpt>
      <trkpt lat="61.318368958309293" lon="10.300115961581469">
        <ele>189.03999999999999</ele>
        <time>2017-06-30T10:54:46Z</time>
      </trkpt>
      <trkpt lat="61.318259993568063" lon="10.300234984606504">
        <ele>189.03999999999999</ele>
        <time>2017-06-30T10:54:47Z</time>
      </trkpt>
      <trkpt lat="61.31814599968493" lon="10.30033397488296">
        <ele>189.03999999999999</ele>
        <time>2017-06-30T10:54:48Z</time>
      </trkpt>
      <trkpt lat="61.318025970831513" lon="10.300406981259584">
        <ele>189.03999999999999</ele>
        <time>2017-06-30T10:54:49Z</time>
      </trkpt>
      <trkpt lat="61.317895967513323" lon="10.300450986251235">
        <ele>188.56</ele>
        <time>2017-06-30T10:54:50Z</time>
      </trkpt>
      <trkpt lat="61.317763030529022" lon="10.300478981807828">
        <ele>188.56</ele>
        <time>2017-06-30T10:54:51Z</time>
      </trkpt>
      <trkpt lat="61.31763000972569" lon="10.300484010949731">
        <ele>188.08000000000001</ele>
        <time>2017-06-30T10:54:52Z</time>
      </trkpt>
      <trkpt lat="61.317492965608835" lon="10.300474036484957">
        <ele>188.08000000000001</ele>
        <time>2017-06-30T10:54:53Z</time>
      </trkpt>
      <trkpt lat="61.315934015437961" lon="10.299998028203845">
        <ele>189.52000000000001</ele>
        <time>2017-06-30T10:55:05Z</time>
      </trkpt>
      <trkpt lat="61.315689012408257" lon="10.29992301017046">
        <ele>190</ele>
        <time>2017-06-30T10:55:07Z</time>
      </trkpt>
      <trkpt lat="61.31556797772646" lon="10.299926027655602">
        <ele>190</ele>
        <time>2017-06-30T10:55:08Z</time>
      </trkpt>
      <trkpt lat="61.315449038520455" lon="10.299960980191827">
        <ele>190.47999999999999</ele>
        <time>2017-06-30T10:55:09Z</time>
      </trkpt>
      <trkpt lat="61.315333032980561" lon="10.30002904124558">
        <ele>190.47999999999999</ele>
        <time>2017-06-30T10:55:10Z</time>
      </trkpt>
      <trkpt lat="61.315217027440667" lon="10.300101963803172">
        <ele>190.47999999999999</ele>
        <time>2017-06-30T10:55:11Z</time>
      </trkpt>
      <trkpt lat="61.314463997259736" lon="10.30054796487093">
        <ele>192.88</ele>
        <time>2017-06-30T10:55:18Z</time>
      </trkpt>
      <trkpt lat="61.314382022246718" lon="10.300580989569426">
        <ele>193.36000000000001</ele>
        <time>2017-06-30T10:55:19Z</time>
      </trkpt>
      <trkpt lat="61.313396980985999" lon="10.301237963140011">
        <ele>192.40000000000001</ele>
        <time>2017-06-30T10:55:29Z</time>
      </trkpt>
      <trkpt lat="61.312802033498883" lon="10.301658986136317">
        <ele>190.47999999999999</ele>
        <time>2017-06-30T10:55:35Z</time>
      </trkpt>
      <trkpt lat="61.312737995758653" lon="10.301649011671543">
        <ele>190</ele>
        <time>2017-06-30T10:55:36Z</time>
      </trkpt>
      <trkpt lat="61.312694996595383" lon="10.301593020558357">
        <ele>190</ele>
        <time>2017-06-30T10:55:37Z</time>
      </trkpt>
      <trkpt lat="61.312658032402396" lon="10.301506016403437">
        <ele>190.47999999999999</ele>
        <time>2017-06-30T10:55:38Z</time>
      </trkpt>
      <trkpt lat="61.312629031017423" lon="10.301382970064878">
        <ele>190</ele>
        <time>2017-06-30T10:55:39Z</time>
      </trkpt>
      <trkpt lat="61.312598017975688" lon="10.301225977018476">
        <ele>189.03999999999999</ele>
        <time>2017-06-30T10:55:40Z</time>
      </trkpt>
      <trkpt lat="61.312564993277192" lon="10.301048029214144">
        <ele>189.03999999999999</ele>
        <time>2017-06-30T10:55:41Z</time>
      </trkpt>
      <trkpt lat="61.312156962230802" lon="10.298844007775187">
        <ele>186.63</ele>
        <time>2017-06-30T10:55:50Z</time>
      </trkpt>
      <trkpt lat="61.311799976974726" lon="10.297095039859414">
        <ele>185.66999999999999</ele>
        <time>2017-06-30T10:55:57Z</time>
      </trkpt>
      <trkpt lat="61.31172495894134" lon="10.296900998800993">
        <ele>185.66999999999999</ele>
        <time>2017-06-30T10:55:58Z</time>
      </trkpt>
      <trkpt lat="61.311637032777071" lon="10.296724978834391">
        <ele>185.19</ele>
        <time>2017-06-30T10:55:59Z</time>
      </trkpt>
      <trkpt lat="61.311542987823486" lon="10.296562034636736">
        <ele>185.19</ele>
        <time>2017-06-30T10:56:00Z</time>
      </trkpt>
      <trkpt lat="61.311437962576747" lon="10.296398000791669">
        <ele>184.71000000000001</ele>
        <time>2017-06-30T10:56:01Z</time>
      </trkpt>
      <trkpt lat="61.311216009780765" lon="10.296092983335257">
        <ele>184.22999999999999</ele>
        <time>2017-06-30T10:56:03Z</time>
      </trkpt>
      <trkpt lat="61.310987016186118" lon="10.295897014439106">
        <ele>182.78999999999999</ele>
        <time>2017-06-30T10:56:05Z</time>
      </trkpt>
      <trkpt lat="61.310886014252901" lon="10.295912018045783">
        <ele>182.78999999999999</ele>
        <time>2017-06-30T10:56:06Z</time>
      </trkpt>
      <trkpt lat="61.310764979571104" lon="10.295957028865814">
        <ele>183.27000000000001</ele>
        <time>2017-06-30T10:56:07Z</time>
      </trkpt>
      <trkpt lat="61.310505978763103" lon="10.296044033020735">
        <ele>183.75</ele>
        <time>2017-06-30T10:56:09Z</time>
      </trkpt>
      <trkpt lat="61.310349991545081" lon="10.296054007485509">
        <ele>184.71000000000001</ele>
        <time>2017-06-30T10:56:10Z</time>
      </trkpt>
      <trkpt lat="61.310202972963452" lon="10.296021988615394">
        <ele>184.71000000000001</ele>
        <time>2017-06-30T10:56:11Z</time>
      </trkpt>
      <trkpt lat="61.310065006837249" lon="10.295954011380672">
        <ele>185.66999999999999</ele>
        <time>2017-06-30T10:56:12Z</time>
      </trkpt>
      <trkpt lat="61.309927040711045" lon="10.295860972255468">
        <ele>186.15000000000001</ele>
        <time>2017-06-30T10:56:13Z</time>
      </trkpt>
      <trkpt lat="61.309786979109049" lon="10.295754019171">
        <ele>187.11000000000001</ele>
        <time>2017-06-30T10:56:14Z</time>
      </trkpt>
      <trkpt lat="61.308286031708121" lon="10.294581977650523">
        <ele>201.53</ele>
        <time>2017-06-30T10:56:25Z</time>
      </trkpt>
      <trkpt lat="61.307442979887128" lon="10.293337013572454">
        <ele>212.11000000000001</ele>
        <time>2017-06-30T10:56:32Z</time>
      </trkpt>
      <trkpt lat="61.306317960843444" lon="10.2913280390203">
        <ele>222.68000000000001</ele>
        <time>2017-06-30T10:56:42Z</time>
      </trkpt>
      <trkpt lat="61.305754026398063" lon="10.290135964751244">
        <ele>228.93000000000001</ele>
        <time>2017-06-30T10:56:47Z</time>
      </trkpt>
      <trkpt lat="61.305547999218106" lon="10.289597008377314">
        <ele>231.33000000000001</ele>
        <time>2017-06-30T10:56:49Z</time>
      </trkpt>
      <trkpt lat="61.30542897619307" lon="10.289360973984003">
        <ele>232.78</ele>
        <time>2017-06-30T10:56:50Z</time>
      </trkpt>
      <trkpt lat="61.305291010066867" lon="10.289174979552627">
        <ele>234.22</ele>
        <time>2017-06-30T10:56:51Z</time>
      </trkpt>
      <trkpt lat="61.305140974000096" lon="10.289032990112901">
        <ele>235.18000000000001</ele>
        <time>2017-06-30T10:56:52Z</time>
      </trkpt>
      <trkpt lat="61.304978029802442" lon="10.288950009271502">
        <ele>236.62</ele>
        <time>2017-06-30T10:56:53Z</time>
      </trkpt>
      <trkpt lat="61.304812990128994" lon="10.288886977359653">
        <ele>238.53999999999999</ele>
        <time>2017-06-30T10:56:54Z</time>
      </trkpt>
      <trkpt lat="61.304061971604824" lon="10.288467966020107">
        <ele>240.94999999999999</ele>
        <time>2017-06-30T10:56:59Z</time>
      </trkpt>
      <trkpt lat="61.303933979943395" lon="10.288304015994072">
        <ele>240.94999999999999</ele>
        <time>2017-06-30T10:57:00Z</time>
      </trkpt>
      <trkpt lat="61.303835995495319" lon="10.288110980764031">
        <ele>243.83000000000001</ele>
        <time>2017-06-30T10:57:01Z</time>
      </trkpt>
      <trkpt lat="61.303737005218863" lon="10.287886010482907">
        <ele>245.27000000000001</ele>
        <time>2017-06-30T10:57:02Z</time>
      </trkpt>
      <trkpt lat="61.303650001063943" lon="10.2876359783113">
        <ele>246.72</ele>
        <time>2017-06-30T10:57:03Z</time>
      </trkpt>
      <trkpt lat="61.303169969469309" lon="10.285584004595876">
        <ele>252.96000000000001</ele>
        <time>2017-06-30T10:57:10Z</time>
      </trkpt>
      <trkpt lat="61.303092017769814" lon="10.285301031544805">
        <ele>253.93000000000001</ele>
        <time>2017-06-30T10:57:11Z</time>
      </trkpt>
      <trkpt lat="61.302995039150119" lon="10.285043036565185">
        <ele>254.88999999999999</ele>
        <time>2017-06-30T10:57:12Z</time>
      </trkpt>
      <trkpt lat="61.302878027781844" lon="10.284810019657016">
        <ele>256.32999999999998</ele>
        <time>2017-06-30T10:57:13Z</time>
      </trkpt>
      <trkpt lat="61.302756993100047" lon="10.284595023840666">
        <ele>257.76999999999998</ele>
        <time>2017-06-30T10:57:14Z</time>
      </trkpt>
      <trkpt lat="61.302036987617612" lon="10.283451983705163">
        <ele>264.98000000000002</ele>
        <time>2017-06-30T10:57:21Z</time>
      </trkpt>
      <trkpt lat="61.301992982625961" lon="10.283317035064101">
        <ele>265.45999999999998</ele>
        <time>2017-06-30T10:57:22Z</time>
      </trkpt>
      <trkpt lat="61.301977979019284" lon="10.283176973462105">
        <ele>265.45999999999998</ele>
        <time>2017-06-30T10:57:23Z</time>
      </trkpt>
      <trkpt lat="61.302013015374541" lon="10.283044036477804">
        <ele>265.45999999999998</ele>
        <time>2017-06-30T10:57:24Z</time>
      </trkpt>
      <trkpt lat="61.302077975124121" lon="10.282938005402684">
        <ele>265.94</ele>
        <time>2017-06-30T10:57:25Z</time>
      </trkpt>
      <trkpt lat="61.302175037562847" lon="10.282880002632737">
        <ele>266.89999999999998</ele>
        <time>2017-06-30T10:57:26Z</time>
      </trkpt>
      <trkpt lat="61.302281990647316" lon="10.282843038439751">
        <ele>267.38</ele>
        <time>2017-06-30T10:57:27Z</time>
      </trkpt>
      <trkpt lat="61.302401013672352" lon="10.28282199986279">
        <ele>268.35000000000002</ele>
        <time>2017-06-30T10:57:28Z</time>
      </trkpt>
      <trkpt lat="61.302521964535117" lon="10.282809007912874">
        <ele>268.82999999999998</ele>
        <time>2017-06-30T10:57:29Z</time>
      </trkpt>
      <trkpt lat="61.302761016413569" lon="10.282728960737586">
        <ele>269.79000000000002</ele>
        <time>2017-06-30T10:57:31Z</time>
      </trkpt>
      <trkpt lat="61.302871992811561" lon="10.282656960189342">
        <ele>270.75</ele>
        <time>2017-06-30T10:57:32Z</time>
      </trkpt>
      <trkpt lat="61.302985986694694" lon="10.282533997669816">
        <ele>272.19</ele>
        <time>2017-06-30T10:57:33Z</time>
      </trkpt>
      <trkpt lat="61.303090006113052" lon="10.282377004623413">
        <ele>273.14999999999998</ele>
        <time>2017-06-30T10:57:34Z</time>
      </trkpt>
      <trkpt lat="61.303182961419225" lon="10.282191010192037">
        <ele>274.11000000000001</ele>
        <time>2017-06-30T10:57:35Z</time>
      </trkpt>
      <trkpt lat="61.303264014422894" lon="10.28198498301208">
        <ele>275.06999999999999</ele>
        <time>2017-06-30T10:57:36Z</time>
      </trkpt>
      <trkpt lat="61.303339032456279" lon="10.281760012730956">
        <ele>275.56</ele>
        <time>2017-06-30T10:57:37Z</time>
      </trkpt>
      <trkpt lat="61.303416984155774" lon="10.281535964459181">
        <ele>276.04000000000002</ele>
        <time>2017-06-30T10:57:38Z</time>
      </trkpt>
      <trkpt lat="61.303494013845921" lon="10.281319040805101">
        <ele>276.04000000000002</ele>
        <time>2017-06-30T10:57:39Z</time>
      </trkpt>
      <trkpt lat="61.303593004122376" lon="10.281140003353357">
        <ele>275.06999999999999</ele>
        <time>2017-06-30T10:57:40Z</time>
      </trkpt>
      <trkpt lat="61.303706998005509" lon="10.281005976721644">
        <ele>275.56</ele>
        <time>2017-06-30T10:57:41Z</time>
      </trkpt>
      <trkpt lat="61.303818980231881" lon="10.280926013365388">
        <ele>273.63</ele>
        <time>2017-06-30T10:57:42Z</time>
      </trkpt>
      <trkpt lat="61.303948983550072" lon="10.28088896535337">
        <ele>275.06999999999999</ele>
        <time>2017-06-30T10:57:43Z</time>
      </trkpt>
      <trkpt lat="61.30407202988863" lon="10.28088703751564">
        <ele>277.48000000000002</ele>
        <time>2017-06-30T10:57:44Z</time>
      </trkpt>
      <trkpt lat="61.304235979914665" lon="10.280731972306967">
        <ele>278.92000000000002</ele>
        <time>2017-06-30T10:57:46Z</time>
      </trkpt>
      <trkpt lat="61.304269004613161" lon="10.280616972595453">
        <ele>279.88</ele>
        <time>2017-06-30T10:57:47Z</time>
      </trkpt>
      <trkpt lat="61.304250983521342" lon="10.280489986762404">
        <ele>279.88</ele>
        <time>2017-06-30T10:57:48Z</time>
      </trkpt>
      <trkpt lat="61.304217036813498" lon="10.280375992879272">
        <ele>281.31999999999999</ele>
        <time>2017-06-30T10:57:49Z</time>
      </trkpt>
      <trkpt lat="61.304160039871931" lon="10.280271973460913">
        <ele>282.76999999999998</ele>
        <time>2017-06-30T10:57:50Z</time>
      </trkpt>
      <trkpt lat="61.304087033495307" lon="10.280143981799483">
        <ele>283.25</ele>
        <time>2017-06-30T10:57:51Z</time>
      </trkpt>
      <trkpt lat="61.303673973307014" lon="10.279358010739088">
        <ele>288.05000000000001</ele>
        <time>2017-06-30T10:57:56Z</time>
      </trkpt>
      <trkpt lat="61.303567020222545" lon="10.2792330365628">
        <ele>289.00999999999999</ele>
        <time>2017-06-30T10:57:57Z</time>
      </trkpt>
      <trkpt lat="61.303453026339412" lon="10.279143014922738">
        <ele>289.97000000000003</ele>
        <time>2017-06-30T10:57:58Z</time>
      </trkpt>
      <trkpt lat="61.303331991657615" lon="10.279081994667649">
        <ele>290.94</ele>
        <time>2017-06-30T10:57:59Z</time>
      </trkpt>
      <trkpt lat="61.303202994167805" lon="10.279042012989521">
        <ele>291.89999999999998</ele>
        <time>2017-06-30T10:58:00Z</time>
      </trkpt>
      <trkpt lat="61.303075002506375" lon="10.279006976634264">
        <ele>292.86000000000001</ele>
        <time>2017-06-30T10:58:01Z</time>
      </trkpt>
      <trkpt lat="61.302529005333781" lon="10.278746969997883">
        <ele>297.67000000000002</ele>
        <time>2017-06-30T10:58:05Z</time>
      </trkpt>
      <trkpt lat="61.301985019817948" lon="10.27815998531878">
        <ele>301.50999999999999</ele>
        <time>2017-06-30T10:58:09Z</time>
      </trkpt>
      <trkpt lat="61.30186096765101" lon="10.277949012815952">
        <ele>302.47000000000003</ele>
        <time>2017-06-30T10:58:10Z</time>
      </trkpt>
      <trkpt lat="61.301754014566541" lon="10.277700992301106">
        <ele>303.43000000000001</ele>
        <time>2017-06-30T10:58:11Z</time>
      </trkpt>
      <trkpt lat="61.30164303816855" lon="10.277458000928164">
        <ele>304.38999999999999</ele>
        <time>2017-06-30T10:58:12Z</time>
      </trkpt>
      <trkpt lat="61.301503982394934" lon="10.277246022596955">
        <ele>303.91000000000003</ele>
        <time>2017-06-30T10:58:13Z</time>
      </trkpt>
      <trkpt lat="61.301368027925491" lon="10.277102021500468">
        <ele>305.36000000000001</ele>
        <time>2017-06-30T10:58:14Z</time>
      </trkpt>
      <trkpt lat="61.301226960495114" lon="10.277013005688787">
        <ele>306.31999999999999</ele>
        <time>2017-06-30T10:58:15Z</time>
      </trkpt>
      <trkpt lat="61.301074996590614" lon="10.276961037889123">
        <ele>306.80000000000001</ele>
        <time>2017-06-30T10:58:16Z</time>
      </trkpt>
      <trkpt lat="61.300928983837366" lon="10.276924995705485">
        <ele>307.27999999999997</ele>
        <time>2017-06-30T10:58:17Z</time>
      </trkpt>
      <trkpt lat="61.300798980519176" lon="10.276861041784286">
        <ele>308.72000000000003</ele>
        <time>2017-06-30T10:58:18Z</time>
      </trkpt>
      <trkpt lat="61.300673000514507" lon="10.276770014315844">
        <ele>309.19999999999999</ele>
        <time>2017-06-30T10:58:19Z</time>
      </trkpt>
      <trkpt lat="61.300559006631374" lon="10.276639005169272">
        <ele>309.68000000000001</ele>
        <time>2017-06-30T10:58:20Z</time>
      </trkpt>
      <trkpt lat="61.300454987213016" lon="10.276459967717528">
        <ele>310.16000000000003</ele>
        <time>2017-06-30T10:58:21Z</time>
      </trkpt>
      <trkpt lat="61.30035599693656" lon="10.27624698355794">
        <ele>311.12</ele>
        <time>2017-06-30T10:58:22Z</time>
      </trkpt>
      <trkpt lat="61.300259018316865" lon="10.276015978306532">
        <ele>312.56999999999999</ele>
        <time>2017-06-30T10:58:23Z</time>
      </trkpt>
      <trkpt lat="61.299794996157289" lon="10.274830022826791">
        <ele>322.18000000000001</ele>
        <time>2017-06-30T10:58:28Z</time>
      </trkpt>
      <trkpt lat="61.299687037244439" lon="10.274629024788737">
        <ele>323.62</ele>
        <time>2017-06-30T10:58:29Z</time>
      </trkpt>
      <trkpt lat="61.29956197924912" lon="10.274482006207108">
        <ele>325.06</ele>
        <time>2017-06-30T10:58:30Z</time>
      </trkpt>
      <trkpt lat="61.299422001466155" lon="10.274392990395427">
        <ele>326.01999999999998</ele>
        <time>2017-06-30T10:58:31Z</time>
      </trkpt>
      <trkpt lat="61.299270959571004" lon="10.274371029809117">
        <ele>326.99000000000001</ele>
        <time>2017-06-30T10:58:32Z</time>
      </trkpt>
      <trkpt lat="61.299106003716588" lon="10.274387961253524">
        <ele>328.43000000000001</ele>
        <time>2017-06-30T10:58:33Z</time>
      </trkpt>
      <trkpt lat="61.298942975699902" lon="10.274360971525311">
        <ele>330.35000000000002</ele>
        <time>2017-06-30T10:58:34Z</time>
      </trkpt>
      <trkpt lat="61.298635024577379" lon="10.274254018440843">
        <ele>332.75</ele>
        <time>2017-06-30T10:58:36Z</time>
      </trkpt>
      <trkpt lat="61.298481971025467" lon="10.274243038147688">
        <ele>334.19999999999999</ele>
        <time>2017-06-30T10:58:37Z</time>
      </trkpt>
      <trkpt lat="61.298320032656193" lon="10.274264998733997">
        <ele>334.19999999999999</ele>
        <time>2017-06-30T10:58:38Z</time>
      </trkpt>
      <trkpt lat="61.297881994396448" lon="10.274326018989086">
        <ele>336.12</ele>
        <time>2017-06-30T10:58:41Z</time>
      </trkpt>
      <trkpt lat="61.297758026048541" lon="10.274290982633829">
        <ele>338.51999999999998</ele>
        <time>2017-06-30T10:58:42Z</time>
      </trkpt>
      <trkpt lat="61.297659035772085" lon="10.274217976257205">
        <ele>339.95999999999998</ele>
        <time>2017-06-30T10:58:43Z</time>
      </trkpt>
      <trkpt lat="61.297598015516996" lon="10.274114962667227">
        <ele>341.41000000000003</ele>
        <time>2017-06-30T10:58:44Z</time>
      </trkpt>
      <trkpt lat="61.297567002475262" lon="10.273979008197784">
        <ele>342.85000000000002</ele>
        <time>2017-06-30T10:58:45Z</time>
      </trkpt>
      <trkpt lat="61.297556022182107" lon="10.273801982402802">
        <ele>343.81</ele>
        <time>2017-06-30T10:58:46Z</time>
      </trkpt>
      <trkpt lat="61.297587035223842" lon="10.27360400184989">
        <ele>345.73000000000002</ele>
        <time>2017-06-30T10:58:47Z</time>
      </trkpt>
      <trkpt lat="61.297631962224841" lon="10.273397974669933">
        <ele>346.69</ele>
        <time>2017-06-30T10:58:48Z</time>
      </trkpt>
      <trkpt lat="61.297698011621833" lon="10.273179039359093">
        <ele>348.13</ele>
        <time>2017-06-30T10:58:49Z</time>
      </trkpt>
      <trkpt lat="61.29777898080647" lon="10.272957002744079">
        <ele>349.10000000000002</ele>
        <time>2017-06-30T10:58:50Z</time>
      </trkpt>
      <trkpt lat="61.297871014103293" lon="10.27274401858449">
        <ele>350.06</ele>
        <time>2017-06-30T10:58:51Z</time>
      </trkpt>
      <trkpt lat="61.297963969409466" lon="10.272554000839591">
        <ele>350.54000000000002</ele>
        <time>2017-06-30T10:58:52Z</time>
      </trkpt>
      <trkpt lat="61.298119034618139" lon="10.272170025855303">
        <ele>352.45999999999998</ele>
        <time>2017-06-30T10:58:54Z</time>
      </trkpt>
      <trkpt lat="61.298163961619139" lon="10.271945977583528">
        <ele>353.89999999999998</ele>
        <time>2017-06-30T10:58:55Z</time>
      </trkpt>
      <trkpt lat="61.298169996589422" lon="10.271715978160501">
        <ele>354.38</ele>
        <time>2017-06-30T10:58:56Z</time>
      </trkpt>
      <trkpt lat="61.298145018517971" lon="10.271486984565854">
        <ele>355.33999999999997</ele>
        <time>2017-06-30T10:58:57Z</time>
      </trkpt>
      <trkpt lat="61.298091039061546" lon="10.271269977092743">
        <ele>355.82999999999998</ele>
        <time>2017-06-30T10:58:58Z</time>
      </trkpt>
      <trkpt lat="61.298020966351032" lon="10.271065961569548">
        <ele>357.26999999999998</ele>
        <time>2017-06-30T10:58:59Z</time>
      </trkpt>
      <trkpt lat="61.297939997166395" lon="10.270858006551862">
        <ele>358.23000000000002</ele>
        <time>2017-06-30T10:59:00Z</time>
      </trkpt>
      <trkpt lat="61.297695999965072" lon="10.270228022709489">
        <ele>360.14999999999998</ele>
        <time>2017-06-30T10:59:03Z</time>
      </trkpt>
      <trkpt lat="61.297635985538363" lon="10.269993999972939">
        <ele>361.58999999999997</ele>
        <time>2017-06-30T10:59:04Z</time>
      </trkpt>
      <trkpt lat="61.297579994425178" lon="10.269734999164939">
        <ele>362.55000000000001</ele>
        <time>2017-06-30T10:59:05Z</time>
      </trkpt>
      <trkpt lat="61.297533977776766" lon="10.269460994750261">
        <ele>363.51999999999998</ele>
        <time>2017-06-30T10:59:06Z</time>
      </trkpt>
      <trkpt lat="61.297500031068921" lon="10.269176010042429">
        <ele>364.48000000000002</ele>
        <time>2017-06-30T10:59:07Z</time>
      </trkpt>
      <trkpt lat="61.297475975006819" lon="10.268874010071158">
        <ele>365.92000000000002</ele>
        <time>2017-06-30T10:59:08Z</time>
      </trkpt>
      <trkpt lat="61.297459965571761" lon="10.268567986786366">
        <ele>367.36000000000001</ele>
        <time>2017-06-30T10:59:09Z</time>
      </trkpt>
      <trkpt lat="61.297456026077271" lon="10.268247965723276">
        <ele>368.80000000000001</ele>
        <time>2017-06-30T10:59:10Z</time>
      </trkpt>
      <trkpt lat="61.297458959743381" lon="10.267924005165696">
        <ele>369.75999999999999</ele>
        <time>2017-06-30T10:59:11Z</time>
      </trkpt>
      <trkpt lat="61.297467006370425" lon="10.267599038779736">
        <ele>371.20999999999998</ele>
        <time>2017-06-30T10:59:12Z</time>
      </trkpt>
      <trkpt lat="61.297405986115336" lon="10.264604017138481">
        <ele>381.30000000000001</ele>
        <time>2017-06-30T10:59:21Z</time>
      </trkpt>
      <trkpt lat="61.297343960031867" lon="10.263561978936195">
        <ele>385.14999999999998</ele>
        <time>2017-06-30T10:59:25Z</time>
      </trkpt>
      <trkpt lat="61.297353012487292" lon="10.263339020311832">
        <ele>386.11000000000001</ele>
        <time>2017-06-30T10:59:26Z</time>
      </trkpt>
      <trkpt lat="61.297376984730363" lon="10.263155037537217">
        <ele>386.58999999999997</ele>
        <time>2017-06-30T10:59:27Z</time>
      </trkpt>
      <trkpt lat="61.297420989722013" lon="10.26301397010684">
        <ele>387.55000000000001</ele>
        <time>2017-06-30T10:59:28Z</time>
      </trkpt>
      <trkpt lat="61.29747798666358" lon="10.262934006750584">
        <ele>388.02999999999997</ele>
        <time>2017-06-30T10:59:29Z</time>
      </trkpt>
      <trkpt lat="61.297545041888952" lon="10.262935012578964">
        <ele>388.50999999999999</ele>
        <time>2017-06-30T10:59:30Z</time>
      </trkpt>
      <trkpt lat="61.297608995810151" lon="10.263002989813685">
        <ele>388.50999999999999</ele>
        <time>2017-06-30T10:59:31Z</time>
      </trkpt>
      <trkpt lat="61.297669010236859" lon="10.263137016445398">
        <ele>388.99000000000001</ele>
        <time>2017-06-30T10:59:32Z</time>
      </trkpt>
      <trkpt lat="61.297722989693284" lon="10.26331203058362">
        <ele>389.47000000000003</ele>
        <time>2017-06-30T10:59:33Z</time>
      </trkpt>
      <trkpt lat="61.297785015776753" lon="10.263510011136532">
        <ele>389.94999999999999</ele>
        <time>2017-06-30T10:59:34Z</time>
      </trkpt>
      <trkpt lat="61.297938991338015" lon="10.263905972242355">
        <ele>391.38999999999999</ele>
        <time>2017-06-30T10:59:36Z</time>
      </trkpt>
      <trkpt lat="61.298032030463219" lon="10.26408601552248">
        <ele>392.83999999999997</ele>
        <time>2017-06-30T10:59:37Z</time>
      </trkpt>
      <trkpt lat="61.298136971890926" lon="10.264248037710786">
        <ele>393.80000000000001</ele>
        <time>2017-06-30T10:59:38Z</time>
      </trkpt>
      <trkpt lat="61.298254989087582" lon="10.264392038807273">
        <ele>394.27999999999997</ele>
        <time>2017-06-30T10:59:39Z</time>
      </trkpt>
      <trkpt lat="61.29838096909225" lon="10.264523969963193">
        <ele>395.24000000000001</ele>
        <time>2017-06-30T10:59:40Z</time>
      </trkpt>
      <trkpt lat="61.298504015430808" lon="10.264674006029963">
        <ele>396.19999999999999</ele>
        <time>2017-06-30T10:59:41Z</time>
      </trkpt>
      <trkpt lat="61.298622032627463" lon="10.264836028218269">
        <ele>396.68000000000001</ele>
        <time>2017-06-30T10:59:42Z</time>
      </trkpt>
      <trkpt lat="61.298741977661848" lon="10.265028979629278">
        <ele>397.63999999999999</ele>
        <time>2017-06-30T10:59:43Z</time>
      </trkpt>
      <trkpt lat="61.299199964851141" lon="10.265801958739758">
        <ele>401.97000000000003</ele>
        <time>2017-06-30T10:59:47Z</time>
      </trkpt>
      <trkpt lat="61.29930499009788" lon="10.265907989814878">
        <ele>402.44999999999999</ele>
        <time>2017-06-30T10:59:48Z</time>
      </trkpt>
      <trkpt lat="61.299394005909562" lon="10.265940008684993">
        <ele>403.41000000000003</ele>
        <time>2017-06-30T10:59:49Z</time>
      </trkpt>
      <trkpt lat="61.299459971487522" lon="10.265898015350103">
        <ele>403.41000000000003</ele>
        <time>2017-06-30T10:59:50Z</time>
      </trkpt>
      <trkpt lat="61.299502970650792" lon="10.265787038952112">
        <ele>403.41000000000003</ele>
        <time>2017-06-30T10:59:51Z</time>
      </trkpt>
      <trkpt lat="61.299506993964314" lon="10.265626022592187">
        <ele>402.93000000000001</ele>
        <time>2017-06-30T10:59:52Z</time>
      </trkpt>
      <trkpt lat="61.299486039206386" lon="10.26543902233243">
        <ele>403.41000000000003</ele>
        <time>2017-06-30T10:59:53Z</time>
      </trkpt>
      <trkpt lat="61.299456031993032" lon="10.26522696018219">
        <ele>404.37</ele>
        <time>2017-06-30T10:59:54Z</time>
      </trkpt>
      <trkpt lat="61.299414960667491" lon="10.264748018234968">
        <ele>406.29000000000002</ele>
        <time>2017-06-30T10:59:56Z</time>
      </trkpt>
      <trkpt lat="61.29943298175931" lon="10.264498991891742">
        <ele>407.25999999999999</ele>
        <time>2017-06-30T10:59:57Z</time>
      </trkpt>
      <trkpt lat="61.299480004236102" lon="10.264248037710786">
        <ele>408.22000000000003</ele>
        <time>2017-06-30T10:59:58Z</time>
      </trkpt>
      <trkpt lat="61.299549993127584" lon="10.264006974175572">
        <ele>409.18000000000001</ele>
        <time>2017-06-30T10:59:59Z</time>
      </trkpt>
      <trkpt lat="61.299642026424408" lon="10.263758031651378">
        <ele>409.66000000000003</ele>
        <time>2017-06-30T11:00:00Z</time>
      </trkpt>
      <trkpt lat="61.299745962023735" lon="10.263518979772925">
        <ele>410.13999999999999</ele>
        <time>2017-06-30T11:00:01Z</time>
      </trkpt>
      <trkpt lat="61.29986297339201" lon="10.26329099200666">
        <ele>410.62</ele>
        <time>2017-06-30T11:00:02Z</time>
      </trkpt>
      <trkpt lat="61.30029397085309" lon="10.262360014021397">
        <ele>414.94999999999999</ele>
        <time>2017-06-30T11:00:06Z</time>
      </trkpt>
      <trkpt lat="61.300367983058095" lon="10.262082992121577">
        <ele>415.91000000000003</ele>
        <time>2017-06-30T11:00:07Z</time>
      </trkpt>
      <trkpt lat="61.30041902884841" lon="10.261778980493546">
        <ele>417.35000000000002</ele>
        <time>2017-06-30T11:00:08Z</time>
      </trkpt>
      <trkpt lat="61.300452975556254" lon="10.261453008279204">
        <ele>418.79000000000002</ele>
        <time>2017-06-30T11:00:09Z</time>
      </trkpt>
      <trkpt lat="61.300481976941228" lon="10.261124018579721">
        <ele>419.75</ele>
        <time>2017-06-30T11:00:10Z</time>
      </trkpt>
      <trkpt lat="61.300666965544224" lon="10.258411969989538">
        <ele>428.88999999999999</ele>
        <time>2017-06-30T11:00:18Z</time>
      </trkpt>
      <trkpt lat="61.300645004957914" lon="10.258110975846648">
        <ele>430.32999999999998</ele>
        <time>2017-06-30T11:00:19Z</time>
      </trkpt>
      <trkpt lat="61.300596976652741" lon="10.257821967825294">
        <ele>431.29000000000002</ele>
        <time>2017-06-30T11:00:20Z</time>
      </trkpt>
      <trkpt lat="61.300521036610007" lon="10.257546035572886">
        <ele>432.73000000000002</ele>
        <time>2017-06-30T11:00:21Z</time>
      </trkpt>
      <trkpt lat="61.300427997484803" lon="10.257273036986589">
        <ele>433.69</ele>
        <time>2017-06-30T11:00:22Z</time>
      </trkpt>
      <trkpt lat="61.300330013036728" lon="10.257021998986602">
        <ele>435.13</ele>
        <time>2017-06-30T11:00:23Z</time>
      </trkpt>
      <trkpt lat="61.300158016383648" lon="10.256486982107162">
        <ele>437.06</ele>
        <time>2017-06-30T11:00:25Z</time>
      </trkpt>
      <trkpt lat="61.300089033320546" lon="10.256187999621034">
        <ele>438.01999999999998</ele>
        <time>2017-06-30T11:00:26Z</time>
      </trkpt>
      <trkpt lat="61.300037987530231" lon="10.255867978557944">
        <ele>438.98000000000002</ele>
        <time>2017-06-30T11:00:27Z</time>
      </trkpt>
      <trkpt lat="61.300000017508864" lon="10.255527002736926">
        <ele>439.94</ele>
        <time>2017-06-30T11:00:28Z</time>
      </trkpt>
      <trkpt lat="61.299973027780652" lon="10.255168005824089">
        <ele>441.38</ele>
        <time>2017-06-30T11:00:29Z</time>
      </trkpt>
      <trkpt lat="61.299907984212041" lon="10.251289028674364">
        <ele>453.39999999999998</ele>
        <time>2017-06-30T11:00:39Z</time>
      </trkpt>
      <trkpt lat="61.299921981990337" lon="10.24700696580112">
        <ele>466.38</ele>
        <time>2017-06-30T11:00:49Z</time>
      </trkpt>
      <trkpt lat="61.299978978931904" lon="10.24505197070539">
        <ele>472.13999999999999</ele>
        <time>2017-06-30T11:00:54Z</time>
      </trkpt>
      <trkpt lat="61.300031030550599" lon="10.244686016812921">
        <ele>473.11000000000001</ele>
        <time>2017-06-30T11:00:55Z</time>
      </trkpt>
      <trkpt lat="61.300638969987631" lon="10.241413973271847">
        <ele>483.68000000000001</ele>
        <time>2017-06-30T11:01:04Z</time>
      </trkpt>
      <trkpt lat="61.30067702382803" lon="10.2410330157727">
        <ele>484.63999999999999</ele>
        <time>2017-06-30T11:01:05Z</time>
      </trkpt>
      <trkpt lat="61.300706025213003" lon="10.240636970847845">
        <ele>485.60000000000002</ele>
        <time>2017-06-30T11:01:06Z</time>
      </trkpt>
      <trkpt lat="61.300756987184286" lon="10.239839013665915">
        <ele>488.49000000000001</ele>
        <time>2017-06-30T11:01:08Z</time>
      </trkpt>
      <trkpt lat="61.300805015489459" lon="10.239445986226201">
        <ele>489.44999999999999</ele>
        <time>2017-06-30T11:01:09Z</time>
      </trkpt>
      <trkpt lat="61.301178010180593" lon="10.236120969057083">
        <ele>499.06</ele>
        <time>2017-06-30T11:01:17Z</time>
      </trkpt>
      <trkpt lat="61.301390994340181" lon="10.232770973816514">
        <ele>510.12</ele>
        <time>2017-06-30T11:01:25Z</time>
      </trkpt>
      <trkpt lat="61.301368027925491" lon="10.228081969544291">
        <ele>519.73000000000002</ele>
        <time>2017-06-30T11:01:36Z</time>
      </trkpt>
      <trkpt lat="61.301514962688088" lon="10.222552008926868">
        <ele>527.41999999999996</ele>
        <time>2017-06-30T11:01:49Z</time>
      </trkpt>
      <trkpt lat="61.3015609793365" lon="10.218263994902372">
        <ele>526.94000000000005</ele>
        <time>2017-06-30T11:01:59Z</time>
      </trkpt>
      <trkpt lat="61.301510017365217" lon="10.21785001270473">
        <ele>526.94000000000005</ele>
        <time>2017-06-30T11:02:00Z</time>
      </trkpt>
      <trkpt lat="61.301440028473735" lon="10.217444999143481">
        <ele>527.41999999999996</ele>
        <time>2017-06-30T11:02:01Z</time>
      </trkpt>
      <trkpt lat="61.301356963813305" lon="10.217049038037658">
        <ele>528.38</ele>
        <time>2017-06-30T11:02:02Z</time>
      </trkpt>
      <trkpt lat="61.301266020163894" lon="10.216659028083086">
        <ele>528.86000000000001</ele>
        <time>2017-06-30T11:02:03Z</time>
      </trkpt>
      <trkpt lat="61.300224987789989" lon="10.213405005633831">
        <ele>534.63</ele>
        <time>2017-06-30T11:02:12Z</time>
      </trkpt>
      <trkpt lat="61.299007013440132" lon="10.210043024271727">
        <ele>532.71000000000004</ele>
        <time>2017-06-30T11:02:22Z</time>
      </trkpt>
      <trkpt lat="61.298519019037485" lon="10.20902001298964">
        <ele>533.19000000000005</ele>
        <time>2017-06-30T11:02:26Z</time>
      </trkpt>
      <trkpt lat="61.298450035974383" lon="10.208728993311524">
        <ele>533.66999999999996</ele>
        <time>2017-06-30T11:02:27Z</time>
      </trkpt>
      <trkpt lat="61.298414999619126" lon="10.208430010825396">
        <ele>534.14999999999998</ele>
        <time>2017-06-30T11:02:28Z</time>
      </trkpt>
      <trkpt lat="61.298404019325972" lon="10.20811602473259">
        <ele>534.14999999999998</ele>
        <time>2017-06-30T11:02:29Z</time>
      </trkpt>
      <trkpt lat="61.298413993790746" lon="10.2077960036695">
        <ele>534.14999999999998</ele>
        <time>2017-06-30T11:02:30Z</time>
      </trkpt>
      <trkpt lat="61.29844500683248" lon="10.20747103728354">
        <ele>534.14999999999998</ele>
        <time>2017-06-30T11:02:31Z</time>
      </trkpt>
      <trkpt lat="61.29850803874433" lon="10.204603001475334">
        <ele>531.75</ele>
        <time>2017-06-30T11:02:39Z</time>
      </trkpt>
      <trkpt lat="61.298476019874215" lon="10.202006036415696">
        <ele>527.89999999999998</ele>
        <time>2017-06-30T11:02:46Z</time>
      </trkpt>
      <trkpt lat="61.298434026539326" lon="10.201649973168969">
        <ele>526.46000000000004</ele>
        <time>2017-06-30T11:02:47Z</time>
      </trkpt>
      <trkpt lat="61.298379963263869" lon="10.201308997347951">
        <ele>525.5</ele>
        <time>2017-06-30T11:02:48Z</time>
      </trkpt>
      <trkpt lat="61.298311986029148" lon="10.200971961021423">
        <ele>524.53999999999996</ele>
        <time>2017-06-30T11:02:49Z</time>
      </trkpt>
      <trkpt lat="61.298227999359369" lon="10.200638025999069">
        <ele>523.09000000000003</ele>
        <time>2017-06-30T11:02:50Z</time>
      </trkpt>
      <trkpt lat="61.298134960234165" lon="10.200313981622458">
        <ele>522.13</ele>
        <time>2017-06-30T11:02:51Z</time>
      </trkpt>
      <trkpt lat="61.298031024634838" lon="10.200001001358032">
        <ele>521.16999999999996</ele>
        <time>2017-06-30T11:02:52Z</time>
      </trkpt>
      <trkpt lat="61.297916024923325" lon="10.199691038578749">
        <ele>520.21000000000004</ele>
        <time>2017-06-30T11:02:53Z</time>
      </trkpt>
      <trkpt lat="61.297794990241528" lon="10.199389038607478">
        <ele>520.21000000000004</ele>
        <time>2017-06-30T11:02:54Z</time>
      </trkpt>
      <trkpt lat="61.296552959829569" lon="10.196862984448671">
        <ele>509.16000000000003</ele>
        <time>2017-06-30T11:03:03Z</time>
      </trkpt>
      <trkpt lat="61.296476013958454" lon="10.196546986699104">
        <ele>507.70999999999998</ele>
        <time>2017-06-30T11:03:04Z</time>
      </trkpt>
      <trkpt lat="61.296431003138423" lon="10.196224031969905">
        <ele>506.75</ele>
        <time>2017-06-30T11:03:05Z</time>
      </trkpt>
      <trkpt lat="61.296415999531746" lon="10.195894036442041">
        <ele>505.31</ele>
        <time>2017-06-30T11:03:06Z</time>
      </trkpt>
      <trkpt lat="61.296432008966804" lon="10.19557099789381">
        <ele>504.35000000000002</ele>
        <time>2017-06-30T11:03:07Z</time>
      </trkpt>
      <trkpt lat="61.296457992866635" lon="10.19524896517396">
        <ele>503.38999999999999</ele>
        <time>2017-06-30T11:03:08Z</time>
      </trkpt>
      <trkpt lat="61.296504009515047" lon="10.194572964683175">
        <ele>501.45999999999998</ele>
        <time>2017-06-30T11:03:10Z</time>
      </trkpt>
      <trkpt lat="61.296503003686666" lon="10.19423701800406">
        <ele>500.5</ele>
        <time>2017-06-30T11:03:11Z</time>
      </trkpt>
      <trkpt lat="61.296482970938087" lon="10.1938930246979">
        <ele>500.01999999999998</ele>
        <time>2017-06-30T11:03:12Z</time>
      </trkpt>
      <trkpt lat="61.296431003138423" lon="10.19355003722012">
        <ele>499.06</ele>
        <time>2017-06-30T11:03:13Z</time>
      </trkpt>
      <trkpt lat="61.296366965398192" lon="10.193209983408451">
        <ele>497.62</ele>
        <time>2017-06-30T11:03:14Z</time>
      </trkpt>
      <trkpt lat="61.296298988163471" lon="10.192874036729336">
        <ele>496.66000000000003</ele>
        <time>2017-06-30T11:03:15Z</time>
      </trkpt>
      <trkpt lat="61.296132020652294" lon="10.192235000431538">
        <ele>494.74000000000001</ele>
        <time>2017-06-30T11:03:17Z</time>
      </trkpt>
      <trkpt lat="61.296033030375838" lon="10.191954039037228">
        <ele>493.76999999999998</ele>
        <time>2017-06-30T11:03:18Z</time>
      </trkpt>
      <trkpt lat="61.295922975987196" lon="10.191690009087324">
        <ele>493.29000000000002</ele>
        <time>2017-06-30T11:03:19Z</time>
      </trkpt>
      <trkpt lat="61.29580101929605" lon="10.191446011886001">
        <ele>492.81</ele>
        <time>2017-06-30T11:03:20Z</time>
      </trkpt>
      <trkpt lat="61.295673027634621" lon="10.19120897166431">
        <ele>491.85000000000002</ele>
        <time>2017-06-30T11:03:21Z</time>
      </trkpt>
      <trkpt lat="61.294869035482407" lon="10.18910201266408">
        <ele>482.24000000000001</ele>
        <time>2017-06-30T11:03:28Z</time>
      </trkpt>
      <trkpt lat="61.294148024171591" lon="10.187441976740956">
        <ele>475.02999999999997</ele>
        <time>2017-06-30T11:03:34Z</time>
      </trkpt>
      <trkpt lat="61.293999999761581" lon="10.187262017279863">
        <ele>474.55000000000001</ele>
        <time>2017-06-30T11:03:35Z</time>
      </trkpt>
      <trkpt lat="61.293848035857081" lon="10.187122961506248">
        <ele>473.58999999999997</ele>
        <time>2017-06-30T11:03:36Z</time>
      </trkpt>
      <trkpt lat="61.293689031153917" lon="10.187020031735301">
        <ele>472.63</ele>
        <time>2017-06-30T11:03:37Z</time>
      </trkpt>
      <trkpt lat="61.293532038107514" lon="10.186948031187057">
        <ele>472.63</ele>
        <time>2017-06-30T11:03:38Z</time>
      </trkpt>
      <trkpt lat="61.293370015919209" lon="10.186888016760349">
        <ele>471.66000000000003</ele>
        <time>2017-06-30T11:03:39Z</time>
      </trkpt>
      <trkpt lat="61.290798028931022" lon="10.185977993533015">
        <ele>460.61000000000001</ele>
        <time>2017-06-30T11:03:54Z</time>
      </trkpt>
      <trkpt lat="61.28830399364233" lon="10.184903014451265">
        <ele>455.80000000000001</ele>
        <time>2017-06-30T11:04:07Z</time>
      </trkpt>
      <trkpt lat="61.287034973502159" lon="10.18319302238524">
        <ele>455.80000000000001</ele>
        <time>2017-06-30T11:04:15Z</time>
      </trkpt>
      <trkpt lat="61.285814987495542" lon="10.181999020278454">
        <ele>457.24000000000001</ele>
        <time>2017-06-30T11:04:22Z</time>
      </trkpt>
      <trkpt lat="61.283739041537046" lon="10.180521039292216">
        <ele>453.88</ele>
        <time>2017-06-30T11:04:33Z</time>
      </trkpt>
      <trkpt lat="61.282832035794854" lon="10.178825967013836">
        <ele>452.44</ele>
        <time>2017-06-30T11:04:39Z</time>
      </trkpt>
      <trkpt lat="61.281762002035975" lon="10.175238009542227">
        <ele>449.55000000000001</ele>
        <time>2017-06-30T11:04:49Z</time>
      </trkpt>
      <trkpt lat="61.280324002727866" lon="10.170526038855314">
        <ele>440.89999999999998</ele>
        <time>2017-06-30T11:05:02Z</time>
      </trkpt>
      <trkpt lat="61.278950041159987" lon="10.165258012712002">
        <ele>428.88999999999999</ele>
        <time>2017-06-30T11:05:16Z</time>
      </trkpt>
      <trkpt lat="61.278245039284229" lon="10.16220398247242">
        <ele>431.29000000000002</ele>
        <time>2017-06-30T11:05:26Z</time>
      </trkpt>
      <trkpt lat="61.278213020414114" lon="10.161878010258079">
        <ele>430.81</ele>
        <time>2017-06-30T11:05:27Z</time>
      </trkpt>
      <trkpt lat="61.278190976008773" lon="10.161546003073454">
        <ele>430.81</ele>
        <time>2017-06-30T11:05:28Z</time>
      </trkpt>
      <trkpt lat="61.278177984058857" lon="10.161207038909197">
        <ele>430.32999999999998</ele>
        <time>2017-06-30T11:05:29Z</time>
      </trkpt>
      <trkpt lat="61.278182007372379" lon="10.160852987319231">
        <ele>429.85000000000002</ele>
        <time>2017-06-30T11:05:30Z</time>
      </trkpt>
      <trkpt lat="61.278190976008773" lon="10.160502959042788">
        <ele>428.88999999999999</ele>
        <time>2017-06-30T11:05:31Z</time>
      </trkpt>
      <trkpt lat="61.278232969343662" lon="10.159253971651196">
        <ele>426</ele>
        <time>2017-06-30T11:05:36Z</time>
      </trkpt>
      <trkpt lat="61.278212014585733" lon="10.158825991675258">
        <ele>426.48000000000002</ele>
        <time>2017-06-30T11:05:43Z</time>
      </trkpt>
      <trkpt lat="61.278234981000423" lon="10.158777963370085">
        <ele>426.48000000000002</ele>
        <time>2017-06-30T11:06:07Z</time>
      </trkpt>
      <trkpt lat="61.278250990435481" lon="10.158722978085279">
        <ele>426.95999999999998</ele>
        <time>2017-06-30T11:06:08Z</time>
      </trkpt>
      <trkpt lat="61.278268005698919" lon="10.158625999465585">
        <ele>426.95999999999998</ele>
        <time>2017-06-30T11:06:09Z</time>
      </trkpt>
      <trkpt lat="61.278286026790738" lon="10.158484010025859">
        <ele>426.95999999999998</ele>
        <time>2017-06-30T11:06:10Z</time>
      </trkpt>
      <trkpt lat="61.278297007083893" lon="10.158305978402495">
        <ele>426.95999999999998</ele>
        <time>2017-06-30T11:06:11Z</time>
      </trkpt>
      <trkpt lat="61.27831201069057" lon="10.156415021046996">
        <ele>421.19</ele>
        <time>2017-06-30T11:06:18Z</time>
      </trkpt>
      <trkpt lat="61.278042029589415" lon="10.153430979698896">
        <ele>412.54000000000002</ele>
        <time>2017-06-30T11:06:26Z</time>
      </trkpt>
      <trkpt lat="61.277487985789776" lon="10.149116981774569">
        <ele>396.19999999999999</ele>
        <time>2017-06-30T11:06:37Z</time>
      </trkpt>
      <trkpt lat="61.27738899551332" lon="10.148790003731847">
        <ele>394.75999999999999</ele>
        <time>2017-06-30T11:06:38Z</time>
      </trkpt>
      <trkpt lat="61.277272989973426" lon="10.148495966568589">
        <ele>393.80000000000001</ele>
        <time>2017-06-30T11:06:39Z</time>
      </trkpt>
      <trkpt lat="61.277146004140377" lon="10.148232020437717">
        <ele>393.31999999999999</ele>
        <time>2017-06-30T11:06:40Z</time>
      </trkpt>
      <trkpt lat="61.277008960023522" lon="10.147986011579633">
        <ele>392.36000000000001</ele>
        <time>2017-06-30T11:06:41Z</time>
      </trkpt>
      <trkpt lat="61.276861019432545" lon="10.147759029641747">
        <ele>391.87</ele>
        <time>2017-06-30T11:06:42Z</time>
      </trkpt>
      <trkpt lat="61.276708971709013" lon="10.147545961663127">
        <ele>390.91000000000003</ele>
        <time>2017-06-30T11:06:43Z</time>
      </trkpt>
      <trkpt lat="61.275396030396223" lon="10.146092958748341">
        <ele>384.18000000000001</ele>
        <time>2017-06-30T11:06:51Z</time>
      </trkpt>
      <trkpt lat="61.275222022086382" lon="10.145998997613788">
        <ele>383.69999999999999</ele>
        <time>2017-06-30T11:06:52Z</time>
      </trkpt>
      <trkpt lat="61.27504600211978" lon="10.145945018157363">
        <ele>383.22000000000003</ele>
        <time>2017-06-30T11:06:53Z</time>
      </trkpt>
      <trkpt lat="61.273732976987958" lon="10.145239010453224">
        <ele>370.24000000000001</ele>
        <time>2017-06-30T11:07:00Z</time>
      </trkpt>
      <trkpt lat="61.273198965936899" lon="10.144917983561754">
        <ele>366.39999999999998</ele>
        <time>2017-06-30T11:07:03Z</time>
      </trkpt>
      <trkpt lat="61.273018000647426" lon="10.144881019368768">
        <ele>364.95999999999998</ele>
        <time>2017-06-30T11:07:04Z</time>
      </trkpt>
      <trkpt lat="61.27283301204443" lon="10.144870961084962">
        <ele>364</ele>
        <time>2017-06-30T11:07:05Z</time>
      </trkpt>
      <trkpt lat="61.271063005551696" lon="10.145004987716675">
        <ele>351.01999999999998</ele>
        <time>2017-06-30T11:07:14Z</time>
      </trkpt>
      <trkpt lat="61.270880028605461" lon="10.145043041557074">
        <ele>349.57999999999998</ele>
        <time>2017-06-30T11:07:15Z</time>
      </trkpt>
      <trkpt lat="61.270710965618491" lon="10.145120993256569">
        <ele>348.62</ele>
        <time>2017-06-30T11:07:16Z</time>
      </trkpt>
      <trkpt lat="61.270541986450553" lon="10.145245967432857">
        <ele>346.69</ele>
        <time>2017-06-30T11:07:17Z</time>
      </trkpt>
      <trkpt lat="61.270385999232531" lon="10.145414024591446">
        <ele>345.25</ele>
        <time>2017-06-30T11:07:18Z</time>
      </trkpt>
      <trkpt lat="61.270238980650902" lon="10.145635977387428">
        <ele>343.32999999999998</ele>
        <time>2017-06-30T11:07:19Z</time>
      </trkpt>
      <trkpt lat="61.270105037838221" lon="10.145892966538668">
        <ele>340.92000000000002</ele>
        <time>2017-06-30T11:07:20Z</time>
      </trkpt>
      <trkpt lat="61.269990038126707" lon="10.146165965124965">
        <ele>339.48000000000002</ele>
        <time>2017-06-30T11:07:21Z</time>
      </trkpt>
      <trkpt lat="61.269879983738065" lon="10.146469976752996">
        <ele>338.51999999999998</ele>
        <time>2017-06-30T11:07:22Z</time>
      </trkpt>
      <trkpt lat="61.269757021218538" lon="10.146788991987705">
        <ele>337.07999999999998</ele>
        <time>2017-06-30T11:07:23Z</time>
      </trkpt>
      <trkpt lat="61.268584979698062" lon="10.150089031085372">
        <ele>329.38999999999999</ele>
        <time>2017-06-30T11:07:33Z</time>
      </trkpt>
      <trkpt lat="61.268311981111765" lon="10.150622958317399">
        <ele>328.43000000000001</ele>
        <time>2017-06-30T11:07:35Z</time>
      </trkpt>
      <trkpt lat="61.268155993893743" lon="10.150843989104033">
        <ele>327.47000000000003</ele>
        <time>2017-06-30T11:07:36Z</time>
      </trkpt>
      <trkpt lat="61.267992965877056" lon="10.151021014899015">
        <ele>326.99000000000001</ele>
        <time>2017-06-30T11:07:37Z</time>
      </trkpt>
      <trkpt lat="61.267812000587583" lon="10.151170967146754">
        <ele>326.01999999999998</ele>
        <time>2017-06-30T11:07:38Z</time>
      </trkpt>
      <trkpt lat="61.267638998106122" lon="10.151307005435228">
        <ele>325.06</ele>
        <time>2017-06-30T11:07:39Z</time>
      </trkpt>
      <trkpt lat="61.267293998971581" lon="10.151648987084627">
        <ele>322.18000000000001</ele>
        <time>2017-06-30T11:07:41Z</time>
      </trkpt>
      <trkpt lat="61.267165001481771" lon="10.151876974850893">
        <ele>320.74000000000001</ele>
        <time>2017-06-30T11:07:42Z</time>
      </trkpt>
      <trkpt lat="61.265631029382348" lon="10.153638012707233">
        <ele>311.60000000000002</ele>
        <time>2017-06-30T11:07:51Z</time>
      </trkpt>
      <trkpt lat="61.263714004307985" lon="10.155678000301123">
        <ele>305.36000000000001</ele>
        <time>2017-06-30T11:08:02Z</time>
      </trkpt>
      <trkpt lat="61.262430986389518" lon="10.157796023413539">
        <ele>293.33999999999997</ele>
        <time>2017-06-30T11:08:10Z</time>
      </trkpt>
      <trkpt lat="61.261751968413591" lon="10.158644020557404">
        <ele>293.81999999999999</ele>
        <time>2017-06-30T11:08:14Z</time>
      </trkpt>
      <trkpt lat="61.261621965095401" lon="10.158879971131682">
        <ele>293.33999999999997</ele>
        <time>2017-06-30T11:08:15Z</time>
      </trkpt>
      <trkpt lat="61.261520041152835" lon="10.159155987203121">
        <ele>293.33999999999997</ele>
        <time>2017-06-30T11:08:16Z</time>
      </trkpt>
      <trkpt lat="61.261429013684392" lon="10.15947500243783">
        <ele>292.38</ele>
        <time>2017-06-30T11:08:17Z</time>
      </trkpt>
      <trkpt lat="61.261333040893078" lon="10.159820001572371">
        <ele>291.89999999999998</ele>
        <time>2017-06-30T11:08:18Z</time>
      </trkpt>
      <trkpt lat="61.26071403734386" lon="10.162845030426979">
        <ele>290.94</ele>
        <time>2017-06-30T11:08:25Z</time>
      </trkpt>
      <trkpt lat="61.260027978569269" lon="10.165433026850224">
        <ele>296.22000000000003</ele>
        <time>2017-06-30T11:08:32Z</time>
      </trkpt>
      <trkpt lat="61.25934200361371" lon="10.1674460247159">
        <ele>301.02999999999997</ele>
        <time>2017-06-30T11:08:38Z</time>
      </trkpt>
      <trkpt lat="61.257875002920628" lon="10.170903978869319">
        <ele>306.31999999999999</ele>
        <time>2017-06-30T11:08:48Z</time>
      </trkpt>
      <trkpt lat="61.256264001131058" lon="10.174709027633071">
        <ele>308.24000000000001</ele>
        <time>2017-06-30T11:08:59Z</time>
      </trkpt>
      <trkpt lat="61.255358001217246" lon="10.17760899849236">
        <ele>315.44999999999999</ele>
        <time>2017-06-30T11:09:06Z</time>
      </trkpt>
      <trkpt lat="61.254430040717125" lon="10.179855013266206">
        <ele>317.37</ele>
        <time>2017-06-30T11:09:13Z</time>
      </trkpt>
      <trkpt lat="61.252563977614045" lon="10.183008033782244">
        <ele>309.68000000000001</ele>
        <time>2017-06-30T11:09:25Z</time>
      </trkpt>
      <trkpt lat="61.251059006899595" lon="10.185349015519023">
        <ele>302.47000000000003</ele>
        <time>2017-06-30T11:09:34Z</time>
      </trkpt>
      <trkpt lat="61.248610988259315" lon="10.189394038170576">
        <ele>290.94</ele>
        <time>2017-06-30T11:09:49Z</time>
      </trkpt>
      <trkpt lat="61.246748026460409" lon="10.192075995728374">
        <ele>279.88</ele>
        <time>2017-06-30T11:10:00Z</time>
      </trkpt>
      <trkpt lat="61.245409017428756" lon="10.193908028304577">
        <ele>270.75</ele>
        <time>2017-06-30T11:10:08Z</time>
      </trkpt>
      <trkpt lat="61.245231991633773" lon="10.194115983322263">
        <ele>269.31</ele>
        <time>2017-06-30T11:10:09Z</time>
      </trkpt>
      <trkpt lat="61.245041973888874" lon="10.194276999682188">
        <ele>268.82999999999998</ele>
        <time>2017-06-30T11:10:10Z</time>
      </trkpt>
      <trkpt lat="61.244491031393409" lon="10.194691987708211">
        <ele>267.38</ele>
        <time>2017-06-30T11:10:13Z</time>
      </trkpt>
      <trkpt lat="61.244316017255187" lon="10.194884017109871">
        <ele>266.42000000000002</ele>
        <time>2017-06-30T11:10:14Z</time>
      </trkpt>
      <trkpt lat="61.244146032258868" lon="10.195128014311194">
        <ele>265.45999999999998</ele>
        <time>2017-06-30T11:10:15Z</time>
      </trkpt>
      <trkpt lat="61.242992011830211" lon="10.196873964741826">
        <ele>259.20999999999998</ele>
        <time>2017-06-30T11:10:22Z</time>
      </trkpt>
      <trkpt lat="61.242809034883976" lon="10.197031041607261">
        <ele>258.73000000000002</ele>
        <time>2017-06-30T11:10:23Z</time>
      </trkpt>
      <trkpt lat="61.242263037711382" lon="10.197452986612916">
        <ele>257.76999999999998</ele>
        <time>2017-06-30T11:10:26Z</time>
      </trkpt>
      <trkpt lat="61.242094980552793" lon="10.197641998529434">
        <ele>256.81</ele>
        <time>2017-06-30T11:10:27Z</time>
      </trkpt>
      <trkpt lat="61.241936981678009" lon="10.197873003780842">
        <ele>256.32999999999998</ele>
        <time>2017-06-30T11:10:28Z</time>
      </trkpt>
      <trkpt lat="61.24131697230041" lon="10.198801970109344">
        <ele>252.96000000000001</ele>
        <time>2017-06-30T11:10:32Z</time>
      </trkpt>
      <trkpt lat="61.241153022274375" lon="10.198969021439552">
        <ele>252.96000000000001</ele>
        <time>2017-06-30T11:10:33Z</time>
      </trkpt>
      <trkpt lat="61.24002599157393" lon="10.20023301243782">
        <ele>251.52000000000001</ele>
        <time>2017-06-30T11:10:41Z</time>
      </trkpt>
      <trkpt lat="61.238901978358626" lon="10.201738988980651">
        <ele>247.68000000000001</ele>
        <time>2017-06-30T11:10:50Z</time>
      </trkpt>
      <trkpt lat="61.238784966990352" lon="10.20188701339066">
        <ele>246.72</ele>
        <time>2017-06-30T11:10:51Z</time>
      </trkpt>
      <trkpt lat="61.238682037219405" lon="10.202035959810019">
        <ele>246.22999999999999</ele>
        <time>2017-06-30T11:10:52Z</time>
      </trkpt>
      <trkpt lat="61.238395962864161" lon="10.202542981132865">
        <ele>245.75</ele>
        <time>2017-06-30T11:10:58Z</time>
      </trkpt>
      <trkpt lat="61.238045012578368" lon="10.203254017978907">
        <ele>245.27000000000001</ele>
        <time>2017-06-30T11:11:06Z</time>
      </trkpt>
      <trkpt lat="61.237214030697942" lon="10.204855967313051">
        <ele>245.27000000000001</ele>
        <time>2017-06-30T11:11:13Z</time>
      </trkpt>
      <trkpt lat="61.236047018319368" lon="10.207093013450503">
        <ele>244.31</ele>
        <time>2017-06-30T11:11:21Z</time>
      </trkpt>
      <trkpt lat="61.235017972066998" lon="10.209097964689136">
        <ele>240.94999999999999</ele>
        <time>2017-06-30T11:11:29Z</time>
      </trkpt>
      <trkpt lat="61.23373101465404" lon="10.211029993370175">
        <ele>237.58000000000001</ele>
        <time>2017-06-30T11:11:39Z</time>
      </trkpt>
      <trkpt lat="61.233432032167912" lon="10.211302991956472">
        <ele>235.66</ele>
        <time>2017-06-30T11:11:41Z</time>
      </trkpt>
      <trkpt lat="61.233271015807986" lon="10.211392007768154">
        <ele>234.22</ele>
        <time>2017-06-30T11:11:42Z</time>
      </trkpt>
      <trkpt lat="61.232131998986006" lon="10.211859969422221">
        <ele>228.93000000000001</ele>
        <time>2017-06-30T11:11:49Z</time>
      </trkpt>
      <trkpt lat="61.231978023424745" lon="10.212001036852598">
        <ele>228.44999999999999</ele>
        <time>2017-06-30T11:11:50Z</time>
      </trkpt>
      <trkpt lat="61.231834022328258" lon="10.212174039334059">
        <ele>227.97</ele>
        <time>2017-06-30T11:11:51Z</time>
      </trkpt>
      <trkpt lat="61.231707036495209" lon="10.212377971038222">
        <ele>227.97</ele>
        <time>2017-06-30T11:11:52Z</time>
      </trkpt>
      <trkpt lat="61.231583990156651" lon="10.212601013481617">
        <ele>227.49000000000001</ele>
        <time>2017-06-30T11:11:53Z</time>
      </trkpt>
      <trkpt lat="61.231464967131615" lon="10.212847022339702">
        <ele>227.00999999999999</ele>
        <time>2017-06-30T11:11:54Z</time>
      </trkpt>
      <trkpt lat="61.231354996562004" lon="10.213106023147702">
        <ele>226.53</ele>
        <time>2017-06-30T11:11:55Z</time>
      </trkpt>
      <trkpt lat="61.230389988049865" lon="10.215994007885456">
        <ele>230.37</ele>
        <time>2017-06-30T11:12:06Z</time>
      </trkpt>
      <trkpt lat="61.229172013700008" lon="10.219155997037888">
        <ele>228.93000000000001</ele>
        <time>2017-06-30T11:12:19Z</time>
      </trkpt>
      <trkpt lat="61.228588968515396" lon="10.220868000760674">
        <ele>227.49000000000001</ele>
        <time>2017-06-30T11:12:28Z</time>
      </trkpt>
      <trkpt lat="61.227814983576536" lon="10.223875008523464">
        <ele>227.49000000000001</ele>
        <time>2017-06-30T11:12:43Z</time>
      </trkpt>
      <trkpt lat="61.226674960926175" lon="10.226722005754709">
        <ele>229.88999999999999</ele>
        <time>2017-06-30T11:12:58Z</time>
      </trkpt>
      <trkpt lat="61.225739037618041" lon="10.22779799066484">
        <ele>232.78</ele>
        <time>2017-06-30T11:13:06Z</time>
      </trkpt>
      <trkpt lat="61.225633006542921" lon="10.227982979267836">
        <ele>232.78</ele>
        <time>2017-06-30T11:13:07Z</time>
      </trkpt>
      <trkpt lat="61.225538961589336" lon="10.22820501588285">
        <ele>233.25999999999999</ele>
        <time>2017-06-30T11:13:08Z</time>
      </trkpt>
      <trkpt lat="61.22546000406146" lon="10.228455970063806">
        <ele>233.74000000000001</ele>
        <time>2017-06-30T11:13:09Z</time>
      </trkpt>
      <trkpt lat="61.2253940384835" lon="10.22872201167047">
        <ele>234.22</ele>
        <time>2017-06-30T11:13:10Z</time>
      </trkpt>
      <trkpt lat="61.225338969379663" lon="10.229012025520205">
        <ele>234.69999999999999</ele>
        <time>2017-06-30T11:13:11Z</time>
      </trkpt>
      <trkpt lat="61.225298987701535" lon="10.229315031319857">
        <ele>234.69999999999999</ele>
        <time>2017-06-30T11:13:12Z</time>
      </trkpt>
      <trkpt lat="61.225275015458465" lon="10.229630023241043">
        <ele>235.18000000000001</ele>
        <time>2017-06-30T11:13:13Z</time>
      </trkpt>
      <trkpt lat="61.225120034068823" lon="10.23082603700459">
        <ele>236.13999999999999</ele>
        <time>2017-06-30T11:13:17Z</time>
      </trkpt>
      <trkpt lat="61.225047027692199" lon="10.231088977307081">
        <ele>236.13999999999999</ele>
        <time>2017-06-30T11:13:18Z</time>
      </trkpt>
      <trkpt lat="61.224959017708898" lon="10.231323000043631">
        <ele>236.62</ele>
        <time>2017-06-30T11:13:19Z</time>
      </trkpt>
      <trkpt lat="61.224847035482526" lon="10.231526009738445">
        <ele>236.62</ele>
        <time>2017-06-30T11:13:20Z</time>
      </trkpt>
      <trkpt lat="61.224735975265503" lon="10.231707980856299">
        <ele>237.58000000000001</ele>
        <time>2017-06-30T11:13:21Z</time>
      </trkpt>
      <trkpt lat="61.224619969725609" lon="10.231865979731083">
        <ele>238.06</ele>
        <time>2017-06-30T11:13:22Z</time>
      </trkpt>
      <trkpt lat="61.224476974457502" lon="10.23198701441288">
        <ele>239.02000000000001</ele>
        <time>2017-06-30T11:13:23Z</time>
      </trkpt>
      <trkpt lat="61.224338002502918" lon="10.232096984982491">
        <ele>239.50999999999999</ele>
        <time>2017-06-30T11:13:24Z</time>
      </trkpt>
      <trkpt lat="61.223320020362735" lon="10.233459966257215">
        <ele>242.87</ele>
        <time>2017-06-30T11:13:32Z</time>
      </trkpt>
      <trkpt lat="61.222820961847901" lon="10.235486039891839">
        <ele>244.31</ele>
        <time>2017-06-30T11:13:39Z</time>
      </trkpt>
      <trkpt lat="61.222099028527737" lon="10.238746013492346">
        <ele>245.75</ele>
        <time>2017-06-30T11:13:50Z</time>
      </trkpt>
      <trkpt lat="61.221260000020266" lon="10.242157028988004">
        <ele>247.19999999999999</ele>
        <time>2017-06-30T11:14:01Z</time>
      </trkpt>
      <trkpt lat="61.220802012830973" lon="10.245487997308373">
        <ele>250.56</ele>
        <time>2017-06-30T11:14:09Z</time>
      </trkpt>
      <trkpt lat="61.219954015687108" lon="10.25239703245461">
        <ele>257.76999999999998</ele>
        <time>2017-06-30T11:14:24Z</time>
      </trkpt>
      <trkpt lat="61.219869023188949" lon="10.256719999015331">
        <ele>263.06</ele>
        <time>2017-06-30T11:14:34Z</time>
      </trkpt>
      <trkpt lat="61.220263978466392" lon="10.26301296427846">
        <ele>263.54000000000002</ele>
        <time>2017-06-30T11:14:49Z</time>
      </trkpt>
      <trkpt lat="61.220396999269724" lon="10.26636597700417">
        <ele>262.57999999999998</ele>
        <time>2017-06-30T11:14:57Z</time>
      </trkpt>
      <trkpt lat="61.220363974571228" lon="10.266776019707322">
        <ele>262.57999999999998</ele>
        <time>2017-06-30T11:14:58Z</time>
      </trkpt>
      <trkpt lat="61.220311000943184" lon="10.267177009955049">
        <ele>262.57999999999998</ele>
        <time>2017-06-30T11:14:59Z</time>
      </trkpt>
      <trkpt lat="61.22023900039494" lon="10.26756601408124">
        <ele>262.10000000000002</ele>
        <time>2017-06-30T11:15:00Z</time>
      </trkpt>
      <trkpt lat="61.220146967098117" lon="10.26793397963047">
        <ele>262.10000000000002</ele>
        <time>2017-06-30T11:15:01Z</time>
      </trkpt>
      <trkpt lat="61.220041019842029" lon="10.268283002078533">
        <ele>262.10000000000002</ele>
        <time>2017-06-30T11:15:02Z</time>
      </trkpt>
      <trkpt lat="61.219921996816993" lon="10.268616015091538">
        <ele>261.62</ele>
        <time>2017-06-30T11:15:03Z</time>
      </trkpt>
      <trkpt lat="61.219791993498802" lon="10.268939975649118">
        <ele>261.62</ele>
        <time>2017-06-30T11:15:04Z</time>
      </trkpt>
      <trkpt lat="61.219239961355925" lon="10.27057402767241">
        <ele>261.62</ele>
        <time>2017-06-30T11:15:09Z</time>
      </trkpt>
      <trkpt lat="61.219173995777965" lon="10.270921038463712">
        <ele>261.62</ele>
        <time>2017-06-30T11:15:10Z</time>
      </trkpt>
      <trkpt lat="61.219125967472792" lon="10.271278023719788">
        <ele>261.62</ele>
        <time>2017-06-30T11:15:11Z</time>
      </trkpt>
      <trkpt lat="61.219093026593328" lon="10.271645989269018">
        <ele>261.62</ele>
        <time>2017-06-30T11:15:12Z</time>
      </trkpt>
      <trkpt lat="61.219071988016367" lon="10.2720130328089">
        <ele>261.13999999999999</ele>
        <time>2017-06-30T11:15:13Z</time>
      </trkpt>
      <trkpt lat="61.219062013551593" lon="10.272377980872989">
        <ele>261.13999999999999</ele>
        <time>2017-06-30T11:15:14Z</time>
      </trkpt>
      <trkpt lat="61.219042986631393" lon="10.27375697158277">
        <ele>260.17000000000002</ele>
        <time>2017-06-30T11:15:18Z</time>
      </trkpt>
      <trkpt lat="61.219017002731562" lon="10.27405796572566">
        <ele>259.20999999999998</ele>
        <time>2017-06-30T11:15:19Z</time>
      </trkpt>
      <trkpt lat="61.21897098608315" lon="10.274348985403776">
        <ele>259.20999999999998</ele>
        <time>2017-06-30T11:15:20Z</time>
      </trkpt>
      <trkpt lat="61.21890502050519" lon="10.274622989818454">
        <ele>258.73000000000002</ele>
        <time>2017-06-30T11:15:21Z</time>
      </trkpt>
      <trkpt lat="61.218823967501521" lon="10.274876961484551">
        <ele>258.25</ele>
        <time>2017-06-30T11:15:22Z</time>
      </trkpt>
      <trkpt lat="61.218735035508871" lon="10.2751300111413">
        <ele>258.25</ele>
        <time>2017-06-30T11:15:23Z</time>
      </trkpt>
      <trkpt lat="61.217921990901232" lon="10.277262032032013">
        <ele>253.93000000000001</ele>
        <time>2017-06-30T11:15:33Z</time>
      </trkpt>
      <trkpt lat="61.21781000867486" lon="10.277384994551539">
        <ele>253.93000000000001</ele>
        <time>2017-06-30T11:15:34Z</time>
      </trkpt>
      <trkpt lat="61.217691991478205" lon="10.277503011748195">
        <ele>253.93000000000001</ele>
        <time>2017-06-30T11:15:35Z</time>
      </trkpt>
      <trkpt lat="61.217201985418797" lon="10.277951024472713">
        <ele>253.93000000000001</ele>
        <time>2017-06-30T11:15:39Z</time>
      </trkpt>
      <trkpt lat="61.217095032334328" lon="10.278103994205594">
        <ele>253.44</ele>
        <time>2017-06-30T11:15:40Z</time>
      </trkpt>
      <trkpt lat="61.217005010694265" lon="10.278281020000577">
        <ele>252.96000000000001</ele>
        <time>2017-06-30T11:15:41Z</time>
      </trkpt>
      <trkpt lat="61.216926975175738" lon="10.27848201803863">
        <ele>252.96000000000001</ele>
        <time>2017-06-30T11:15:42Z</time>
      </trkpt>
      <trkpt lat="61.216860003769398" lon="10.278702965006232">
        <ele>252.47999999999999</ele>
        <time>2017-06-30T11:15:43Z</time>
      </trkpt>
      <trkpt lat="61.216794960200787" lon="10.278932964429259">
        <ele>252</ele>
        <time>2017-06-30T11:15:44Z</time>
      </trkpt>
      <trkpt lat="61.216581976041198" lon="10.279810968786478">
        <ele>251.03999999999999</ele>
        <time>2017-06-30T11:15:48Z</time>
      </trkpt>
      <trkpt lat="61.216558003798127" lon="10.280027976259589">
        <ele>251.52000000000001</ele>
        <time>2017-06-30T11:15:49Z</time>
      </trkpt>
      <trkpt lat="61.216550962999463" lon="10.2802449837327">
        <ele>251.52000000000001</ele>
        <time>2017-06-30T11:15:50Z</time>
      </trkpt>
      <trkpt lat="61.216566972434521" lon="10.280464002862573">
        <ele>251.52000000000001</ele>
        <time>2017-06-30T11:15:51Z</time>
      </trkpt>
      <trkpt lat="61.216599997133017" lon="10.280680004507303">
        <ele>251.52000000000001</ele>
        <time>2017-06-30T11:15:52Z</time>
      </trkpt>
      <trkpt lat="61.21664903126657" lon="10.280884020030499">
        <ele>251.52000000000001</ele>
        <time>2017-06-30T11:15:53Z</time>
      </trkpt>
      <trkpt lat="61.216699993237853" lon="10.281075965613127">
        <ele>251.52000000000001</ele>
        <time>2017-06-30T11:15:54Z</time>
      </trkpt>
      <trkpt lat="61.216795966029167" lon="10.281471004709601">
        <ele>251.52000000000001</ele>
        <time>2017-06-30T11:15:56Z</time>
      </trkpt>
      <trkpt lat="61.216818010434508" lon="10.28168298304081">
        <ele>251.52000000000001</ele>
        <time>2017-06-30T11:15:57Z</time>
      </trkpt>
      <trkpt lat="61.216822033748031" lon="10.281902002170682">
        <ele>252</ele>
        <time>2017-06-30T11:15:58Z</time>
      </trkpt>
      <trkpt lat="61.216806024312973" lon="10.282125966623425">
        <ele>252</ele>
        <time>2017-06-30T11:15:59Z</time>
      </trkpt>
      <trkpt lat="61.216766964644194" lon="10.282340040430427">
        <ele>252</ele>
        <time>2017-06-30T11:16:00Z</time>
      </trkpt>
      <trkpt lat="61.216707034036517" lon="10.282535003498197">
        <ele>252.47999999999999</ele>
        <time>2017-06-30T11:16:01Z</time>
      </trkpt>
      <trkpt lat="61.21662899851799" lon="10.282709011808038">
        <ele>252.47999999999999</ele>
        <time>2017-06-30T11:16:02Z</time>
      </trkpt>
      <trkpt lat="61.216538976877928" lon="10.282866004854441">
        <ele>252.96000000000001</ele>
        <time>2017-06-30T11:16:03Z</time>
      </trkpt>
      <trkpt lat="61.216448033228517" lon="10.283016040921211">
        <ele>253.44</ele>
        <time>2017-06-30T11:16:04Z</time>
      </trkpt>
      <trkpt lat="61.216276036575437" lon="10.283346036449075">
        <ele>254.41</ele>
        <time>2017-06-30T11:16:06Z</time>
      </trkpt>
      <trkpt lat="61.21621903963387" lon="10.283549968153238">
        <ele>254.41</ele>
        <time>2017-06-30T11:16:07Z</time>
      </trkpt>
      <trkpt lat="61.216179979965091" lon="10.283763958141208">
        <ele>254.88999999999999</ele>
        <time>2017-06-30T11:16:08Z</time>
      </trkpt>
      <trkpt lat="61.21604897081852" lon="10.284387990832329">
        <ele>254.88999999999999</ele>
        <time>2017-06-30T11:16:11Z</time>
      </trkpt>
      <trkpt lat="61.215988034382463" lon="10.284575996920466">
        <ele>254.41</ele>
        <time>2017-06-30T11:16:12Z</time>
      </trkpt>
      <trkpt lat="61.215913016349077" lon="10.284752016887069">
        <ele>254.41</ele>
        <time>2017-06-30T11:16:13Z</time>
      </trkpt>
      <trkpt lat="61.215822994709015" lon="10.284917978569865">
        <ele>253.93000000000001</ele>
        <time>2017-06-30T11:16:14Z</time>
      </trkpt>
      <trkpt lat="61.21572501026094" lon="10.285066002979875">
        <ele>254.41</ele>
        <time>2017-06-30T11:16:15Z</time>
      </trkpt>
      <trkpt lat="61.2156199850142" lon="10.285200029611588">
        <ele>254.41</ele>
        <time>2017-06-30T11:16:16Z</time>
      </trkpt>
      <trkpt lat="61.21551001444459" lon="10.285321986302733">
        <ele>254.41</ele>
        <time>2017-06-30T11:16:17Z</time>
      </trkpt>
      <trkpt lat="61.215399038046598" lon="10.285435980185866">
        <ele>254.88999999999999</ele>
        <time>2017-06-30T11:16:18Z</time>
      </trkpt>
      <trkpt lat="61.214818004518747" lon="10.28606696985662">
        <ele>255.84999999999999</ele>
        <time>2017-06-30T11:16:23Z</time>
      </trkpt>
      <trkpt lat="61.214723959565163" lon="10.286266962066293">
        <ele>255.84999999999999</ele>
        <time>2017-06-30T11:16:24Z</time>
      </trkpt>
      <trkpt lat="61.214645002037287" lon="10.286499978974462">
        <ele>255.84999999999999</ele>
        <time>2017-06-30T11:16:25Z</time>
      </trkpt>
      <trkpt lat="61.214583981782198" lon="10.286766020581126">
        <ele>255.84999999999999</ele>
        <time>2017-06-30T11:16:26Z</time>
      </trkpt>
      <trkpt lat="61.214536959305406" lon="10.287055028602481">
        <ele>255.84999999999999</ele>
        <time>2017-06-30T11:16:27Z</time>
      </trkpt>
      <trkpt lat="61.214495971798897" lon="10.287357028573751">
        <ele>255.84999999999999</ele>
        <time>2017-06-30T11:16:28Z</time>
      </trkpt>
      <trkpt lat="61.213909992948174" lon="10.29021299444139">
        <ele>253.93000000000001</ele>
        <time>2017-06-30T11:16:38Z</time>
      </trkpt>
      <trkpt lat="61.213127039372921" lon="10.29212499037385">
        <ele>253.44</ele>
        <time>2017-06-30T11:16:47Z</time>
      </trkpt>
      <trkpt lat="61.211900012567639" lon="10.293785026296973">
        <ele>253.93000000000001</ele>
        <time>2017-06-30T11:16:57Z</time>
      </trkpt>
      <trkpt lat="61.210361011326313" lon="10.295985024422407">
        <ele>256.32999999999998</ele>
        <time>2017-06-30T11:17:09Z</time>
      </trkpt>
      <trkpt lat="61.209402959793806" lon="10.297324033454061">
        <ele>256.81</ele>
        <time>2017-06-30T11:17:16Z</time>
      </trkpt>
      <trkpt lat="61.209255019202828" lon="10.297427969053388">
        <ele>256.81</ele>
        <time>2017-06-30T11:17:17Z</time>
      </trkpt>
      <trkpt lat="61.20831498876214" lon="10.297913029789925">
        <ele>257.76999999999998</ele>
        <time>2017-06-30T11:17:25Z</time>
      </trkpt>
      <trkpt lat="61.207847027108073" lon="10.298252999782562">
        <ele>258.25</ele>
        <time>2017-06-30T11:17:33Z</time>
      </trkpt>
      <trkpt lat="61.207501022145152" lon="10.298478975892067">
        <ele>258.73000000000002</ele>
        <time>2017-06-30T11:17:44Z</time>
      </trkpt>
      <trkpt lat="61.207490963861346" lon="10.298493979498744">
        <ele>258.25</ele>
        <time>2017-06-30T11:18:06Z</time>
      </trkpt>
      <trkpt lat="61.207386022433639" lon="10.298628006130457">
        <ele>258.73000000000002</ele>
        <time>2017-06-30T11:19:35Z</time>
      </trkpt>
      <trkpt lat="61.207321984693408" lon="10.298709981143475">
        <ele>258.73000000000002</ele>
        <time>2017-06-30T11:19:36Z</time>
      </trkpt>
    </trkseg>
  </trk>

  <trk>
    <name>Track vom: 30 JUN 2017 13:19</name>
    <extensions>
      <gpxx:TrackExtension>
        <gpxx:DisplayColor>DarkGray</gpxx:DisplayColor>
      </gpxx:TrackExtension>
    </extensions>
    <trkseg>
      <trkpt lat="61.207244032993913" lon="10.298790028318763">
        <ele>258.73000000000002</ele>
        <time>2017-06-30T11:19:37Z</time>
      </trkpt>
      <trkpt lat="61.206457978114486" lon="10.299533000215888">
        <ele>259.20999999999998</ele>
        <time>2017-06-30T11:19:44Z</time>
      </trkpt>
      <trkpt lat="61.204517986625433" lon="10.301321027800441">
        <ele>261.13999999999999</ele>
        <time>2017-06-30T11:19:57Z</time>
      </trkpt>
      <trkpt lat="61.203268999233842" lon="10.302389971911907">
        <ele>261.62</ele>
        <time>2017-06-30T11:20:06Z</time>
      </trkpt>
      <trkpt lat="61.20238495990634" lon="10.303478026762605">
        <ele>261.62</ele>
        <time>2017-06-30T11:20:14Z</time>
      </trkpt>
      <trkpt lat="61.20208497159183" lon="10.303895026445389">
        <ele>261.13999999999999</ele>
        <time>2017-06-30T11:20:20Z</time>
      </trkpt>
      <trkpt lat="61.202086983248591" lon="10.303901983425021">
        <ele>260.64999999999998</ele>
        <time>2017-06-30T11:20:32Z</time>
      </trkpt>
      <trkpt lat="61.201977012678981" lon="10.303873987868428">
        <ele>260.64999999999998</ele>
        <time>2017-06-30T11:21:10Z</time>
      </trkpt>
      <trkpt lat="61.201856983825564" lon="10.303664021193981">
        <ele>259.69</ele>
        <time>2017-06-30T11:21:27Z</time>
      </trkpt>
      <trkpt lat="61.201848015189171" lon="10.303702997043729">
        <ele>259.20999999999998</ele>
        <time>2017-06-30T11:21:48Z</time>
      </trkpt>
      <trkpt lat="61.201851032674313" lon="10.303706014528871">
        <ele>259.20999999999998</ele>
        <time>2017-06-30T11:22:41Z</time>
      </trkpt>
      <trkpt lat="61.20186997577548" lon="10.303739039227366">
        <ele>259.20999999999998</ele>
        <time>2017-06-30T11:23:56Z</time>
      </trkpt>
      <trkpt lat="61.201893026009202" lon="10.303721018135548">
        <ele>259.20999999999998</ele>
        <time>2017-06-30T11:24:13Z</time>
      </trkpt>
      <trkpt lat="61.201905012130737" lon="10.303734010085464">
        <ele>259.69</ele>
        <time>2017-06-30T11:24:18Z</time>
      </trkpt>
      <trkpt lat="61.201990004628897" lon="10.303798969835043">
        <ele>260.64999999999998</ele>
        <time>2017-06-30T11:24:21Z</time>
      </trkpt>
      <trkpt lat="61.202010959386826" lon="10.303851021453738">
        <ele>261.13999999999999</ele>
        <time>2017-06-30T11:24:22Z</time>
      </trkpt>
      <trkpt lat="61.202065022662282" lon="10.303969038650393">
        <ele>260.17000000000002</ele>
        <time>2017-06-30T11:24:31Z</time>
      </trkpt>
      <trkpt lat="61.202140040695667" lon="10.304001979529858">
        <ele>261.13999999999999</ele>
        <time>2017-06-30T11:24:35Z</time>
      </trkpt>
      <trkpt lat="61.202198965474963" lon="10.303954035043716">
        <ele>261.13999999999999</ele>
        <time>2017-06-30T11:24:36Z</time>
      </trkpt>
      <trkpt lat="61.202265014871955" lon="10.303854960948229">
        <ele>261.13999999999999</ele>
        <time>2017-06-30T11:24:37Z</time>
      </trkpt>
      <trkpt lat="61.202933974564075" lon="10.302843013778329">
        <ele>261.13999999999999</ele>
        <time>2017-06-30T11:24:44Z</time>
      </trkpt>
      <trkpt lat="61.204280024394393" lon="10.301613975316286">
        <ele>260.17000000000002</ele>
        <time>2017-06-30T11:24:54Z</time>
      </trkpt>
      <trkpt lat="61.207012021914124" lon="10.29910895973444">
        <ele>258.73000000000002</ele>
        <time>2017-06-30T11:25:12Z</time>
      </trkpt>
      <trkpt lat="61.207880973815918" lon="10.29831200838089">
        <ele>258.25</ele>
        <time>2017-06-30T11:25:20Z</time>
      </trkpt>
      <trkpt lat="61.2079699896276" lon="10.298131965100765">
        <ele>258.73000000000002</ele>
        <time>2017-06-30T11:25:26Z</time>
      </trkpt>
      <trkpt lat="61.207955991849303" lon="10.298096006736159">
        <ele>258.73000000000002</ele>
        <time>2017-06-30T11:25:29Z</time>
      </trkpt>
      <trkpt lat="61.207952974364161" lon="10.298063987866044">
        <ele>258.25</ele>
        <time>2017-06-30T11:25:30Z</time>
      </trkpt>
      <trkpt lat="61.207941994071007" lon="10.298032974824309">
        <ele>258.25</ele>
        <time>2017-06-30T11:25:31Z</time>
      </trkpt>
      <trkpt lat="61.207922967150807" lon="10.298002967610955">
        <ele>258.25</ele>
        <time>2017-06-30T11:25:32Z</time>
      </trkpt>
      <trkpt lat="61.207897989079356" lon="10.297981007024646">
        <ele>257.76999999999998</ele>
        <time>2017-06-30T11:25:33Z</time>
      </trkpt>
      <trkpt lat="61.20786496438086" lon="10.29796801507473">
        <ele>258.25</ele>
        <time>2017-06-30T11:25:34Z</time>
      </trkpt>
      <trkpt lat="61.207829006016254" lon="10.297964997589588">
        <ele>257.76999999999998</ele>
        <time>2017-06-30T11:25:35Z</time>
      </trkpt>
      <trkpt lat="61.207792963832617" lon="10.297970026731491">
        <ele>257.76999999999998</ele>
        <time>2017-06-30T11:25:36Z</time>
      </trkpt>
      <trkpt lat="61.20775499381125" lon="10.297982012853026">
        <ele>257.29000000000002</ele>
        <time>2017-06-30T11:25:37Z</time>
      </trkpt>
      <trkpt lat="61.207210002467036" lon="10.297993998974562">
        <ele>253.44</ele>
        <time>2017-06-30T11:25:51Z</time>
      </trkpt>
      <trkpt lat="61.206684960052371" lon="10.297328978776932">
        <ele>243.83000000000001</ele>
        <time>2017-06-30T11:26:08Z</time>
      </trkpt>
      <trkpt lat="61.206195959821343" lon="10.296988002955914">
        <ele>239.50999999999999</ele>
        <time>2017-06-30T11:26:23Z</time>
      </trkpt>
      <trkpt lat="61.205974007025361" lon="10.296500008553267">
        <ele>236.13999999999999</ele>
        <time>2017-06-30T11:26:38Z</time>
      </trkpt>
      <trkpt lat="61.205933019518852" lon="10.296160038560629">
        <ele>235.66</ele>
        <time>2017-06-30T11:26:52Z</time>
      </trkpt>
      <trkpt lat="61.206065034493804" lon="10.295645976439118">
        <ele>233.25999999999999</ele>
        <time>2017-06-30T11:27:05Z</time>
      </trkpt>
      <trkpt lat="61.20607802644372" lon="10.295640025287867">
        <ele>234.22</ele>
        <time>2017-06-30T11:27:23Z</time>
      </trkpt>
      <trkpt lat="61.206080038100481" lon="10.295618986710906">
        <ele>234.22</ele>
        <time>2017-06-30T11:27:39Z</time>
      </trkpt>
      <trkpt lat="61.206002002581954" lon="10.295607000589371">
        <ele>234.69999999999999</ele>
        <time>2017-06-30T11:27:47Z</time>
      </trkpt>
      <trkpt lat="61.206133011728525" lon="10.296071022748947">
        <ele>238.06</ele>
        <time>2017-06-30T11:27:59Z</time>
      </trkpt>
      <trkpt lat="61.206243988126516" lon="10.295996004715562">
        <ele>239.50999999999999</ele>
        <time>2017-06-30T11:28:02Z</time>
      </trkpt>
      <trkpt lat="61.206275001168251" lon="10.295955017209053">
        <ele>239.99000000000001</ele>
        <time>2017-06-30T11:28:03Z</time>
      </trkpt>
      <trkpt lat="61.206295033916831" lon="10.295915035530925">
        <ele>240.47</ele>
        <time>2017-06-30T11:28:04Z</time>
      </trkpt>
      <trkpt lat="61.206383965909481" lon="10.295824008062482">
        <ele>242.87</ele>
        <time>2017-06-30T11:28:13Z</time>
      </trkpt>
      <trkpt lat="61.206388995051384" lon="10.295842029154301">
        <ele>242.38999999999999</ele>
        <time>2017-06-30T11:28:21Z</time>
      </trkpt>
      <trkpt lat="61.20640299282968" lon="10.29586298391223">
        <ele>242.87</ele>
        <time>2017-06-30T11:28:22Z</time>
      </trkpt>
      <trkpt lat="61.206411961466074" lon="10.295888967812061">
        <ele>242.87</ele>
        <time>2017-06-30T11:28:23Z</time>
      </trkpt>
      <trkpt lat="61.206414978951216" lon="10.295912018045783">
        <ele>243.34999999999999</ele>
        <time>2017-06-30T11:28:24Z</time>
      </trkpt>
      <trkpt lat="61.206417996436357" lon="10.295930961146951">
        <ele>243.34999999999999</ele>
        <time>2017-06-30T11:28:25Z</time>
      </trkpt>
      <trkpt lat="61.206421013921499" lon="10.295986030250788">
        <ele>243.34999999999999</ele>
        <time>2017-06-30T11:28:43Z</time>
      </trkpt>
      <trkpt lat="61.206419002264738" lon="10.295986030250788">
        <ele>243.34999999999999</ele>
        <time>2017-06-30T11:29:37Z</time>
      </trkpt>
      <trkpt lat="61.206471975892782" lon="10.296039003878832">
        <ele>250.56</ele>
        <time>2017-06-30T11:52:04Z</time>
      </trkpt>
      <trkpt lat="61.206362005323172" lon="10.295998016372323">
        <ele>250.08000000000001</ele>
        <time>2017-06-30T11:52:41Z</time>
      </trkpt>
      <trkpt lat="61.206356976181269" lon="10.29579802416265">
        <ele>247.19999999999999</ele>
        <time>2017-06-30T11:52:56Z</time>
      </trkpt>
      <trkpt lat="61.20629696175456" lon="10.295832976698875">
        <ele>245.75</ele>
        <time>2017-06-30T11:53:00Z</time>
      </trkpt>
      <trkpt lat="61.206173999235034" lon="10.296022994443774">
        <ele>243.34999999999999</ele>
        <time>2017-06-30T11:53:06Z</time>
      </trkpt>
      <trkpt lat="61.206019017845392" lon="10.296044033020735">
        <ele>240.94999999999999</ele>
        <time>2017-06-30T11:53:12Z</time>
      </trkpt>
      <trkpt lat="61.205983981490135" lon="10.296470001339912">
        <ele>239.02000000000001</ele>
        <time>2017-06-30T11:53:20Z</time>
      </trkpt>
      <trkpt lat="61.206003008410335" lon="10.296548036858439">
        <ele>239.02000000000001</ele>
        <time>2017-06-30T11:53:21Z</time>
      </trkpt>
      <trkpt lat="61.206024968996644" lon="10.296628000214696">
        <ele>238.53999999999999</ele>
        <time>2017-06-30T11:53:22Z</time>
      </trkpt>
      <trkpt lat="61.206049025058746" lon="10.296705029904842">
        <ele>239.50999999999999</ele>
        <time>2017-06-30T11:53:23Z</time>
      </trkpt>
      <trkpt lat="61.2060790322721" lon="10.296773007139564">
        <ele>239.50999999999999</ele>
        <time>2017-06-30T11:53:24Z</time>
      </trkpt>
      <trkpt lat="61.206110967323184" lon="10.296835033223033">
        <ele>239.99000000000001</ele>
        <time>2017-06-30T11:53:25Z</time>
      </trkpt>
      <trkpt lat="61.206150026991963" lon="10.296884989365935">
        <ele>240.47</ele>
        <time>2017-06-30T11:53:26Z</time>
      </trkpt>
      <trkpt lat="61.206189002841711" lon="10.296933017671108">
        <ele>240.47</ele>
        <time>2017-06-30T11:53:27Z</time>
      </trkpt>
      <trkpt lat="61.206223033368587" lon="10.296976016834378">
        <ele>241.43000000000001</ele>
        <time>2017-06-30T11:53:28Z</time>
      </trkpt>
      <trkpt lat="61.206262009218335" lon="10.297009041532874">
        <ele>241.91</ele>
        <time>2017-06-30T11:53:29Z</time>
      </trkpt>
      <trkpt lat="61.206308025866747" lon="10.297040976583958">
        <ele>242.38999999999999</ele>
        <time>2017-06-30T11:53:30Z</time>
      </trkpt>
      <trkpt lat="61.206503994762897" lon="10.297152958810329">
        <ele>244.31</ele>
        <time>2017-06-30T11:53:34Z</time>
      </trkpt>
      <trkpt lat="61.207102965563536" lon="10.297896014526486">
        <ele>252</ele>
        <time>2017-06-30T11:53:47Z</time>
      </trkpt>
      <trkpt lat="61.207529017701745" lon="10.298070022836328">
        <ele>255.84999999999999</ele>
        <time>2017-06-30T11:53:56Z</time>
      </trkpt>
      <trkpt lat="61.20792799629271" lon="10.298004979267716">
        <ele>260.17000000000002</ele>
        <time>2017-06-30T11:54:08Z</time>
      </trkpt>
      <trkpt lat="61.207923972979188" lon="10.298018977046013">
        <ele>259.69</ele>
        <time>2017-06-30T11:54:32Z</time>
      </trkpt>
      <trkpt lat="61.207937970757484" lon="10.298048984259367">
        <ele>259.69</ele>
        <time>2017-06-30T11:54:41Z</time>
      </trkpt>
      <trkpt lat="61.207944005727768" lon="10.298079997301102">
        <ele>260.17000000000002</ele>
        <time>2017-06-30T11:54:42Z</time>
      </trkpt>
      <trkpt lat="61.20794702321291" lon="10.298116039484739">
        <ele>260.17000000000002</ele>
        <time>2017-06-30T11:54:43Z</time>
      </trkpt>
      <trkpt lat="61.207937970757484" lon="10.298174964264035">
        <ele>260.17000000000002</ele>
        <time>2017-06-30T11:54:44Z</time>
      </trkpt>
      <trkpt lat="61.207908969372511" lon="10.298247970640659">
        <ele>259.69</ele>
        <time>2017-06-30T11:54:45Z</time>
      </trkpt>
      <trkpt lat="61.207852978259325" lon="10.29831301420927">
        <ele>259.69</ele>
        <time>2017-06-30T11:54:46Z</time>
      </trkpt>
      <trkpt lat="61.207769997417927" lon="10.298362970352173">
        <ele>259.69</ele>
        <time>2017-06-30T11:54:47Z</time>
      </trkpt>
      <trkpt lat="61.207675030454993" lon="10.298419967293739">
        <ele>259.20999999999998</ele>
        <time>2017-06-30T11:54:48Z</time>
      </trkpt>
      <trkpt lat="61.207576040178537" lon="10.298505965620279">
        <ele>260.17000000000002</ele>
        <time>2017-06-30T11:54:49Z</time>
      </trkpt>
      <trkpt lat="61.207470009103417" lon="10.298601016402245">
        <ele>260.64999999999998</ele>
        <time>2017-06-30T11:54:50Z</time>
      </trkpt>
      <trkpt lat="61.206061011180282" lon="10.299858972430229">
        <ele>260.64999999999998</ele>
        <time>2017-06-30T11:55:01Z</time>
      </trkpt>
      <trkpt lat="61.203410988673568" lon="10.302196014672518">
        <ele>262.10000000000002</ele>
        <time>2017-06-30T11:55:19Z</time>
      </trkpt>
      <trkpt lat="61.202177004888654" lon="10.303756976500154">
        <ele>262.57999999999998</ele>
        <time>2017-06-30T11:55:28Z</time>
      </trkpt>
      <trkpt lat="61.200578995049" lon="10.305595966055989">
        <ele>263.06</ele>
        <time>2017-06-30T11:55:39Z</time>
      </trkpt>
      <trkpt lat="61.198818041011691" lon="10.307624973356724">
        <ele>264.01999999999998</ele>
        <time>2017-06-30T11:55:51Z</time>
      </trkpt>
      <trkpt lat="61.196986008435488" lon="10.309243015944958">
        <ele>265.45999999999998</ele>
        <time>2017-06-30T11:56:02Z</time>
      </trkpt>
      <trkpt lat="61.195624032989144" lon="10.310863992199302">
        <ele>263.54000000000002</ele>
        <time>2017-06-30T11:56:09Z</time>
      </trkpt>
      <trkpt lat="61.192745016887784" lon="10.314387995749712">
        <ele>259.69</ele>
        <time>2017-06-30T11:56:24Z</time>
      </trkpt>
      <trkpt lat="61.190740987658501" lon="10.316973980516195">
        <ele>256.32999999999998</ele>
        <time>2017-06-30T11:56:36Z</time>
      </trkpt>
      <trkpt lat="61.189485965296626" lon="10.317631037905812">
        <ele>254.88999999999999</ele>
        <time>2017-06-30T11:56:43Z</time>
      </trkpt>
      <trkpt lat="61.188363041728735" lon="10.317967990413308">
        <ele>252.47999999999999</ele>
        <time>2017-06-30T11:56:51Z</time>
      </trkpt>
      <trkpt lat="61.186715997755527" lon="10.319181019440293">
        <ele>251.03999999999999</ele>
        <time>2017-06-30T11:57:02Z</time>
      </trkpt>
      <trkpt lat="61.184523962438107" lon="10.321655021980405">
        <ele>248.16</ele>
        <time>2017-06-30T11:57:15Z</time>
      </trkpt>
      <trkpt lat="61.183051010593772" lon="10.323241967707872">
        <ele>245.75</ele>
        <time>2017-06-30T11:57:22Z</time>
      </trkpt>
      <trkpt lat="61.181541010737419" lon="10.324057023972273">
        <ele>244.31</ele>
        <time>2017-06-30T11:57:29Z</time>
      </trkpt>
      <trkpt lat="61.179255014285445" lon="10.325153963640332">
        <ele>241.91</ele>
        <time>2017-06-30T11:57:40Z</time>
      </trkpt>
      <trkpt lat="61.17754896171391" lon="10.326956994831562">
        <ele>235.66</ele>
        <time>2017-06-30T11:57:49Z</time>
      </trkpt>
      <trkpt lat="61.175422975793481" lon="10.328739993274212">
        <ele>231.81</ele>
        <time>2017-06-30T11:58:00Z</time>
      </trkpt>
      <trkpt lat="61.173759000375867" lon="10.331495963037014">
        <ele>228.44999999999999</ele>
        <time>2017-06-30T11:58:10Z</time>
      </trkpt>
      <trkpt lat="61.172467013821006" lon="10.33312096260488">
        <ele>226.05000000000001</ele>
        <time>2017-06-30T11:58:18Z</time>
      </trkpt>
      <trkpt lat="61.171297989785671" lon="10.335192969068885">
        <ele>222.19999999999999</ele>
        <time>2017-06-30T11:58:26Z</time>
      </trkpt>
      <trkpt lat="61.169519014656544" lon="10.338778998702765">
        <ele>215.94999999999999</ele>
        <time>2017-06-30T11:58:39Z</time>
      </trkpt>
      <trkpt lat="61.168001974001527" lon="10.341015961021185">
        <ele>212.11000000000001</ele>
        <time>2017-06-30T11:58:49Z</time>
      </trkpt>
      <trkpt lat="61.167130004614592" lon="10.343477977439761">
        <ele>208.74000000000001</ele>
        <time>2017-06-30T11:58:57Z</time>
      </trkpt>
      <trkpt lat="61.166499014943838" lon="10.346886981278658">
        <ele>206.34</ele>
        <time>2017-06-30T11:59:06Z</time>
      </trkpt>
      <trkpt lat="61.165709020569921" lon="10.351293012499809">
        <ele>200.09</ele>
        <time>2017-06-30T11:59:18Z</time>
      </trkpt>
      <trkpt lat="61.164788017049432" lon="10.353489993140101">
        <ele>196.25</ele>
        <time>2017-06-30T11:59:26Z</time>
      </trkpt>
      <trkpt lat="61.163679007440805" lon="10.356256021186709">
        <ele>193.36000000000001</ele>
        <time>2017-06-30T11:59:36Z</time>
      </trkpt>
      <trkpt lat="61.163122029975057" lon="10.359368976205587">
        <ele>190.47999999999999</ele>
        <time>2017-06-30T11:59:45Z</time>
      </trkpt>
      <trkpt lat="61.162349972873926" lon="10.363382985815406">
        <ele>186.63</ele>
        <time>2017-06-30T11:59:58Z</time>
      </trkpt>
      <trkpt lat="61.161590991541743" lon="10.367981968447566">
        <ele>178.94</ele>
        <time>2017-06-30T12:00:12Z</time>
      </trkpt>
      <trkpt lat="61.160845002159476" lon="10.372615987434983">
        <ele>171.25</ele>
        <time>2017-06-30T12:00:25Z</time>
      </trkpt>
      <trkpt lat="61.159931961447001" lon="10.376816997304559">
        <ele>166.44999999999999</ele>
        <time>2017-06-30T12:00:37Z</time>
      </trkpt>
      <trkpt lat="61.15975895896554" lon="10.379395019263029">
        <ele>165.47999999999999</ele>
        <time>2017-06-30T12:00:44Z</time>
      </trkpt>
      <trkpt lat="61.159770023077726" lon="10.383209036663175">
        <ele>156.83000000000001</ele>
        <time>2017-06-30T12:00:54Z</time>
      </trkpt>
      <trkpt lat="61.159730041399598" lon="10.383602986112237">
        <ele>155.87</ele>
        <time>2017-06-30T12:00:55Z</time>
      </trkpt>
      <trkpt lat="61.159674972295761" lon="10.383997019380331">
        <ele>154.43000000000001</ele>
        <time>2017-06-30T12:00:56Z</time>
      </trkpt>
      <trkpt lat="61.158882966265082" lon="10.388111025094986">
        <ele>141.44999999999999</ele>
        <time>2017-06-30T12:01:07Z</time>
      </trkpt>
      <trkpt lat="61.158055001869798" lon="10.39127703756094">
        <ele>131.36000000000001</ele>
        <time>2017-06-30T12:01:16Z</time>
      </trkpt>
      <trkpt lat="61.15706903859973" lon="10.392698021605611">
        <ele>127.98999999999999</ele>
        <time>2017-06-30T12:01:23Z</time>
      </trkpt>
      <trkpt lat="61.156954960897565" lon="10.39289097301662">
        <ele>127.98999999999999</ele>
        <time>2017-06-30T12:01:24Z</time>
      </trkpt>
      <trkpt lat="61.156654972583055" lon="10.393439987674356">
        <ele>127.03</ele>
        <time>2017-06-30T12:01:27Z</time>
      </trkpt>
      <trkpt lat="61.156551036983728" lon="10.393562028184533">
        <ele>127.03</ele>
        <time>2017-06-30T12:01:28Z</time>
      </trkpt>
      <trkpt lat="61.15644701756537" lon="10.393660012632608">
        <ele>127.03</ele>
        <time>2017-06-30T12:01:29Z</time>
      </trkpt>
      <trkpt lat="61.156247025355697" lon="10.393858999013901">
        <ele>127.51000000000001</ele>
        <time>2017-06-30T12:01:31Z</time>
      </trkpt>
      <trkpt lat="61.155838994309306" lon="10.394485965371132">
        <ele>127.51000000000001</ele>
        <time>2017-06-30T12:01:35Z</time>
      </trkpt>
      <trkpt lat="61.155746039003134" lon="10.394705990329385">
        <ele>127.51000000000001</ele>
        <time>2017-06-30T12:01:36Z</time>
      </trkpt>
      <trkpt lat="61.154849007725716" lon="10.39656400680542">
        <ele>127.98999999999999</ele>
        <time>2017-06-30T12:01:44Z</time>
      </trkpt>
      <trkpt lat="61.153071960434318" lon="10.399822974577546">
        <ele>129.43000000000001</ele>
        <time>2017-06-30T12:01:57Z</time>
      </trkpt>
      <trkpt lat="61.152557982131839" lon="10.40191400796175">
        <ele>130.40000000000001</ele>
        <time>2017-06-30T12:02:03Z</time>
      </trkpt>
      <trkpt lat="61.152510959655046" lon="10.404235040768981">
        <ele>129.91999999999999</ele>
        <time>2017-06-30T12:02:09Z</time>
      </trkpt>
      <trkpt lat="61.15288102068007" lon="10.407664999365807">
        <ele>129.43000000000001</ele>
        <time>2017-06-30T12:02:18Z</time>
      </trkpt>
      <trkpt lat="61.152809020131826" lon="10.40928496979177">
        <ele>130.40000000000001</ele>
        <time>2017-06-30T12:02:22Z</time>
      </trkpt>
      <trkpt lat="61.152743976563215" lon="10.409668022766709">
        <ele>130.40000000000001</ele>
        <time>2017-06-30T12:02:23Z</time>
      </trkpt>
      <trkpt lat="61.152664013206959" lon="10.410029031336308">
        <ele>130.88</ele>
        <time>2017-06-30T12:02:24Z</time>
      </trkpt>
      <trkpt lat="61.152572985738516" lon="10.410381993278861">
        <ele>131.36000000000001</ele>
        <time>2017-06-30T12:02:25Z</time>
      </trkpt>
      <trkpt lat="61.152468966320157" lon="10.410706037655473">
        <ele>131.84</ele>
        <time>2017-06-30T12:02:26Z</time>
      </trkpt>
      <trkpt lat="61.152352038770914" lon="10.411005020141602">
        <ele>132.80000000000001</ele>
        <time>2017-06-30T12:02:27Z</time>
      </trkpt>
      <trkpt lat="61.152224969118834" lon="10.41128296405077">
        <ele>133.28</ele>
        <time>2017-06-30T12:02:28Z</time>
      </trkpt>
      <trkpt lat="61.152084991335869" lon="10.411534002050757">
        <ele>134.72</ele>
        <time>2017-06-30T12:02:29Z</time>
      </trkpt>
      <trkpt lat="61.151933027431369" lon="10.411759978160262">
        <ele>135.68000000000001</ele>
        <time>2017-06-30T12:02:30Z</time>
      </trkpt>
      <trkpt lat="61.151769999414682" lon="10.411959970369935">
        <ele>136.63999999999999</ele>
        <time>2017-06-30T12:02:31Z</time>
      </trkpt>
      <trkpt lat="61.151602026075125" lon="10.412134984508157">
        <ele>137.61000000000001</ele>
        <time>2017-06-30T12:02:32Z</time>
      </trkpt>
      <trkpt lat="61.151425000280142" lon="10.412272028625011">
        <ele>138.56999999999999</ele>
        <time>2017-06-30T12:02:33Z</time>
      </trkpt>
      <trkpt lat="61.151242023333907" lon="10.412389962002635">
        <ele>139.53</ele>
        <time>2017-06-30T12:02:34Z</time>
      </trkpt>
      <trkpt lat="61.151057034730911" lon="10.412475960329175">
        <ele>140.97</ele>
        <time>2017-06-30T12:02:35Z</time>
      </trkpt>
      <trkpt lat="61.150868022814393" lon="10.412530023604631">
        <ele>141.44999999999999</ele>
        <time>2017-06-30T12:02:36Z</time>
      </trkpt>
      <trkpt lat="61.150675993412733" lon="10.412552990019321">
        <ele>142.41</ele>
        <time>2017-06-30T12:02:37Z</time>
      </trkpt>
      <trkpt lat="61.150491004809737" lon="10.412558019161224">
        <ele>143.37</ele>
        <time>2017-06-30T12:02:38Z</time>
      </trkpt>
      <trkpt lat="61.149140009656549" lon="10.412759017199278">
        <ele>147.22</ele>
        <time>2017-06-30T12:02:46Z</time>
      </trkpt>
      <trkpt lat="61.148552019149065" lon="10.413224967196584">
        <ele>148.18000000000001</ele>
        <time>2017-06-30T12:02:51Z</time>
      </trkpt>
      <trkpt lat="61.148469960317016" lon="10.413285987451673">
        <ele>148.66</ele>
        <time>2017-06-30T12:02:52Z</time>
      </trkpt>
      <trkpt lat="61.148397959768772" lon="10.413382966071367">
        <ele>149.13999999999999</ele>
        <time>2017-06-30T12:02:53Z</time>
      </trkpt>
      <trkpt lat="61.148337023332715" lon="10.413534007966518">
        <ele>149.13999999999999</ele>
        <time>2017-06-30T12:02:54Z</time>
      </trkpt>
      <trkpt lat="61.148283965885639" lon="10.413713967427611">
        <ele>148.66</ele>
        <time>2017-06-30T12:02:55Z</time>
      </trkpt>
      <trkpt lat="61.148138036951423" lon="10.41409601457417">
        <ele>148.66</ele>
        <time>2017-06-30T12:02:57Z</time>
      </trkpt>
      <trkpt lat="61.148046003654599" lon="10.414286032319069">
        <ele>149.13999999999999</ele>
        <time>2017-06-30T12:02:58Z</time>
      </trkpt>
      <trkpt lat="61.147271012887359" lon="10.415306026116014">
        <ele>152.03</ele>
        <time>2017-06-30T12:03:05Z</time>
      </trkpt>
      <trkpt lat="61.14699499681592" lon="10.415398981422186">
        <ele>152.99000000000001</ele>
        <time>2017-06-30T12:03:08Z</time>
      </trkpt>
      <trkpt lat="61.146916961297393" lon="10.415379032492638">
        <ele>152.99000000000001</ele>
        <time>2017-06-30T12:03:09Z</time>
      </trkpt>
      <trkpt lat="61.146838003769517" lon="10.415323963388801">
        <ele>153.47</ele>
        <time>2017-06-30T12:03:10Z</time>
      </trkpt>
      <trkpt lat="61.146618984639645" lon="10.415292028337717">
        <ele>152.99000000000001</ele>
        <time>2017-06-30T12:03:13Z</time>
      </trkpt>
      <trkpt lat="61.146558970212936" lon="10.415383977815509">
        <ele>152.99000000000001</ele>
        <time>2017-06-30T12:03:14Z</time>
      </trkpt>
      <trkpt lat="61.146519994363189" lon="10.415504006668925">
        <ele>152.99000000000001</ele>
        <time>2017-06-30T12:03:15Z</time>
      </trkpt>
      <trkpt lat="61.146534997969866" lon="10.415787985548377">
        <ele>152.99000000000001</ele>
        <time>2017-06-30T12:03:17Z</time>
      </trkpt>
      <trkpt lat="61.146576991304755" lon="10.415927041321993">
        <ele>153.47</ele>
        <time>2017-06-30T12:03:18Z</time>
      </trkpt>
      <trkpt lat="61.146629964932799" lon="10.416057966649532">
        <ele>153.94999999999999</ele>
        <time>2017-06-30T12:03:19Z</time>
      </trkpt>
      <trkpt lat="61.146730966866016" lon="10.416409000754356">
        <ele>154.91</ele>
        <time>2017-06-30T12:03:21Z</time>
      </trkpt>
      <trkpt lat="61.146732978522778" lon="10.41867102496326">
        <ele>161.63999999999999</ele>
        <time>2017-06-30T12:03:29Z</time>
      </trkpt>
      <trkpt lat="61.146624013781548" lon="10.419234037399292">
        <ele>164.03999999999999</ele>
        <time>2017-06-30T12:03:31Z</time>
      </trkpt>
      <trkpt lat="61.146295024082065" lon="10.420501967892051">
        <ele>168.37</ele>
        <time>2017-06-30T12:03:37Z</time>
      </trkpt>
      <trkpt lat="61.146227968856692" lon="10.420634988695383">
        <ele>168.37</ele>
        <time>2017-06-30T12:03:38Z</time>
      </trkpt>
      <trkpt lat="61.146156974136829" lon="10.420732973143458">
        <ele>168.37</ele>
        <time>2017-06-30T12:03:39Z</time>
      </trkpt>
      <trkpt lat="61.146085979416966" lon="10.420802040025592">
        <ele>168.84999999999999</ele>
        <time>2017-06-30T12:03:40Z</time>
      </trkpt>
      <trkpt lat="61.146016996353865" lon="10.420859958976507">
        <ele>168.84999999999999</ele>
        <time>2017-06-30T12:03:41Z</time>
      </trkpt>
      <trkpt lat="61.145292967557907" lon="10.421534031629562">
        <ele>171.72999999999999</ele>
        <time>2017-06-30T12:03:48Z</time>
      </trkpt>
      <trkpt lat="61.144295018166304" lon="10.422334000468254">
        <ele>174.62</ele>
        <time>2017-06-30T12:03:55Z</time>
      </trkpt>
      <trkpt lat="61.143617006018758" lon="10.423897979781032">
        <ele>182.31</ele>
        <time>2017-06-30T12:04:02Z</time>
      </trkpt>
      <trkpt lat="61.143437968567014" lon="10.42557000182569">
        <ele>189.52000000000001</ele>
        <time>2017-06-30T12:04:08Z</time>
      </trkpt>
      <trkpt lat="61.143444003537297" lon="10.427823979407549">
        <ele>196.25</ele>
        <time>2017-06-30T12:04:17Z</time>
      </trkpt>
      <trkpt lat="61.143415002152324" lon="10.427992036566138">
        <ele>196.25</ele>
        <time>2017-06-30T12:04:18Z</time>
      </trkpt>
      <trkpt lat="61.143367979675531" lon="10.428164033219218">
        <ele>196.72999999999999</ele>
        <time>2017-06-30T12:04:19Z</time>
      </trkpt>
      <trkpt lat="61.143302014097571" lon="10.428329994902015">
        <ele>196.72999999999999</ele>
        <time>2017-06-30T12:04:20Z</time>
      </trkpt>
      <trkpt lat="61.143211992457509" lon="10.428483970463276">
        <ele>197.21000000000001</ele>
        <time>2017-06-30T12:04:21Z</time>
      </trkpt>
      <trkpt lat="61.143102021887898" lon="10.428623026236892">
        <ele>197.69</ele>
        <time>2017-06-30T12:04:22Z</time>
      </trkpt>
      <trkpt lat="61.14297897554934" lon="10.428751017898321">
        <ele>197.69</ele>
        <time>2017-06-30T12:04:23Z</time>
      </trkpt>
      <trkpt lat="61.142844026908278" lon="10.428875992074609">
        <ele>197.69</ele>
        <time>2017-06-30T12:04:24Z</time>
      </trkpt>
      <trkpt lat="61.141036972403526" lon="10.43049001134932">
        <ele>198.16999999999999</ele>
        <time>2017-06-30T12:04:36Z</time>
      </trkpt>
      <trkpt lat="61.139726964756846" lon="10.432092966511846">
        <ele>196.72999999999999</ele>
        <time>2017-06-30T12:04:46Z</time>
      </trkpt>
      <trkpt lat="61.137773981317878" lon="10.435441033914685">
        <ele>199.61000000000001</ele>
        <time>2017-06-30T12:05:03Z</time>
      </trkpt>
      <trkpt lat="61.137395035475492" lon="10.436100019142032">
        <ele>200.09</ele>
        <time>2017-06-30T12:05:08Z</time>
      </trkpt>
      <trkpt lat="61.137384977191687" lon="10.43616103939712">
        <ele>200.09</ele>
        <time>2017-06-30T12:05:09Z</time>
      </trkpt>
      <trkpt lat="61.137396963313222" lon="10.436231028288603">
        <ele>200.09</ele>
        <time>2017-06-30T12:05:10Z</time>
      </trkpt>
      <trkpt lat="61.137424036860466" lon="10.436322977766395">
        <ele>200.09</ele>
        <time>2017-06-30T12:05:11Z</time>
      </trkpt>
      <trkpt lat="61.137461001053452" lon="10.436425991356373">
        <ele>200.56999999999999</ele>
        <time>2017-06-30T12:05:12Z</time>
      </trkpt>
      <trkpt lat="61.137504000216722" lon="10.436529004946351">
        <ele>201.05000000000001</ele>
        <time>2017-06-30T12:05:13Z</time>
      </trkpt>
      <trkpt lat="61.137798959389329" lon="10.43738697655499">
        <ele>205.86000000000001</ele>
        <time>2017-06-30T12:05:19Z</time>
      </trkpt>
      <trkpt lat="61.137826032936573" lon="10.437572970986366">
        <ele>206.81999999999999</ele>
        <time>2017-06-30T12:05:20Z</time>
      </trkpt>
      <trkpt lat="61.137844976037741" lon="10.437759971246123">
        <ele>207.78</ele>
        <time>2017-06-30T12:05:21Z</time>
      </trkpt>
      <trkpt lat="61.137853022664785" lon="10.437960969284177">
        <ele>208.74000000000001</ele>
        <time>2017-06-30T12:05:22Z</time>
      </trkpt>
      <trkpt lat="61.137855034321547" lon="10.43816096149385">
        <ele>209.69999999999999</ele>
        <time>2017-06-30T12:05:23Z</time>
      </trkpt>
      <trkpt lat="61.13784103654325" lon="10.438361959531903">
        <ele>210.66999999999999</ele>
        <time>2017-06-30T12:05:24Z</time>
      </trkpt>
      <trkpt lat="61.137813962996006" lon="10.438565975055099">
        <ele>211.15000000000001</ele>
        <time>2017-06-30T12:05:25Z</time>
      </trkpt>
      <trkpt lat="61.137774987146258" lon="10.438765967264771">
        <ele>211.63</ele>
        <time>2017-06-30T12:05:26Z</time>
      </trkpt>
      <trkpt lat="61.137723019346595" lon="10.438956990838051">
        <ele>212.11000000000001</ele>
        <time>2017-06-30T12:05:27Z</time>
      </trkpt>
      <trkpt lat="61.137666022405028" lon="10.439153965562582">
        <ele>212.59</ele>
        <time>2017-06-30T12:05:28Z</time>
      </trkpt>
      <trkpt lat="61.136836968362331" lon="10.441971039399505">
        <ele>218.36000000000001</ele>
        <time>2017-06-30T12:05:41Z</time>
      </trkpt>
      <trkpt lat="61.136604035273194" lon="10.44286597520113">
        <ele>220.28</ele>
        <time>2017-06-30T12:05:45Z</time>
      </trkpt>
      <trkpt lat="61.136567993089557" lon="10.443096980452538">
        <ele>220.75999999999999</ele>
        <time>2017-06-30T12:05:46Z</time>
      </trkpt>
      <trkpt lat="61.136543015018106" lon="10.44333603233099">
        <ele>220.75999999999999</ele>
        <time>2017-06-30T12:05:47Z</time>
      </trkpt>
      <trkpt lat="61.136523988097906" lon="10.443582041189075">
        <ele>221.72</ele>
        <time>2017-06-30T12:05:48Z</time>
      </trkpt>
      <trkpt lat="61.136514013633132" lon="10.443835007026792">
        <ele>222.19999999999999</ele>
        <time>2017-06-30T12:05:49Z</time>
      </trkpt>
      <trkpt lat="61.136507978662848" lon="10.44408998452127">
        <ele>222.68000000000001</ele>
        <time>2017-06-30T12:05:50Z</time>
      </trkpt>
      <trkpt lat="61.136227017268538" lon="10.44726999476552">
        <ele>238.53999999999999</ele>
        <time>2017-06-30T12:06:03Z</time>
      </trkpt>
      <trkpt lat="61.13562997430563" lon="10.449735028669238">
        <ele>241.43000000000001</ele>
        <time>2017-06-30T12:06:14Z</time>
      </trkpt>
      <trkpt lat="61.134863030165434" lon="10.452487980946898">
        <ele>247.68000000000001</ele>
        <time>2017-06-30T12:06:27Z</time>
      </trkpt>
      <trkpt lat="61.134531022980809" lon="10.453573018312454">
        <ele>249.59999999999999</ele>
        <time>2017-06-30T12:06:32Z</time>
      </trkpt>
      <trkpt lat="61.133702974766493" lon="10.454785041511059">
        <ele>249.59999999999999</ele>
        <time>2017-06-30T12:06:41Z</time>
      </trkpt>
      <trkpt lat="61.133171981200576" lon="10.455446960404515">
        <ele>249.12</ele>
        <time>2017-06-30T12:06:50Z</time>
      </trkpt>
      <trkpt lat="61.133119007572532" lon="10.455526001751423">
        <ele>249.12</ele>
        <time>2017-06-30T12:06:51Z</time>
      </trkpt>
      <trkpt lat="61.133051030337811" lon="10.45560403726995">
        <ele>249.12</ele>
        <time>2017-06-30T12:06:52Z</time>
      </trkpt>
      <trkpt lat="61.132206972688437" lon="10.456709023565054">
        <ele>246.72</ele>
        <time>2017-06-30T12:07:01Z</time>
      </trkpt>
      <trkpt lat="61.130904005840421" lon="10.45891597867012">
        <ele>244.31</ele>
        <time>2017-06-30T12:07:14Z</time>
      </trkpt>
      <trkpt lat="61.129728024825454" lon="10.460042003542185">
        <ele>241.91</ele>
        <time>2017-06-30T12:07:24Z</time>
      </trkpt>
      <trkpt lat="61.12875203602016" lon="10.460894023999572">
        <ele>239.02000000000001</ele>
        <time>2017-06-30T12:07:34Z</time>
      </trkpt>
      <trkpt lat="61.127834971994162" lon="10.462120966985822">
        <ele>241.91</ele>
        <time>2017-06-30T12:07:45Z</time>
      </trkpt>
      <trkpt lat="61.127224015071988" lon="10.462967036291957">
        <ele>242.38999999999999</ele>
        <time>2017-06-30T12:07:53Z</time>
      </trkpt>
      <trkpt lat="61.126244002953172" lon="10.464099012315273">
        <ele>245.27000000000001</ele>
        <time>2017-06-30T12:08:02Z</time>
      </trkpt>
      <trkpt lat="61.125432970002294" lon="10.465139038860798">
        <ele>247.68000000000001</ele>
        <time>2017-06-30T12:08:11Z</time>
      </trkpt>
      <trkpt lat="61.124351033940911" lon="10.467190006747842">
        <ele>249.12</ele>
        <time>2017-06-30T12:08:25Z</time>
      </trkpt>
      <trkpt lat="61.123842000961304" lon="10.468147974461317">
        <ele>248.16</ele>
        <time>2017-06-30T12:08:34Z</time>
      </trkpt>
      <trkpt lat="61.123675033450127" lon="10.46834503300488">
        <ele>246.72</ele>
        <time>2017-06-30T12:08:41Z</time>
      </trkpt>
      <trkpt lat="61.123647037893534" lon="10.468432959169149">
        <ele>246.72</ele>
        <time>2017-06-30T12:08:42Z</time>
      </trkpt>
      <trkpt lat="61.123625999316573" lon="10.468552988022566">
        <ele>247.19999999999999</ele>
        <time>2017-06-30T12:08:43Z</time>
      </trkpt>
      <trkpt lat="61.123604960739613" lon="10.468697994947433">
        <ele>247.19999999999999</ele>
        <time>2017-06-30T12:08:44Z</time>
      </trkpt>
      <trkpt lat="61.123580988496542" lon="10.468850964680314">
        <ele>247.19999999999999</ele>
        <time>2017-06-30T12:08:45Z</time>
      </trkpt>
      <trkpt lat="61.123492978513241" lon="10.469148019328713">
        <ele>248.16</ele>
        <time>2017-06-30T12:08:47Z</time>
      </trkpt>
      <trkpt lat="61.123429024592042" lon="10.469269976019859">
        <ele>248.63999999999999</ele>
        <time>2017-06-30T12:08:48Z</time>
      </trkpt>
      <trkpt lat="61.12336004152894" lon="10.469369972124696">
        <ele>248.63999999999999</ele>
        <time>2017-06-30T12:08:49Z</time>
      </trkpt>
      <trkpt lat="61.123293992131948" lon="10.469448007643223">
        <ele>248.63999999999999</ele>
        <time>2017-06-30T12:08:50Z</time>
      </trkpt>
      <trkpt lat="61.12323003821075" lon="10.469512967392802">
        <ele>248.16</ele>
        <time>2017-06-30T12:08:51Z</time>
      </trkpt>
      <trkpt lat="61.122435014694929" lon="10.470371022820473">
        <ele>249.12</ele>
        <time>2017-06-30T12:09:01Z</time>
      </trkpt>
      <trkpt lat="61.121657006442547" lon="10.471206028014421">
        <ele>247.68000000000001</ele>
        <time>2017-06-30T12:09:10Z</time>
      </trkpt>
      <trkpt lat="61.120325038209558" lon="10.472678979858756">
        <ele>247.68000000000001</ele>
        <time>2017-06-30T12:09:26Z</time>
      </trkpt>
      <trkpt lat="61.119473017752171" lon="10.473626973107457">
        <ele>248.63999999999999</ele>
        <time>2017-06-30T12:09:38Z</time>
      </trkpt>
      <trkpt lat="61.119419960305095" lon="10.473684975877404">
        <ele>248.16</ele>
        <time>2017-06-30T12:09:39Z</time>
      </trkpt>
      <trkpt lat="61.119333961978555" lon="10.473829982802272">
        <ele>248.16</ele>
        <time>2017-06-30T12:09:41Z</time>
      </trkpt>
      <trkpt lat="61.119310995563865" lon="10.473918998613954">
        <ele>247.68000000000001</ele>
        <time>2017-06-30T12:09:42Z</time>
      </trkpt>
      <trkpt lat="61.119292974472046" lon="10.474020000547171">
        <ele>247.68000000000001</ele>
        <time>2017-06-30T12:09:43Z</time>
      </trkpt>
      <trkpt lat="61.119294986128807" lon="10.474156038835645">
        <ele>248.16</ele>
        <time>2017-06-30T12:09:44Z</time>
      </trkpt>
      <trkpt lat="61.119316024705768" lon="10.474300961941481">
        <ele>249.12</ele>
        <time>2017-06-30T12:09:45Z</time>
      </trkpt>
      <trkpt lat="61.119347959756851" lon="10.474439011886716">
        <ele>249.12</ele>
        <time>2017-06-30T12:09:46Z</time>
      </trkpt>
      <trkpt lat="61.119381990283728" lon="10.474582007154822">
        <ele>249.59999999999999</ele>
        <time>2017-06-30T12:09:47Z</time>
      </trkpt>
      <trkpt lat="61.119611989706755" lon="10.475479960441589">
        <ele>253.44</ele>
        <time>2017-06-30T12:09:56Z</time>
      </trkpt>
      <trkpt lat="61.119619030505419" lon="10.475527988746762">
        <ele>252.47999999999999</ele>
        <time>2017-06-30T12:10:13Z</time>
      </trkpt>
      <trkpt lat="61.119736963883042" lon="10.475902995094657">
        <ele>253.44</ele>
        <time>2017-06-30T12:10:42Z</time>
      </trkpt>
      <trkpt lat="61.119947014376521" lon="10.477503016591072">
        <ele>258.73000000000002</ele>
        <time>2017-06-30T12:10:55Z</time>
      </trkpt>
      <trkpt lat="61.120349010452628" lon="10.47936899587512">
        <ele>269.79000000000002</ele>
        <time>2017-06-30T12:11:07Z</time>
      </trkpt>
      <trkpt lat="61.120410030707717" lon="10.479520037770271">
        <ele>270.75</ele>
        <time>2017-06-30T12:11:08Z</time>
      </trkpt>
      <trkpt lat="61.120479013770819" lon="10.479664038866758">
        <ele>272.19</ele>
        <time>2017-06-30T12:11:09Z</time>
      </trkpt>
      <trkpt lat="61.120557971298695" lon="10.47979798167944">
        <ele>273.14999999999998</ele>
        <time>2017-06-30T12:11:10Z</time>
      </trkpt>
      <trkpt lat="61.120640030130744" lon="10.479923039674759">
        <ele>274.58999999999997</ele>
        <time>2017-06-30T12:11:11Z</time>
      </trkpt>
      <trkpt lat="61.120728040114045" lon="10.480036027729511">
        <ele>276.04000000000002</ele>
        <time>2017-06-30T12:11:12Z</time>
      </trkpt>
      <trkpt lat="61.120817977935076" lon="10.480128983035684">
        <ele>277</ele>
        <time>2017-06-30T12:11:13Z</time>
      </trkpt>
      <trkpt lat="61.120906993746758" lon="10.480202995240688">
        <ele>277.95999999999998</ele>
        <time>2017-06-30T12:11:14Z</time>
      </trkpt>
      <trkpt lat="61.12099701538682" lon="10.480265021324158">
        <ele>279.39999999999998</ele>
        <time>2017-06-30T12:11:15Z</time>
      </trkpt>
      <trkpt lat="61.121094999834895" lon="10.48031397163868">
        <ele>280.36000000000001</ele>
        <time>2017-06-30T12:11:16Z</time>
      </trkpt>
      <trkpt lat="61.121194995939732" lon="10.480355964973569">
        <ele>281.31999999999999</ele>
        <time>2017-06-30T12:11:17Z</time>
      </trkpt>
      <trkpt lat="61.121301027014852" lon="10.480373986065388">
        <ele>282.76999999999998</ele>
        <time>2017-06-30T12:11:18Z</time>
      </trkpt>
      <trkpt lat="61.12140798009932" lon="10.480371974408627">
        <ele>283.73000000000002</ele>
        <time>2017-06-30T12:11:19Z</time>
      </trkpt>
      <trkpt lat="61.121520968154073" lon="10.480344984680414">
        <ele>284.69</ele>
        <time>2017-06-30T12:11:20Z</time>
      </trkpt>
      <trkpt lat="61.121632028371096" lon="10.480297040194273">
        <ele>286.13</ele>
        <time>2017-06-30T12:11:21Z</time>
      </trkpt>
      <trkpt lat="61.121740993112326" lon="10.480215987190604">
        <ele>287.56999999999999</ele>
        <time>2017-06-30T12:11:22Z</time>
      </trkpt>
      <trkpt lat="61.121846018359065" lon="10.480114985257387">
        <ele>288.52999999999997</ele>
        <time>2017-06-30T12:11:23Z</time>
      </trkpt>
      <trkpt lat="61.121935034170747" lon="10.480021024122834">
        <ele>289.49000000000001</ele>
        <time>2017-06-30T12:11:24Z</time>
      </trkpt>
      <trkpt lat="61.12209596671164" lon="10.479936031624675">
        <ele>291.42000000000002</ele>
        <time>2017-06-30T12:11:26Z</time>
      </trkpt>
      <trkpt lat="61.122164027765393" lon="10.479968972504139">
        <ele>292.38</ele>
        <time>2017-06-30T12:11:27Z</time>
      </trkpt>
      <trkpt lat="61.12222203053534" lon="10.480041978880763">
        <ele>292.86000000000001</ele>
        <time>2017-06-30T12:11:28Z</time>
      </trkpt>
      <trkpt lat="61.122257988899946" lon="10.480147004127502">
        <ele>293.33999999999997</ele>
        <time>2017-06-30T12:11:29Z</time>
      </trkpt>
      <trkpt lat="61.122278021648526" lon="10.480260998010635">
        <ele>293.81999999999999</ele>
        <time>2017-06-30T12:11:30Z</time>
      </trkpt>
      <trkpt lat="61.122279027476907" lon="10.480368034914136">
        <ele>293.81999999999999</ele>
        <time>2017-06-30T12:11:31Z</time>
      </trkpt>
      <trkpt lat="61.122268969193101" lon="10.480475993826985">
        <ele>294.30000000000001</ele>
        <time>2017-06-30T12:11:32Z</time>
      </trkpt>
      <trkpt lat="61.122248014435172" lon="10.480571966618299">
        <ele>294.30000000000001</ele>
        <time>2017-06-30T12:11:33Z</time>
      </trkpt>
      <trkpt lat="61.122220018878579" lon="10.48065897077322">
        <ele>294.77999999999997</ele>
        <time>2017-06-30T12:11:34Z</time>
      </trkpt>
      <trkpt lat="61.122189005836844" lon="10.480757039040327">
        <ele>295.74000000000001</ele>
        <time>2017-06-30T12:11:35Z</time>
      </trkpt>
      <trkpt lat="61.122148018330336" lon="10.480858962982893">
        <ele>296.22000000000003</ele>
        <time>2017-06-30T12:11:36Z</time>
      </trkpt>
      <trkpt lat="61.122043998911977" lon="10.481241010129452">
        <ele>298.14999999999998</ele>
        <time>2017-06-30T12:11:39Z</time>
      </trkpt>
      <trkpt lat="61.122026983648539" lon="10.48140998929739">
        <ele>298.14999999999998</ele>
        <time>2017-06-30T12:11:40Z</time>
      </trkpt>
      <trkpt lat="61.122020026668906" lon="10.481587015092373">
        <ele>299.11000000000001</ele>
        <time>2017-06-30T12:11:41Z</time>
      </trkpt>
      <trkpt lat="61.122024971991777" lon="10.481777032837272">
        <ele>300.06999999999999</ele>
        <time>2017-06-30T12:11:42Z</time>
      </trkpt>
      <trkpt lat="61.122036036103964" lon="10.481973001733422">
        <ele>301.02999999999997</ele>
        <time>2017-06-30T12:11:43Z</time>
      </trkpt>
      <trkpt lat="61.122063025832176" lon="10.482157990336418">
        <ele>302.47000000000003</ele>
        <time>2017-06-30T12:11:44Z</time>
      </trkpt>
      <trkpt lat="61.122100995853543" lon="10.482331998646259">
        <ele>303.43000000000001</ele>
        <time>2017-06-30T12:11:45Z</time>
      </trkpt>
      <trkpt lat="61.122150029987097" lon="10.482499971985817">
        <ele>304.38999999999999</ele>
        <time>2017-06-30T12:11:46Z</time>
      </trkpt>
      <trkpt lat="61.122208032757044" lon="10.482659982517362">
        <ele>305.36000000000001</ele>
        <time>2017-06-30T12:11:47Z</time>
      </trkpt>
      <trkpt lat="61.122653027996421" lon="10.484059005975723">
        <ele>314.49000000000001</ele>
        <time>2017-06-30T12:11:55Z</time>
      </trkpt>
      <trkpt lat="61.122677000239491" lon="10.484269978478551">
        <ele>315.44999999999999</ele>
        <time>2017-06-30T12:11:56Z</time>
      </trkpt>
      <trkpt lat="61.122685968875885" lon="10.484493020921946">
        <ele>316.88999999999999</ele>
        <time>2017-06-30T12:11:57Z</time>
      </trkpt>
      <trkpt lat="61.12267398275435" lon="10.484729977324605">
        <ele>317.85000000000002</ele>
        <time>2017-06-30T12:11:58Z</time>
      </trkpt>
      <trkpt lat="61.12265202216804" lon="10.484970035031438">
        <ele>319.30000000000001</ele>
        <time>2017-06-30T12:11:59Z</time>
      </trkpt>
      <trkpt lat="61.122620003297925" lon="10.485212020576">
        <ele>320.25999999999999</ele>
        <time>2017-06-30T12:12:00Z</time>
      </trkpt>
      <trkpt lat="61.122468961402774" lon="10.486431000754237">
        <ele>327.94999999999999</ele>
        <time>2017-06-30T12:12:05Z</time>
      </trkpt>
      <trkpt lat="61.122464016079903" lon="10.486626969650388">
        <ele>329.38999999999999</ele>
        <time>2017-06-30T12:12:06Z</time>
      </trkpt>
      <trkpt lat="61.122485976666212" lon="10.486796032637358">
        <ele>330.82999999999998</ele>
        <time>2017-06-30T12:12:07Z</time>
      </trkpt>
      <trkpt lat="61.122540039941669" lon="10.486930981278419">
        <ele>331.79000000000002</ele>
        <time>2017-06-30T12:12:08Z</time>
      </trkpt>
      <trkpt lat="61.122612040489912" lon="10.487035000696778">
        <ele>332.75</ele>
        <time>2017-06-30T12:12:09Z</time>
      </trkpt>
      <trkpt lat="61.122700972482562" lon="10.487108007073402">
        <ele>333.23000000000002</ele>
        <time>2017-06-30T12:12:10Z</time>
      </trkpt>
      <trkpt lat="61.122796023264527" lon="10.487156035378575">
        <ele>334.19999999999999</ele>
        <time>2017-06-30T12:12:11Z</time>
      </trkpt>
      <trkpt lat="61.122897025197744" lon="10.487210014835">
        <ele>335.16000000000003</ele>
        <time>2017-06-30T12:12:12Z</time>
      </trkpt>
      <trkpt lat="61.123604960739613" lon="10.487544033676386">
        <ele>344.29000000000002</ele>
        <time>2017-06-30T12:12:21Z</time>
      </trkpt>
      <trkpt lat="61.12383303232491" lon="10.487349992617965">
        <ele>346.20999999999998</ele>
        <time>2017-06-30T12:12:31Z</time>
      </trkpt>
      <trkpt lat="61.123939985409379" lon="10.487324008718133">
        <ele>347.64999999999998</ele>
        <time>2017-06-30T12:12:47Z</time>
      </trkpt>
      <trkpt lat="61.122920997440815" lon="10.487088980153203">
        <ele>333.70999999999998</ele>
        <time>2017-06-30T12:36:08Z</time>
      </trkpt>
      <trkpt lat="61.122621009126306" lon="10.486887982115149">
        <ele>329.87</ele>
        <time>2017-06-30T12:36:12Z</time>
      </trkpt>
      <trkpt lat="61.122559988871217" lon="10.486812964081764">
        <ele>328.91000000000003</ele>
        <time>2017-06-30T12:36:13Z</time>
      </trkpt>
      <trkpt lat="61.122507015243173" lon="10.486719002947211">
        <ele>328.43000000000001</ele>
        <time>2017-06-30T12:36:14Z</time>
      </trkpt>
      <trkpt lat="61.122470973059535" lon="10.486597968265414">
        <ele>326.99000000000001</ele>
        <time>2017-06-30T12:36:15Z</time>
      </trkpt>
      <trkpt lat="61.122453035786748" lon="10.486453967168927">
        <ele>326.01999999999998</ele>
        <time>2017-06-30T12:36:16Z</time>
      </trkpt>
      <trkpt lat="61.122454963624477" lon="10.486298985779285">
        <ele>325.54000000000002</ele>
        <time>2017-06-30T12:36:17Z</time>
      </trkpt>
      <trkpt lat="61.122468961402774" lon="10.48613503575325">
        <ele>324.57999999999998</ele>
        <time>2017-06-30T12:36:18Z</time>
      </trkpt>
      <trkpt lat="61.122486982494593" lon="10.485974019393325">
        <ele>323.62</ele>
        <time>2017-06-30T12:36:19Z</time>
      </trkpt>
      <trkpt lat="61.122663002461195" lon="10.48454599454999">
        <ele>314.49000000000001</ele>
        <time>2017-06-30T12:36:28Z</time>
      </trkpt>
      <trkpt lat="61.122669037431479" lon="10.484387995675206">
        <ele>313.05000000000001</ele>
        <time>2017-06-30T12:36:29Z</time>
      </trkpt>
      <trkpt lat="61.122667025774717" lon="10.484223961830139">
        <ele>311.60000000000002</ele>
        <time>2017-06-30T12:36:30Z</time>
      </trkpt>
      <trkpt lat="61.122660990804434" lon="10.484058000147343">
        <ele>310.63999999999999</ele>
        <time>2017-06-30T12:36:31Z</time>
      </trkpt>
      <trkpt lat="61.122639030218124" lon="10.483878962695599">
        <ele>310.16000000000003</ele>
        <time>2017-06-30T12:36:32Z</time>
      </trkpt>
      <trkpt lat="61.122598964720964" lon="10.483692968264222">
        <ele>308.24000000000001</ele>
        <time>2017-06-30T12:36:33Z</time>
      </trkpt>
      <trkpt lat="61.122548002749681" lon="10.48351502045989">
        <ele>307.27999999999997</ele>
        <time>2017-06-30T12:36:34Z</time>
      </trkpt>
      <trkpt lat="61.122487988322973" lon="10.483345035463572">
        <ele>306.31999999999999</ele>
        <time>2017-06-30T12:36:35Z</time>
      </trkpt>
      <trkpt lat="61.12241699360311" lon="10.48317102715373">
        <ele>304.88</ele>
        <time>2017-06-30T12:36:36Z</time>
      </trkpt>
      <trkpt lat="61.12205196171999" lon="10.482071992009878">
        <ele>297.67000000000002</ele>
        <time>2017-06-30T12:36:42Z</time>
      </trkpt>
      <trkpt lat="61.122012985870242" lon="10.481868982315063">
        <ele>296.22000000000003</ele>
        <time>2017-06-30T12:36:43Z</time>
      </trkpt>
      <trkpt lat="61.121992031112313" lon="10.481663038954139">
        <ele>295.25999999999999</ele>
        <time>2017-06-30T12:36:44Z</time>
      </trkpt>
      <trkpt lat="61.12198599614203" lon="10.481458017602563">
        <ele>293.81999999999999</ele>
        <time>2017-06-30T12:36:45Z</time>
      </trkpt>
      <trkpt lat="61.121997982263565" lon="10.481267999857664">
        <ele>292.86000000000001</ele>
        <time>2017-06-30T12:36:46Z</time>
      </trkpt>
      <trkpt lat="61.122024971991777" lon="10.481096003204584">
        <ele>292.38</ele>
        <time>2017-06-30T12:36:47Z</time>
      </trkpt>
      <trkpt lat="61.122062020003796" lon="10.480944039300084">
        <ele>291.42000000000002</ele>
        <time>2017-06-30T12:36:48Z</time>
      </trkpt>
      <trkpt lat="61.122104013338685" lon="10.480812024325132">
        <ele>290.45999999999998</ele>
        <time>2017-06-30T12:36:49Z</time>
      </trkpt>
      <trkpt lat="61.122150029987097" lon="10.480700964108109">
        <ele>289.97000000000003</ele>
        <time>2017-06-30T12:36:50Z</time>
      </trkpt>
      <trkpt lat="61.122196968644857" lon="10.480612032115459">
        <ele>289.49000000000001</ele>
        <time>2017-06-30T12:36:51Z</time>
      </trkpt>
      <trkpt lat="61.122242985293269" lon="10.480540031567216">
        <ele>289.49000000000001</ele>
        <time>2017-06-30T12:36:52Z</time>
      </trkpt>
      <trkpt lat="61.12230802886188" lon="10.480487979948521">
        <ele>288.52999999999997</ele>
        <time>2017-06-30T12:36:58Z</time>
      </trkpt>
      <trkpt lat="61.122321020811796" lon="10.480342973023653">
        <ele>288.05000000000001</ele>
        <time>2017-06-30T12:37:48Z</time>
      </trkpt>
      <trkpt lat="61.122299982234836" lon="10.480244988575578">
        <ele>287.56999999999999</ele>
        <time>2017-06-30T12:37:49Z</time>
      </trkpt>
      <trkpt lat="61.12213502638042" lon="10.479867970570922">
        <ele>286.13</ele>
        <time>2017-06-30T12:37:53Z</time>
      </trkpt>
      <trkpt lat="61.122075011953712" lon="10.479827988892794">
        <ele>285.64999999999998</ele>
        <time>2017-06-30T12:37:54Z</time>
      </trkpt>
      <trkpt lat="61.122008040547371" lon="10.479828994721174">
        <ele>285.17000000000002</ele>
        <time>2017-06-30T12:37:55Z</time>
      </trkpt>
      <trkpt lat="61.121936039999127" lon="10.479875011369586">
        <ele>284.69</ele>
        <time>2017-06-30T12:37:56Z</time>
      </trkpt>
      <trkpt lat="61.121860016137362" lon="10.479943994432688">
        <ele>283.73000000000002</ele>
        <time>2017-06-30T12:37:57Z</time>
      </trkpt>
      <trkpt lat="61.121782986447215" lon="10.480021024122834">
        <ele>283.25</ele>
        <time>2017-06-30T12:37:58Z</time>
      </trkpt>
      <trkpt lat="61.121704028919339" lon="10.480089001357555">
        <ele>282.27999999999997</ele>
        <time>2017-06-30T12:37:59Z</time>
      </trkpt>
      <trkpt lat="61.121620964258909" lon="10.48014298081398">
        <ele>281.31999999999999</ele>
        <time>2017-06-30T12:38:00Z</time>
      </trkpt>
      <trkpt lat="61.121530020609498" lon="10.480180028825998">
        <ele>280.83999999999997</ele>
        <time>2017-06-30T12:38:01Z</time>
      </trkpt>
      <trkpt lat="61.121438993141055" lon="10.480211041867733">
        <ele>279.39999999999998</ele>
        <time>2017-06-30T12:38:02Z</time>
      </trkpt>
      <trkpt lat="61.121340002864599" lon="10.480221016332507">
        <ele>278.44</ele>
        <time>2017-06-30T12:38:03Z</time>
      </trkpt>
      <trkpt lat="61.121241012588143" lon="10.480222022160888">
        <ele>277.48000000000002</ele>
        <time>2017-06-30T12:38:04Z</time>
      </trkpt>
      <trkpt lat="61.121140010654926" lon="10.480208024382591">
        <ele>276.51999999999998</ele>
        <time>2017-06-30T12:38:05Z</time>
      </trkpt>
      <trkpt lat="61.121039008721709" lon="10.480182962492108">
        <ele>275.06999999999999</ele>
        <time>2017-06-30T12:38:06Z</time>
      </trkpt>
      <trkpt lat="61.120940018445253" lon="10.480137029662728">
        <ele>274.11000000000001</ele>
        <time>2017-06-30T12:38:07Z</time>
      </trkpt>
      <trkpt lat="61.120839016512036" lon="10.480067040771246">
        <ele>272.67000000000002</ele>
        <time>2017-06-30T12:38:08Z</time>
      </trkpt>
      <trkpt lat="61.120744971558452" lon="10.479976013302803">
        <ele>271.70999999999998</ele>
        <time>2017-06-30T12:38:09Z</time>
      </trkpt>
      <trkpt lat="61.120648998767138" lon="10.479869982227683">
        <ele>270.26999999999998</ele>
        <time>2017-06-30T12:38:10Z</time>
      </trkpt>
      <trkpt lat="61.120561994612217" lon="10.479748025536537">
        <ele>268.82999999999998</ele>
        <time>2017-06-30T12:38:11Z</time>
      </trkpt>
      <trkpt lat="61.120479013770819" lon="10.479612993076444">
        <ele>267.38</ele>
        <time>2017-06-30T12:38:12Z</time>
      </trkpt>
      <trkpt lat="61.12039502710104" lon="10.479460023343563">
        <ele>265.45999999999998</ele>
        <time>2017-06-30T12:38:13Z</time>
      </trkpt>
      <trkpt lat="61.120320009067655" lon="10.479294983670115">
        <ele>264.01999999999998</ele>
        <time>2017-06-30T12:38:14Z</time>
      </trkpt>
      <trkpt lat="61.120244991034269" lon="10.479112006723881">
        <ele>263.06</ele>
        <time>2017-06-30T12:38:15Z</time>
      </trkpt>
      <trkpt lat="61.120184976607561" lon="10.478925006464124">
        <ele>261.62</ele>
        <time>2017-06-30T12:38:16Z</time>
      </trkpt>
      <trkpt lat="61.120130997151136" lon="10.478726020082831">
        <ele>260.17000000000002</ele>
        <time>2017-06-30T12:38:17Z</time>
      </trkpt>
      <trkpt lat="61.120082968845963" lon="10.478516975417733">
        <ele>258.73000000000002</ele>
        <time>2017-06-30T12:38:18Z</time>
      </trkpt>
      <trkpt lat="61.119801001623273" lon="10.476440023630857">
        <ele>250.56</ele>
        <time>2017-06-30T12:38:28Z</time>
      </trkpt>
      <trkpt lat="61.119394982233644" lon="10.474540013819933">
        <ele>244.78999999999999</ele>
        <time>2017-06-30T12:38:40Z</time>
      </trkpt>
      <trkpt lat="61.119290962815285" lon="10.474054031074047">
        <ele>243.34999999999999</ele>
        <time>2017-06-30T12:38:45Z</time>
      </trkpt>
      <trkpt lat="61.119288029149175" lon="10.473964009433985">
        <ele>243.34999999999999</ele>
        <time>2017-06-30T12:38:46Z</time>
      </trkpt>
      <trkpt lat="61.119305966421962" lon="10.473874993622303">
        <ele>243.83000000000001</ele>
        <time>2017-06-30T12:38:47Z</time>
      </trkpt>
      <trkpt lat="61.119342008605599" lon="10.47380399890244">
        <ele>243.83000000000001</ele>
        <time>2017-06-30T12:38:48Z</time>
      </trkpt>
      <trkpt lat="61.119395988062024" lon="10.473744990304112">
        <ele>243.34999999999999</ele>
        <time>2017-06-30T12:38:49Z</time>
      </trkpt>
      <trkpt lat="61.119452985003591" lon="10.473688999190927">
        <ele>243.34999999999999</ele>
        <time>2017-06-30T12:38:50Z</time>
      </trkpt>
      <trkpt lat="61.120458981022239" lon="10.472615025937557">
        <ele>244.31</ele>
        <time>2017-06-30T12:39:04Z</time>
      </trkpt>
      <trkpt lat="61.122076017782092" lon="10.470846025273204">
        <ele>243.34999999999999</ele>
        <time>2017-06-30T12:39:24Z</time>
      </trkpt>
      <trkpt lat="61.123099029064178" lon="10.469727963209152">
        <ele>247.19999999999999</ele>
        <time>2017-06-30T12:39:39Z</time>
      </trkpt>
      <trkpt lat="61.123489961028099" lon="10.469327978789806">
        <ele>248.16</ele>
        <time>2017-06-30T12:39:48Z</time>
      </trkpt>
      <trkpt lat="61.12353396601975" lon="10.46924801543355">
        <ele>248.16</ele>
        <time>2017-06-30T12:39:49Z</time>
      </trkpt>
      <trkpt lat="61.12357403151691" lon="10.469147013500333">
        <ele>248.16</ele>
        <time>2017-06-30T12:39:50Z</time>
      </trkpt>
      <trkpt lat="61.123673021793365" lon="10.468884995207191">
        <ele>248.16</ele>
        <time>2017-06-30T12:39:53Z</time>
      </trkpt>
      <trkpt lat="61.123708980157971" lon="10.468839984387159">
        <ele>248.16</ele>
        <time>2017-06-30T12:39:54Z</time>
      </trkpt>
      <trkpt lat="61.123753990978003" lon="10.468812994658947">
        <ele>247.68000000000001</ele>
        <time>2017-06-30T12:39:55Z</time>
      </trkpt>
      <trkpt lat="61.123805958777666" lon="10.468812994658947">
        <ele>247.68000000000001</ele>
        <time>2017-06-30T12:39:56Z</time>
      </trkpt>
      <trkpt lat="61.123860022053123" lon="10.468849958851933">
        <ele>248.16</ele>
        <time>2017-06-30T12:39:57Z</time>
      </trkpt>
      <trkpt lat="61.123917018994689" lon="10.468922965228558">
        <ele>248.63999999999999</ele>
        <time>2017-06-30T12:39:58Z</time>
      </trkpt>
      <trkpt lat="61.123975021764636" lon="10.469022039324045">
        <ele>249.12</ele>
        <time>2017-06-30T12:39:59Z</time>
      </trkpt>
      <trkpt lat="61.124031012877822" lon="10.469138966873288">
        <ele>250.08000000000001</ele>
        <time>2017-06-30T12:40:00Z</time>
      </trkpt>
      <trkpt lat="61.124181970953941" lon="10.469540040940046">
        <ele>252.47999999999999</ele>
        <time>2017-06-30T12:40:03Z</time>
      </trkpt>
      <trkpt lat="61.124223964288831" lon="10.469685969874263">
        <ele>253.93000000000001</ele>
        <time>2017-06-30T12:40:04Z</time>
      </trkpt>
      <trkpt lat="61.124257994815707" lon="10.469833994284272">
        <ele>253.93000000000001</ele>
        <time>2017-06-30T12:40:05Z</time>
      </trkpt>
      <trkpt lat="61.124486988410354" lon="10.470854993909597">
        <ele>258.73000000000002</ele>
        <time>2017-06-30T12:40:13Z</time>
      </trkpt>
      <trkpt lat="61.124484976753592" lon="10.470933029428124">
        <ele>259.20999999999998</ele>
        <time>2017-06-30T12:40:14Z</time>
      </trkpt>
      <trkpt lat="61.124473996460438" lon="10.471001006662846">
        <ele>259.20999999999998</ele>
        <time>2017-06-30T12:40:15Z</time>
      </trkpt>
      <trkpt lat="61.124454969540238" lon="10.471046017482877">
        <ele>259.20999999999998</ele>
        <time>2017-06-30T12:40:16Z</time>
      </trkpt>
      <trkpt lat="61.12443502061069" lon="10.471081975847483">
        <ele>259.20999999999998</ele>
        <time>2017-06-30T12:40:17Z</time>
      </trkpt>
      <trkpt lat="61.124412976205349" lon="10.471106031909585">
        <ele>259.20999999999998</ele>
        <time>2017-06-30T12:40:18Z</time>
      </trkpt>
      <trkpt lat="61.124362014234066" lon="10.471209967508912">
        <ele>259.20999999999998</ele>
        <time>2017-06-30T12:40:21Z</time>
      </trkpt>
      <trkpt lat="61.124341981485486" lon="10.471238968893886">
        <ele>258.73000000000002</ele>
        <time>2017-06-30T12:40:33Z</time>
      </trkpt>
      <trkpt lat="61.124204015359282" lon="10.471622021868825">
        <ele>259.20999999999998</ele>
        <time>2017-06-30T12:41:09Z</time>
      </trkpt>
      <trkpt lat="61.12392196431756" lon="10.472108004614711">
        <ele>258.25</ele>
        <time>2017-06-30T12:41:21Z</time>
      </trkpt>
      <trkpt lat="61.123920036479831" lon="10.472221998497844">
        <ele>258.25</ele>
        <time>2017-06-30T12:41:23Z</time>
      </trkpt>
      <trkpt lat="61.123937973752618" lon="10.472267009317875">
        <ele>258.25</ele>
        <time>2017-06-30T12:41:24Z</time>
      </trkpt>
      <trkpt lat="61.123965969309211" lon="10.4723019618541">
        <ele>258.25</ele>
        <time>2017-06-30T12:41:25Z</time>
      </trkpt>
      <trkpt lat="61.124002011492848" lon="10.472317971289158">
        <ele>258.25</ele>
        <time>2017-06-30T12:41:26Z</time>
      </trkpt>
      <trkpt lat="61.124035958200693" lon="10.472286958247423">
        <ele>258.25</ele>
        <time>2017-06-30T12:41:27Z</time>
      </trkpt>
      <trkpt lat="61.124065965414047" lon="10.472217975184321">
        <ele>257.76999999999998</ele>
        <time>2017-06-30T12:41:28Z</time>
      </trkpt>
      <trkpt lat="61.124089015647769" lon="10.472114039584994">
        <ele>258.25</ele>
        <time>2017-06-30T12:41:29Z</time>
      </trkpt>
      <trkpt lat="61.12411399371922" lon="10.471991999074817">
        <ele>258.25</ele>
        <time>2017-06-30T12:41:30Z</time>
      </trkpt>
      <trkpt lat="61.124191023409367" lon="10.471753031015396">
        <ele>258.73000000000002</ele>
        <time>2017-06-30T12:41:32Z</time>
      </trkpt>
      <trkpt lat="61.124497968703508" lon="10.470892963930964">
        <ele>259.69</ele>
        <time>2017-06-30T12:41:42Z</time>
      </trkpt>
      <trkpt lat="61.124485982581973" lon="10.470766983926296">
        <ele>259.20999999999998</ele>
        <time>2017-06-30T12:41:43Z</time>
      </trkpt>
      <trkpt lat="61.124455975368619" lon="10.470629017800093">
        <ele>258.73000000000002</ele>
        <time>2017-06-30T12:41:44Z</time>
      </trkpt>
      <trkpt lat="61.124138971790671" lon="10.469365026801825">
        <ele>253.44</ele>
        <time>2017-06-30T12:41:51Z</time>
      </trkpt>
      <trkpt lat="61.124078035354614" lon="10.469199987128377">
        <ele>252.96000000000001</ele>
        <time>2017-06-30T12:41:52Z</time>
      </trkpt>
      <trkpt lat="61.123787015676498" lon="10.468432959169149">
        <ele>250.56</ele>
        <time>2017-06-30T12:41:58Z</time>
      </trkpt>
      <trkpt lat="61.123412009328604" lon="10.467696022242308">
        <ele>247.68000000000001</ele>
        <time>2017-06-30T12:42:04Z</time>
      </trkpt>
      <trkpt lat="61.12331997603178" lon="10.467584040015936">
        <ele>246.22999999999999</ele>
        <time>2017-06-30T12:42:05Z</time>
      </trkpt>
      <trkpt lat="61.123225009068847" lon="10.467489995062351">
        <ele>245.27000000000001</ele>
        <time>2017-06-30T12:42:06Z</time>
      </trkpt>
      <trkpt lat="61.12312501296401" lon="10.467409025877714">
        <ele>243.83000000000001</ele>
        <time>2017-06-30T12:42:07Z</time>
      </trkpt>
      <trkpt lat="61.123020993545651" lon="10.467346999794245">
        <ele>242.87</ele>
        <time>2017-06-30T12:42:08Z</time>
      </trkpt>
      <trkpt lat="61.122915968298912" lon="10.467301988974214">
        <ele>241.43000000000001</ele>
        <time>2017-06-30T12:42:09Z</time>
      </trkpt>
      <trkpt lat="61.122808009386063" lon="10.467271981760859">
        <ele>240.47</ele>
        <time>2017-06-30T12:42:10Z</time>
      </trkpt>
      <trkpt lat="61.122698960825801" lon="10.467266030609608">
        <ele>239.99000000000001</ele>
        <time>2017-06-30T12:42:11Z</time>
      </trkpt>
      <trkpt lat="61.122586978599429" lon="10.467279022559524">
        <ele>239.02000000000001</ele>
        <time>2017-06-30T12:42:12Z</time>
      </trkpt>
      <trkpt lat="61.122476002201438" lon="10.467311041429639">
        <ele>238.53999999999999</ele>
        <time>2017-06-30T12:42:13Z</time>
      </trkpt>
      <trkpt lat="61.122365025803447" lon="10.467354962602258">
        <ele>238.06</ele>
        <time>2017-06-30T12:42:14Z</time>
      </trkpt>
      <trkpt lat="61.121144033968449" lon="10.467623015865684">
        <ele>228.44999999999999</ele>
        <time>2017-06-30T12:42:25Z</time>
      </trkpt>
      <trkpt lat="61.1197529733181" lon="10.467271981760859">
        <ele>215.47</ele>
        <time>2017-06-30T12:42:38Z</time>
      </trkpt>
      <trkpt lat="61.118823001161218" lon="10.467454958707094">
        <ele>207.78</ele>
        <time>2017-06-30T12:42:48Z</time>
      </trkpt>
      <trkpt lat="61.118740020319819" lon="10.467492006719112">
        <ele>207.30000000000001</ele>
        <time>2017-06-30T12:42:49Z</time>
      </trkpt>
      <trkpt lat="61.11865796148777" lon="10.467502987012267">
        <ele>206.34</ele>
        <time>2017-06-30T12:42:50Z</time>
      </trkpt>
      <trkpt lat="61.118585038930178" lon="10.467475997284055">
        <ele>206.34</ele>
        <time>2017-06-30T12:42:51Z</time>
      </trkpt>
      <trkpt lat="61.118525024503469" lon="10.467412965372205">
        <ele>205.86000000000001</ele>
        <time>2017-06-30T12:42:52Z</time>
      </trkpt>
      <trkpt lat="61.118474984541535" lon="10.467324033379555">
        <ele>205.86000000000001</ele>
        <time>2017-06-30T12:42:53Z</time>
      </trkpt>
      <trkpt lat="61.118432991206646" lon="10.467212973162532">
        <ele>204.90000000000001</ele>
        <time>2017-06-30T12:42:54Z</time>
      </trkpt>
      <trkpt lat="61.118392003700137" lon="10.467095039784908">
        <ele>204.41999999999999</ele>
        <time>2017-06-30T12:42:55Z</time>
      </trkpt>
      <trkpt lat="61.118358979001641" lon="10.466968975961208">
        <ele>203.46000000000001</ele>
        <time>2017-06-30T12:42:56Z</time>
      </trkpt>
      <trkpt lat="61.118330983445048" lon="10.466839978471398">
        <ele>202.00999999999999</ele>
        <time>2017-06-30T12:42:57Z</time>
      </trkpt>
      <trkpt lat="61.118201985955238" lon="10.465964991599321">
        <ele>196.72999999999999</ele>
        <time>2017-06-30T12:43:05Z</time>
      </trkpt>
      <trkpt lat="61.11820500344038" lon="10.465838005766273">
        <ele>195.77000000000001</ele>
        <time>2017-06-30T12:43:06Z</time>
      </trkpt>
      <trkpt lat="61.118229981511831" lon="10.46572401188314">
        <ele>195.28</ele>
        <time>2017-06-30T12:43:07Z</time>
      </trkpt>
      <trkpt lat="61.118281027302146" lon="10.465636001899838">
        <ele>194.31999999999999</ele>
        <time>2017-06-30T12:43:08Z</time>
      </trkpt>
      <trkpt lat="61.118341963738203" lon="10.465582022443414">
        <ele>193.84</ele>
        <time>2017-06-30T12:43:09Z</time>
      </trkpt>
      <trkpt lat="61.118400972336531" lon="10.465536005795002">
        <ele>193.36000000000001</ele>
        <time>2017-06-30T12:43:10Z</time>
      </trkpt>
      <trkpt lat="61.118459980934858" lon="10.465495018288493">
        <ele>193.84</ele>
        <time>2017-06-30T12:43:11Z</time>
      </trkpt>
      <trkpt lat="61.118948981165886" lon="10.465197963640094">
        <ele>191.91999999999999</ele>
        <time>2017-06-30T12:43:21Z</time>
      </trkpt>
      <trkpt lat="61.118968008086085" lon="10.465152030810714">
        <ele>191.44</ele>
        <time>2017-06-30T12:43:22Z</time>
      </trkpt>
      <trkpt lat="61.118986029177904" lon="10.465085981413722">
        <ele>193.36000000000001</ele>
        <time>2017-06-30T12:43:23Z</time>
      </trkpt>
      <trkpt lat="61.118990974500775" lon="10.464998977258801">
        <ele>193.36000000000001</ele>
        <time>2017-06-30T12:43:24Z</time>
      </trkpt>
      <trkpt lat="61.118992986157537" lon="10.464884983375669">
        <ele>193.36000000000001</ele>
        <time>2017-06-30T12:43:25Z</time>
      </trkpt>
      <trkpt lat="61.118987035006285" lon="10.46475799754262">
        <ele>193.36000000000001</ele>
        <time>2017-06-30T12:43:26Z</time>
      </trkpt>
      <trkpt lat="61.118969013914466" lon="10.464626988396049">
        <ele>192.88</ele>
        <time>2017-06-30T12:43:27Z</time>
      </trkpt>
      <trkpt lat="61.118949986994267" lon="10.464502014219761">
        <ele>192.88</ele>
        <time>2017-06-30T12:43:28Z</time>
      </trkpt>
      <trkpt lat="61.118766004219651" lon="10.463359979912639">
        <ele>190</ele>
        <time>2017-06-30T12:43:39Z</time>
      </trkpt>
      <trkpt lat="61.118714958429337" lon="10.463052028790116">
        <ele>189.03999999999999</ele>
        <time>2017-06-30T12:43:42Z</time>
      </trkpt>
      <trkpt lat="61.118542961776257" lon="10.461909994482994">
        <ele>187.59</ele>
        <time>2017-06-30T12:43:51Z</time>
      </trkpt>
      <trkpt lat="61.118490993976593" lon="10.461402973160148">
        <ele>186.63</ele>
        <time>2017-06-30T12:44:01Z</time>
      </trkpt>
      <trkpt lat="61.118414970114827" lon="10.461043976247311">
        <ele>185.19</ele>
        <time>2017-06-30T12:44:10Z</time>
      </trkpt>
      <trkpt lat="61.118387980386615" lon="10.460975999012589">
        <ele>185.19</ele>
        <time>2017-06-30T12:44:11Z</time>
      </trkpt>
      <trkpt lat="61.118353027850389" lon="10.460941968485713">
        <ele>184.71000000000001</ele>
        <time>2017-06-30T12:44:12Z</time>
      </trkpt>
      <trkpt lat="61.118316985666752" lon="10.460937023162842">
        <ele>184.71000000000001</ele>
        <time>2017-06-30T12:44:13Z</time>
      </trkpt>
      <trkpt lat="61.118279015645385" lon="10.460939034819603">
        <ele>185.19</ele>
        <time>2017-06-30T12:44:14Z</time>
      </trkpt>
      <trkpt lat="61.118237022310495" lon="10.460937023162842">
        <ele>184.71000000000001</ele>
        <time>2017-06-30T12:44:15Z</time>
      </trkpt>
      <trkpt lat="61.118091009557247" lon="10.460899975150824">
        <ele>184.71000000000001</ele>
        <time>2017-06-30T12:44:25Z</time>
      </trkpt>
      <trkpt lat="61.118050022050738" lon="10.460932999849319">
        <ele>183.75</ele>
        <time>2017-06-30T12:44:47Z</time>
      </trkpt>
      <trkpt lat="61.118050022050738" lon="10.4609340056777">
        <ele>183.75</ele>
        <time>2017-06-30T12:44:53Z</time>
      </trkpt>
      <trkpt lat="61.118027977645397" lon="10.460960995405912">
        <ele>183.75</ele>
        <time>2017-06-30T12:44:54Z</time>
      </trkpt>
      <trkpt lat="61.117999982088804" lon="10.461026960983872">
        <ele>183.75</ele>
        <time>2017-06-30T12:44:55Z</time>
      </trkpt>
      <trkpt lat="61.117975004017353" lon="10.461129974573851">
        <ele>184.22999999999999</ele>
        <time>2017-06-30T12:44:56Z</time>
      </trkpt>
      <trkpt lat="61.117950025945902" lon="10.461231982335448">
        <ele>184.22999999999999</ele>
        <time>2017-06-30T12:44:57Z</time>
      </trkpt>
      <trkpt lat="61.117919012904167" lon="10.46132099814713">
        <ele>184.22999999999999</ele>
        <time>2017-06-30T12:44:58Z</time>
      </trkpt>
      <trkpt lat="61.117876013740897" lon="10.46138696372509">
        <ele>184.22999999999999</ele>
        <time>2017-06-30T12:44:59Z</time>
      </trkpt>
      <trkpt lat="61.117161037400365" lon="10.46200898475945">
        <ele>185.19</ele>
        <time>2017-06-30T12:45:12Z</time>
      </trkpt>
      <trkpt lat="61.116607999429107" lon="10.462378039956093">
        <ele>187.11000000000001</ele>
        <time>2017-06-30T12:45:22Z</time>
      </trkpt>
      <trkpt lat="61.116054961457849" lon="10.462799984961748">
        <ele>194.31999999999999</ele>
        <time>2017-06-30T12:45:35Z</time>
      </trkpt>
      <trkpt lat="61.116010034456849" lon="10.462808031588793">
        <ele>194.80000000000001</ele>
        <time>2017-06-30T12:45:36Z</time>
      </trkpt>
      <trkpt lat="61.115897968411446" lon="10.462891012430191">
        <ele>195.28</ele>
        <time>2017-06-30T12:45:39Z</time>
      </trkpt>
      <trkpt lat="61.11541198566556" lon="10.463384035974741">
        <ele>196.72999999999999</ele>
        <time>2017-06-30T12:45:55Z</time>
      </trkpt>
      <trkpt lat="61.114996997639537" lon="10.463724005967379">
        <ele>196.72999999999999</ele>
        <time>2017-06-30T12:46:10Z</time>
      </trkpt>
      <trkpt lat="61.114645963534713" lon="10.463944030925632">
        <ele>194.80000000000001</ele>
        <time>2017-06-30T12:46:24Z</time>
      </trkpt>
      <trkpt lat="61.114244973286986" lon="10.464205965399742">
        <ele>195.77000000000001</ele>
        <time>2017-06-30T12:46:35Z</time>
      </trkpt>
      <trkpt lat="61.113917995244265" lon="10.464463960379362">
        <ele>193.36000000000001</ele>
        <time>2017-06-30T12:46:47Z</time>
      </trkpt>
      <trkpt lat="61.113776005804539" lon="10.464612990617752">
        <ele>194.80000000000001</ele>
        <time>2017-06-30T12:46:59Z</time>
      </trkpt>
      <trkpt lat="61.113767959177494" lon="10.464619025588036">
        <ele>194.80000000000001</ele>
        <time>2017-06-30T12:47:58Z</time>
      </trkpt>
      <trkpt lat="61.113759996369481" lon="10.464668981730938">
        <ele>195.77000000000001</ele>
        <time>2017-06-30T12:47:59Z</time>
      </trkpt>
      <trkpt lat="61.113743986934423" lon="10.464704018086195">
        <ele>196.72999999999999</ele>
        <time>2017-06-30T12:48:00Z</time>
      </trkpt>
      <trkpt lat="61.113723032176495" lon="10.464733019471169">
        <ele>197.21000000000001</ele>
        <time>2017-06-30T12:48:01Z</time>
      </trkpt>
      <trkpt lat="61.113697970286012" lon="10.464756991714239">
        <ele>197.21000000000001</ele>
        <time>2017-06-30T12:48:02Z</time>
      </trkpt>
      <trkpt lat="61.113664023578167" lon="10.464761015027761">
        <ele>196.72999999999999</ele>
        <time>2017-06-30T12:48:03Z</time>
      </trkpt>
      <trkpt lat="61.113619012758136" lon="10.46475799754262">
        <ele>196.25</ele>
        <time>2017-06-30T12:48:04Z</time>
      </trkpt>
      <trkpt lat="61.113578025251627" lon="10.464749028906226">
        <ele>195.28</ele>
        <time>2017-06-30T12:48:05Z</time>
      </trkpt>
      <trkpt lat="61.113417008891702" lon="10.46456697396934">
        <ele>190.96000000000001</ele>
        <time>2017-06-30T12:48:13Z</time>
      </trkpt>
      <trkpt lat="61.113392030820251" lon="10.464535960927606">
        <ele>190</ele>
        <time>2017-06-30T12:49:16Z</time>
      </trkpt>
      <trkpt lat="61.113280970603228" lon="10.464406041428447">
        <ele>188.56</ele>
        <time>2017-06-30T12:49:20Z</time>
      </trkpt>
      <trkpt lat="61.113235959783196" lon="10.464412998408079">
        <ele>188.56</ele>
        <time>2017-06-30T12:49:21Z</time>
      </trkpt>
      <trkpt lat="61.113192960619926" lon="10.464443005621433">
        <ele>188.08000000000001</ele>
        <time>2017-06-30T12:49:22Z</time>
      </trkpt>
      <trkpt lat="61.113154990598559" lon="10.464491033926606">
        <ele>188.08000000000001</ele>
        <time>2017-06-30T12:49:23Z</time>
      </trkpt>
      <trkpt lat="61.11313303001225" lon="10.464546019211411">
        <ele>186.15000000000001</ele>
        <time>2017-06-30T12:49:24Z</time>
      </trkpt>
      <trkpt lat="61.113119032233953" lon="10.464594969525933">
        <ele>186.15000000000001</ele>
        <time>2017-06-30T12:49:25Z</time>
      </trkpt>
      <trkpt lat="61.113105034455657" lon="10.4646519664675">
        <ele>186.15000000000001</ele>
        <time>2017-06-30T12:49:26Z</time>
      </trkpt>
      <trkpt lat="61.112852990627289" lon="10.465246997773647">
        <ele>188.08000000000001</ele>
        <time>2017-06-30T12:49:38Z</time>
      </trkpt>
      <trkpt lat="61.112762968987226" lon="10.465339031070471">
        <ele>187.11000000000001</ele>
        <time>2017-06-30T12:49:49Z</time>
      </trkpt>
      <trkpt lat="61.112594995647669" lon="10.465521002188325">
        <ele>186.15000000000001</ele>
        <time>2017-06-30T12:50:10Z</time>
      </trkpt>
      <trkpt lat="61.112560965120792" lon="10.465566013008356">
        <ele>186.63</ele>
        <time>2017-06-30T12:50:21Z</time>
      </trkpt>
      <trkpt lat="61.112560965120792" lon="10.465568024665117">
        <ele>186.63</ele>
        <time>2017-06-30T12:50:35Z</time>
      </trkpt>
      <trkpt lat="61.112532969564199" lon="10.465604988858104">
        <ele>186.63</ele>
        <time>2017-06-30T12:50:36Z</time>
      </trkpt>
      <trkpt lat="61.111840959638357" lon="10.466061970219016">
        <ele>187.11000000000001</ele>
        <time>2017-06-30T12:50:47Z</time>
      </trkpt>
      <trkpt lat="61.110742008313537" lon="10.466879038140178">
        <ele>188.56</ele>
        <time>2017-06-30T12:51:04Z</time>
      </trkpt>
      <trkpt lat="61.110028037801385" lon="10.467440038919449">
        <ele>190</ele>
        <time>2017-06-30T12:51:13Z</time>
      </trkpt>
      <trkpt lat="61.109950002282858" lon="10.467531988397241">
        <ele>190.47999999999999</ele>
        <time>2017-06-30T12:51:14Z</time>
      </trkpt>
      <trkpt lat="61.109399981796741" lon="10.468489034101367">
        <ele>193.84</ele>
        <time>2017-06-30T12:51:22Z</time>
      </trkpt>
      <trkpt lat="61.109221028164029" lon="10.468765972182155">
        <ele>193.84</ele>
        <time>2017-06-30T12:51:30Z</time>
      </trkpt>
      <trkpt lat="61.109192026779056" lon="10.468834033235908">
        <ele>192.88</ele>
        <time>2017-06-30T12:51:39Z</time>
      </trkpt>
      <trkpt lat="61.10915900208056" lon="10.46890402212739">
        <ele>193.36000000000001</ele>
        <time>2017-06-30T12:51:40Z</time>
      </trkpt>
      <trkpt lat="61.109016006812453" lon="10.469180960208178">
        <ele>196.25</ele>
        <time>2017-06-30T12:51:43Z</time>
      </trkpt>
      <trkpt lat="61.108418041840196" lon="10.469564013183117">
        <ele>200.09</ele>
        <time>2017-06-30T12:51:51Z</time>
      </trkpt>
      <trkpt lat="61.108336988836527" lon="10.469652023166418">
        <ele>200.56999999999999</ele>
        <time>2017-06-30T12:51:52Z</time>
      </trkpt>
      <trkpt lat="61.108255013823509" lon="10.46976400539279">
        <ele>201.05000000000001</ele>
        <time>2017-06-30T12:51:53Z</time>
      </trkpt>
      <trkpt lat="61.108173038810492" lon="10.469883028417826">
        <ele>201.05000000000001</ele>
        <time>2017-06-30T12:51:54Z</time>
      </trkpt>
      <trkpt lat="61.108097014948726" lon="10.470010014250875">
        <ele>201.05000000000001</ele>
        <time>2017-06-30T12:51:55Z</time>
      </trkpt>
      <trkpt lat="61.107459990307689" lon="10.471274005249143">
        <ele>204.90000000000001</ele>
        <time>2017-06-30T12:52:05Z</time>
      </trkpt>
      <trkpt lat="61.106532029807568" lon="10.472851982340217">
        <ele>209.69999999999999</ele>
        <time>2017-06-30T12:52:17Z</time>
      </trkpt>
      <trkpt lat="61.105153961107135" lon="10.474177999421954">
        <ele>208.25999999999999</ele>
        <time>2017-06-30T12:52:32Z</time>
      </trkpt>
      <trkpt lat="61.104015028104186" lon="10.475496975705028">
        <ele>209.69999999999999</ele>
        <time>2017-06-30T12:52:46Z</time>
      </trkpt>
      <trkpt lat="61.103973034769297" lon="10.475507033988833">
        <ele>209.69999999999999</ele>
        <time>2017-06-30T12:52:47Z</time>
      </trkpt>
      <trkpt lat="61.103936992585659" lon="10.475476020947099">
        <ele>209.69999999999999</ele>
        <time>2017-06-30T12:52:48Z</time>
      </trkpt>
      <trkpt lat="61.103906985372305" lon="10.475410977378488">
        <ele>208.74000000000001</ele>
        <time>2017-06-30T12:52:49Z</time>
      </trkpt>
      <trkpt lat="61.103878989815712" lon="10.475316010415554">
        <ele>208.74000000000001</ele>
        <time>2017-06-30T12:52:50Z</time>
      </trkpt>
      <trkpt lat="61.103860968723893" lon="10.475204028189182">
        <ele>208.25999999999999</ele>
        <time>2017-06-30T12:52:51Z</time>
      </trkpt>
      <trkpt lat="61.103644967079163" lon="10.47397599555552">
        <ele>203.46000000000001</ele>
        <time>2017-06-30T12:53:03Z</time>
      </trkpt>
      <trkpt lat="61.10363801009953" lon="10.4738699644804">
        <ele>202.97999999999999</ele>
        <time>2017-06-30T12:53:04Z</time>
      </trkpt>
      <trkpt lat="61.103634992614388" lon="10.473765023052692">
        <ele>202.97999999999999</ele>
        <time>2017-06-30T12:53:05Z</time>
      </trkpt>
      <trkpt lat="61.103572966530919" lon="10.471956040710211">
        <ele>196.25</ele>
        <time>2017-06-30T12:53:20Z</time>
      </trkpt>
      <trkpt lat="61.103459978476167" lon="10.469932984560728">
        <ele>190.96000000000001</ele>
        <time>2017-06-30T12:53:34Z</time>
      </trkpt>
      <trkpt lat="61.103365011513233" lon="10.4683250002563">
        <ele>186.63</ele>
        <time>2017-06-30T12:53:48Z</time>
      </trkpt>
      <trkpt lat="61.103413039818406" lon="10.466878032311797">
        <ele>180.38</ele>
        <time>2017-06-30T12:54:00Z</time>
      </trkpt>
      <trkpt lat="61.103430977091193" lon="10.466780969873071">
        <ele>180.38</ele>
        <time>2017-06-30T12:54:01Z</time>
      </trkpt>
      <trkpt lat="61.103455033153296" lon="10.466688014566898">
        <ele>179.90000000000001</ele>
        <time>2017-06-30T12:54:02Z</time>
      </trkpt>
      <trkpt lat="61.103484034538269" lon="10.466603022068739">
        <ele>179.41999999999999</ele>
        <time>2017-06-30T12:54:03Z</time>
      </trkpt>
      <trkpt lat="61.103516975417733" lon="10.466513000428677">
        <ele>178.94</ele>
        <time>2017-06-30T12:54:04Z</time>
      </trkpt>
      <trkpt lat="61.103554023429751" lon="10.466427002102137">
        <ele>178.46000000000001</ele>
        <time>2017-06-30T12:54:05Z</time>
      </trkpt>
      <trkpt lat="61.103597022593021" lon="10.466341003775597">
        <ele>177.97999999999999</ele>
        <time>2017-06-30T12:54:06Z</time>
      </trkpt>
      <trkpt lat="61.103647984564304" lon="10.46626296825707">
        <ele>177.97999999999999</ele>
        <time>2017-06-30T12:54:07Z</time>
      </trkpt>
      <trkpt lat="61.10370296984911" lon="10.46619700267911">
        <ele>177.97999999999999</ele>
        <time>2017-06-30T12:54:08Z</time>
      </trkpt>
      <trkpt lat="61.103758960962296" lon="10.466144029051065">
        <ele>177.97999999999999</ele>
        <time>2017-06-30T12:54:09Z</time>
      </trkpt>
      <trkpt lat="61.103813024237752" lon="10.466103041544557">
        <ele>177.5</ele>
        <time>2017-06-30T12:54:10Z</time>
      </trkpt>
      <trkpt lat="61.103865997865796" lon="10.466075967997313">
        <ele>177.5</ele>
        <time>2017-06-30T12:54:11Z</time>
      </trkpt>
      <trkpt lat="61.10391503199935" lon="10.466054007411003">
        <ele>177.5</ele>
        <time>2017-06-30T12:54:12Z</time>
      </trkpt>
      <trkpt lat="61.103962976485491" lon="10.466046966612339">
        <ele>177.5</ele>
        <time>2017-06-30T12:54:13Z</time>
      </trkpt>
      <trkpt lat="61.104012010619044" lon="10.466046966612339">
        <ele>177.5</ele>
        <time>2017-06-30T12:54:14Z</time>
      </trkpt>
      <trkpt lat="61.104059033095837" lon="10.466039003804326">
        <ele>177.02000000000001</ele>
        <time>2017-06-30T12:54:15Z</time>
      </trkpt>
      <trkpt lat="61.104995962232351" lon="10.46593900769949">
        <ele>170.77000000000001</ele>
        <time>2017-06-30T12:54:34Z</time>
      </trkpt>
      <trkpt lat="61.105044996365905" lon="10.465950993821025">
        <ele>170.28999999999999</ele>
        <time>2017-06-30T12:54:35Z</time>
      </trkpt>
      <trkpt lat="61.105087995529175" lon="10.465986030176282">
        <ele>170.28999999999999</ele>
        <time>2017-06-30T12:54:36Z</time>
      </trkpt>
      <trkpt lat="61.105125965550542" lon="10.466050989925861">
        <ele>171.25</ele>
        <time>2017-06-30T12:54:37Z</time>
      </trkpt>
      <trkpt lat="61.105149015784264" lon="10.466146040707827">
        <ele>171.25</ele>
        <time>2017-06-30T12:54:38Z</time>
      </trkpt>
      <trkpt lat="61.105157984420657" lon="10.466247964650393">
        <ele>172.21000000000001</ele>
        <time>2017-06-30T12:54:39Z</time>
      </trkpt>
      <trkpt lat="61.105161001905799" lon="10.466363970190287">
        <ele>172.69</ele>
        <time>2017-06-30T12:54:40Z</time>
      </trkpt>
      <trkpt lat="61.105156978592277" lon="10.466476958245039">
        <ele>174.62</ele>
        <time>2017-06-30T12:54:41Z</time>
      </trkpt>
      <trkpt lat="61.104939971119165" lon="10.467989975586534">
        <ele>183.27000000000001</ele>
        <time>2017-06-30T12:54:53Z</time>
      </trkpt>
      <trkpt lat="61.104825977236032" lon="10.468465983867645">
        <ele>185.66999999999999</ele>
        <time>2017-06-30T12:54:57Z</time>
      </trkpt>
      <trkpt lat="61.104813991114497" lon="10.468576960265636">
        <ele>186.15000000000001</ele>
        <time>2017-06-30T12:54:58Z</time>
      </trkpt>
      <trkpt lat="61.104822037741542" lon="10.46869195997715">
        <ele>186.63</ele>
        <time>2017-06-30T12:54:59Z</time>
      </trkpt>
      <trkpt lat="61.104847015812993" lon="10.468806959688663">
        <ele>187.11000000000001</ele>
        <time>2017-06-30T12:55:00Z</time>
      </trkpt>
      <trkpt lat="61.104892026633024" lon="10.468899998813868">
        <ele>187.59</ele>
        <time>2017-06-30T12:55:01Z</time>
      </trkpt>
      <trkpt lat="61.104951035231352" lon="10.468976022675633">
        <ele>188.08000000000001</ele>
        <time>2017-06-30T12:55:02Z</time>
      </trkpt>
      <trkpt lat="61.105011971667409" lon="10.469023967161775">
        <ele>188.08000000000001</ele>
        <time>2017-06-30T12:55:03Z</time>
      </trkpt>
      <trkpt lat="61.10507600940764" lon="10.469074007123709">
        <ele>188.56</ele>
        <time>2017-06-30T12:55:04Z</time>
      </trkpt>
      <trkpt lat="61.105666011571884" lon="10.469521014019847">
        <ele>190.96000000000001</ele>
        <time>2017-06-30T12:55:14Z</time>
      </trkpt>
      <trkpt lat="61.106223994866014" lon="10.469919992610812">
        <ele>192.40000000000001</ele>
        <time>2017-06-30T12:55:24Z</time>
      </trkpt>
      <trkpt lat="61.106672007590532" lon="10.470111016184092">
        <ele>192.88</ele>
        <time>2017-06-30T12:55:30Z</time>
      </trkpt>
      <trkpt lat="61.107063023373485" lon="10.470117973163724">
        <ele>193.84</ele>
        <time>2017-06-30T12:55:39Z</time>
      </trkpt>
      <trkpt lat="61.107099987566471" lon="10.470068017020822">
        <ele>193.36000000000001</ele>
        <time>2017-06-30T12:55:40Z</time>
      </trkpt>
      <trkpt lat="61.107141980901361" lon="10.469994004815817">
        <ele>192.88</ele>
        <time>2017-06-30T12:55:41Z</time>
      </trkpt>
      <trkpt lat="61.107777999714017" lon="10.468921037390828">
        <ele>189.03999999999999</ele>
        <time>2017-06-30T12:55:53Z</time>
      </trkpt>
      <trkpt lat="61.10834201797843" lon="10.467950999736786">
        <ele>188.08000000000001</ele>
        <time>2017-06-30T12:56:06Z</time>
      </trkpt>
      <trkpt lat="61.108346041291952" lon="10.467900959774852">
        <ele>187.11000000000001</ele>
        <time>2017-06-30T12:56:07Z</time>
      </trkpt>
      <trkpt lat="61.108325002714992" lon="10.467834994196892">
        <ele>186.63</ele>
        <time>2017-06-30T12:56:08Z</time>
      </trkpt>
      <trkpt lat="61.108289966359735" lon="10.467775985598564">
        <ele>186.15000000000001</ele>
        <time>2017-06-30T12:56:09Z</time>
      </trkpt>
      <trkpt lat="61.108245039358735" lon="10.467704990878701">
        <ele>185.66999999999999</ele>
        <time>2017-06-30T12:56:10Z</time>
      </trkpt>
      <trkpt lat="61.108157029375434" lon="10.467520002275705">
        <ele>185.66999999999999</ele>
        <time>2017-06-30T12:56:12Z</time>
      </trkpt>
      <trkpt lat="61.108082011342049" lon="10.467273993417621">
        <ele>182.78999999999999</ele>
        <time>2017-06-30T12:56:14Z</time>
      </trkpt>
      <trkpt lat="61.10806399025023" lon="10.467149019241333">
        <ele>182.31</ele>
        <time>2017-06-30T12:56:15Z</time>
      </trkpt>
      <trkpt lat="61.108058961108327" lon="10.467022033408284">
        <ele>181.83000000000001</ele>
        <time>2017-06-30T12:56:16Z</time>
      </trkpt>
      <trkpt lat="61.10806399025023" lon="10.466894041746855">
        <ele>181.83000000000001</ele>
        <time>2017-06-30T12:56:17Z</time>
      </trkpt>
      <trkpt lat="61.108075976371765" lon="10.466766972094774">
        <ele>182.31</ele>
        <time>2017-06-30T12:56:18Z</time>
      </trkpt>
      <trkpt lat="61.108096009120345" lon="10.466638980433345">
        <ele>182.31</ele>
        <time>2017-06-30T12:56:19Z</time>
      </trkpt>
      <trkpt lat="61.108121993020177" lon="10.466514006257057">
        <ele>182.31</ele>
        <time>2017-06-30T12:56:20Z</time>
      </trkpt>
      <trkpt lat="61.108156023547053" lon="10.46639297157526">
        <ele>181.83000000000001</ele>
        <time>2017-06-30T12:56:21Z</time>
      </trkpt>
      <trkpt lat="61.108197011053562" lon="10.466289035975933">
        <ele>182.31</ele>
        <time>2017-06-30T12:56:22Z</time>
      </trkpt>
      <trkpt lat="61.108239004388452" lon="10.466201025992632">
        <ele>182.31</ele>
        <time>2017-06-30T12:56:23Z</time>
      </trkpt>
      <trkpt lat="61.108284015208483" lon="10.466126007959247">
        <ele>182.31</ele>
        <time>2017-06-30T12:56:24Z</time>
      </trkpt>
      <trkpt lat="61.108333971351385" lon="10.466062976047397">
        <ele>182.31</ele>
        <time>2017-06-30T12:56:25Z</time>
      </trkpt>
      <trkpt lat="61.108384011313319" lon="10.466007990762591">
        <ele>182.31</ele>
        <time>2017-06-30T12:56:26Z</time>
      </trkpt>
      <trkpt lat="61.108437990769744" lon="10.465958034619689">
        <ele>181.83000000000001</ele>
        <time>2017-06-30T12:56:27Z</time>
      </trkpt>
      <trkpt lat="61.108491970226169" lon="10.465913023799658">
        <ele>181.83000000000001</ele>
        <time>2017-06-30T12:56:28Z</time>
      </trkpt>
      <trkpt lat="61.109550017863512" lon="10.465119006112218">
        <ele>181.83000000000001</ele>
        <time>2017-06-30T12:56:44Z</time>
      </trkpt>
      <trkpt lat="61.109786974266171" lon="10.464958995580673">
        <ele>181.83000000000001</ele>
        <time>2017-06-30T12:56:48Z</time>
      </trkpt>
      <trkpt lat="61.110554002225399" lon="10.464385002851486">
        <ele>179.90000000000001</ele>
        <time>2017-06-30T12:57:02Z</time>
      </trkpt>
      <trkpt lat="61.110752988606691" lon="10.464331023395061">
        <ele>180.38</ele>
        <time>2017-06-30T12:57:08Z</time>
      </trkpt>
      <trkpt lat="61.110784001648426" lon="10.46439397148788">
        <ele>180.38</ele>
        <time>2017-06-30T12:57:09Z</time>
      </trkpt>
      <trkpt lat="61.110809985548258" lon="10.464495979249477">
        <ele>180.87</ele>
        <time>2017-06-30T12:57:10Z</time>
      </trkpt>
      <trkpt lat="61.110829012468457" lon="10.464625982567668">
        <ele>180.87</ele>
        <time>2017-06-30T12:57:11Z</time>
      </trkpt>
      <trkpt lat="61.110848961398005" lon="10.464765038341284">
        <ele>181.34999999999999</ele>
        <time>2017-06-30T12:57:12Z</time>
      </trkpt>
      <trkpt lat="61.11113796941936" lon="10.46643496491015">
        <ele>184.22999999999999</ele>
        <time>2017-06-30T12:57:27Z</time>
      </trkpt>
      <trkpt lat="61.111144004389644" lon="10.466474024578929">
        <ele>185.66999999999999</ele>
        <time>2017-06-30T12:57:42Z</time>
      </trkpt>
      <trkpt lat="61.111209969967604" lon="10.466653984040022">
        <ele>189.03999999999999</ele>
        <time>2017-06-30T12:57:49Z</time>
      </trkpt>
      <trkpt lat="61.111240983009338" lon="10.466668987646699">
        <ele>189.03999999999999</ele>
        <time>2017-06-30T12:57:50Z</time>
      </trkpt>
      <trkpt lat="61.111278031021357" lon="10.466663958504796">
        <ele>189.03999999999999</ele>
        <time>2017-06-30T12:57:51Z</time>
      </trkpt>
      <trkpt lat="61.111318012699485" lon="10.466649038717151">
        <ele>189.03999999999999</ele>
        <time>2017-06-30T12:57:52Z</time>
      </trkpt>
      <trkpt lat="61.111359000205994" lon="10.46662800014019">
        <ele>188.56</ele>
        <time>2017-06-30T12:57:53Z</time>
      </trkpt>
      <trkpt lat="61.111403005197644" lon="10.466597992926836">
        <ele>188.56</ele>
        <time>2017-06-30T12:57:54Z</time>
      </trkpt>
      <trkpt lat="61.111596040427685" lon="10.466422978788614">
        <ele>186.63</ele>
        <time>2017-06-30T12:57:58Z</time>
      </trkpt>
      <trkpt lat="61.112519977614284" lon="10.465687969699502">
        <ele>184.71000000000001</ele>
        <time>2017-06-30T12:58:14Z</time>
      </trkpt>
      <trkpt lat="61.112689962610602" lon="10.465554026886821">
        <ele>184.22999999999999</ele>
        <time>2017-06-30T12:58:17Z</time>
      </trkpt>
      <trkpt lat="61.112992968410254" lon="10.465240040794015">
        <ele>183.75</ele>
        <time>2017-06-30T12:58:23Z</time>
      </trkpt>
      <trkpt lat="61.113033033907413" lon="10.465167034417391">
        <ele>183.75</ele>
        <time>2017-06-30T12:58:24Z</time>
      </trkpt>
      <trkpt lat="61.113074021413922" lon="10.465094028040767">
        <ele>183.75</ele>
        <time>2017-06-30T12:58:25Z</time>
      </trkpt>
      <trkpt lat="61.113200001418591" lon="10.464766966179013">
        <ele>184.22999999999999</ele>
        <time>2017-06-30T12:58:33Z</time>
      </trkpt>
      <trkpt lat="61.113202013075352" lon="10.464756991714239">
        <ele>184.22999999999999</ele>
        <time>2017-06-30T12:59:03Z</time>
      </trkpt>
      <trkpt lat="61.113218022510409" lon="10.464726984500885">
        <ele>184.22999999999999</ele>
        <time>2017-06-30T12:59:04Z</time>
      </trkpt>
      <trkpt lat="61.113333022221923" lon="10.464545013383031">
        <ele>184.71000000000001</ele>
        <time>2017-06-30T12:59:08Z</time>
      </trkpt>
      <trkpt lat="61.113388007506728" lon="10.464553982019424">
        <ele>184.71000000000001</ele>
        <time>2017-06-30T12:59:09Z</time>
      </trkpt>
      <trkpt lat="61.113432012498379" lon="10.464576026424766">
        <ele>184.71000000000001</ele>
        <time>2017-06-30T12:59:10Z</time>
      </trkpt>
      <trkpt lat="61.113470988348126" lon="10.464621037244797">
        <ele>184.22999999999999</ele>
        <time>2017-06-30T12:59:11Z</time>
      </trkpt>
      <trkpt lat="61.113505018875003" lon="10.46467300504446">
        <ele>183.75</ele>
        <time>2017-06-30T12:59:12Z</time>
      </trkpt>
      <trkpt lat="61.113599985837936" lon="10.464750034734607">
        <ele>182.78999999999999</ele>
        <time>2017-06-30T12:59:15Z</time>
      </trkpt>
      <trkpt lat="61.113642985001206" lon="10.464745005592704">
        <ele>179.90000000000001</ele>
        <time>2017-06-30T12:59:16Z</time>
      </trkpt>
      <trkpt lat="61.113699981942773" lon="10.464720027521253">
        <ele>179.90000000000001</ele>
        <time>2017-06-30T12:59:17Z</time>
      </trkpt>
      <trkpt lat="61.114255031570792" lon="10.464267991483212">
        <ele>178.46000000000001</ele>
        <time>2017-06-30T12:59:27Z</time>
      </trkpt>
      <trkpt lat="61.114310016855597" lon="10.464213006198406">
        <ele>178.46000000000001</ele>
        <time>2017-06-30T12:59:28Z</time>
      </trkpt>
      <trkpt lat="61.114427028223872" lon="10.464102029800415">
        <ele>184.22999999999999</ele>
        <time>2017-06-30T12:59:30Z</time>
      </trkpt>
      <trkpt lat="61.114472961053252" lon="10.464051989838481">
        <ele>184.71000000000001</ele>
        <time>2017-06-30T12:59:31Z</time>
      </trkpt>
      <trkpt lat="61.114761969074607" lon="10.46394101344049">
        <ele>187.59</ele>
        <time>2017-06-30T12:59:39Z</time>
      </trkpt>
      <trkpt lat="61.114907981827855" lon="10.463818972930312">
        <ele>191.91999999999999</ele>
        <time>2017-06-30T12:59:42Z</time>
      </trkpt>
      <trkpt lat="61.115317018702626" lon="10.463541029021144">
        <ele>196.25</ele>
        <time>2017-06-30T12:59:53Z</time>
      </trkpt>
      <trkpt lat="61.115397987887263" lon="10.463495012372732">
        <ele>197.21000000000001</ele>
        <time>2017-06-30T12:59:55Z</time>
      </trkpt>
      <trkpt lat="61.115646008402109" lon="10.463337013497949">
        <ele>197.69</ele>
        <time>2017-06-30T13:00:01Z</time>
      </trkpt>
      <trkpt lat="61.115682972595096" lon="10.463290996849537">
        <ele>198.16999999999999</ele>
        <time>2017-06-30T13:00:02Z</time>
      </trkpt>
      <trkpt lat="61.116031995043159" lon="10.462994026020169">
        <ele>200.09</ele>
        <time>2017-06-30T13:00:13Z</time>
      </trkpt>
      <trkpt lat="61.116152023896575" lon="10.462858993560076">
        <ele>202.49000000000001</ele>
        <time>2017-06-30T13:00:24Z</time>
      </trkpt>
      <trkpt lat="61.116139031946659" lon="10.462865028530359">
        <ele>202.97999999999999</ele>
        <time>2017-06-30T13:00:26Z</time>
      </trkpt>
      <trkpt lat="61.115913977846503" lon="10.462970975786448">
        <ele>200.09</ele>
        <time>2017-06-30T13:00:35Z</time>
      </trkpt>
      <trkpt lat="61.115900985896587" lon="10.463023027405143">
        <ele>200.09</ele>
        <time>2017-06-30T13:00:36Z</time>
      </trkpt>
      <trkpt lat="61.115901991724968" lon="10.463100979104638">
        <ele>200.56999999999999</ele>
        <time>2017-06-30T13:00:37Z</time>
      </trkpt>
      <trkpt lat="61.115918001160026" lon="10.463184965774417">
        <ele>200.56999999999999</ele>
        <time>2017-06-30T13:00:38Z</time>
      </trkpt>
      <trkpt lat="61.115938033908606" lon="10.46325596049428">
        <ele>201.05000000000001</ele>
        <time>2017-06-30T13:00:39Z</time>
      </trkpt>
      <trkpt lat="61.115957982838154" lon="10.463332990184426">
        <ele>201.53</ele>
        <time>2017-06-30T13:00:40Z</time>
      </trkpt>
      <trkpt lat="61.115988995879889" lon="10.463504986837506">
        <ele>202.00999999999999</ele>
        <time>2017-06-30T13:00:42Z</time>
      </trkpt>
      <trkpt lat="61.116202985867858" lon="10.464789010584354">
        <ele>208.25999999999999</ele>
        <time>2017-06-30T13:00:59Z</time>
      </trkpt>
      <trkpt lat="61.116232993081212" lon="10.465056980028749">
        <ele>208.74000000000001</ele>
        <time>2017-06-30T13:01:10Z</time>
      </trkpt>
      <trkpt lat="61.116210026666522" lon="10.464937034994364">
        <ele>207.30000000000001</ele>
        <time>2017-06-30T13:01:50Z</time>
      </trkpt>
      <trkpt lat="61.116169961169362" lon="10.464771995320916">
        <ele>206.34</ele>
        <time>2017-06-30T13:02:10Z</time>
      </trkpt>
      <trkpt lat="61.11616401001811" lon="10.464798985049129">
        <ele>205.86000000000001</ele>
        <time>2017-06-30T13:02:11Z</time>
      </trkpt>
      <trkpt lat="61.116146994754672" lon="10.46482203528285">
        <ele>205.38</ele>
        <time>2017-06-30T13:02:12Z</time>
      </trkpt>
      <trkpt lat="61.115953959524632" lon="10.464862016960979">
        <ele>200.56999999999999</ele>
        <time>2017-06-30T13:02:25Z</time>
      </trkpt>
      <trkpt lat="61.115919006988406" lon="10.464847013354301">
        <ele>198.16999999999999</ele>
        <time>2017-06-30T13:02:32Z</time>
      </trkpt>
      <trkpt lat="61.115933004766703" lon="10.464813988655806">
        <ele>197.69</ele>
        <time>2017-06-30T13:02:34Z</time>
      </trkpt>
      <trkpt lat="61.115951025858521" lon="10.464797979220748">
        <ele>197.21000000000001</ele>
        <time>2017-06-30T13:02:35Z</time>
      </trkpt>
      <trkpt lat="61.116124028339982" lon="10.464813988655806">
        <ele>195.77000000000001</ele>
        <time>2017-06-30T13:02:45Z</time>
      </trkpt>
      <trkpt lat="61.11614003777504" lon="10.464783981442451">
        <ele>195.77000000000001</ele>
        <time>2017-06-30T13:02:46Z</time>
      </trkpt>
      <trkpt lat="61.116146994754672" lon="10.464751040562987">
        <ele>195.77000000000001</ele>
        <time>2017-06-30T13:02:47Z</time>
      </trkpt>
      <trkpt lat="61.116148000583053" lon="10.464707035571337">
        <ele>195.28</ele>
        <time>2017-06-30T13:02:48Z</time>
      </trkpt>
      <trkpt lat="61.116146994754672" lon="10.464654983952641">
        <ele>195.28</ele>
        <time>2017-06-30T13:02:49Z</time>
      </trkpt>
      <trkpt lat="61.11614297144115" lon="10.464594969525933">
        <ele>194.80000000000001</ele>
        <time>2017-06-30T13:02:50Z</time>
      </trkpt>
      <trkpt lat="61.116129979491234" lon="10.464535960927606">
        <ele>194.80000000000001</ele>
        <time>2017-06-30T13:02:51Z</time>
      </trkpt>
      <trkpt lat="61.116117993369699" lon="10.464488016441464">
        <ele>194.80000000000001</ele>
        <time>2017-06-30T13:02:52Z</time>
      </trkpt>
      <trkpt lat="61.11612101085484" lon="10.464301016181707">
        <ele>197.21000000000001</ele>
        <time>2017-06-30T13:03:03Z</time>
      </trkpt>
      <trkpt lat="61.116110030561686" lon="10.464302022010088">
        <ele>196.72999999999999</ele>
        <time>2017-06-30T13:03:39Z</time>
      </trkpt>
      <trkpt lat="61.11637900583446" lon="10.464081997051835">
        <ele>258.25</ele>
        <time>2017-06-30T14:18:45Z</time>
      </trkpt>
      <trkpt lat="61.116313962265849" lon="10.46417998149991">
        <ele>242.87</ele>
        <time>2017-06-30T14:20:23Z</time>
      </trkpt>
      <trkpt lat="61.11631203442812" lon="10.464181993156672">
        <ele>241.91</ele>
        <time>2017-06-30T14:21:18Z</time>
      </trkpt>
      <trkpt lat="61.11631203442812" lon="10.464181993156672">
        <ele>241.91</ele>
        <time>2017-06-30T14:21:23Z</time>
      </trkpt>
      <trkpt lat="61.116144983097911" lon="10.463658040389419">
        <ele>237.09999999999999</ele>
        <time>2017-06-30T14:21:34Z</time>
      </trkpt>
      <trkpt lat="61.116040963679552" lon="10.46316803433001">
        <ele>232.78</ele>
        <time>2017-06-30T14:21:41Z</time>
      </trkpt>
      <trkpt lat="61.116050016134977" lon="10.463012969121337">
        <ele>231.33000000000001</ele>
        <time>2017-06-30T14:21:43Z</time>
      </trkpt>
      <trkpt lat="61.116068959236145" lon="10.462958989664912">
        <ele>229.88999999999999</ele>
        <time>2017-06-30T14:21:44Z</time>
      </trkpt>
      <trkpt lat="61.116106007248163" lon="10.462920013815165">
        <ele>230.84999999999999</ele>
        <time>2017-06-30T14:21:45Z</time>
      </trkpt>
      <trkpt lat="61.11614003777504" lon="10.462896041572094">
        <ele>231.33000000000001</ele>
        <time>2017-06-30T14:21:46Z</time>
      </trkpt>
      <trkpt lat="61.116423010826111" lon="10.462646009400487">
        <ele>230.84999999999999</ele>
        <time>2017-06-30T14:21:52Z</time>
      </trkpt>
      <trkpt lat="61.116562988609076" lon="10.462478036060929">
        <ele>229.41</ele>
        <time>2017-06-30T14:21:55Z</time>
      </trkpt>
      <trkpt lat="61.116639012470841" lon="10.462393965572119">
        <ele>227.97</ele>
        <time>2017-06-30T14:21:57Z</time>
      </trkpt>
      <trkpt lat="61.117098005488515" lon="10.462122978642583">
        <ele>227.97</ele>
        <time>2017-06-30T14:22:08Z</time>
      </trkpt>
      <trkpt lat="61.117967963218689" lon="10.461478997021914">
        <ele>225.56999999999999</ele>
        <time>2017-06-30T14:22:21Z</time>
      </trkpt>
      <trkpt lat="61.118050022050738" lon="10.461400039494038">
        <ele>224.12</ele>
        <time>2017-06-30T14:22:23Z</time>
      </trkpt>
      <trkpt lat="61.118084974586964" lon="10.461357962340117">
        <ele>224.12</ele>
        <time>2017-06-30T14:22:24Z</time>
      </trkpt>
      <trkpt lat="61.118108024820685" lon="10.461315969005227">
        <ele>223.63999999999999</ele>
        <time>2017-06-30T14:22:25Z</time>
      </trkpt>
      <trkpt lat="61.118126967921853" lon="10.461269030347466">
        <ele>222.19999999999999</ele>
        <time>2017-06-30T14:22:26Z</time>
      </trkpt>
      <trkpt lat="61.11814197152853" lon="10.461227959021926">
        <ele>221.24000000000001</ele>
        <time>2017-06-30T14:22:27Z</time>
      </trkpt>
      <trkpt lat="61.118154963478446" lon="10.461188983172178">
        <ele>220.75999999999999</ele>
        <time>2017-06-30T14:22:28Z</time>
      </trkpt>
      <trkpt lat="61.118191005662084" lon="10.461070965975523">
        <ele>219.80000000000001</ele>
        <time>2017-06-30T14:22:30Z</time>
      </trkpt>
      <trkpt lat="61.118234004825354" lon="10.461032995954156">
        <ele>219.31999999999999</ele>
        <time>2017-06-30T14:22:31Z</time>
      </trkpt>
      <trkpt lat="61.118279015645385" lon="10.461026960983872">
        <ele>218.84</ele>
        <time>2017-06-30T14:22:32Z</time>
      </trkpt>
      <trkpt lat="61.118325032293797" lon="10.461026038974524">
        <ele>219.31999999999999</ele>
        <time>2017-06-30T14:22:33Z</time>
      </trkpt>
      <trkpt lat="61.118361996486783" lon="10.461030984297395">
        <ele>219.31999999999999</ele>
        <time>2017-06-30T14:22:34Z</time>
      </trkpt>
      <trkpt lat="61.118438020348549" lon="10.461032995954156">
        <ele>217.88</ele>
        <time>2017-06-30T14:22:43Z</time>
      </trkpt>
      <trkpt lat="61.118530975654721" lon="10.461035007610917">
        <ele>217.40000000000001</ele>
        <time>2017-06-30T14:22:46Z</time>
      </trkpt>
      <trkpt lat="61.118598030880094" lon="10.461010029539466">
        <ele>217.40000000000001</ele>
        <time>2017-06-30T14:22:47Z</time>
      </trkpt>
      <trkpt lat="61.118669025599957" lon="10.460964012891054">
        <ele>217.40000000000001</ele>
        <time>2017-06-30T14:22:48Z</time>
      </trkpt>
      <trkpt lat="61.119342008605599" lon="10.460377028211951">
        <ele>217.88</ele>
        <time>2017-06-30T14:22:59Z</time>
      </trkpt>
      <trkpt lat="61.119518028572202" lon="10.460216011852026">
        <ele>216.91</ele>
        <time>2017-06-30T14:23:09Z</time>
      </trkpt>
      <trkpt lat="61.119741993024945" lon="10.460058012977242">
        <ele>216.91</ele>
        <time>2017-06-30T14:23:15Z</time>
      </trkpt>
      <trkpt lat="61.120814960449934" lon="10.459252009168267">
        <ele>215.94999999999999</ele>
        <time>2017-06-30T14:23:29Z</time>
      </trkpt>
      <trkpt lat="61.122113987803459" lon="10.458216005936265">
        <ele>213.06999999999999</ele>
        <time>2017-06-30T14:23:44Z</time>
      </trkpt>
      <trkpt lat="61.12396496348083" lon="10.456786975264549">
        <ele>212.59</ele>
        <time>2017-06-30T14:24:04Z</time>
      </trkpt>
      <trkpt lat="61.12522903829813" lon="10.455804029479623">
        <ele>212.11000000000001</ele>
        <time>2017-06-30T14:24:20Z</time>
      </trkpt>
      <trkpt lat="61.125721978023648" lon="10.455330032855272">
        <ele>210.66999999999999</ele>
        <time>2017-06-30T14:24:31Z</time>
      </trkpt>
      <trkpt lat="61.125827003270388" lon="10.455251997336745">
        <ele>208.74000000000001</ele>
        <time>2017-06-30T14:24:35Z</time>
      </trkpt>
      <trkpt lat="61.125971004366875" lon="10.455148983746767">
        <ele>208.25999999999999</ele>
        <time>2017-06-30T14:24:38Z</time>
      </trkpt>
      <trkpt lat="61.126002017408609" lon="10.455075977370143">
        <ele>208.25999999999999</ele>
        <time>2017-06-30T14:24:39Z</time>
      </trkpt>
      <trkpt lat="61.126010986045003" lon="10.454973969608545">
        <ele>207.78</ele>
        <time>2017-06-30T14:24:40Z</time>
      </trkpt>
      <trkpt lat="61.126008974388242" lon="10.454852012917399">
        <ele>207.78</ele>
        <time>2017-06-30T14:24:41Z</time>
      </trkpt>
      <trkpt lat="61.126000005751848" lon="10.454716980457306">
        <ele>207.30000000000001</ele>
        <time>2017-06-30T14:24:42Z</time>
      </trkpt>
      <trkpt lat="61.126016015186906" lon="10.454409029334784">
        <ele>206.81999999999999</ele>
        <time>2017-06-30T14:24:44Z</time>
      </trkpt>
      <trkpt lat="61.126438966020942" lon="10.452567022293806">
        <ele>203.94</ele>
        <time>2017-06-30T14:24:55Z</time>
      </trkpt>
      <trkpt lat="61.127420989796519" lon="10.45038697309792">
        <ele>200.56999999999999</ele>
        <time>2017-06-30T14:25:08Z</time>
      </trkpt>
      <trkpt lat="61.128992009907961" lon="10.447025997564197">
        <ele>194.80000000000001</ele>
        <time>2017-06-30T14:25:30Z</time>
      </trkpt>
      <trkpt lat="61.129348995164037" lon="10.446313032880425">
        <ele>193.36000000000001</ele>
        <time>2017-06-30T14:25:38Z</time>
      </trkpt>
      <trkpt lat="61.129457959905267" lon="10.44600298628211">
        <ele>192.88</ele>
        <time>2017-06-30T14:25:44Z</time>
      </trkpt>
      <trkpt lat="61.12946298904717" lon="10.445900978520513">
        <ele>192.40000000000001</ele>
        <time>2017-06-30T14:25:45Z</time>
      </trkpt>
      <trkpt lat="61.129451002925634" lon="10.445785978808999">
        <ele>192.40000000000001</ele>
        <time>2017-06-30T14:25:46Z</time>
      </trkpt>
      <trkpt lat="61.129424013197422" lon="10.445668967440724">
        <ele>191.91999999999999</ele>
        <time>2017-06-30T14:25:47Z</time>
      </trkpt>
      <trkpt lat="61.129384031519294" lon="10.445566037669778">
        <ele>191.91999999999999</ele>
        <time>2017-06-30T14:25:48Z</time>
      </trkpt>
      <trkpt lat="61.129344971850514" lon="10.445456989109516">
        <ele>191.44</ele>
        <time>2017-06-30T14:25:49Z</time>
      </trkpt>
      <trkpt lat="61.129111032932997" lon="10.444658026099205">
        <ele>189.03999999999999</ele>
        <time>2017-06-30T14:25:55Z</time>
      </trkpt>
      <trkpt lat="61.129092006012797" lon="10.44449801556766">
        <ele>188.56</ele>
        <time>2017-06-30T14:25:56Z</time>
      </trkpt>
      <trkpt lat="61.129086976870894" lon="10.444329958409071">
        <ele>187.59</ele>
        <time>2017-06-30T14:25:57Z</time>
      </trkpt>
      <trkpt lat="61.129101980477571" lon="10.444155028089881">
        <ele>187.59</ele>
        <time>2017-06-30T14:25:58Z</time>
      </trkpt>
      <trkpt lat="61.129141040146351" lon="10.443985965102911">
        <ele>187.11000000000001</ele>
        <time>2017-06-30T14:25:59Z</time>
      </trkpt>
      <trkpt lat="61.129200970754027" lon="10.443840036168694">
        <ele>187.11000000000001</ele>
        <time>2017-06-30T14:26:00Z</time>
      </trkpt>
      <trkpt lat="61.129273977130651" lon="10.443708021193743">
        <ele>187.11000000000001</ele>
        <time>2017-06-30T14:26:01Z</time>
      </trkpt>
      <trkpt lat="61.12974202260375" lon="10.44312397018075">
        <ele>190</ele>
        <time>2017-06-30T14:26:09Z</time>
      </trkpt>
      <trkpt lat="61.129844030365348" lon="10.443131010979414">
        <ele>191.44</ele>
        <time>2017-06-30T14:26:20Z</time>
      </trkpt>
      <trkpt lat="61.129889041185379" lon="10.443140985444188">
        <ele>190.47999999999999</ele>
        <time>2017-06-30T14:26:30Z</time>
      </trkpt>
      <trkpt lat="61.129960035905242" lon="10.443064039573073">
        <ele>189.03999999999999</ele>
        <time>2017-06-30T14:26:38Z</time>
      </trkpt>
      <trkpt lat="61.130006974563003" lon="10.442943004891276">
        <ele>188.56</ele>
        <time>2017-06-30T14:26:39Z</time>
      </trkpt>
      <trkpt lat="61.130046034231782" lon="10.442767990753055">
        <ele>188.08000000000001</ele>
        <time>2017-06-30T14:26:40Z</time>
      </trkpt>
      <trkpt lat="61.130234962329268" lon="10.441836006939411">
        <ele>185.19</ele>
        <time>2017-06-30T14:26:44Z</time>
      </trkpt>
      <trkpt lat="61.130995033308864" lon="10.439391005784273">
        <ele>175.58000000000001</ele>
        <time>2017-06-30T14:26:53Z</time>
      </trkpt>
      <trkpt lat="61.131689976900816" lon="10.436189034953713">
        <ele>167.88999999999999</ele>
        <time>2017-06-30T14:27:03Z</time>
      </trkpt>
      <trkpt lat="61.131730964407325" lon="10.435183960944414">
        <ele>166.44999999999999</ele>
        <time>2017-06-30T14:27:06Z</time>
      </trkpt>
      <trkpt lat="61.131720989942551" lon="10.434870980679989">
        <ele>165.96000000000001</ele>
        <time>2017-06-30T14:27:07Z</time>
      </trkpt>
      <trkpt lat="61.131700035184622" lon="10.434573004022241">
        <ele>165.47999999999999</ele>
        <time>2017-06-30T14:27:08Z</time>
      </trkpt>
      <trkpt lat="61.131666004657745" lon="10.43429103679955">
        <ele>165</ele>
        <time>2017-06-30T14:27:09Z</time>
      </trkpt>
      <trkpt lat="61.131628034636378" lon="10.434026001021266">
        <ele>165</ele>
        <time>2017-06-30T14:27:10Z</time>
      </trkpt>
      <trkpt lat="61.131574977189302" lon="10.43356197886169">
        <ele>164.03999999999999</ele>
        <time>2017-06-30T14:27:12Z</time>
      </trkpt>
      <trkpt lat="61.131567014381289" lon="10.433376990258694">
        <ele>163.56</ele>
        <time>2017-06-30T14:27:13Z</time>
      </trkpt>
      <trkpt lat="61.131582017987967" lon="10.433210022747517">
        <ele>163.56</ele>
        <time>2017-06-30T14:27:14Z</time>
      </trkpt>
      <trkpt lat="61.131619988009334" lon="10.433059986680746">
        <ele>163.08000000000001</ele>
        <time>2017-06-30T14:27:15Z</time>
      </trkpt>
      <trkpt lat="61.131673967465758" lon="10.432920008897781">
        <ele>162.59999999999999</ele>
        <time>2017-06-30T14:27:16Z</time>
      </trkpt>
      <trkpt lat="61.131736999377608" lon="10.432777013629675">
        <ele>162.12</ele>
        <time>2017-06-30T14:27:17Z</time>
      </trkpt>
      <trkpt lat="61.132227005437016" lon="10.431184032931924">
        <ele>157.31</ele>
        <time>2017-06-30T14:27:24Z</time>
      </trkpt>
      <trkpt lat="61.132439989596605" lon="10.429636985063553">
        <ele>154.91</ele>
        <time>2017-06-30T14:27:29Z</time>
      </trkpt>
      <trkpt lat="61.132511990144849" lon="10.429359963163733">
        <ele>154.91</ele>
        <time>2017-06-30T14:27:30Z</time>
      </trkpt>
      <trkpt lat="61.132609974592924" lon="10.429120995104313">
        <ele>154.91</ele>
        <time>2017-06-30T14:27:31Z</time>
      </trkpt>
      <trkpt lat="61.132722962647676" lon="10.42889803647995">
        <ele>154.91</ele>
        <time>2017-06-30T14:27:32Z</time>
      </trkpt>
      <trkpt lat="61.132847014814615" lon="10.428692009299994">
        <ele>154.91</ele>
        <time>2017-06-30T14:27:33Z</time>
      </trkpt>
      <trkpt lat="61.132977018132806" lon="10.428490005433559">
        <ele>154.91</ele>
        <time>2017-06-30T14:27:34Z</time>
      </trkpt>
      <trkpt lat="61.135354964062572" lon="10.424670958891511">
        <ele>154.91</ele>
        <time>2017-06-30T14:27:52Z</time>
      </trkpt>
      <trkpt lat="61.137683959677815" lon="10.421192971989512">
        <ele>155.87</ele>
        <time>2017-06-30T14:28:08Z</time>
      </trkpt>
      <trkpt lat="61.140157962217927" lon="10.41828696615994">
        <ele>155.87</ele>
        <time>2017-06-30T14:28:23Z</time>
      </trkpt>
      <trkpt lat="61.142696002498269" lon="10.416357032954693">
        <ele>155.87</ele>
        <time>2017-06-30T14:28:38Z</time>
      </trkpt>
      <trkpt lat="61.145502012223005" lon="10.414825994521379">
        <ele>155.87</ele>
        <time>2017-06-30T14:28:55Z</time>
      </trkpt>
      <trkpt lat="61.146074999123812" lon="10.414707977324724">
        <ele>155.38999999999999</ele>
        <time>2017-06-30T14:28:59Z</time>
      </trkpt>
      <trkpt lat="61.146180024370551" lon="10.414737984538078">
        <ele>155.38999999999999</ele>
        <time>2017-06-30T14:29:00Z</time>
      </trkpt>
      <trkpt lat="61.146270968019962" lon="10.414790958166122">
        <ele>155.38999999999999</ele>
        <time>2017-06-30T14:29:01Z</time>
      </trkpt>
      <trkpt lat="61.146349003538489" lon="10.41486999951303">
        <ele>155.38999999999999</ele>
        <time>2017-06-30T14:29:02Z</time>
      </trkpt>
      <trkpt lat="61.146413963288069" lon="10.414961026981473">
        <ele>155.38999999999999</ele>
        <time>2017-06-30T14:29:03Z</time>
      </trkpt>
      <trkpt lat="61.146469032391906" lon="10.41506202891469">
        <ele>154.43000000000001</ele>
        <time>2017-06-30T14:29:04Z</time>
      </trkpt>
      <trkpt lat="61.146512031555176" lon="10.415173005312681">
        <ele>154.43000000000001</ele>
        <time>2017-06-30T14:29:05Z</time>
      </trkpt>
      <trkpt lat="61.146538015455008" lon="10.41529999114573">
        <ele>153.47</ele>
        <time>2017-06-30T14:29:06Z</time>
      </trkpt>
      <trkpt lat="61.146557964384556" lon="10.415425971150398">
        <ele>153.47</ele>
        <time>2017-06-30T14:29:07Z</time>
      </trkpt>
      <trkpt lat="61.146571962162852" lon="10.415559997782111">
        <ele>153.47</ele>
        <time>2017-06-30T14:29:08Z</time>
      </trkpt>
      <trkpt lat="61.146586965769529" lon="10.415705004706979">
        <ele>152.99000000000001</ele>
        <time>2017-06-30T14:29:09Z</time>
      </trkpt>
      <trkpt lat="61.146657038480043" lon="10.415950007736683">
        <ele>152.99000000000001</ele>
        <time>2017-06-30T14:29:11Z</time>
      </trkpt>
      <trkpt lat="61.146696014329791" lon="10.416025025770068">
        <ele>152.99000000000001</ele>
        <time>2017-06-30T14:29:12Z</time>
      </trkpt>
      <trkpt lat="61.146730966866016" lon="10.416057966649532">
        <ele>153.47</ele>
        <time>2017-06-30T14:29:13Z</time>
      </trkpt>
      <trkpt lat="61.146767009049654" lon="10.416066013276577">
        <ele>153.47</ele>
        <time>2017-06-30T14:29:14Z</time>
      </trkpt>
      <trkpt lat="61.14680296741426" lon="10.416052015498281">
        <ele>153.94999999999999</ele>
        <time>2017-06-30T14:29:15Z</time>
      </trkpt>
      <trkpt lat="61.146842027083039" lon="10.416023014113307">
        <ele>153.94999999999999</ele>
        <time>2017-06-30T14:29:16Z</time>
      </trkpt>
      <trkpt lat="61.146883014589548" lon="10.415962999686599">
        <ele>153.94999999999999</ele>
        <time>2017-06-30T14:29:17Z</time>
      </trkpt>
      <trkpt lat="61.146933976560831" lon="10.415884964168072">
        <ele>153.47</ele>
        <time>2017-06-30T14:29:18Z</time>
      </trkpt>
      <trkpt lat="61.146988961845636" lon="10.415784968063235">
        <ele>152.99000000000001</ele>
        <time>2017-06-30T14:29:19Z</time>
      </trkpt>
      <trkpt lat="61.147122988477349" lon="10.415577013045549">
        <ele>152.50999999999999</ele>
        <time>2017-06-30T14:29:21Z</time>
      </trkpt>
      <trkpt lat="61.147206975147128" lon="10.415489003062248">
        <ele>152.50999999999999</ele>
        <time>2017-06-30T14:29:22Z</time>
      </trkpt>
      <trkpt lat="61.147694969549775" lon="10.415055993944407">
        <ele>150.58000000000001</ele>
        <time>2017-06-30T14:29:27Z</time>
      </trkpt>
      <trkpt lat="61.14779002033174" lon="10.414938982576132">
        <ele>150.09999999999999</ele>
        <time>2017-06-30T14:29:28Z</time>
      </trkpt>
      <trkpt lat="61.1478750128299" lon="10.414810990914702">
        <ele>149.62</ele>
        <time>2017-06-30T14:29:29Z</time>
      </trkpt>
      <trkpt lat="61.148380022495985" lon="10.413982020691037">
        <ele>148.66</ele>
        <time>2017-06-30T14:29:37Z</time>
      </trkpt>
      <trkpt lat="61.148439031094313" lon="10.413914965465665">
        <ele>148.66</ele>
        <time>2017-06-30T14:29:38Z</time>
      </trkpt>
      <trkpt lat="61.14849803969264" lon="10.413861991837621">
        <ele>148.66</ele>
        <time>2017-06-30T14:29:39Z</time>
      </trkpt>
      <trkpt lat="61.148680010810494" lon="10.413668034598231">
        <ele>148.66</ele>
        <time>2017-06-30T14:29:42Z</time>
      </trkpt>
      <trkpt lat="61.148728039115667" lon="10.41355898603797">
        <ele>148.66</ele>
        <time>2017-06-30T14:29:43Z</time>
      </trkpt>
      <trkpt lat="61.148843038827181" lon="10.413311971351504">
        <ele>148.18000000000001</ele>
        <time>2017-06-30T14:29:45Z</time>
      </trkpt>
      <trkpt lat="61.148918978869915" lon="10.413199989125133">
        <ele>148.18000000000001</ele>
        <time>2017-06-30T14:29:46Z</time>
      </trkpt>
      <trkpt lat="61.149003971368074" lon="10.413094963878393">
        <ele>147.69999999999999</ele>
        <time>2017-06-30T14:29:47Z</time>
      </trkpt>
      <trkpt lat="61.14910002797842" lon="10.412998991087079">
        <ele>147.22</ele>
        <time>2017-06-30T14:29:48Z</time>
      </trkpt>
      <trkpt lat="61.149203041568398" lon="10.412918021902442">
        <ele>146.74000000000001</ele>
        <time>2017-06-30T14:29:49Z</time>
      </trkpt>
      <trkpt lat="61.149304965510964" lon="10.41284903883934">
        <ele>146.74000000000001</ele>
        <time>2017-06-30T14:29:50Z</time>
      </trkpt>
      <trkpt lat="61.149412002414465" lon="10.41278600692749">
        <ele>146.25999999999999</ele>
        <time>2017-06-30T14:29:51Z</time>
      </trkpt>
      <trkpt lat="61.15047499537468" lon="10.412587020546198">
        <ele>143.84999999999999</ele>
        <time>2017-06-30T14:29:59Z</time>
      </trkpt>
      <trkpt lat="61.151774022728205" lon="10.412023002281785">
        <ele>138.56999999999999</ele>
        <time>2017-06-30T14:30:07Z</time>
      </trkpt>
      <trkpt lat="61.152598969638348" lon="10.41050897911191">
        <ele>134.72</ele>
        <time>2017-06-30T14:30:13Z</time>
      </trkpt>
      <trkpt lat="61.152996020391583" lon="10.40840202011168">
        <ele>132.80000000000001</ele>
        <time>2017-06-30T14:30:19Z</time>
      </trkpt>
      <trkpt lat="61.153009012341499" lon="10.408022990450263">
        <ele>132.80000000000001</ele>
        <time>2017-06-30T14:30:20Z</time>
      </trkpt>
      <trkpt lat="61.153005994856358" lon="10.407641027122736">
        <ele>132.31999999999999</ele>
        <time>2017-06-30T14:30:21Z</time>
      </trkpt>
      <trkpt lat="61.152984034270048" lon="10.407253028824925">
        <ele>132.31999999999999</ele>
        <time>2017-06-30T14:30:22Z</time>
      </trkpt>
      <trkpt lat="61.152953021228313" lon="10.40687601082027">
        <ele>132.31999999999999</ele>
        <time>2017-06-30T14:30:23Z</time>
      </trkpt>
      <trkpt lat="61.152607016265392" lon="10.403156038373709">
        <ele>131.36000000000001</ele>
        <time>2017-06-30T14:30:33Z</time>
      </trkpt>
      <trkpt lat="61.152846990153193" lon="10.400973977521062">
        <ele>130.88</ele>
        <time>2017-06-30T14:30:39Z</time>
      </trkpt>
      <trkpt lat="61.153595997020602" lon="10.398930972442031">
        <ele>130.40000000000001</ele>
        <time>2017-06-30T14:30:46Z</time>
      </trkpt>
      <trkpt lat="61.155444961041212" lon="10.395762026309967">
        <ele>129.43000000000001</ele>
        <time>2017-06-30T14:31:00Z</time>
      </trkpt>
      <trkpt lat="61.155662974342704" lon="10.395318036898971">
        <ele>129.43000000000001</ele>
        <time>2017-06-30T14:31:02Z</time>
      </trkpt>
      <trkpt lat="61.155750984326005" lon="10.395086025819182">
        <ele>128.94999999999999</ele>
        <time>2017-06-30T14:31:03Z</time>
      </trkpt>
      <trkpt lat="61.15599799901247" lon="10.394464004784822">
        <ele>128.94999999999999</ele>
        <time>2017-06-30T14:31:06Z</time>
      </trkpt>
      <trkpt lat="61.156086008995771" lon="10.394332995638251">
        <ele>128.94999999999999</ele>
        <time>2017-06-30T14:31:07Z</time>
      </trkpt>
      <trkpt lat="61.156175024807453" lon="10.39424498565495">
        <ele>128.94999999999999</ele>
        <time>2017-06-30T14:31:08Z</time>
      </trkpt>
      <trkpt lat="61.156264040619135" lon="10.394180025905371">
        <ele>128.47</ele>
        <time>2017-06-30T14:31:09Z</time>
      </trkpt>
      <trkpt lat="61.156353978440166" lon="10.394116993993521">
        <ele>128.47</ele>
        <time>2017-06-30T14:31:10Z</time>
      </trkpt>
      <trkpt lat="61.156510971486568" lon="10.393894035369158">
        <ele>129.43000000000001</ele>
        <time>2017-06-30T14:31:12Z</time>
      </trkpt>
      <trkpt lat="61.157274981960654" lon="10.392462993040681">
        <ele>129.91999999999999</ele>
        <time>2017-06-30T14:31:20Z</time>
      </trkpt>
      <trkpt lat="61.158295981585979" lon="10.390826007351279">
        <ele>133.75999999999999</ele>
        <time>2017-06-30T14:31:28Z</time>
      </trkpt>
      <trkpt lat="61.158839967101812" lon="10.388716030865908">
        <ele>140.97</ele>
        <time>2017-06-30T14:31:35Z</time>
      </trkpt>
      <trkpt lat="61.159746972844005" lon="10.383871039375663">
        <ele>156.83000000000001</ele>
        <time>2017-06-30T14:31:49Z</time>
      </trkpt>
      <trkpt lat="61.159893991425633" lon="10.381216993555427">
        <ele>165</ele>
        <time>2017-06-30T14:31:56Z</time>
      </trkpt>
      <trkpt lat="61.160052996128798" lon="10.376649023965001">
        <ele>170.28999999999999</ele>
        <time>2017-06-30T14:32:08Z</time>
      </trkpt>
      <trkpt lat="61.160716004669666" lon="10.37381099537015">
        <ele>173.66</ele>
        <time>2017-06-30T14:32:16Z</time>
      </trkpt>
      <trkpt lat="61.161537012085319" lon="10.368598038330674">
        <ele>180.38</ele>
        <time>2017-06-30T14:32:30Z</time>
      </trkpt>
      <trkpt lat="61.162332035601139" lon="10.364114977419376">
        <ele>188.56</ele>
        <time>2017-06-30T14:32:42Z</time>
      </trkpt>
      <trkpt lat="61.163124963641167" lon="10.359768960624933">
        <ele>193.84</ele>
        <time>2017-06-30T14:32:54Z</time>
      </trkpt>
      <trkpt lat="61.163810016587377" lon="10.356110008433461">
        <ele>196.25</ele>
        <time>2017-06-30T14:33:04Z</time>
      </trkpt>
      <trkpt lat="61.164640998467803" lon="10.353886038064957">
        <ele>199.13</ele>
        <time>2017-06-30T14:33:11Z</time>
      </trkpt>
      <trkpt lat="61.165904989466071" lon="10.350867966189981">
        <ele>203.94</ele>
        <time>2017-06-30T14:33:21Z</time>
      </trkpt>
      <trkpt lat="61.166520975530148" lon="10.347531968727708">
        <ele>207.78</ele>
        <time>2017-06-30T14:33:30Z</time>
      </trkpt>
      <trkpt lat="61.167654041200876" lon="10.342071997001767">
        <ele>214.50999999999999</ele>
        <time>2017-06-30T14:33:45Z</time>
      </trkpt>
      <trkpt lat="61.168767996132374" lon="10.339943999424577">
        <ele>217.88</ele>
        <time>2017-06-30T14:33:53Z</time>
      </trkpt>
      <trkpt lat="61.170484023168683" lon="10.337117034941912">
        <ele>223.16</ele>
        <time>2017-06-30T14:34:04Z</time>
      </trkpt>
      <trkpt lat="61.172957019880414" lon="10.33262399956584">
        <ele>231.81</ele>
        <time>2017-06-30T14:34:20Z</time>
      </trkpt>
      <trkpt lat="61.174793997779489" lon="10.329926032572985">
        <ele>236.62</ele>
        <time>2017-06-30T14:34:31Z</time>
      </trkpt>
      <trkpt lat="61.176350014284253" lon="10.327893001958728">
        <ele>240.47</ele>
        <time>2017-06-30T14:34:40Z</time>
      </trkpt>
      <trkpt lat="61.178268967196345" lon="10.326416026800871">
        <ele>245.27000000000001</ele>
        <time>2017-06-30T14:34:50Z</time>
      </trkpt>
      <trkpt lat="61.180136036127806" lon="10.32461198978126">
        <ele>247.68000000000001</ele>
        <time>2017-06-30T14:35:00Z</time>
      </trkpt>
      <trkpt lat="61.182022970169783" lon="10.323940012603998">
        <ele>248.63999999999999</ele>
        <time>2017-06-30T14:35:09Z</time>
      </trkpt>
      <trkpt lat="61.183590972796082" lon="10.322886994108558">
        <ele>250.08000000000001</ele>
        <time>2017-06-30T14:35:17Z</time>
      </trkpt>
      <trkpt lat="61.186976004391909" lon="10.319055039435625">
        <ele>253.93000000000001</ele>
        <time>2017-06-30T14:35:36Z</time>
      </trkpt>
      <trkpt lat="61.188652971759439" lon="10.31788601540029">
        <ele>256.81</ele>
        <time>2017-06-30T14:35:45Z</time>
      </trkpt>
      <trkpt lat="61.190448962152004" lon="10.317356027662754">
        <ele>258.73000000000002</ele>
        <time>2017-06-30T14:35:56Z</time>
      </trkpt>
      <trkpt lat="61.191602982580662" lon="10.316164037212729">
        <ele>260.64999999999998</ele>
        <time>2017-06-30T14:36:04Z</time>
      </trkpt>
      <trkpt lat="61.193757969886065" lon="10.313271023333073">
        <ele>263.06</ele>
        <time>2017-06-30T14:36:20Z</time>
      </trkpt>
      <trkpt lat="61.196232978254557" lon="10.310251023620367">
        <ele>267.38</ele>
        <time>2017-06-30T14:36:38Z</time>
      </trkpt>
      <trkpt lat="61.197808021679521" lon="10.308705987408757">
        <ele>267.86000000000001</ele>
        <time>2017-06-30T14:36:49Z</time>
      </trkpt>
      <trkpt lat="61.199624966830015" lon="10.306808995082974">
        <ele>264.98000000000002</ele>
        <time>2017-06-30T14:37:01Z</time>
      </trkpt>
      <trkpt lat="61.201655985787511" lon="10.3046939894557">
        <ele>263.06</ele>
        <time>2017-06-30T14:37:14Z</time>
      </trkpt>
      <trkpt lat="61.20304998010397" lon="10.302710998803377">
        <ele>262.10000000000002</ele>
        <time>2017-06-30T14:37:24Z</time>
      </trkpt>
      <trkpt lat="61.204949989914894" lon="10.301004024222493">
        <ele>260.64999999999998</ele>
        <time>2017-06-30T14:37:36Z</time>
      </trkpt>
      <trkpt lat="61.207452993839979" lon="10.298693971708417">
        <ele>258.73000000000002</ele>
        <time>2017-06-30T14:37:53Z</time>
      </trkpt>
      <trkpt lat="61.20790402404964" lon="10.298271020874381">
        <ele>258.73000000000002</ele>
        <time>2017-06-30T14:37:58Z</time>
      </trkpt>
      <trkpt lat="61.207949034869671" lon="10.298185022547841">
        <ele>259.20999999999998</ele>
        <time>2017-06-30T14:38:00Z</time>
      </trkpt>
      <trkpt lat="61.207950040698051" lon="10.298145040869713">
        <ele>258.73000000000002</ele>
        <time>2017-06-30T14:38:01Z</time>
      </trkpt>
      <trkpt lat="61.20794802904129" lon="10.298108998686075">
        <ele>258.73000000000002</ele>
        <time>2017-06-30T14:38:02Z</time>
      </trkpt>
      <trkpt lat="61.207939982414246" lon="10.298065999522805">
        <ele>258.73000000000002</ele>
        <time>2017-06-30T14:38:03Z</time>
      </trkpt>
      <trkpt lat="61.207921961322427" lon="10.298030041158199">
        <ele>258.25</ele>
        <time>2017-06-30T14:38:04Z</time>
      </trkpt>
      <trkpt lat="61.207896983250976" lon="10.298005985096097">
        <ele>257.76999999999998</ele>
        <time>2017-06-30T14:38:05Z</time>
      </trkpt>
      <trkpt lat="61.20786496438086" lon="10.297998022288084">
        <ele>257.76999999999998</ele>
        <time>2017-06-30T14:38:06Z</time>
      </trkpt>
      <trkpt lat="61.207829006016254" lon="10.297992993146181">
        <ele>257.29000000000002</ele>
        <time>2017-06-30T14:38:07Z</time>
      </trkpt>
      <trkpt lat="61.207793969660997" lon="10.297997016459703">
        <ele>257.29000000000002</ele>
        <time>2017-06-30T14:38:08Z</time>
      </trkpt>
      <trkpt lat="61.20775599963963" lon="10.298006990924478">
        <ele>256.81</ele>
        <time>2017-06-30T14:38:09Z</time>
      </trkpt>
      <trkpt lat="61.207719035446644" lon="10.298024006187916">
        <ele>256.32999999999998</ele>
        <time>2017-06-30T14:38:10Z</time>
      </trkpt>
    </trkseg>
  </trk>

</gpx>